<?xml version="1.0" encoding="UTF-8" standalone="no" ?>
<gpx xmlns="http://www.topografix.com/GPX/1/1" xmlns:xsi="http://www.w3.org/2001/XMLSchema-instance" xsi:schemaLocation="http://www.topografix.com/GPX/1/1 http://www.topografix.com/GPX/1/1/gpx.xsd" version="1.1" creator="VisuGPX - https://www.visugpx.com">
  <metadata>
    <name>2020-08-27 - Metabief piste verte</name>
    <desc><![CDATA[Descente de la piste verte avec enfant, apres etre monté en telesiege]]></desc>
  </metadata>
  <trk>
    <name><![CDATA[2020-08-27-03]]></name>
    <trkseg>
      <trkpt lat="46.75095" lon="6.3537">
        <ele>1411.1</ele>
        <time>2020-08-27T14:13:28Z</time>
      </trkpt>
      <trkpt lat="46.75095" lon="6.3537">
        <ele>1411</ele>
        <time>2020-08-27T14:13:29Z</time>
      </trkpt>
      <trkpt lat="46.75095" lon="6.3537">
        <ele>1411</ele>
        <time>2020-08-27T14:13:30Z</time>
      </trkpt>
      <trkpt lat="46.75095" lon="6.3537">
        <ele>1411</ele>
        <time>2020-08-27T14:13:31Z</time>
      </trkpt>
      <trkpt lat="46.75095" lon="6.3537">
        <ele>1410.9</ele>
        <time>2020-08-27T14:13:32Z</time>
      </trkpt>
      <trkpt lat="46.75096" lon="6.3537">
        <ele>1410.8</ele>
        <time>2020-08-27T14:13:33Z</time>
      </trkpt>
      <trkpt lat="46.75096" lon="6.3537">
        <ele>1410.7</ele>
        <time>2020-08-27T14:13:34Z</time>
      </trkpt>
      <trkpt lat="46.75096" lon="6.3537">
        <ele>1410.7</ele>
        <time>2020-08-27T14:13:35Z</time>
      </trkpt>
      <trkpt lat="46.75096" lon="6.3537">
        <ele>1410.7</ele>
        <time>2020-08-27T14:13:36Z</time>
      </trkpt>
      <trkpt lat="46.75096" lon="6.3537">
        <ele>1410.6</ele>
        <time>2020-08-27T14:13:37Z</time>
      </trkpt>
      <trkpt lat="46.75096" lon="6.35369">
        <ele>1410.6</ele>
        <time>2020-08-27T14:13:38Z</time>
      </trkpt>
      <trkpt lat="46.75096" lon="6.35369">
        <ele>1410.6</ele>
        <time>2020-08-27T14:13:39Z</time>
      </trkpt>
      <trkpt lat="46.75096" lon="6.35369">
        <ele>1410.6</ele>
        <time>2020-08-27T14:13:40Z</time>
      </trkpt>
      <trkpt lat="46.75096" lon="6.35369">
        <ele>1410.5</ele>
        <time>2020-08-27T14:13:41Z</time>
      </trkpt>
      <trkpt lat="46.75096" lon="6.35368">
        <ele>1410.5</ele>
        <time>2020-08-27T14:13:42Z</time>
      </trkpt>
      <trkpt lat="46.75096" lon="6.35368">
        <ele>1410.5</ele>
        <time>2020-08-27T14:13:43Z</time>
      </trkpt>
      <trkpt lat="46.75096" lon="6.35366">
        <ele>1410.5</ele>
        <time>2020-08-27T14:13:44Z</time>
      </trkpt>
      <trkpt lat="46.75096" lon="6.35365">
        <ele>1410.4</ele>
        <time>2020-08-27T14:13:45Z</time>
      </trkpt>
      <trkpt lat="46.75096" lon="6.35363">
        <ele>1410.4</ele>
        <time>2020-08-27T14:13:46Z</time>
      </trkpt>
      <trkpt lat="46.75097" lon="6.35362">
        <ele>1410.4</ele>
        <time>2020-08-27T14:13:47Z</time>
      </trkpt>
      <trkpt lat="46.75097" lon="6.3536">
        <ele>1410.4</ele>
        <time>2020-08-27T14:13:48Z</time>
      </trkpt>
      <trkpt lat="46.75097" lon="6.35359">
        <ele>1410.4</ele>
        <time>2020-08-27T14:13:49Z</time>
      </trkpt>
      <trkpt lat="46.75097" lon="6.35356">
        <ele>1410.4</ele>
        <time>2020-08-27T14:13:50Z</time>
      </trkpt>
      <trkpt lat="46.75098" lon="6.35353">
        <ele>1410.4</ele>
        <time>2020-08-27T14:13:51Z</time>
      </trkpt>
      <trkpt lat="46.75098" lon="6.35349">
        <ele>1410.4</ele>
        <time>2020-08-27T14:13:52Z</time>
      </trkpt>
      <trkpt lat="46.75098" lon="6.35346">
        <ele>1410.4</ele>
        <time>2020-08-27T14:13:53Z</time>
      </trkpt>
      <trkpt lat="46.75098" lon="6.35342">
        <ele>1410.4</ele>
        <time>2020-08-27T14:13:54Z</time>
      </trkpt>
      <trkpt lat="46.75099" lon="6.35339">
        <ele>1410.4</ele>
        <time>2020-08-27T14:13:55Z</time>
      </trkpt>
      <trkpt lat="46.75099" lon="6.35336">
        <ele>1410.4</ele>
        <time>2020-08-27T14:13:56Z</time>
      </trkpt>
      <trkpt lat="46.75099" lon="6.35333">
        <ele>1410.4</ele>
        <time>2020-08-27T14:13:57Z</time>
      </trkpt>
      <trkpt lat="46.751" lon="6.35329">
        <ele>1410.4</ele>
        <time>2020-08-27T14:13:58Z</time>
      </trkpt>
      <trkpt lat="46.751" lon="6.35326">
        <ele>1410.3</ele>
        <time>2020-08-27T14:13:59Z</time>
      </trkpt>
      <trkpt lat="46.751" lon="6.35323">
        <ele>1410.3</ele>
        <time>2020-08-27T14:14:00Z</time>
      </trkpt>
      <trkpt lat="46.751" lon="6.35319">
        <ele>1410.3</ele>
        <time>2020-08-27T14:14:01Z</time>
      </trkpt>
      <trkpt lat="46.75101" lon="6.35315">
        <ele>1410.2</ele>
        <time>2020-08-27T14:14:02Z</time>
      </trkpt>
      <trkpt lat="46.75102" lon="6.35311">
        <ele>1410.2</ele>
        <time>2020-08-27T14:14:03Z</time>
      </trkpt>
      <trkpt lat="46.75103" lon="6.35306">
        <ele>1410.1</ele>
        <time>2020-08-27T14:14:04Z</time>
      </trkpt>
      <trkpt lat="46.75103" lon="6.35301">
        <ele>1410</ele>
        <time>2020-08-27T14:14:05Z</time>
      </trkpt>
      <trkpt lat="46.75104" lon="6.35296">
        <ele>1409.9</ele>
        <time>2020-08-27T14:14:06Z</time>
      </trkpt>
      <trkpt lat="46.75105" lon="6.35292">
        <ele>1409.8</ele>
        <time>2020-08-27T14:14:07Z</time>
      </trkpt>
      <trkpt lat="46.75105" lon="6.35288">
        <ele>1409.7</ele>
        <time>2020-08-27T14:14:08Z</time>
      </trkpt>
      <trkpt lat="46.75105" lon="6.35283">
        <ele>1409.6</ele>
        <time>2020-08-27T14:14:09Z</time>
      </trkpt>
      <trkpt lat="46.75105" lon="6.35278">
        <ele>1409.5</ele>
        <time>2020-08-27T14:14:10Z</time>
      </trkpt>
      <trkpt lat="46.75105" lon="6.35272">
        <ele>1409.3</ele>
        <time>2020-08-27T14:14:11Z</time>
      </trkpt>
      <trkpt lat="46.75105" lon="6.35267">
        <ele>1409.2</ele>
        <time>2020-08-27T14:14:12Z</time>
      </trkpt>
      <trkpt lat="46.75104" lon="6.35262">
        <ele>1409.1</ele>
        <time>2020-08-27T14:14:13Z</time>
      </trkpt>
      <trkpt lat="46.75103" lon="6.35257">
        <ele>1408.9</ele>
        <time>2020-08-27T14:14:14Z</time>
      </trkpt>
      <trkpt lat="46.75103" lon="6.35253">
        <ele>1408.8</ele>
        <time>2020-08-27T14:14:15Z</time>
      </trkpt>
      <trkpt lat="46.75102" lon="6.35249">
        <ele>1408.6</ele>
        <time>2020-08-27T14:14:16Z</time>
      </trkpt>
      <trkpt lat="46.75101" lon="6.35246">
        <ele>1408.5</ele>
        <time>2020-08-27T14:14:17Z</time>
      </trkpt>
      <trkpt lat="46.751" lon="6.35243">
        <ele>1408.4</ele>
        <time>2020-08-27T14:14:18Z</time>
      </trkpt>
      <trkpt lat="46.751" lon="6.35241">
        <ele>1408.2</ele>
        <time>2020-08-27T14:14:19Z</time>
      </trkpt>
      <trkpt lat="46.75099" lon="6.3524">
        <ele>1408.1</ele>
        <time>2020-08-27T14:14:20Z</time>
      </trkpt>
      <trkpt lat="46.75099" lon="6.35238">
        <ele>1407.9</ele>
        <time>2020-08-27T14:14:21Z</time>
      </trkpt>
      <trkpt lat="46.75098" lon="6.35237">
        <ele>1407.8</ele>
        <time>2020-08-27T14:14:22Z</time>
      </trkpt>
      <trkpt lat="46.75097" lon="6.35235">
        <ele>1407.7</ele>
        <time>2020-08-27T14:14:23Z</time>
      </trkpt>
      <trkpt lat="46.75096" lon="6.35234">
        <ele>1407.5</ele>
        <time>2020-08-27T14:14:24Z</time>
      </trkpt>
      <trkpt lat="46.75095" lon="6.35234">
        <ele>1407.4</ele>
        <time>2020-08-27T14:14:25Z</time>
      </trkpt>
      <trkpt lat="46.75093" lon="6.35234">
        <ele>1407.3</ele>
        <time>2020-08-27T14:14:26Z</time>
      </trkpt>
      <trkpt lat="46.75092" lon="6.35236">
        <ele>1407.1</ele>
        <time>2020-08-27T14:14:27Z</time>
      </trkpt>
      <trkpt lat="46.75092" lon="6.35237">
        <ele>1407</ele>
        <time>2020-08-27T14:14:28Z</time>
      </trkpt>
      <trkpt lat="46.75091" lon="6.35238">
        <ele>1406.8</ele>
        <time>2020-08-27T14:14:29Z</time>
      </trkpt>
      <trkpt lat="46.75091" lon="6.35239">
        <ele>1406.7</ele>
        <time>2020-08-27T14:14:30Z</time>
      </trkpt>
      <trkpt lat="46.75089" lon="6.3524">
        <ele>1406.6</ele>
        <time>2020-08-27T14:14:31Z</time>
      </trkpt>
      <trkpt lat="46.75088" lon="6.35241">
        <ele>1406.4</ele>
        <time>2020-08-27T14:14:32Z</time>
      </trkpt>
      <trkpt lat="46.75087" lon="6.35242">
        <ele>1406.3</ele>
        <time>2020-08-27T14:14:33Z</time>
      </trkpt>
      <trkpt lat="46.75085" lon="6.35243">
        <ele>1406.1</ele>
        <time>2020-08-27T14:14:34Z</time>
      </trkpt>
      <trkpt lat="46.75084" lon="6.35244">
        <ele>1406</ele>
        <time>2020-08-27T14:14:35Z</time>
      </trkpt>
      <trkpt lat="46.75083" lon="6.35245">
        <ele>1405.9</ele>
        <time>2020-08-27T14:14:36Z</time>
      </trkpt>
      <trkpt lat="46.75082" lon="6.35247">
        <ele>1405.8</ele>
        <time>2020-08-27T14:14:37Z</time>
      </trkpt>
      <trkpt lat="46.75081" lon="6.3525">
        <ele>1405.6</ele>
        <time>2020-08-27T14:14:38Z</time>
      </trkpt>
      <trkpt lat="46.75081" lon="6.35253">
        <ele>1405.5</ele>
        <time>2020-08-27T14:14:39Z</time>
      </trkpt>
      <trkpt lat="46.7508" lon="6.35257">
        <ele>1405.4</ele>
        <time>2020-08-27T14:14:40Z</time>
      </trkpt>
      <trkpt lat="46.7508" lon="6.35261">
        <ele>1405.4</ele>
        <time>2020-08-27T14:14:41Z</time>
      </trkpt>
      <trkpt lat="46.75079" lon="6.35265">
        <ele>1405.3</ele>
        <time>2020-08-27T14:14:42Z</time>
      </trkpt>
      <trkpt lat="46.75078" lon="6.3527">
        <ele>1405.2</ele>
        <time>2020-08-27T14:14:43Z</time>
      </trkpt>
      <trkpt lat="46.75076" lon="6.35274">
        <ele>1405.1</ele>
        <time>2020-08-27T14:14:44Z</time>
      </trkpt>
      <trkpt lat="46.75074" lon="6.35278">
        <ele>1405</ele>
        <time>2020-08-27T14:14:45Z</time>
      </trkpt>
      <trkpt lat="46.75074" lon="6.35284">
        <ele>1404.7</ele>
        <time>2020-08-27T14:14:46Z</time>
      </trkpt>
      <trkpt lat="46.75074" lon="6.35289">
        <ele>1404.5</ele>
        <time>2020-08-27T14:14:47Z</time>
      </trkpt>
      <trkpt lat="46.75073" lon="6.35292">
        <ele>1404.2</ele>
        <time>2020-08-27T14:14:48Z</time>
      </trkpt>
      <trkpt lat="46.7507" lon="6.35292">
        <ele>1404</ele>
        <time>2020-08-27T14:14:49Z</time>
      </trkpt>
      <trkpt lat="46.75069" lon="6.35288">
        <ele>1403.7</ele>
        <time>2020-08-27T14:14:50Z</time>
      </trkpt>
      <trkpt lat="46.75069" lon="6.35283">
        <ele>1403.5</ele>
        <time>2020-08-27T14:14:51Z</time>
      </trkpt>
      <trkpt lat="46.75069" lon="6.35278">
        <ele>1403.3</ele>
        <time>2020-08-27T14:14:52Z</time>
      </trkpt>
      <trkpt lat="46.75069" lon="6.35274">
        <ele>1403.1</ele>
        <time>2020-08-27T14:14:53Z</time>
      </trkpt>
      <trkpt lat="46.75069" lon="6.35268">
        <ele>1403</ele>
        <time>2020-08-27T14:14:54Z</time>
      </trkpt>
      <trkpt lat="46.75069" lon="6.35262">
        <ele>1402.8</ele>
        <time>2020-08-27T14:14:55Z</time>
      </trkpt>
      <trkpt lat="46.75069" lon="6.35256">
        <ele>1402.6</ele>
        <time>2020-08-27T14:14:56Z</time>
      </trkpt>
      <trkpt lat="46.75068" lon="6.3525">
        <ele>1402.4</ele>
        <time>2020-08-27T14:14:57Z</time>
      </trkpt>
      <trkpt lat="46.75068" lon="6.35244">
        <ele>1402.1</ele>
        <time>2020-08-27T14:14:58Z</time>
      </trkpt>
      <trkpt lat="46.75067" lon="6.35239">
        <ele>1401.9</ele>
        <time>2020-08-27T14:14:59Z</time>
      </trkpt>
      <trkpt lat="46.75065" lon="6.35234">
        <ele>1401.7</ele>
        <time>2020-08-27T14:15:00Z</time>
      </trkpt>
      <trkpt lat="46.75064" lon="6.35229">
        <ele>1401.5</ele>
        <time>2020-08-27T14:15:01Z</time>
      </trkpt>
      <trkpt lat="46.75063" lon="6.35224">
        <ele>1401.3</ele>
        <time>2020-08-27T14:15:02Z</time>
      </trkpt>
      <trkpt lat="46.75062" lon="6.35219">
        <ele>1401.1</ele>
        <time>2020-08-27T14:15:03Z</time>
      </trkpt>
      <trkpt lat="46.75062" lon="6.35214">
        <ele>1400.9</ele>
        <time>2020-08-27T14:15:04Z</time>
      </trkpt>
      <trkpt lat="46.7506" lon="6.35208">
        <ele>1400.7</ele>
        <time>2020-08-27T14:15:05Z</time>
      </trkpt>
      <trkpt lat="46.75059" lon="6.35202">
        <ele>1400.5</ele>
        <time>2020-08-27T14:15:06Z</time>
      </trkpt>
      <trkpt lat="46.75058" lon="6.35198">
        <ele>1400.3</ele>
        <time>2020-08-27T14:15:07Z</time>
      </trkpt>
      <trkpt lat="46.75058" lon="6.35194">
        <ele>1400</ele>
        <time>2020-08-27T14:15:08Z</time>
      </trkpt>
      <trkpt lat="46.75057" lon="6.35189">
        <ele>1399.8</ele>
        <time>2020-08-27T14:15:09Z</time>
      </trkpt>
      <trkpt lat="46.75056" lon="6.35184">
        <ele>1399.6</ele>
        <time>2020-08-27T14:15:10Z</time>
      </trkpt>
      <trkpt lat="46.75055" lon="6.35179">
        <ele>1399.4</ele>
        <time>2020-08-27T14:15:11Z</time>
      </trkpt>
      <trkpt lat="46.75053" lon="6.35175">
        <ele>1399.1</ele>
        <time>2020-08-27T14:15:12Z</time>
      </trkpt>
      <trkpt lat="46.75052" lon="6.35172">
        <ele>1398.9</ele>
        <time>2020-08-27T14:15:13Z</time>
      </trkpt>
      <trkpt lat="46.75051" lon="6.35168">
        <ele>1398.7</ele>
        <time>2020-08-27T14:15:14Z</time>
      </trkpt>
      <trkpt lat="46.75051" lon="6.35165">
        <ele>1398.5</ele>
        <time>2020-08-27T14:15:15Z</time>
      </trkpt>
      <trkpt lat="46.7505" lon="6.35162">
        <ele>1398.4</ele>
        <time>2020-08-27T14:15:16Z</time>
      </trkpt>
      <trkpt lat="46.7505" lon="6.35159">
        <ele>1398.2</ele>
        <time>2020-08-27T14:15:17Z</time>
      </trkpt>
      <trkpt lat="46.7505" lon="6.35157">
        <ele>1398</ele>
        <time>2020-08-27T14:15:18Z</time>
      </trkpt>
      <trkpt lat="46.7505" lon="6.35156">
        <ele>1397.8</ele>
        <time>2020-08-27T14:15:19Z</time>
      </trkpt>
      <trkpt lat="46.75049" lon="6.35156">
        <ele>1397.6</ele>
        <time>2020-08-27T14:15:20Z</time>
      </trkpt>
      <trkpt lat="46.75049" lon="6.35156">
        <ele>1397.4</ele>
        <time>2020-08-27T14:15:21Z</time>
      </trkpt>
      <trkpt lat="46.75049" lon="6.35155">
        <ele>1397.3</ele>
        <time>2020-08-27T14:15:22Z</time>
      </trkpt>
      <trkpt lat="46.75049" lon="6.35155">
        <ele>1397.1</ele>
        <time>2020-08-27T14:15:23Z</time>
      </trkpt>
      <trkpt lat="46.75049" lon="6.35155">
        <ele>1396.9</ele>
        <time>2020-08-27T14:15:24Z</time>
      </trkpt>
      <trkpt lat="46.75049" lon="6.35154">
        <ele>1396.8</ele>
        <time>2020-08-27T14:15:25Z</time>
      </trkpt>
      <trkpt lat="46.75049" lon="6.35154">
        <ele>1396.6</ele>
        <time>2020-08-27T14:15:26Z</time>
      </trkpt>
      <trkpt lat="46.75049" lon="6.35153">
        <ele>1396.5</ele>
        <time>2020-08-27T14:15:27Z</time>
      </trkpt>
      <trkpt lat="46.75049" lon="6.35153">
        <ele>1396.3</ele>
        <time>2020-08-27T14:15:28Z</time>
      </trkpt>
      <trkpt lat="46.75049" lon="6.35152">
        <ele>1396.1</ele>
        <time>2020-08-27T14:15:29Z</time>
      </trkpt>
      <trkpt lat="46.75049" lon="6.35152">
        <ele>1396</ele>
        <time>2020-08-27T14:15:30Z</time>
      </trkpt>
      <trkpt lat="46.75048" lon="6.35152">
        <ele>1395.8</ele>
        <time>2020-08-27T14:15:31Z</time>
      </trkpt>
      <trkpt lat="46.75048" lon="6.35151">
        <ele>1395.6</ele>
        <time>2020-08-27T14:15:32Z</time>
      </trkpt>
      <trkpt lat="46.75048" lon="6.35151">
        <ele>1395.4</ele>
        <time>2020-08-27T14:15:33Z</time>
      </trkpt>
      <trkpt lat="46.75048" lon="6.35151">
        <ele>1395.3</ele>
        <time>2020-08-27T14:15:34Z</time>
      </trkpt>
      <trkpt lat="46.75048" lon="6.35151">
        <ele>1395.1</ele>
        <time>2020-08-27T14:15:35Z</time>
      </trkpt>
      <trkpt lat="46.75048" lon="6.35152">
        <ele>1395</ele>
        <time>2020-08-27T14:15:36Z</time>
      </trkpt>
      <trkpt lat="46.75048" lon="6.35152">
        <ele>1394.9</ele>
        <time>2020-08-27T14:15:37Z</time>
      </trkpt>
      <trkpt lat="46.75048" lon="6.35152">
        <ele>1394.7</ele>
        <time>2020-08-27T14:15:38Z</time>
      </trkpt>
      <trkpt lat="46.75048" lon="6.35152">
        <ele>1394.6</ele>
        <time>2020-08-27T14:15:39Z</time>
      </trkpt>
      <trkpt lat="46.75048" lon="6.35152">
        <ele>1394.5</ele>
        <time>2020-08-27T14:15:40Z</time>
      </trkpt>
      <trkpt lat="46.75048" lon="6.35152">
        <ele>1394.4</ele>
        <time>2020-08-27T14:15:41Z</time>
      </trkpt>
      <trkpt lat="46.75048" lon="6.35152">
        <ele>1394.3</ele>
        <time>2020-08-27T14:15:42Z</time>
      </trkpt>
      <trkpt lat="46.75047" lon="6.35152">
        <ele>1394.2</ele>
        <time>2020-08-27T14:15:43Z</time>
      </trkpt>
      <trkpt lat="46.75047" lon="6.35152">
        <ele>1394.1</ele>
        <time>2020-08-27T14:15:44Z</time>
      </trkpt>
      <trkpt lat="46.75047" lon="6.35153">
        <ele>1394</ele>
        <time>2020-08-27T14:15:45Z</time>
      </trkpt>
      <trkpt lat="46.75047" lon="6.35153">
        <ele>1394</ele>
        <time>2020-08-27T14:15:46Z</time>
      </trkpt>
      <trkpt lat="46.75047" lon="6.35153">
        <ele>1393.9</ele>
        <time>2020-08-27T14:15:47Z</time>
      </trkpt>
      <trkpt lat="46.75047" lon="6.35153">
        <ele>1393.8</ele>
        <time>2020-08-27T14:15:48Z</time>
      </trkpt>
      <trkpt lat="46.75047" lon="6.35154">
        <ele>1393.7</ele>
        <time>2020-08-27T14:15:49Z</time>
      </trkpt>
      <trkpt lat="46.75047" lon="6.35153">
        <ele>1393.7</ele>
        <time>2020-08-27T14:15:50Z</time>
      </trkpt>
      <trkpt lat="46.75046" lon="6.35153">
        <ele>1393.6</ele>
        <time>2020-08-27T14:15:51Z</time>
      </trkpt>
      <trkpt lat="46.75046" lon="6.35154">
        <ele>1393.6</ele>
        <time>2020-08-27T14:15:52Z</time>
      </trkpt>
      <trkpt lat="46.75046" lon="6.35154">
        <ele>1393.5</ele>
        <time>2020-08-27T14:15:53Z</time>
      </trkpt>
      <trkpt lat="46.75046" lon="6.35154">
        <ele>1393.4</ele>
        <time>2020-08-27T14:15:54Z</time>
      </trkpt>
      <trkpt lat="46.75046" lon="6.35154">
        <ele>1393.4</ele>
        <time>2020-08-27T14:15:55Z</time>
      </trkpt>
      <trkpt lat="46.75046" lon="6.35154">
        <ele>1393.3</ele>
        <time>2020-08-27T14:15:56Z</time>
      </trkpt>
      <trkpt lat="46.75046" lon="6.35154">
        <ele>1393.3</ele>
        <time>2020-08-27T14:15:57Z</time>
      </trkpt>
      <trkpt lat="46.75045" lon="6.35154">
        <ele>1393.2</ele>
        <time>2020-08-27T14:15:58Z</time>
      </trkpt>
      <trkpt lat="46.75045" lon="6.35154">
        <ele>1393.2</ele>
        <time>2020-08-27T14:15:59Z</time>
      </trkpt>
      <trkpt lat="46.75046" lon="6.35153">
        <ele>1393.2</ele>
        <time>2020-08-27T14:16:00Z</time>
      </trkpt>
      <trkpt lat="46.75047" lon="6.35151">
        <ele>1393.1</ele>
        <time>2020-08-27T14:16:01Z</time>
      </trkpt>
      <trkpt lat="46.75047" lon="6.35151">
        <ele>1393.1</ele>
        <time>2020-08-27T14:16:02Z</time>
      </trkpt>
      <trkpt lat="46.75048" lon="6.3515">
        <ele>1393</ele>
        <time>2020-08-27T14:16:03Z</time>
      </trkpt>
      <trkpt lat="46.75049" lon="6.35148">
        <ele>1393</ele>
        <time>2020-08-27T14:16:04Z</time>
      </trkpt>
      <trkpt lat="46.7505" lon="6.35147">
        <ele>1393</ele>
        <time>2020-08-27T14:16:05Z</time>
      </trkpt>
      <trkpt lat="46.75052" lon="6.35145">
        <ele>1392.9</ele>
        <time>2020-08-27T14:16:06Z</time>
      </trkpt>
      <trkpt lat="46.75055" lon="6.35143">
        <ele>1392.9</ele>
        <time>2020-08-27T14:16:07Z</time>
      </trkpt>
      <trkpt lat="46.75058" lon="6.35143">
        <ele>1392.9</ele>
        <time>2020-08-27T14:16:08Z</time>
      </trkpt>
      <trkpt lat="46.75061" lon="6.35143">
        <ele>1392.9</ele>
        <time>2020-08-27T14:16:09Z</time>
      </trkpt>
      <trkpt lat="46.75063" lon="6.35143">
        <ele>1392.8</ele>
        <time>2020-08-27T14:16:10Z</time>
      </trkpt>
      <trkpt lat="46.75066" lon="6.35144">
        <ele>1392.8</ele>
        <time>2020-08-27T14:16:11Z</time>
      </trkpt>
      <trkpt lat="46.7507" lon="6.35146">
        <ele>1392.8</ele>
        <time>2020-08-27T14:16:12Z</time>
      </trkpt>
      <trkpt lat="46.75073" lon="6.35147">
        <ele>1392.7</ele>
        <time>2020-08-27T14:16:13Z</time>
      </trkpt>
      <trkpt lat="46.75078" lon="6.35149">
        <ele>1392.7</ele>
        <time>2020-08-27T14:16:14Z</time>
      </trkpt>
      <trkpt lat="46.75084" lon="6.3515">
        <ele>1392.7</ele>
        <time>2020-08-27T14:16:15Z</time>
      </trkpt>
      <trkpt lat="46.75088" lon="6.35151">
        <ele>1392.5</ele>
        <time>2020-08-27T14:16:16Z</time>
      </trkpt>
      <trkpt lat="46.75092" lon="6.35152">
        <ele>1392.3</ele>
        <time>2020-08-27T14:16:17Z</time>
      </trkpt>
      <trkpt lat="46.75095" lon="6.35152">
        <ele>1392.1</ele>
        <time>2020-08-27T14:16:18Z</time>
      </trkpt>
      <trkpt lat="46.75098" lon="6.35152">
        <ele>1391.9</ele>
        <time>2020-08-27T14:16:19Z</time>
      </trkpt>
      <trkpt lat="46.751" lon="6.35152">
        <ele>1391.8</ele>
        <time>2020-08-27T14:16:20Z</time>
      </trkpt>
      <trkpt lat="46.75103" lon="6.35152">
        <ele>1391.6</ele>
        <time>2020-08-27T14:16:21Z</time>
      </trkpt>
      <trkpt lat="46.75106" lon="6.35151">
        <ele>1391.5</ele>
        <time>2020-08-27T14:16:22Z</time>
      </trkpt>
      <trkpt lat="46.75109" lon="6.35151">
        <ele>1391.4</ele>
        <time>2020-08-27T14:16:23Z</time>
      </trkpt>
      <trkpt lat="46.75112" lon="6.35152">
        <ele>1391.2</ele>
        <time>2020-08-27T14:16:24Z</time>
      </trkpt>
      <trkpt lat="46.75114" lon="6.35153">
        <ele>1391</ele>
        <time>2020-08-27T14:16:25Z</time>
      </trkpt>
      <trkpt lat="46.75116" lon="6.35154">
        <ele>1390.8</ele>
        <time>2020-08-27T14:16:26Z</time>
      </trkpt>
      <trkpt lat="46.75117" lon="6.35155">
        <ele>1390.7</ele>
        <time>2020-08-27T14:16:27Z</time>
      </trkpt>
      <trkpt lat="46.75119" lon="6.35157">
        <ele>1390.5</ele>
        <time>2020-08-27T14:16:28Z</time>
      </trkpt>
      <trkpt lat="46.7512" lon="6.35159">
        <ele>1390.4</ele>
        <time>2020-08-27T14:16:29Z</time>
      </trkpt>
      <trkpt lat="46.75122" lon="6.35162">
        <ele>1390.3</ele>
        <time>2020-08-27T14:16:30Z</time>
      </trkpt>
      <trkpt lat="46.75124" lon="6.35166">
        <ele>1390</ele>
        <time>2020-08-27T14:16:31Z</time>
      </trkpt>
      <trkpt lat="46.75127" lon="6.3517">
        <ele>1389.7</ele>
        <time>2020-08-27T14:16:32Z</time>
      </trkpt>
      <trkpt lat="46.75129" lon="6.35174">
        <ele>1389.5</ele>
        <time>2020-08-27T14:16:33Z</time>
      </trkpt>
      <trkpt lat="46.7513" lon="6.35178">
        <ele>1389.2</ele>
        <time>2020-08-27T14:16:34Z</time>
      </trkpt>
      <trkpt lat="46.75132" lon="6.35182">
        <ele>1389</ele>
        <time>2020-08-27T14:16:35Z</time>
      </trkpt>
      <trkpt lat="46.75133" lon="6.35184">
        <ele>1388.8</ele>
        <time>2020-08-27T14:16:36Z</time>
      </trkpt>
      <trkpt lat="46.75136" lon="6.35187">
        <ele>1388.6</ele>
        <time>2020-08-27T14:16:37Z</time>
      </trkpt>
      <trkpt lat="46.75139" lon="6.3519">
        <ele>1388.4</ele>
        <time>2020-08-27T14:16:38Z</time>
      </trkpt>
      <trkpt lat="46.75141" lon="6.35193">
        <ele>1388.1</ele>
        <time>2020-08-27T14:16:39Z</time>
      </trkpt>
      <trkpt lat="46.75143" lon="6.35197">
        <ele>1387.9</ele>
        <time>2020-08-27T14:16:40Z</time>
      </trkpt>
      <trkpt lat="46.75146" lon="6.35201">
        <ele>1387.6</ele>
        <time>2020-08-27T14:16:41Z</time>
      </trkpt>
      <trkpt lat="46.75148" lon="6.35205">
        <ele>1387.4</ele>
        <time>2020-08-27T14:16:42Z</time>
      </trkpt>
      <trkpt lat="46.7515" lon="6.35209">
        <ele>1387</ele>
        <time>2020-08-27T14:16:43Z</time>
      </trkpt>
      <trkpt lat="46.75152" lon="6.35213">
        <ele>1386.7</ele>
        <time>2020-08-27T14:16:44Z</time>
      </trkpt>
      <trkpt lat="46.75154" lon="6.35218">
        <ele>1386.4</ele>
        <time>2020-08-27T14:16:45Z</time>
      </trkpt>
      <trkpt lat="46.75156" lon="6.35222">
        <ele>1386</ele>
        <time>2020-08-27T14:16:46Z</time>
      </trkpt>
      <trkpt lat="46.75159" lon="6.35227">
        <ele>1385.5</ele>
        <time>2020-08-27T14:16:47Z</time>
      </trkpt>
      <trkpt lat="46.75162" lon="6.35232">
        <ele>1385.1</ele>
        <time>2020-08-27T14:16:48Z</time>
      </trkpt>
      <trkpt lat="46.75164" lon="6.35236">
        <ele>1384.6</ele>
        <time>2020-08-27T14:16:49Z</time>
      </trkpt>
      <trkpt lat="46.75165" lon="6.35239">
        <ele>1384.2</ele>
        <time>2020-08-27T14:16:50Z</time>
      </trkpt>
      <trkpt lat="46.75167" lon="6.35243">
        <ele>1383.8</ele>
        <time>2020-08-27T14:16:51Z</time>
      </trkpt>
      <trkpt lat="46.75169" lon="6.35247">
        <ele>1383.5</ele>
        <time>2020-08-27T14:16:52Z</time>
      </trkpt>
      <trkpt lat="46.75172" lon="6.3525">
        <ele>1383.2</ele>
        <time>2020-08-27T14:16:53Z</time>
      </trkpt>
      <trkpt lat="46.75174" lon="6.35254">
        <ele>1383</ele>
        <time>2020-08-27T14:16:54Z</time>
      </trkpt>
      <trkpt lat="46.75176" lon="6.35258">
        <ele>1382.9</ele>
        <time>2020-08-27T14:16:55Z</time>
      </trkpt>
      <trkpt lat="46.75178" lon="6.35261">
        <ele>1382.7</ele>
        <time>2020-08-27T14:16:56Z</time>
      </trkpt>
      <trkpt lat="46.75179" lon="6.35264">
        <ele>1382.6</ele>
        <time>2020-08-27T14:16:57Z</time>
      </trkpt>
      <trkpt lat="46.75181" lon="6.35267">
        <ele>1382.4</ele>
        <time>2020-08-27T14:16:58Z</time>
      </trkpt>
      <trkpt lat="46.75183" lon="6.35269">
        <ele>1382.2</ele>
        <time>2020-08-27T14:16:59Z</time>
      </trkpt>
      <trkpt lat="46.75185" lon="6.35269">
        <ele>1382.1</ele>
        <time>2020-08-27T14:17:00Z</time>
      </trkpt>
      <trkpt lat="46.75187" lon="6.3527">
        <ele>1381.9</ele>
        <time>2020-08-27T14:17:01Z</time>
      </trkpt>
      <trkpt lat="46.75189" lon="6.35271">
        <ele>1381.8</ele>
        <time>2020-08-27T14:17:02Z</time>
      </trkpt>
      <trkpt lat="46.75192" lon="6.35272">
        <ele>1381.6</ele>
        <time>2020-08-27T14:17:03Z</time>
      </trkpt>
      <trkpt lat="46.75194" lon="6.35275">
        <ele>1381.5</ele>
        <time>2020-08-27T14:17:04Z</time>
      </trkpt>
      <trkpt lat="46.75196" lon="6.35277">
        <ele>1381.3</ele>
        <time>2020-08-27T14:17:05Z</time>
      </trkpt>
      <trkpt lat="46.75197" lon="6.35279">
        <ele>1381.1</ele>
        <time>2020-08-27T14:17:06Z</time>
      </trkpt>
      <trkpt lat="46.75198" lon="6.3528">
        <ele>1380.9</ele>
        <time>2020-08-27T14:17:07Z</time>
      </trkpt>
      <trkpt lat="46.752" lon="6.35281">
        <ele>1380.7</ele>
        <time>2020-08-27T14:17:08Z</time>
      </trkpt>
      <trkpt lat="46.75202" lon="6.35281">
        <ele>1380.4</ele>
        <time>2020-08-27T14:17:09Z</time>
      </trkpt>
      <trkpt lat="46.75203" lon="6.35281">
        <ele>1380.2</ele>
        <time>2020-08-27T14:17:10Z</time>
      </trkpt>
      <trkpt lat="46.75205" lon="6.35282">
        <ele>1380</ele>
        <time>2020-08-27T14:17:11Z</time>
      </trkpt>
      <trkpt lat="46.75207" lon="6.35285">
        <ele>1379.7</ele>
        <time>2020-08-27T14:17:12Z</time>
      </trkpt>
      <trkpt lat="46.75209" lon="6.35289">
        <ele>1379.5</ele>
        <time>2020-08-27T14:17:13Z</time>
      </trkpt>
      <trkpt lat="46.7521" lon="6.35292">
        <ele>1379.3</ele>
        <time>2020-08-27T14:17:14Z</time>
      </trkpt>
      <trkpt lat="46.75211" lon="6.35296">
        <ele>1379.1</ele>
        <time>2020-08-27T14:17:15Z</time>
      </trkpt>
      <trkpt lat="46.75211" lon="6.35298">
        <ele>1378.8</ele>
        <time>2020-08-27T14:17:16Z</time>
      </trkpt>
      <trkpt lat="46.75212" lon="6.35301">
        <ele>1378.6</ele>
        <time>2020-08-27T14:17:17Z</time>
      </trkpt>
      <trkpt lat="46.75214" lon="6.35303">
        <ele>1378.4</ele>
        <time>2020-08-27T14:17:18Z</time>
      </trkpt>
      <trkpt lat="46.75215" lon="6.35307">
        <ele>1378.2</ele>
        <time>2020-08-27T14:17:19Z</time>
      </trkpt>
      <trkpt lat="46.75216" lon="6.3531">
        <ele>1378</ele>
        <time>2020-08-27T14:17:20Z</time>
      </trkpt>
      <trkpt lat="46.75216" lon="6.35312">
        <ele>1377.8</ele>
        <time>2020-08-27T14:17:21Z</time>
      </trkpt>
      <trkpt lat="46.75217" lon="6.35314">
        <ele>1377.5</ele>
        <time>2020-08-27T14:17:22Z</time>
      </trkpt>
      <trkpt lat="46.75218" lon="6.35316">
        <ele>1377.2</ele>
        <time>2020-08-27T14:17:23Z</time>
      </trkpt>
      <trkpt lat="46.75219" lon="6.35318">
        <ele>1377</ele>
        <time>2020-08-27T14:17:24Z</time>
      </trkpt>
      <trkpt lat="46.75219" lon="6.3532">
        <ele>1376.8</ele>
        <time>2020-08-27T14:17:25Z</time>
      </trkpt>
      <trkpt lat="46.7522" lon="6.35322">
        <ele>1376.6</ele>
        <time>2020-08-27T14:17:26Z</time>
      </trkpt>
      <trkpt lat="46.75221" lon="6.35324">
        <ele>1376.4</ele>
        <time>2020-08-27T14:17:27Z</time>
      </trkpt>
      <trkpt lat="46.75221" lon="6.35324">
        <ele>1376.2</ele>
        <time>2020-08-27T14:17:28Z</time>
      </trkpt>
      <trkpt lat="46.75222" lon="6.35324">
        <ele>1376</ele>
        <time>2020-08-27T14:17:29Z</time>
      </trkpt>
      <trkpt lat="46.75224" lon="6.35323">
        <ele>1375.8</ele>
        <time>2020-08-27T14:17:30Z</time>
      </trkpt>
      <trkpt lat="46.75225" lon="6.35322">
        <ele>1375.6</ele>
        <time>2020-08-27T14:17:31Z</time>
      </trkpt>
      <trkpt lat="46.75227" lon="6.3532">
        <ele>1375.2</ele>
        <time>2020-08-27T14:17:32Z</time>
      </trkpt>
      <trkpt lat="46.75227" lon="6.35319">
        <ele>1374.9</ele>
        <time>2020-08-27T14:17:33Z</time>
      </trkpt>
      <trkpt lat="46.75227" lon="6.35317">
        <ele>1374.6</ele>
        <time>2020-08-27T14:17:34Z</time>
      </trkpt>
      <trkpt lat="46.75227" lon="6.35317">
        <ele>1374.4</ele>
        <time>2020-08-27T14:17:35Z</time>
      </trkpt>
      <trkpt lat="46.75227" lon="6.35316">
        <ele>1374.1</ele>
        <time>2020-08-27T14:17:36Z</time>
      </trkpt>
      <trkpt lat="46.75227" lon="6.35316">
        <ele>1373.9</ele>
        <time>2020-08-27T14:17:37Z</time>
      </trkpt>
      <trkpt lat="46.75226" lon="6.35316">
        <ele>1373.6</ele>
        <time>2020-08-27T14:17:38Z</time>
      </trkpt>
      <trkpt lat="46.75226" lon="6.35316">
        <ele>1373.4</ele>
        <time>2020-08-27T14:17:39Z</time>
      </trkpt>
      <trkpt lat="46.75226" lon="6.35316">
        <ele>1373.2</ele>
        <time>2020-08-27T14:17:40Z</time>
      </trkpt>
      <trkpt lat="46.75227" lon="6.35317">
        <ele>1373</ele>
        <time>2020-08-27T14:17:41Z</time>
      </trkpt>
      <trkpt lat="46.75227" lon="6.35317">
        <ele>1372.9</ele>
        <time>2020-08-27T14:17:42Z</time>
      </trkpt>
      <trkpt lat="46.75227" lon="6.35317">
        <ele>1372.7</ele>
        <time>2020-08-27T14:17:43Z</time>
      </trkpt>
      <trkpt lat="46.75227" lon="6.35317">
        <ele>1372.6</ele>
        <time>2020-08-27T14:17:44Z</time>
      </trkpt>
      <trkpt lat="46.75227" lon="6.35318">
        <ele>1372.5</ele>
        <time>2020-08-27T14:17:45Z</time>
      </trkpt>
      <trkpt lat="46.75227" lon="6.35318">
        <ele>1372.4</ele>
        <time>2020-08-27T14:17:46Z</time>
      </trkpt>
      <trkpt lat="46.75227" lon="6.35318">
        <ele>1372.2</ele>
        <time>2020-08-27T14:17:47Z</time>
      </trkpt>
      <trkpt lat="46.75227" lon="6.35318">
        <ele>1372.1</ele>
        <time>2020-08-27T14:17:48Z</time>
      </trkpt>
      <trkpt lat="46.75227" lon="6.35318">
        <ele>1372</ele>
        <time>2020-08-27T14:17:49Z</time>
      </trkpt>
      <trkpt lat="46.75227" lon="6.35319">
        <ele>1371.9</ele>
        <time>2020-08-27T14:17:50Z</time>
      </trkpt>
      <trkpt lat="46.75228" lon="6.3532">
        <ele>1371.8</ele>
        <time>2020-08-27T14:17:51Z</time>
      </trkpt>
      <trkpt lat="46.75227" lon="6.3532">
        <ele>1371.7</ele>
        <time>2020-08-27T14:17:52Z</time>
      </trkpt>
      <trkpt lat="46.75227" lon="6.3532">
        <ele>1371.7</ele>
        <time>2020-08-27T14:17:53Z</time>
      </trkpt>
      <trkpt lat="46.75228" lon="6.35321">
        <ele>1371.6</ele>
        <time>2020-08-27T14:17:54Z</time>
      </trkpt>
      <trkpt lat="46.75228" lon="6.35321">
        <ele>1371.5</ele>
        <time>2020-08-27T14:17:55Z</time>
      </trkpt>
      <trkpt lat="46.75228" lon="6.35321">
        <ele>1371.5</ele>
        <time>2020-08-27T14:17:56Z</time>
      </trkpt>
      <trkpt lat="46.75228" lon="6.35321">
        <ele>1371.4</ele>
        <time>2020-08-27T14:17:57Z</time>
      </trkpt>
      <trkpt lat="46.75227" lon="6.35321">
        <ele>1371.4</ele>
        <time>2020-08-27T14:17:58Z</time>
      </trkpt>
      <trkpt lat="46.75227" lon="6.35322">
        <ele>1371.3</ele>
        <time>2020-08-27T14:17:59Z</time>
      </trkpt>
      <trkpt lat="46.75226" lon="6.35322">
        <ele>1371.3</ele>
        <time>2020-08-27T14:18:00Z</time>
      </trkpt>
      <trkpt lat="46.75227" lon="6.35322">
        <ele>1371.2</ele>
        <time>2020-08-27T14:18:01Z</time>
      </trkpt>
      <trkpt lat="46.75227" lon="6.35322">
        <ele>1371.2</ele>
        <time>2020-08-27T14:18:02Z</time>
      </trkpt>
      <trkpt lat="46.75226" lon="6.35322">
        <ele>1371.1</ele>
        <time>2020-08-27T14:18:03Z</time>
      </trkpt>
      <trkpt lat="46.75226" lon="6.35322">
        <ele>1371</ele>
        <time>2020-08-27T14:18:04Z</time>
      </trkpt>
      <trkpt lat="46.75226" lon="6.35322">
        <ele>1370.9</ele>
        <time>2020-08-27T14:18:05Z</time>
      </trkpt>
      <trkpt lat="46.75226" lon="6.35322">
        <ele>1370.9</ele>
        <time>2020-08-27T14:18:06Z</time>
      </trkpt>
      <trkpt lat="46.75225" lon="6.35323">
        <ele>1370.8</ele>
        <time>2020-08-27T14:18:07Z</time>
      </trkpt>
      <trkpt lat="46.75225" lon="6.35323">
        <ele>1370.8</ele>
        <time>2020-08-27T14:18:08Z</time>
      </trkpt>
      <trkpt lat="46.75224" lon="6.35323">
        <ele>1370.8</ele>
        <time>2020-08-27T14:18:09Z</time>
      </trkpt>
      <trkpt lat="46.75224" lon="6.35323">
        <ele>1370.8</ele>
        <time>2020-08-27T14:18:10Z</time>
      </trkpt>
      <trkpt lat="46.75224" lon="6.35323">
        <ele>1370.7</ele>
        <time>2020-08-27T14:18:11Z</time>
      </trkpt>
      <trkpt lat="46.75224" lon="6.35323">
        <ele>1370.7</ele>
        <time>2020-08-27T14:18:12Z</time>
      </trkpt>
      <trkpt lat="46.75224" lon="6.35323">
        <ele>1370.7</ele>
        <time>2020-08-27T14:18:13Z</time>
      </trkpt>
      <trkpt lat="46.75224" lon="6.35323">
        <ele>1370.7</ele>
        <time>2020-08-27T14:18:14Z</time>
      </trkpt>
      <trkpt lat="46.75224" lon="6.35324">
        <ele>1370.7</ele>
        <time>2020-08-27T14:18:15Z</time>
      </trkpt>
      <trkpt lat="46.75224" lon="6.35323">
        <ele>1370.6</ele>
        <time>2020-08-27T14:18:16Z</time>
      </trkpt>
      <trkpt lat="46.75224" lon="6.35323">
        <ele>1370.6</ele>
        <time>2020-08-27T14:18:17Z</time>
      </trkpt>
      <trkpt lat="46.75224" lon="6.35323">
        <ele>1370.6</ele>
        <time>2020-08-27T14:18:18Z</time>
      </trkpt>
      <trkpt lat="46.75224" lon="6.35322">
        <ele>1370.6</ele>
        <time>2020-08-27T14:18:19Z</time>
      </trkpt>
      <trkpt lat="46.75224" lon="6.35321">
        <ele>1370.6</ele>
        <time>2020-08-27T14:18:20Z</time>
      </trkpt>
      <trkpt lat="46.75224" lon="6.35321">
        <ele>1370.6</ele>
        <time>2020-08-27T14:18:21Z</time>
      </trkpt>
      <trkpt lat="46.75224" lon="6.3532">
        <ele>1370.5</ele>
        <time>2020-08-27T14:18:22Z</time>
      </trkpt>
      <trkpt lat="46.75224" lon="6.3532">
        <ele>1370.5</ele>
        <time>2020-08-27T14:18:23Z</time>
      </trkpt>
      <trkpt lat="46.75224" lon="6.3532">
        <ele>1370.5</ele>
        <time>2020-08-27T14:18:24Z</time>
      </trkpt>
      <trkpt lat="46.75223" lon="6.35319">
        <ele>1370.5</ele>
        <time>2020-08-27T14:18:25Z</time>
      </trkpt>
      <trkpt lat="46.75223" lon="6.35319">
        <ele>1370.5</ele>
        <time>2020-08-27T14:18:26Z</time>
      </trkpt>
      <trkpt lat="46.75223" lon="6.35319">
        <ele>1370.4</ele>
        <time>2020-08-27T14:18:27Z</time>
      </trkpt>
      <trkpt lat="46.75223" lon="6.35318">
        <ele>1370.4</ele>
        <time>2020-08-27T14:18:28Z</time>
      </trkpt>
      <trkpt lat="46.75223" lon="6.35318">
        <ele>1370.4</ele>
        <time>2020-08-27T14:18:29Z</time>
      </trkpt>
      <trkpt lat="46.75223" lon="6.35317">
        <ele>1370.4</ele>
        <time>2020-08-27T14:18:30Z</time>
      </trkpt>
      <trkpt lat="46.75223" lon="6.35317">
        <ele>1370.3</ele>
        <time>2020-08-27T14:18:31Z</time>
      </trkpt>
      <trkpt lat="46.75223" lon="6.35317">
        <ele>1370.4</ele>
        <time>2020-08-27T14:18:32Z</time>
      </trkpt>
      <trkpt lat="46.75222" lon="6.35317">
        <ele>1370.4</ele>
        <time>2020-08-27T14:18:33Z</time>
      </trkpt>
      <trkpt lat="46.75222" lon="6.35317">
        <ele>1370.4</ele>
        <time>2020-08-27T14:18:34Z</time>
      </trkpt>
      <trkpt lat="46.75222" lon="6.35317">
        <ele>1370.4</ele>
        <time>2020-08-27T14:18:35Z</time>
      </trkpt>
      <trkpt lat="46.75222" lon="6.35316">
        <ele>1370.4</ele>
        <time>2020-08-27T14:18:36Z</time>
      </trkpt>
      <trkpt lat="46.75222" lon="6.35317">
        <ele>1370.4</ele>
        <time>2020-08-27T14:18:37Z</time>
      </trkpt>
      <trkpt lat="46.75223" lon="6.35317">
        <ele>1370.3</ele>
        <time>2020-08-27T14:18:38Z</time>
      </trkpt>
      <trkpt lat="46.75223" lon="6.35317">
        <ele>1370.3</ele>
        <time>2020-08-27T14:18:39Z</time>
      </trkpt>
      <trkpt lat="46.75223" lon="6.35317">
        <ele>1370.3</ele>
        <time>2020-08-27T14:18:40Z</time>
      </trkpt>
      <trkpt lat="46.75223" lon="6.35317">
        <ele>1370.3</ele>
        <time>2020-08-27T14:18:41Z</time>
      </trkpt>
      <trkpt lat="46.75224" lon="6.35317">
        <ele>1370.3</ele>
        <time>2020-08-27T14:18:42Z</time>
      </trkpt>
      <trkpt lat="46.75224" lon="6.35317">
        <ele>1370.3</ele>
        <time>2020-08-27T14:18:43Z</time>
      </trkpt>
      <trkpt lat="46.75224" lon="6.35317">
        <ele>1370.2</ele>
        <time>2020-08-27T14:18:44Z</time>
      </trkpt>
      <trkpt lat="46.75224" lon="6.35316">
        <ele>1370.2</ele>
        <time>2020-08-27T14:18:45Z</time>
      </trkpt>
      <trkpt lat="46.75225" lon="6.35316">
        <ele>1370.2</ele>
        <time>2020-08-27T14:18:46Z</time>
      </trkpt>
      <trkpt lat="46.75225" lon="6.35317">
        <ele>1370.2</ele>
        <time>2020-08-27T14:18:47Z</time>
      </trkpt>
      <trkpt lat="46.75225" lon="6.35316">
        <ele>1370.2</ele>
        <time>2020-08-27T14:18:48Z</time>
      </trkpt>
      <trkpt lat="46.75226" lon="6.35316">
        <ele>1370.2</ele>
        <time>2020-08-27T14:18:49Z</time>
      </trkpt>
      <trkpt lat="46.75226" lon="6.35316">
        <ele>1370.2</ele>
        <time>2020-08-27T14:18:50Z</time>
      </trkpt>
      <trkpt lat="46.75226" lon="6.35316">
        <ele>1370.1</ele>
        <time>2020-08-27T14:18:51Z</time>
      </trkpt>
      <trkpt lat="46.75226" lon="6.35316">
        <ele>1370.1</ele>
        <time>2020-08-27T14:18:52Z</time>
      </trkpt>
      <trkpt lat="46.75227" lon="6.35317">
        <ele>1370.1</ele>
        <time>2020-08-27T14:18:53Z</time>
      </trkpt>
      <trkpt lat="46.75227" lon="6.35317">
        <ele>1370.1</ele>
        <time>2020-08-27T14:18:54Z</time>
      </trkpt>
      <trkpt lat="46.75228" lon="6.35317">
        <ele>1370.1</ele>
        <time>2020-08-27T14:18:55Z</time>
      </trkpt>
      <trkpt lat="46.75228" lon="6.35317">
        <ele>1370.1</ele>
        <time>2020-08-27T14:18:56Z</time>
      </trkpt>
      <trkpt lat="46.75229" lon="6.35317">
        <ele>1370.1</ele>
        <time>2020-08-27T14:18:57Z</time>
      </trkpt>
      <trkpt lat="46.75229" lon="6.35317">
        <ele>1370</ele>
        <time>2020-08-27T14:18:58Z</time>
      </trkpt>
      <trkpt lat="46.7523" lon="6.35316">
        <ele>1370</ele>
        <time>2020-08-27T14:18:59Z</time>
      </trkpt>
      <trkpt lat="46.75231" lon="6.35316">
        <ele>1370</ele>
        <time>2020-08-27T14:19:00Z</time>
      </trkpt>
      <trkpt lat="46.75231" lon="6.35316">
        <ele>1369.9</ele>
        <time>2020-08-27T14:19:01Z</time>
      </trkpt>
      <trkpt lat="46.75232" lon="6.35315">
        <ele>1369.8</ele>
        <time>2020-08-27T14:19:02Z</time>
      </trkpt>
      <trkpt lat="46.75232" lon="6.35315">
        <ele>1369.8</ele>
        <time>2020-08-27T14:19:03Z</time>
      </trkpt>
      <trkpt lat="46.75233" lon="6.35314">
        <ele>1369.7</ele>
        <time>2020-08-27T14:19:04Z</time>
      </trkpt>
      <trkpt lat="46.75234" lon="6.35314">
        <ele>1369.7</ele>
        <time>2020-08-27T14:19:05Z</time>
      </trkpt>
      <trkpt lat="46.75234" lon="6.35314">
        <ele>1369.6</ele>
        <time>2020-08-27T14:19:06Z</time>
      </trkpt>
      <trkpt lat="46.75234" lon="6.35314">
        <ele>1369.6</ele>
        <time>2020-08-27T14:19:07Z</time>
      </trkpt>
      <trkpt lat="46.75235" lon="6.35314">
        <ele>1369.6</ele>
        <time>2020-08-27T14:19:08Z</time>
      </trkpt>
      <trkpt lat="46.75235" lon="6.35314">
        <ele>1369.5</ele>
        <time>2020-08-27T14:19:09Z</time>
      </trkpt>
      <trkpt lat="46.75235" lon="6.35315">
        <ele>1369.5</ele>
        <time>2020-08-27T14:19:10Z</time>
      </trkpt>
      <trkpt lat="46.75235" lon="6.35315">
        <ele>1369.4</ele>
        <time>2020-08-27T14:19:11Z</time>
      </trkpt>
      <trkpt lat="46.75235" lon="6.35315">
        <ele>1369.4</ele>
        <time>2020-08-27T14:19:12Z</time>
      </trkpt>
      <trkpt lat="46.75235" lon="6.35315">
        <ele>1369.5</ele>
        <time>2020-08-27T14:19:13Z</time>
      </trkpt>
      <trkpt lat="46.75235" lon="6.35315">
        <ele>1369.4</ele>
        <time>2020-08-27T14:19:14Z</time>
      </trkpt>
      <trkpt lat="46.75235" lon="6.35316">
        <ele>1369.4</ele>
        <time>2020-08-27T14:19:15Z</time>
      </trkpt>
      <trkpt lat="46.75235" lon="6.35315">
        <ele>1369.4</ele>
        <time>2020-08-27T14:19:16Z</time>
      </trkpt>
      <trkpt lat="46.75235" lon="6.35316">
        <ele>1369.3</ele>
        <time>2020-08-27T14:19:17Z</time>
      </trkpt>
      <trkpt lat="46.75234" lon="6.35316">
        <ele>1369.2</ele>
        <time>2020-08-27T14:19:18Z</time>
      </trkpt>
      <trkpt lat="46.75234" lon="6.35316">
        <ele>1369.2</ele>
        <time>2020-08-27T14:19:19Z</time>
      </trkpt>
      <trkpt lat="46.75234" lon="6.35316">
        <ele>1369.2</ele>
        <time>2020-08-27T14:19:20Z</time>
      </trkpt>
      <trkpt lat="46.75235" lon="6.35316">
        <ele>1369.1</ele>
        <time>2020-08-27T14:19:21Z</time>
      </trkpt>
      <trkpt lat="46.75235" lon="6.35317">
        <ele>1369.1</ele>
        <time>2020-08-27T14:19:22Z</time>
      </trkpt>
      <trkpt lat="46.75234" lon="6.35317">
        <ele>1369.1</ele>
        <time>2020-08-27T14:19:23Z</time>
      </trkpt>
      <trkpt lat="46.75234" lon="6.35317">
        <ele>1369</ele>
        <time>2020-08-27T14:19:24Z</time>
      </trkpt>
      <trkpt lat="46.75234" lon="6.35318">
        <ele>1369</ele>
        <time>2020-08-27T14:19:25Z</time>
      </trkpt>
      <trkpt lat="46.75234" lon="6.35319">
        <ele>1369</ele>
        <time>2020-08-27T14:19:26Z</time>
      </trkpt>
      <trkpt lat="46.75234" lon="6.3532">
        <ele>1368.9</ele>
        <time>2020-08-27T14:19:27Z</time>
      </trkpt>
      <trkpt lat="46.75234" lon="6.3532">
        <ele>1368.9</ele>
        <time>2020-08-27T14:19:28Z</time>
      </trkpt>
      <trkpt lat="46.75234" lon="6.35321">
        <ele>1368.9</ele>
        <time>2020-08-27T14:19:29Z</time>
      </trkpt>
      <trkpt lat="46.75234" lon="6.35321">
        <ele>1368.8</ele>
        <time>2020-08-27T14:19:30Z</time>
      </trkpt>
      <trkpt lat="46.75234" lon="6.35321">
        <ele>1368.8</ele>
        <time>2020-08-27T14:19:31Z</time>
      </trkpt>
      <trkpt lat="46.75233" lon="6.35321">
        <ele>1368.8</ele>
        <time>2020-08-27T14:19:32Z</time>
      </trkpt>
      <trkpt lat="46.75233" lon="6.35321">
        <ele>1368.7</ele>
        <time>2020-08-27T14:19:33Z</time>
      </trkpt>
      <trkpt lat="46.75232" lon="6.35322">
        <ele>1368.7</ele>
        <time>2020-08-27T14:19:34Z</time>
      </trkpt>
      <trkpt lat="46.75232" lon="6.35323">
        <ele>1368.7</ele>
        <time>2020-08-27T14:19:35Z</time>
      </trkpt>
      <trkpt lat="46.75231" lon="6.35324">
        <ele>1368.7</ele>
        <time>2020-08-27T14:19:36Z</time>
      </trkpt>
      <trkpt lat="46.75231" lon="6.35324">
        <ele>1368.6</ele>
        <time>2020-08-27T14:19:37Z</time>
      </trkpt>
      <trkpt lat="46.7523" lon="6.35324">
        <ele>1368.6</ele>
        <time>2020-08-27T14:19:38Z</time>
      </trkpt>
      <trkpt lat="46.7523" lon="6.35325">
        <ele>1368.6</ele>
        <time>2020-08-27T14:19:39Z</time>
      </trkpt>
      <trkpt lat="46.7523" lon="6.35325">
        <ele>1368.6</ele>
        <time>2020-08-27T14:19:40Z</time>
      </trkpt>
      <trkpt lat="46.7523" lon="6.35325">
        <ele>1368.5</ele>
        <time>2020-08-27T14:19:41Z</time>
      </trkpt>
      <trkpt lat="46.75229" lon="6.35325">
        <ele>1368.5</ele>
        <time>2020-08-27T14:19:42Z</time>
      </trkpt>
      <trkpt lat="46.75229" lon="6.35325">
        <ele>1368.5</ele>
        <time>2020-08-27T14:19:43Z</time>
      </trkpt>
      <trkpt lat="46.75228" lon="6.35325">
        <ele>1368.5</ele>
        <time>2020-08-27T14:19:44Z</time>
      </trkpt>
      <trkpt lat="46.75228" lon="6.35326">
        <ele>1368.4</ele>
        <time>2020-08-27T14:19:45Z</time>
      </trkpt>
      <trkpt lat="46.75228" lon="6.35326">
        <ele>1368.4</ele>
        <time>2020-08-27T14:19:46Z</time>
      </trkpt>
      <trkpt lat="46.75228" lon="6.35326">
        <ele>1368.4</ele>
        <time>2020-08-27T14:19:47Z</time>
      </trkpt>
      <trkpt lat="46.75228" lon="6.35326">
        <ele>1368.4</ele>
        <time>2020-08-27T14:19:48Z</time>
      </trkpt>
      <trkpt lat="46.75227" lon="6.35326">
        <ele>1368.4</ele>
        <time>2020-08-27T14:19:49Z</time>
      </trkpt>
      <trkpt lat="46.75227" lon="6.35326">
        <ele>1368.3</ele>
        <time>2020-08-27T14:19:50Z</time>
      </trkpt>
      <trkpt lat="46.75227" lon="6.35326">
        <ele>1368.3</ele>
        <time>2020-08-27T14:19:51Z</time>
      </trkpt>
      <trkpt lat="46.75227" lon="6.35327">
        <ele>1368.3</ele>
        <time>2020-08-27T14:19:52Z</time>
      </trkpt>
      <trkpt lat="46.75227" lon="6.35327">
        <ele>1368.3</ele>
        <time>2020-08-27T14:19:53Z</time>
      </trkpt>
      <trkpt lat="46.75228" lon="6.35326">
        <ele>1368.3</ele>
        <time>2020-08-27T14:19:54Z</time>
      </trkpt>
      <trkpt lat="46.75228" lon="6.35326">
        <ele>1368.2</ele>
        <time>2020-08-27T14:19:55Z</time>
      </trkpt>
      <trkpt lat="46.75228" lon="6.35326">
        <ele>1368.2</ele>
        <time>2020-08-27T14:19:56Z</time>
      </trkpt>
      <trkpt lat="46.75228" lon="6.35326">
        <ele>1368.2</ele>
        <time>2020-08-27T14:19:57Z</time>
      </trkpt>
      <trkpt lat="46.75228" lon="6.35326">
        <ele>1368.2</ele>
        <time>2020-08-27T14:19:58Z</time>
      </trkpt>
      <trkpt lat="46.75228" lon="6.35326">
        <ele>1368.2</ele>
        <time>2020-08-27T14:19:59Z</time>
      </trkpt>
      <trkpt lat="46.75229" lon="6.35326">
        <ele>1368.1</ele>
        <time>2020-08-27T14:20:00Z</time>
      </trkpt>
      <trkpt lat="46.75229" lon="6.35325">
        <ele>1368.1</ele>
        <time>2020-08-27T14:20:01Z</time>
      </trkpt>
      <trkpt lat="46.75229" lon="6.35325">
        <ele>1368.1</ele>
        <time>2020-08-27T14:20:02Z</time>
      </trkpt>
      <trkpt lat="46.7523" lon="6.35324">
        <ele>1368.1</ele>
        <time>2020-08-27T14:20:03Z</time>
      </trkpt>
      <trkpt lat="46.75231" lon="6.35323">
        <ele>1368.1</ele>
        <time>2020-08-27T14:20:04Z</time>
      </trkpt>
      <trkpt lat="46.75232" lon="6.35322">
        <ele>1368.1</ele>
        <time>2020-08-27T14:20:05Z</time>
      </trkpt>
      <trkpt lat="46.75234" lon="6.35322">
        <ele>1368.1</ele>
        <time>2020-08-27T14:20:06Z</time>
      </trkpt>
      <trkpt lat="46.75235" lon="6.35323">
        <ele>1368.1</ele>
        <time>2020-08-27T14:20:07Z</time>
      </trkpt>
      <trkpt lat="46.75235" lon="6.35327">
        <ele>1368.1</ele>
        <time>2020-08-27T14:20:08Z</time>
      </trkpt>
      <trkpt lat="46.75235" lon="6.35332">
        <ele>1368.1</ele>
        <time>2020-08-27T14:20:09Z</time>
      </trkpt>
      <trkpt lat="46.75235" lon="6.35337">
        <ele>1368.1</ele>
        <time>2020-08-27T14:20:10Z</time>
      </trkpt>
      <trkpt lat="46.75236" lon="6.35342">
        <ele>1368.1</ele>
        <time>2020-08-27T14:20:11Z</time>
      </trkpt>
      <trkpt lat="46.75238" lon="6.35346">
        <ele>1368.1</ele>
        <time>2020-08-27T14:20:12Z</time>
      </trkpt>
      <trkpt lat="46.75238" lon="6.3535">
        <ele>1368</ele>
        <time>2020-08-27T14:20:13Z</time>
      </trkpt>
      <trkpt lat="46.7524" lon="6.35354">
        <ele>1367.9</ele>
        <time>2020-08-27T14:20:14Z</time>
      </trkpt>
      <trkpt lat="46.75242" lon="6.35356">
        <ele>1367.8</ele>
        <time>2020-08-27T14:20:15Z</time>
      </trkpt>
      <trkpt lat="46.75244" lon="6.35355">
        <ele>1367.7</ele>
        <time>2020-08-27T14:20:16Z</time>
      </trkpt>
      <trkpt lat="46.75245" lon="6.35352">
        <ele>1367.6</ele>
        <time>2020-08-27T14:20:17Z</time>
      </trkpt>
      <trkpt lat="46.75246" lon="6.35348">
        <ele>1367.5</ele>
        <time>2020-08-27T14:20:18Z</time>
      </trkpt>
      <trkpt lat="46.75247" lon="6.35342">
        <ele>1367.4</ele>
        <time>2020-08-27T14:20:19Z</time>
      </trkpt>
      <trkpt lat="46.75247" lon="6.35335">
        <ele>1367.3</ele>
        <time>2020-08-27T14:20:20Z</time>
      </trkpt>
      <trkpt lat="46.75248" lon="6.35329">
        <ele>1367.1</ele>
        <time>2020-08-27T14:20:21Z</time>
      </trkpt>
      <trkpt lat="46.75249" lon="6.35322">
        <ele>1366.9</ele>
        <time>2020-08-27T14:20:22Z</time>
      </trkpt>
      <trkpt lat="46.7525" lon="6.35316">
        <ele>1366.7</ele>
        <time>2020-08-27T14:20:23Z</time>
      </trkpt>
      <trkpt lat="46.7525" lon="6.35311">
        <ele>1366.5</ele>
        <time>2020-08-27T14:20:24Z</time>
      </trkpt>
      <trkpt lat="46.75251" lon="6.35308">
        <ele>1366.3</ele>
        <time>2020-08-27T14:20:25Z</time>
      </trkpt>
      <trkpt lat="46.75253" lon="6.35309">
        <ele>1366.1</ele>
        <time>2020-08-27T14:20:26Z</time>
      </trkpt>
      <trkpt lat="46.75254" lon="6.35312">
        <ele>1365.9</ele>
        <time>2020-08-27T14:20:27Z</time>
      </trkpt>
      <trkpt lat="46.75255" lon="6.35316">
        <ele>1365.8</ele>
        <time>2020-08-27T14:20:28Z</time>
      </trkpt>
      <trkpt lat="46.75255" lon="6.3532">
        <ele>1365.6</ele>
        <time>2020-08-27T14:20:29Z</time>
      </trkpt>
      <trkpt lat="46.75255" lon="6.35324">
        <ele>1365.4</ele>
        <time>2020-08-27T14:20:30Z</time>
      </trkpt>
      <trkpt lat="46.75256" lon="6.35329">
        <ele>1365.2</ele>
        <time>2020-08-27T14:20:31Z</time>
      </trkpt>
      <trkpt lat="46.75256" lon="6.35333">
        <ele>1365</ele>
        <time>2020-08-27T14:20:32Z</time>
      </trkpt>
      <trkpt lat="46.75256" lon="6.35338">
        <ele>1364.9</ele>
        <time>2020-08-27T14:20:33Z</time>
      </trkpt>
      <trkpt lat="46.75257" lon="6.35343">
        <ele>1364.7</ele>
        <time>2020-08-27T14:20:34Z</time>
      </trkpt>
      <trkpt lat="46.75257" lon="6.35348">
        <ele>1364.5</ele>
        <time>2020-08-27T14:20:35Z</time>
      </trkpt>
      <trkpt lat="46.75259" lon="6.35352">
        <ele>1364.4</ele>
        <time>2020-08-27T14:20:36Z</time>
      </trkpt>
      <trkpt lat="46.75261" lon="6.35352">
        <ele>1364.2</ele>
        <time>2020-08-27T14:20:37Z</time>
      </trkpt>
      <trkpt lat="46.75263" lon="6.35349">
        <ele>1364.1</ele>
        <time>2020-08-27T14:20:38Z</time>
      </trkpt>
      <trkpt lat="46.75264" lon="6.35345">
        <ele>1363.9</ele>
        <time>2020-08-27T14:20:39Z</time>
      </trkpt>
      <trkpt lat="46.75265" lon="6.35341">
        <ele>1363.6</ele>
        <time>2020-08-27T14:20:40Z</time>
      </trkpt>
      <trkpt lat="46.75266" lon="6.35338">
        <ele>1363.4</ele>
        <time>2020-08-27T14:20:41Z</time>
      </trkpt>
      <trkpt lat="46.75268" lon="6.35337">
        <ele>1363.1</ele>
        <time>2020-08-27T14:20:42Z</time>
      </trkpt>
      <trkpt lat="46.7527" lon="6.35336">
        <ele>1362.8</ele>
        <time>2020-08-27T14:20:43Z</time>
      </trkpt>
      <trkpt lat="46.75272" lon="6.35336">
        <ele>1362.6</ele>
        <time>2020-08-27T14:20:44Z</time>
      </trkpt>
      <trkpt lat="46.75274" lon="6.35336">
        <ele>1362.3</ele>
        <time>2020-08-27T14:20:45Z</time>
      </trkpt>
      <trkpt lat="46.75276" lon="6.35335">
        <ele>1362.1</ele>
        <time>2020-08-27T14:20:46Z</time>
      </trkpt>
      <trkpt lat="46.75278" lon="6.35335">
        <ele>1361.7</ele>
        <time>2020-08-27T14:20:47Z</time>
      </trkpt>
      <trkpt lat="46.75279" lon="6.35333">
        <ele>1361.4</ele>
        <time>2020-08-27T14:20:48Z</time>
      </trkpt>
      <trkpt lat="46.7528" lon="6.35331">
        <ele>1361.1</ele>
        <time>2020-08-27T14:20:49Z</time>
      </trkpt>
      <trkpt lat="46.75281" lon="6.35328">
        <ele>1360.9</ele>
        <time>2020-08-27T14:20:50Z</time>
      </trkpt>
      <trkpt lat="46.75282" lon="6.35326">
        <ele>1360.6</ele>
        <time>2020-08-27T14:20:51Z</time>
      </trkpt>
      <trkpt lat="46.75283" lon="6.35322">
        <ele>1360.2</ele>
        <time>2020-08-27T14:20:52Z</time>
      </trkpt>
      <trkpt lat="46.75283" lon="6.35318">
        <ele>1359.9</ele>
        <time>2020-08-27T14:20:53Z</time>
      </trkpt>
      <trkpt lat="46.75284" lon="6.35314">
        <ele>1359.6</ele>
        <time>2020-08-27T14:20:54Z</time>
      </trkpt>
      <trkpt lat="46.75285" lon="6.35313">
        <ele>1359.3</ele>
        <time>2020-08-27T14:20:55Z</time>
      </trkpt>
      <trkpt lat="46.75287" lon="6.35312">
        <ele>1359</ele>
        <time>2020-08-27T14:20:56Z</time>
      </trkpt>
      <trkpt lat="46.75288" lon="6.35313">
        <ele>1358.7</ele>
        <time>2020-08-27T14:20:57Z</time>
      </trkpt>
      <trkpt lat="46.75288" lon="6.35315">
        <ele>1358.4</ele>
        <time>2020-08-27T14:20:58Z</time>
      </trkpt>
      <trkpt lat="46.75289" lon="6.35317">
        <ele>1358.2</ele>
        <time>2020-08-27T14:20:59Z</time>
      </trkpt>
      <trkpt lat="46.7529" lon="6.35319">
        <ele>1358</ele>
        <time>2020-08-27T14:21:00Z</time>
      </trkpt>
      <trkpt lat="46.7529" lon="6.3532">
        <ele>1357.7</ele>
        <time>2020-08-27T14:21:01Z</time>
      </trkpt>
      <trkpt lat="46.75291" lon="6.35321">
        <ele>1357.5</ele>
        <time>2020-08-27T14:21:02Z</time>
      </trkpt>
      <trkpt lat="46.75292" lon="6.35321">
        <ele>1357.3</ele>
        <time>2020-08-27T14:21:03Z</time>
      </trkpt>
      <trkpt lat="46.75293" lon="6.3532">
        <ele>1357</ele>
        <time>2020-08-27T14:21:04Z</time>
      </trkpt>
      <trkpt lat="46.75294" lon="6.35318">
        <ele>1356.8</ele>
        <time>2020-08-27T14:21:05Z</time>
      </trkpt>
      <trkpt lat="46.75295" lon="6.35316">
        <ele>1356.6</ele>
        <time>2020-08-27T14:21:06Z</time>
      </trkpt>
      <trkpt lat="46.75295" lon="6.35314">
        <ele>1356.4</ele>
        <time>2020-08-27T14:21:07Z</time>
      </trkpt>
      <trkpt lat="46.75295" lon="6.35311">
        <ele>1356.2</ele>
        <time>2020-08-27T14:21:08Z</time>
      </trkpt>
      <trkpt lat="46.75294" lon="6.35308">
        <ele>1356</ele>
        <time>2020-08-27T14:21:09Z</time>
      </trkpt>
      <trkpt lat="46.75294" lon="6.35305">
        <ele>1355.8</ele>
        <time>2020-08-27T14:21:10Z</time>
      </trkpt>
      <trkpt lat="46.75295" lon="6.35301">
        <ele>1355.6</ele>
        <time>2020-08-27T14:21:11Z</time>
      </trkpt>
      <trkpt lat="46.75295" lon="6.35298">
        <ele>1355.4</ele>
        <time>2020-08-27T14:21:12Z</time>
      </trkpt>
      <trkpt lat="46.75295" lon="6.35296">
        <ele>1355.2</ele>
        <time>2020-08-27T14:21:13Z</time>
      </trkpt>
      <trkpt lat="46.75294" lon="6.35293">
        <ele>1355</ele>
        <time>2020-08-27T14:21:14Z</time>
      </trkpt>
      <trkpt lat="46.75295" lon="6.35291">
        <ele>1354.7</ele>
        <time>2020-08-27T14:21:15Z</time>
      </trkpt>
      <trkpt lat="46.75296" lon="6.35288">
        <ele>1354.5</ele>
        <time>2020-08-27T14:21:16Z</time>
      </trkpt>
      <trkpt lat="46.75298" lon="6.35287">
        <ele>1354.3</ele>
        <time>2020-08-27T14:21:17Z</time>
      </trkpt>
      <trkpt lat="46.753" lon="6.35288">
        <ele>1353.9</ele>
        <time>2020-08-27T14:21:18Z</time>
      </trkpt>
      <trkpt lat="46.75301" lon="6.35292">
        <ele>1353.5</ele>
        <time>2020-08-27T14:21:19Z</time>
      </trkpt>
      <trkpt lat="46.75301" lon="6.35296">
        <ele>1353.2</ele>
        <time>2020-08-27T14:21:20Z</time>
      </trkpt>
      <trkpt lat="46.75301" lon="6.353">
        <ele>1352.9</ele>
        <time>2020-08-27T14:21:21Z</time>
      </trkpt>
      <trkpt lat="46.75302" lon="6.35303">
        <ele>1352.6</ele>
        <time>2020-08-27T14:21:22Z</time>
      </trkpt>
      <trkpt lat="46.75302" lon="6.35306">
        <ele>1352.4</ele>
        <time>2020-08-27T14:21:23Z</time>
      </trkpt>
      <trkpt lat="46.75303" lon="6.3531">
        <ele>1352.1</ele>
        <time>2020-08-27T14:21:24Z</time>
      </trkpt>
      <trkpt lat="46.75304" lon="6.35314">
        <ele>1351.9</ele>
        <time>2020-08-27T14:21:25Z</time>
      </trkpt>
      <trkpt lat="46.75306" lon="6.35317">
        <ele>1351.6</ele>
        <time>2020-08-27T14:21:26Z</time>
      </trkpt>
      <trkpt lat="46.75307" lon="6.35319">
        <ele>1351.4</ele>
        <time>2020-08-27T14:21:27Z</time>
      </trkpt>
      <trkpt lat="46.75307" lon="6.3532">
        <ele>1351.2</ele>
        <time>2020-08-27T14:21:28Z</time>
      </trkpt>
      <trkpt lat="46.75307" lon="6.3532">
        <ele>1351.1</ele>
        <time>2020-08-27T14:21:29Z</time>
      </trkpt>
      <trkpt lat="46.75307" lon="6.3532">
        <ele>1350.9</ele>
        <time>2020-08-27T14:21:30Z</time>
      </trkpt>
      <trkpt lat="46.75307" lon="6.3532">
        <ele>1350.7</ele>
        <time>2020-08-27T14:21:31Z</time>
      </trkpt>
      <trkpt lat="46.75307" lon="6.3532">
        <ele>1350.5</ele>
        <time>2020-08-27T14:21:32Z</time>
      </trkpt>
      <trkpt lat="46.75308" lon="6.35319">
        <ele>1350.4</ele>
        <time>2020-08-27T14:21:33Z</time>
      </trkpt>
      <trkpt lat="46.75308" lon="6.35319">
        <ele>1350.2</ele>
        <time>2020-08-27T14:21:34Z</time>
      </trkpt>
      <trkpt lat="46.75309" lon="6.35319">
        <ele>1350.1</ele>
        <time>2020-08-27T14:21:35Z</time>
      </trkpt>
      <trkpt lat="46.75309" lon="6.35319">
        <ele>1349.9</ele>
        <time>2020-08-27T14:21:36Z</time>
      </trkpt>
      <trkpt lat="46.75309" lon="6.35319">
        <ele>1349.8</ele>
        <time>2020-08-27T14:21:37Z</time>
      </trkpt>
      <trkpt lat="46.7531" lon="6.35319">
        <ele>1349.7</ele>
        <time>2020-08-27T14:21:38Z</time>
      </trkpt>
      <trkpt lat="46.7531" lon="6.35318">
        <ele>1349.6</ele>
        <time>2020-08-27T14:21:39Z</time>
      </trkpt>
      <trkpt lat="46.75311" lon="6.35318">
        <ele>1349.5</ele>
        <time>2020-08-27T14:21:40Z</time>
      </trkpt>
      <trkpt lat="46.75311" lon="6.35318">
        <ele>1349.3</ele>
        <time>2020-08-27T14:21:41Z</time>
      </trkpt>
      <trkpt lat="46.75311" lon="6.35318">
        <ele>1349.3</ele>
        <time>2020-08-27T14:21:42Z</time>
      </trkpt>
      <trkpt lat="46.75312" lon="6.35318">
        <ele>1349.2</ele>
        <time>2020-08-27T14:21:43Z</time>
      </trkpt>
      <trkpt lat="46.75313" lon="6.35318">
        <ele>1349.1</ele>
        <time>2020-08-27T14:21:44Z</time>
      </trkpt>
      <trkpt lat="46.75314" lon="6.35318">
        <ele>1349</ele>
        <time>2020-08-27T14:21:45Z</time>
      </trkpt>
      <trkpt lat="46.75315" lon="6.35318">
        <ele>1348.9</ele>
        <time>2020-08-27T14:21:46Z</time>
      </trkpt>
      <trkpt lat="46.75316" lon="6.35317">
        <ele>1348.8</ele>
        <time>2020-08-27T14:21:47Z</time>
      </trkpt>
      <trkpt lat="46.75317" lon="6.35316">
        <ele>1348.8</ele>
        <time>2020-08-27T14:21:48Z</time>
      </trkpt>
      <trkpt lat="46.75317" lon="6.35315">
        <ele>1348.7</ele>
        <time>2020-08-27T14:21:49Z</time>
      </trkpt>
      <trkpt lat="46.75319" lon="6.35313">
        <ele>1348.7</ele>
        <time>2020-08-27T14:21:50Z</time>
      </trkpt>
      <trkpt lat="46.7532" lon="6.35311">
        <ele>1348.6</ele>
        <time>2020-08-27T14:21:51Z</time>
      </trkpt>
      <trkpt lat="46.75321" lon="6.35308">
        <ele>1348.5</ele>
        <time>2020-08-27T14:21:52Z</time>
      </trkpt>
      <trkpt lat="46.75322" lon="6.35305">
        <ele>1348.3</ele>
        <time>2020-08-27T14:21:53Z</time>
      </trkpt>
      <trkpt lat="46.75323" lon="6.353">
        <ele>1348.2</ele>
        <time>2020-08-27T14:21:54Z</time>
      </trkpt>
      <trkpt lat="46.75324" lon="6.35296">
        <ele>1348</ele>
        <time>2020-08-27T14:21:55Z</time>
      </trkpt>
      <trkpt lat="46.75324" lon="6.35293">
        <ele>1347.9</ele>
        <time>2020-08-27T14:21:56Z</time>
      </trkpt>
      <trkpt lat="46.75325" lon="6.35291">
        <ele>1347.7</ele>
        <time>2020-08-27T14:21:57Z</time>
      </trkpt>
      <trkpt lat="46.75326" lon="6.3529">
        <ele>1347.6</ele>
        <time>2020-08-27T14:21:58Z</time>
      </trkpt>
      <trkpt lat="46.75326" lon="6.35289">
        <ele>1347.5</ele>
        <time>2020-08-27T14:21:59Z</time>
      </trkpt>
      <trkpt lat="46.75326" lon="6.35289">
        <ele>1347.4</ele>
        <time>2020-08-27T14:22:00Z</time>
      </trkpt>
      <trkpt lat="46.75325" lon="6.35288">
        <ele>1347.3</ele>
        <time>2020-08-27T14:22:01Z</time>
      </trkpt>
      <trkpt lat="46.75326" lon="6.35287">
        <ele>1347.2</ele>
        <time>2020-08-27T14:22:02Z</time>
      </trkpt>
      <trkpt lat="46.75326" lon="6.35285">
        <ele>1347.1</ele>
        <time>2020-08-27T14:22:03Z</time>
      </trkpt>
      <trkpt lat="46.75326" lon="6.35282">
        <ele>1347</ele>
        <time>2020-08-27T14:22:04Z</time>
      </trkpt>
      <trkpt lat="46.75326" lon="6.35279">
        <ele>1346.8</ele>
        <time>2020-08-27T14:22:05Z</time>
      </trkpt>
      <trkpt lat="46.75326" lon="6.35276">
        <ele>1346.6</ele>
        <time>2020-08-27T14:22:06Z</time>
      </trkpt>
      <trkpt lat="46.75327" lon="6.35272">
        <ele>1346.4</ele>
        <time>2020-08-27T14:22:07Z</time>
      </trkpt>
      <trkpt lat="46.75327" lon="6.35268">
        <ele>1346.2</ele>
        <time>2020-08-27T14:22:08Z</time>
      </trkpt>
      <trkpt lat="46.75328" lon="6.35264">
        <ele>1346</ele>
        <time>2020-08-27T14:22:09Z</time>
      </trkpt>
      <trkpt lat="46.75329" lon="6.35261">
        <ele>1345.9</ele>
        <time>2020-08-27T14:22:10Z</time>
      </trkpt>
      <trkpt lat="46.7533" lon="6.35257">
        <ele>1345.7</ele>
        <time>2020-08-27T14:22:11Z</time>
      </trkpt>
      <trkpt lat="46.7533" lon="6.35253">
        <ele>1345.6</ele>
        <time>2020-08-27T14:22:12Z</time>
      </trkpt>
      <trkpt lat="46.7533" lon="6.35249">
        <ele>1345.4</ele>
        <time>2020-08-27T14:22:13Z</time>
      </trkpt>
      <trkpt lat="46.7533" lon="6.35247">
        <ele>1345.3</ele>
        <time>2020-08-27T14:22:14Z</time>
      </trkpt>
      <trkpt lat="46.7533" lon="6.35246">
        <ele>1345.2</ele>
        <time>2020-08-27T14:22:15Z</time>
      </trkpt>
      <trkpt lat="46.7533" lon="6.35246">
        <ele>1345</ele>
        <time>2020-08-27T14:22:16Z</time>
      </trkpt>
      <trkpt lat="46.7533" lon="6.35245">
        <ele>1344.9</ele>
        <time>2020-08-27T14:22:17Z</time>
      </trkpt>
      <trkpt lat="46.7533" lon="6.35245">
        <ele>1344.8</ele>
        <time>2020-08-27T14:22:18Z</time>
      </trkpt>
      <trkpt lat="46.75329" lon="6.35244">
        <ele>1344.7</ele>
        <time>2020-08-27T14:22:19Z</time>
      </trkpt>
      <trkpt lat="46.75329" lon="6.35244">
        <ele>1344.6</ele>
        <time>2020-08-27T14:22:20Z</time>
      </trkpt>
      <trkpt lat="46.75329" lon="6.35243">
        <ele>1344.5</ele>
        <time>2020-08-27T14:22:21Z</time>
      </trkpt>
      <trkpt lat="46.75329" lon="6.35241">
        <ele>1344.4</ele>
        <time>2020-08-27T14:22:22Z</time>
      </trkpt>
      <trkpt lat="46.75328" lon="6.35239">
        <ele>1344.3</ele>
        <time>2020-08-27T14:22:23Z</time>
      </trkpt>
      <trkpt lat="46.75328" lon="6.35238">
        <ele>1344.2</ele>
        <time>2020-08-27T14:22:24Z</time>
      </trkpt>
      <trkpt lat="46.75327" lon="6.35236">
        <ele>1344.2</ele>
        <time>2020-08-27T14:22:25Z</time>
      </trkpt>
      <trkpt lat="46.75328" lon="6.35236">
        <ele>1344.1</ele>
        <time>2020-08-27T14:22:26Z</time>
      </trkpt>
      <trkpt lat="46.75328" lon="6.35235">
        <ele>1344</ele>
        <time>2020-08-27T14:22:27Z</time>
      </trkpt>
      <trkpt lat="46.75328" lon="6.35235">
        <ele>1344</ele>
        <time>2020-08-27T14:22:28Z</time>
      </trkpt>
      <trkpt lat="46.75328" lon="6.35234">
        <ele>1343.9</ele>
        <time>2020-08-27T14:22:29Z</time>
      </trkpt>
      <trkpt lat="46.75328" lon="6.35234">
        <ele>1343.8</ele>
        <time>2020-08-27T14:22:30Z</time>
      </trkpt>
      <trkpt lat="46.75328" lon="6.35234">
        <ele>1343.7</ele>
        <time>2020-08-27T14:22:31Z</time>
      </trkpt>
      <trkpt lat="46.75328" lon="6.35234">
        <ele>1343.7</ele>
        <time>2020-08-27T14:22:32Z</time>
      </trkpt>
      <trkpt lat="46.75328" lon="6.35234">
        <ele>1343.6</ele>
        <time>2020-08-27T14:22:33Z</time>
      </trkpt>
      <trkpt lat="46.75328" lon="6.35233">
        <ele>1343.5</ele>
        <time>2020-08-27T14:22:34Z</time>
      </trkpt>
      <trkpt lat="46.75328" lon="6.35233">
        <ele>1343.4</ele>
        <time>2020-08-27T14:22:35Z</time>
      </trkpt>
      <trkpt lat="46.75328" lon="6.35233">
        <ele>1343.4</ele>
        <time>2020-08-27T14:22:36Z</time>
      </trkpt>
      <trkpt lat="46.75328" lon="6.35233">
        <ele>1343.3</ele>
        <time>2020-08-27T14:22:37Z</time>
      </trkpt>
      <trkpt lat="46.75328" lon="6.35233">
        <ele>1343.3</ele>
        <time>2020-08-27T14:22:38Z</time>
      </trkpt>
      <trkpt lat="46.75327" lon="6.35233">
        <ele>1343.2</ele>
        <time>2020-08-27T14:22:39Z</time>
      </trkpt>
      <trkpt lat="46.75327" lon="6.35233">
        <ele>1343.1</ele>
        <time>2020-08-27T14:22:40Z</time>
      </trkpt>
      <trkpt lat="46.75327" lon="6.35233">
        <ele>1343.1</ele>
        <time>2020-08-27T14:22:41Z</time>
      </trkpt>
      <trkpt lat="46.75327" lon="6.35233">
        <ele>1343</ele>
        <time>2020-08-27T14:22:42Z</time>
      </trkpt>
      <trkpt lat="46.75327" lon="6.35232">
        <ele>1343</ele>
        <time>2020-08-27T14:22:43Z</time>
      </trkpt>
      <trkpt lat="46.75327" lon="6.35232">
        <ele>1342.9</ele>
        <time>2020-08-27T14:22:44Z</time>
      </trkpt>
      <trkpt lat="46.75328" lon="6.35232">
        <ele>1342.9</ele>
        <time>2020-08-27T14:22:45Z</time>
      </trkpt>
      <trkpt lat="46.75328" lon="6.35231">
        <ele>1342.9</ele>
        <time>2020-08-27T14:22:46Z</time>
      </trkpt>
      <trkpt lat="46.75328" lon="6.35231">
        <ele>1342.8</ele>
        <time>2020-08-27T14:22:47Z</time>
      </trkpt>
      <trkpt lat="46.75328" lon="6.35231">
        <ele>1342.8</ele>
        <time>2020-08-27T14:22:48Z</time>
      </trkpt>
      <trkpt lat="46.75328" lon="6.35231">
        <ele>1342.7</ele>
        <time>2020-08-27T14:22:49Z</time>
      </trkpt>
      <trkpt lat="46.75329" lon="6.35231">
        <ele>1342.6</ele>
        <time>2020-08-27T14:22:50Z</time>
      </trkpt>
      <trkpt lat="46.75329" lon="6.35231">
        <ele>1342.5</ele>
        <time>2020-08-27T14:22:51Z</time>
      </trkpt>
      <trkpt lat="46.75329" lon="6.35231">
        <ele>1342.3</ele>
        <time>2020-08-27T14:22:52Z</time>
      </trkpt>
      <trkpt lat="46.75329" lon="6.3523">
        <ele>1342.2</ele>
        <time>2020-08-27T14:22:53Z</time>
      </trkpt>
      <trkpt lat="46.75329" lon="6.3523">
        <ele>1342.1</ele>
        <time>2020-08-27T14:22:54Z</time>
      </trkpt>
      <trkpt lat="46.75329" lon="6.3523">
        <ele>1342</ele>
        <time>2020-08-27T14:22:55Z</time>
      </trkpt>
      <trkpt lat="46.75329" lon="6.35231">
        <ele>1341.9</ele>
        <time>2020-08-27T14:22:56Z</time>
      </trkpt>
      <trkpt lat="46.75328" lon="6.35231">
        <ele>1341.8</ele>
        <time>2020-08-27T14:22:57Z</time>
      </trkpt>
      <trkpt lat="46.75328" lon="6.35231">
        <ele>1341.7</ele>
        <time>2020-08-27T14:22:58Z</time>
      </trkpt>
      <trkpt lat="46.75327" lon="6.35231">
        <ele>1341.6</ele>
        <time>2020-08-27T14:22:59Z</time>
      </trkpt>
      <trkpt lat="46.75327" lon="6.35232">
        <ele>1341.6</ele>
        <time>2020-08-27T14:23:00Z</time>
      </trkpt>
      <trkpt lat="46.75327" lon="6.35232">
        <ele>1341.6</ele>
        <time>2020-08-27T14:23:01Z</time>
      </trkpt>
      <trkpt lat="46.75328" lon="6.35232">
        <ele>1341.5</ele>
        <time>2020-08-27T14:23:02Z</time>
      </trkpt>
      <trkpt lat="46.75328" lon="6.35232">
        <ele>1341.5</ele>
        <time>2020-08-27T14:23:03Z</time>
      </trkpt>
      <trkpt lat="46.75328" lon="6.35232">
        <ele>1341.4</ele>
        <time>2020-08-27T14:23:04Z</time>
      </trkpt>
      <trkpt lat="46.75328" lon="6.35232">
        <ele>1341.4</ele>
        <time>2020-08-27T14:23:05Z</time>
      </trkpt>
      <trkpt lat="46.75328" lon="6.35232">
        <ele>1341.4</ele>
        <time>2020-08-27T14:23:06Z</time>
      </trkpt>
      <trkpt lat="46.75329" lon="6.35231">
        <ele>1341.3</ele>
        <time>2020-08-27T14:23:07Z</time>
      </trkpt>
      <trkpt lat="46.75329" lon="6.35231">
        <ele>1341.3</ele>
        <time>2020-08-27T14:23:08Z</time>
      </trkpt>
      <trkpt lat="46.75329" lon="6.35231">
        <ele>1341.3</ele>
        <time>2020-08-27T14:23:09Z</time>
      </trkpt>
      <trkpt lat="46.75329" lon="6.35231">
        <ele>1341.2</ele>
        <time>2020-08-27T14:23:10Z</time>
      </trkpt>
      <trkpt lat="46.7533" lon="6.3523">
        <ele>1341.2</ele>
        <time>2020-08-27T14:23:11Z</time>
      </trkpt>
      <trkpt lat="46.7533" lon="6.35231">
        <ele>1341.2</ele>
        <time>2020-08-27T14:23:12Z</time>
      </trkpt>
      <trkpt lat="46.7533" lon="6.35231">
        <ele>1341.2</ele>
        <time>2020-08-27T14:23:13Z</time>
      </trkpt>
      <trkpt lat="46.7533" lon="6.3523">
        <ele>1341.1</ele>
        <time>2020-08-27T14:23:14Z</time>
      </trkpt>
      <trkpt lat="46.75331" lon="6.3523">
        <ele>1341.1</ele>
        <time>2020-08-27T14:23:15Z</time>
      </trkpt>
      <trkpt lat="46.75331" lon="6.3523">
        <ele>1341.1</ele>
        <time>2020-08-27T14:23:16Z</time>
      </trkpt>
      <trkpt lat="46.75332" lon="6.3523">
        <ele>1341.1</ele>
        <time>2020-08-27T14:23:17Z</time>
      </trkpt>
      <trkpt lat="46.75332" lon="6.3523">
        <ele>1341.1</ele>
        <time>2020-08-27T14:23:18Z</time>
      </trkpt>
      <trkpt lat="46.75332" lon="6.3523">
        <ele>1341</ele>
        <time>2020-08-27T14:23:19Z</time>
      </trkpt>
      <trkpt lat="46.75332" lon="6.3523">
        <ele>1341</ele>
        <time>2020-08-27T14:23:20Z</time>
      </trkpt>
      <trkpt lat="46.75332" lon="6.3523">
        <ele>1341</ele>
        <time>2020-08-27T14:23:21Z</time>
      </trkpt>
      <trkpt lat="46.75332" lon="6.3523">
        <ele>1341</ele>
        <time>2020-08-27T14:23:22Z</time>
      </trkpt>
      <trkpt lat="46.75332" lon="6.3523">
        <ele>1341</ele>
        <time>2020-08-27T14:23:23Z</time>
      </trkpt>
      <trkpt lat="46.75332" lon="6.3523">
        <ele>1341</ele>
        <time>2020-08-27T14:23:24Z</time>
      </trkpt>
      <trkpt lat="46.75332" lon="6.3523">
        <ele>1341</ele>
        <time>2020-08-27T14:23:25Z</time>
      </trkpt>
      <trkpt lat="46.75332" lon="6.35231">
        <ele>1340.9</ele>
        <time>2020-08-27T14:23:26Z</time>
      </trkpt>
      <trkpt lat="46.75332" lon="6.35231">
        <ele>1340.8</ele>
        <time>2020-08-27T14:23:27Z</time>
      </trkpt>
      <trkpt lat="46.75332" lon="6.3523">
        <ele>1340.7</ele>
        <time>2020-08-27T14:23:28Z</time>
      </trkpt>
      <trkpt lat="46.75331" lon="6.3523">
        <ele>1340.7</ele>
        <time>2020-08-27T14:23:29Z</time>
      </trkpt>
      <trkpt lat="46.75331" lon="6.35231">
        <ele>1340.6</ele>
        <time>2020-08-27T14:23:30Z</time>
      </trkpt>
      <trkpt lat="46.75331" lon="6.35231">
        <ele>1340.5</ele>
        <time>2020-08-27T14:23:31Z</time>
      </trkpt>
      <trkpt lat="46.75331" lon="6.35231">
        <ele>1340.5</ele>
        <time>2020-08-27T14:23:32Z</time>
      </trkpt>
      <trkpt lat="46.7533" lon="6.35231">
        <ele>1340.4</ele>
        <time>2020-08-27T14:23:33Z</time>
      </trkpt>
      <trkpt lat="46.7533" lon="6.35231">
        <ele>1340.4</ele>
        <time>2020-08-27T14:23:34Z</time>
      </trkpt>
      <trkpt lat="46.7533" lon="6.35231">
        <ele>1340.5</ele>
        <time>2020-08-27T14:23:35Z</time>
      </trkpt>
      <trkpt lat="46.7533" lon="6.35231">
        <ele>1340.5</ele>
        <time>2020-08-27T14:23:36Z</time>
      </trkpt>
      <trkpt lat="46.75329" lon="6.35231">
        <ele>1340.6</ele>
        <time>2020-08-27T14:23:37Z</time>
      </trkpt>
      <trkpt lat="46.75329" lon="6.35231">
        <ele>1340.6</ele>
        <time>2020-08-27T14:23:38Z</time>
      </trkpt>
      <trkpt lat="46.75329" lon="6.3523">
        <ele>1340.7</ele>
        <time>2020-08-27T14:23:39Z</time>
      </trkpt>
      <trkpt lat="46.75329" lon="6.3523">
        <ele>1340.7</ele>
        <time>2020-08-27T14:23:40Z</time>
      </trkpt>
      <trkpt lat="46.75329" lon="6.3523">
        <ele>1340.8</ele>
        <time>2020-08-27T14:23:41Z</time>
      </trkpt>
      <trkpt lat="46.75329" lon="6.3523">
        <ele>1340.8</ele>
        <time>2020-08-27T14:23:42Z</time>
      </trkpt>
      <trkpt lat="46.75328" lon="6.35229">
        <ele>1340.8</ele>
        <time>2020-08-27T14:23:43Z</time>
      </trkpt>
      <trkpt lat="46.75328" lon="6.35229">
        <ele>1340.9</ele>
        <time>2020-08-27T14:23:44Z</time>
      </trkpt>
      <trkpt lat="46.75328" lon="6.35229">
        <ele>1340.9</ele>
        <time>2020-08-27T14:23:45Z</time>
      </trkpt>
      <trkpt lat="46.75328" lon="6.35229">
        <ele>1341</ele>
        <time>2020-08-27T14:23:46Z</time>
      </trkpt>
      <trkpt lat="46.75327" lon="6.35228">
        <ele>1341</ele>
        <time>2020-08-27T14:23:47Z</time>
      </trkpt>
      <trkpt lat="46.75327" lon="6.35228">
        <ele>1341</ele>
        <time>2020-08-27T14:23:48Z</time>
      </trkpt>
      <trkpt lat="46.75327" lon="6.35228">
        <ele>1341</ele>
        <time>2020-08-27T14:23:49Z</time>
      </trkpt>
      <trkpt lat="46.75326" lon="6.35228">
        <ele>1341</ele>
        <time>2020-08-27T14:23:50Z</time>
      </trkpt>
      <trkpt lat="46.75326" lon="6.35227">
        <ele>1341</ele>
        <time>2020-08-27T14:23:51Z</time>
      </trkpt>
      <trkpt lat="46.75326" lon="6.35227">
        <ele>1341</ele>
        <time>2020-08-27T14:23:52Z</time>
      </trkpt>
      <trkpt lat="46.75325" lon="6.35227">
        <ele>1341</ele>
        <time>2020-08-27T14:23:53Z</time>
      </trkpt>
      <trkpt lat="46.75325" lon="6.35227">
        <ele>1341</ele>
        <time>2020-08-27T14:23:54Z</time>
      </trkpt>
      <trkpt lat="46.75325" lon="6.35226">
        <ele>1341</ele>
        <time>2020-08-27T14:23:55Z</time>
      </trkpt>
      <trkpt lat="46.75324" lon="6.35226">
        <ele>1341</ele>
        <time>2020-08-27T14:23:56Z</time>
      </trkpt>
      <trkpt lat="46.75324" lon="6.35226">
        <ele>1341</ele>
        <time>2020-08-27T14:23:57Z</time>
      </trkpt>
      <trkpt lat="46.75324" lon="6.35225">
        <ele>1341</ele>
        <time>2020-08-27T14:23:58Z</time>
      </trkpt>
      <trkpt lat="46.75323" lon="6.35225">
        <ele>1341</ele>
        <time>2020-08-27T14:23:59Z</time>
      </trkpt>
      <trkpt lat="46.75323" lon="6.35224">
        <ele>1341</ele>
        <time>2020-08-27T14:24:00Z</time>
      </trkpt>
      <trkpt lat="46.75323" lon="6.35224">
        <ele>1340.9</ele>
        <time>2020-08-27T14:24:01Z</time>
      </trkpt>
      <trkpt lat="46.75322" lon="6.35224">
        <ele>1340.9</ele>
        <time>2020-08-27T14:24:02Z</time>
      </trkpt>
      <trkpt lat="46.75322" lon="6.35224">
        <ele>1340.8</ele>
        <time>2020-08-27T14:24:03Z</time>
      </trkpt>
      <trkpt lat="46.75322" lon="6.35224">
        <ele>1340.7</ele>
        <time>2020-08-27T14:24:04Z</time>
      </trkpt>
      <trkpt lat="46.75322" lon="6.35224">
        <ele>1340.7</ele>
        <time>2020-08-27T14:24:05Z</time>
      </trkpt>
      <trkpt lat="46.75322" lon="6.35224">
        <ele>1340.6</ele>
        <time>2020-08-27T14:24:06Z</time>
      </trkpt>
      <trkpt lat="46.75322" lon="6.35224">
        <ele>1340.6</ele>
        <time>2020-08-27T14:24:07Z</time>
      </trkpt>
      <trkpt lat="46.75322" lon="6.35224">
        <ele>1340.5</ele>
        <time>2020-08-27T14:24:08Z</time>
      </trkpt>
      <trkpt lat="46.75321" lon="6.35224">
        <ele>1340.5</ele>
        <time>2020-08-27T14:24:09Z</time>
      </trkpt>
      <trkpt lat="46.75321" lon="6.35225">
        <ele>1340.5</ele>
        <time>2020-08-27T14:24:10Z</time>
      </trkpt>
      <trkpt lat="46.75321" lon="6.35225">
        <ele>1340.4</ele>
        <time>2020-08-27T14:24:11Z</time>
      </trkpt>
      <trkpt lat="46.75321" lon="6.35225">
        <ele>1340.4</ele>
        <time>2020-08-27T14:24:12Z</time>
      </trkpt>
      <trkpt lat="46.75321" lon="6.35226">
        <ele>1340.3</ele>
        <time>2020-08-27T14:24:13Z</time>
      </trkpt>
      <trkpt lat="46.75321" lon="6.35226">
        <ele>1340.3</ele>
        <time>2020-08-27T14:24:14Z</time>
      </trkpt>
      <trkpt lat="46.75321" lon="6.35226">
        <ele>1340.3</ele>
        <time>2020-08-27T14:24:15Z</time>
      </trkpt>
      <trkpt lat="46.75321" lon="6.35226">
        <ele>1340.3</ele>
        <time>2020-08-27T14:24:16Z</time>
      </trkpt>
      <trkpt lat="46.75321" lon="6.35227">
        <ele>1340.2</ele>
        <time>2020-08-27T14:24:17Z</time>
      </trkpt>
      <trkpt lat="46.7532" lon="6.35227">
        <ele>1340.2</ele>
        <time>2020-08-27T14:24:18Z</time>
      </trkpt>
      <trkpt lat="46.7532" lon="6.35228">
        <ele>1340.2</ele>
        <time>2020-08-27T14:24:19Z</time>
      </trkpt>
      <trkpt lat="46.7532" lon="6.35228">
        <ele>1340.2</ele>
        <time>2020-08-27T14:24:20Z</time>
      </trkpt>
      <trkpt lat="46.7532" lon="6.35228">
        <ele>1340.2</ele>
        <time>2020-08-27T14:24:21Z</time>
      </trkpt>
      <trkpt lat="46.7532" lon="6.35229">
        <ele>1340.2</ele>
        <time>2020-08-27T14:24:22Z</time>
      </trkpt>
      <trkpt lat="46.7532" lon="6.35229">
        <ele>1340.2</ele>
        <time>2020-08-27T14:24:23Z</time>
      </trkpt>
      <trkpt lat="46.7532" lon="6.35229">
        <ele>1340.2</ele>
        <time>2020-08-27T14:24:24Z</time>
      </trkpt>
      <trkpt lat="46.7532" lon="6.35229">
        <ele>1340.2</ele>
        <time>2020-08-27T14:24:25Z</time>
      </trkpt>
      <trkpt lat="46.7532" lon="6.35229">
        <ele>1340.2</ele>
        <time>2020-08-27T14:24:26Z</time>
      </trkpt>
      <trkpt lat="46.7532" lon="6.35229">
        <ele>1340.3</ele>
        <time>2020-08-27T14:24:27Z</time>
      </trkpt>
      <trkpt lat="46.75321" lon="6.35229">
        <ele>1340.3</ele>
        <time>2020-08-27T14:24:28Z</time>
      </trkpt>
      <trkpt lat="46.75321" lon="6.35229">
        <ele>1340.3</ele>
        <time>2020-08-27T14:24:29Z</time>
      </trkpt>
      <trkpt lat="46.75321" lon="6.35229">
        <ele>1340.3</ele>
        <time>2020-08-27T14:24:30Z</time>
      </trkpt>
      <trkpt lat="46.75321" lon="6.3523">
        <ele>1340.3</ele>
        <time>2020-08-27T14:24:31Z</time>
      </trkpt>
      <trkpt lat="46.75321" lon="6.3523">
        <ele>1340.3</ele>
        <time>2020-08-27T14:24:32Z</time>
      </trkpt>
      <trkpt lat="46.75322" lon="6.3523">
        <ele>1340.3</ele>
        <time>2020-08-27T14:24:33Z</time>
      </trkpt>
      <trkpt lat="46.75322" lon="6.3523">
        <ele>1340.3</ele>
        <time>2020-08-27T14:24:34Z</time>
      </trkpt>
      <trkpt lat="46.75322" lon="6.3523">
        <ele>1340.3</ele>
        <time>2020-08-27T14:24:35Z</time>
      </trkpt>
      <trkpt lat="46.75322" lon="6.3523">
        <ele>1340.3</ele>
        <time>2020-08-27T14:24:36Z</time>
      </trkpt>
      <trkpt lat="46.75323" lon="6.3523">
        <ele>1340.3</ele>
        <time>2020-08-27T14:24:37Z</time>
      </trkpt>
      <trkpt lat="46.75323" lon="6.3523">
        <ele>1340.3</ele>
        <time>2020-08-27T14:24:38Z</time>
      </trkpt>
      <trkpt lat="46.75323" lon="6.3523">
        <ele>1340.3</ele>
        <time>2020-08-27T14:24:39Z</time>
      </trkpt>
      <trkpt lat="46.75323" lon="6.3523">
        <ele>1340.3</ele>
        <time>2020-08-27T14:24:40Z</time>
      </trkpt>
      <trkpt lat="46.75323" lon="6.3523">
        <ele>1340.3</ele>
        <time>2020-08-27T14:24:41Z</time>
      </trkpt>
      <trkpt lat="46.75324" lon="6.3523">
        <ele>1340.3</ele>
        <time>2020-08-27T14:24:42Z</time>
      </trkpt>
      <trkpt lat="46.75324" lon="6.3523">
        <ele>1340.3</ele>
        <time>2020-08-27T14:24:43Z</time>
      </trkpt>
      <trkpt lat="46.75324" lon="6.3523">
        <ele>1340.3</ele>
        <time>2020-08-27T14:24:44Z</time>
      </trkpt>
      <trkpt lat="46.75323" lon="6.3523">
        <ele>1340.3</ele>
        <time>2020-08-27T14:24:45Z</time>
      </trkpt>
      <trkpt lat="46.75323" lon="6.3523">
        <ele>1340.2</ele>
        <time>2020-08-27T14:24:46Z</time>
      </trkpt>
      <trkpt lat="46.75323" lon="6.3523">
        <ele>1340.3</ele>
        <time>2020-08-27T14:24:47Z</time>
      </trkpt>
      <trkpt lat="46.75324" lon="6.3523">
        <ele>1340.3</ele>
        <time>2020-08-27T14:24:48Z</time>
      </trkpt>
      <trkpt lat="46.75324" lon="6.3523">
        <ele>1340.4</ele>
        <time>2020-08-27T14:24:49Z</time>
      </trkpt>
      <trkpt lat="46.75324" lon="6.3523">
        <ele>1340.4</ele>
        <time>2020-08-27T14:24:50Z</time>
      </trkpt>
      <trkpt lat="46.75324" lon="6.3523">
        <ele>1340.5</ele>
        <time>2020-08-27T14:24:51Z</time>
      </trkpt>
      <trkpt lat="46.75324" lon="6.3523">
        <ele>1340.5</ele>
        <time>2020-08-27T14:24:52Z</time>
      </trkpt>
      <trkpt lat="46.75324" lon="6.3523">
        <ele>1340.5</ele>
        <time>2020-08-27T14:24:53Z</time>
      </trkpt>
      <trkpt lat="46.75324" lon="6.3523">
        <ele>1340.6</ele>
        <time>2020-08-27T14:24:54Z</time>
      </trkpt>
      <trkpt lat="46.75324" lon="6.3523">
        <ele>1340.6</ele>
        <time>2020-08-27T14:24:55Z</time>
      </trkpt>
      <trkpt lat="46.75324" lon="6.35231">
        <ele>1340.6</ele>
        <time>2020-08-27T14:24:56Z</time>
      </trkpt>
      <trkpt lat="46.75324" lon="6.35231">
        <ele>1340.6</ele>
        <time>2020-08-27T14:24:57Z</time>
      </trkpt>
      <trkpt lat="46.75324" lon="6.35231">
        <ele>1340.7</ele>
        <time>2020-08-27T14:24:58Z</time>
      </trkpt>
      <trkpt lat="46.75324" lon="6.3523">
        <ele>1340.7</ele>
        <time>2020-08-27T14:24:59Z</time>
      </trkpt>
      <trkpt lat="46.75323" lon="6.3523">
        <ele>1340.7</ele>
        <time>2020-08-27T14:25:00Z</time>
      </trkpt>
      <trkpt lat="46.75322" lon="6.3523">
        <ele>1340.7</ele>
        <time>2020-08-27T14:25:01Z</time>
      </trkpt>
      <trkpt lat="46.75322" lon="6.3523">
        <ele>1340.8</ele>
        <time>2020-08-27T14:25:02Z</time>
      </trkpt>
      <trkpt lat="46.75322" lon="6.3523">
        <ele>1340.7</ele>
        <time>2020-08-27T14:25:03Z</time>
      </trkpt>
      <trkpt lat="46.75321" lon="6.3523">
        <ele>1340.7</ele>
        <time>2020-08-27T14:25:04Z</time>
      </trkpt>
      <trkpt lat="46.75322" lon="6.35229">
        <ele>1340.7</ele>
        <time>2020-08-27T14:25:05Z</time>
      </trkpt>
      <trkpt lat="46.75322" lon="6.35229">
        <ele>1340.7</ele>
        <time>2020-08-27T14:25:06Z</time>
      </trkpt>
      <trkpt lat="46.75322" lon="6.35229">
        <ele>1340.7</ele>
        <time>2020-08-27T14:25:07Z</time>
      </trkpt>
      <trkpt lat="46.75322" lon="6.35229">
        <ele>1340.7</ele>
        <time>2020-08-27T14:25:08Z</time>
      </trkpt>
      <trkpt lat="46.75322" lon="6.35229">
        <ele>1340.7</ele>
        <time>2020-08-27T14:25:09Z</time>
      </trkpt>
      <trkpt lat="46.75322" lon="6.35228">
        <ele>1340.7</ele>
        <time>2020-08-27T14:25:10Z</time>
      </trkpt>
      <trkpt lat="46.75322" lon="6.35228">
        <ele>1340.7</ele>
        <time>2020-08-27T14:25:11Z</time>
      </trkpt>
      <trkpt lat="46.75322" lon="6.35228">
        <ele>1340.7</ele>
        <time>2020-08-27T14:25:12Z</time>
      </trkpt>
      <trkpt lat="46.75323" lon="6.35228">
        <ele>1340.7</ele>
        <time>2020-08-27T14:25:13Z</time>
      </trkpt>
      <trkpt lat="46.75323" lon="6.35228">
        <ele>1340.7</ele>
        <time>2020-08-27T14:25:14Z</time>
      </trkpt>
      <trkpt lat="46.75323" lon="6.35228">
        <ele>1340.7</ele>
        <time>2020-08-27T14:25:15Z</time>
      </trkpt>
      <trkpt lat="46.75323" lon="6.35228">
        <ele>1340.7</ele>
        <time>2020-08-27T14:25:16Z</time>
      </trkpt>
      <trkpt lat="46.75324" lon="6.35228">
        <ele>1340.7</ele>
        <time>2020-08-27T14:25:17Z</time>
      </trkpt>
      <trkpt lat="46.75324" lon="6.35228">
        <ele>1340.7</ele>
        <time>2020-08-27T14:25:18Z</time>
      </trkpt>
      <trkpt lat="46.75324" lon="6.35228">
        <ele>1340.7</ele>
        <time>2020-08-27T14:25:19Z</time>
      </trkpt>
      <trkpt lat="46.75324" lon="6.35228">
        <ele>1340.7</ele>
        <time>2020-08-27T14:25:20Z</time>
      </trkpt>
      <trkpt lat="46.75324" lon="6.35229">
        <ele>1340.7</ele>
        <time>2020-08-27T14:25:21Z</time>
      </trkpt>
      <trkpt lat="46.75324" lon="6.35229">
        <ele>1340.7</ele>
        <time>2020-08-27T14:25:22Z</time>
      </trkpt>
      <trkpt lat="46.75325" lon="6.35229">
        <ele>1340.7</ele>
        <time>2020-08-27T14:25:23Z</time>
      </trkpt>
      <trkpt lat="46.75325" lon="6.35229">
        <ele>1340.8</ele>
        <time>2020-08-27T14:25:24Z</time>
      </trkpt>
      <trkpt lat="46.75325" lon="6.35229">
        <ele>1340.8</ele>
        <time>2020-08-27T14:25:25Z</time>
      </trkpt>
      <trkpt lat="46.75326" lon="6.35229">
        <ele>1340.8</ele>
        <time>2020-08-27T14:25:26Z</time>
      </trkpt>
      <trkpt lat="46.75326" lon="6.35229">
        <ele>1340.8</ele>
        <time>2020-08-27T14:25:27Z</time>
      </trkpt>
      <trkpt lat="46.75326" lon="6.35229">
        <ele>1340.8</ele>
        <time>2020-08-27T14:25:28Z</time>
      </trkpt>
      <trkpt lat="46.75326" lon="6.3523">
        <ele>1340.8</ele>
        <time>2020-08-27T14:25:29Z</time>
      </trkpt>
      <trkpt lat="46.75326" lon="6.3523">
        <ele>1340.8</ele>
        <time>2020-08-27T14:25:30Z</time>
      </trkpt>
      <trkpt lat="46.75326" lon="6.3523">
        <ele>1340.8</ele>
        <time>2020-08-27T14:25:31Z</time>
      </trkpt>
      <trkpt lat="46.75326" lon="6.3523">
        <ele>1340.8</ele>
        <time>2020-08-27T14:25:32Z</time>
      </trkpt>
      <trkpt lat="46.75327" lon="6.3523">
        <ele>1340.8</ele>
        <time>2020-08-27T14:25:33Z</time>
      </trkpt>
      <trkpt lat="46.75327" lon="6.3523">
        <ele>1340.8</ele>
        <time>2020-08-27T14:25:34Z</time>
      </trkpt>
      <trkpt lat="46.75327" lon="6.3523">
        <ele>1340.8</ele>
        <time>2020-08-27T14:25:35Z</time>
      </trkpt>
      <trkpt lat="46.75328" lon="6.35231">
        <ele>1340.8</ele>
        <time>2020-08-27T14:25:36Z</time>
      </trkpt>
      <trkpt lat="46.75328" lon="6.35231">
        <ele>1340.8</ele>
        <time>2020-08-27T14:25:37Z</time>
      </trkpt>
      <trkpt lat="46.75329" lon="6.35231">
        <ele>1340.8</ele>
        <time>2020-08-27T14:25:38Z</time>
      </trkpt>
      <trkpt lat="46.75329" lon="6.35231">
        <ele>1340.8</ele>
        <time>2020-08-27T14:25:39Z</time>
      </trkpt>
      <trkpt lat="46.7533" lon="6.35231">
        <ele>1340.8</ele>
        <time>2020-08-27T14:25:40Z</time>
      </trkpt>
      <trkpt lat="46.7533" lon="6.35231">
        <ele>1340.8</ele>
        <time>2020-08-27T14:25:41Z</time>
      </trkpt>
      <trkpt lat="46.7533" lon="6.35231">
        <ele>1340.8</ele>
        <time>2020-08-27T14:25:42Z</time>
      </trkpt>
      <trkpt lat="46.7533" lon="6.35231">
        <ele>1340.8</ele>
        <time>2020-08-27T14:25:43Z</time>
      </trkpt>
      <trkpt lat="46.75331" lon="6.35231">
        <ele>1340.8</ele>
        <time>2020-08-27T14:25:44Z</time>
      </trkpt>
      <trkpt lat="46.75331" lon="6.35231">
        <ele>1340.8</ele>
        <time>2020-08-27T14:25:45Z</time>
      </trkpt>
      <trkpt lat="46.75331" lon="6.35231">
        <ele>1340.8</ele>
        <time>2020-08-27T14:25:46Z</time>
      </trkpt>
      <trkpt lat="46.75331" lon="6.35231">
        <ele>1340.8</ele>
        <time>2020-08-27T14:25:47Z</time>
      </trkpt>
      <trkpt lat="46.75331" lon="6.35231">
        <ele>1340.8</ele>
        <time>2020-08-27T14:25:48Z</time>
      </trkpt>
      <trkpt lat="46.75332" lon="6.35231">
        <ele>1340.8</ele>
        <time>2020-08-27T14:25:49Z</time>
      </trkpt>
      <trkpt lat="46.75332" lon="6.35231">
        <ele>1340.8</ele>
        <time>2020-08-27T14:25:50Z</time>
      </trkpt>
      <trkpt lat="46.75332" lon="6.35231">
        <ele>1340.8</ele>
        <time>2020-08-27T14:25:51Z</time>
      </trkpt>
      <trkpt lat="46.75332" lon="6.35231">
        <ele>1340.8</ele>
        <time>2020-08-27T14:25:52Z</time>
      </trkpt>
      <trkpt lat="46.75333" lon="6.35231">
        <ele>1340.8</ele>
        <time>2020-08-27T14:25:53Z</time>
      </trkpt>
      <trkpt lat="46.75333" lon="6.35231">
        <ele>1340.8</ele>
        <time>2020-08-27T14:25:54Z</time>
      </trkpt>
      <trkpt lat="46.75333" lon="6.35231">
        <ele>1340.8</ele>
        <time>2020-08-27T14:25:55Z</time>
      </trkpt>
      <trkpt lat="46.75333" lon="6.35231">
        <ele>1340.8</ele>
        <time>2020-08-27T14:25:56Z</time>
      </trkpt>
      <trkpt lat="46.75333" lon="6.35231">
        <ele>1340.8</ele>
        <time>2020-08-27T14:25:57Z</time>
      </trkpt>
      <trkpt lat="46.75333" lon="6.35231">
        <ele>1340.8</ele>
        <time>2020-08-27T14:25:58Z</time>
      </trkpt>
      <trkpt lat="46.75332" lon="6.35232">
        <ele>1340.8</ele>
        <time>2020-08-27T14:25:59Z</time>
      </trkpt>
      <trkpt lat="46.75332" lon="6.35232">
        <ele>1340.8</ele>
        <time>2020-08-27T14:26:00Z</time>
      </trkpt>
      <trkpt lat="46.75332" lon="6.35232">
        <ele>1340.8</ele>
        <time>2020-08-27T14:26:01Z</time>
      </trkpt>
      <trkpt lat="46.75332" lon="6.35232">
        <ele>1340.8</ele>
        <time>2020-08-27T14:26:02Z</time>
      </trkpt>
      <trkpt lat="46.75332" lon="6.35232">
        <ele>1340.8</ele>
        <time>2020-08-27T14:26:03Z</time>
      </trkpt>
      <trkpt lat="46.75331" lon="6.35232">
        <ele>1340.8</ele>
        <time>2020-08-27T14:26:04Z</time>
      </trkpt>
      <trkpt lat="46.75331" lon="6.35233">
        <ele>1340.8</ele>
        <time>2020-08-27T14:26:05Z</time>
      </trkpt>
      <trkpt lat="46.75331" lon="6.35233">
        <ele>1340.8</ele>
        <time>2020-08-27T14:26:06Z</time>
      </trkpt>
      <trkpt lat="46.75331" lon="6.35233">
        <ele>1340.9</ele>
        <time>2020-08-27T14:26:07Z</time>
      </trkpt>
      <trkpt lat="46.7533" lon="6.35233">
        <ele>1340.9</ele>
        <time>2020-08-27T14:26:08Z</time>
      </trkpt>
      <trkpt lat="46.7533" lon="6.35233">
        <ele>1340.9</ele>
        <time>2020-08-27T14:26:09Z</time>
      </trkpt>
      <trkpt lat="46.7533" lon="6.35233">
        <ele>1340.9</ele>
        <time>2020-08-27T14:26:10Z</time>
      </trkpt>
      <trkpt lat="46.75329" lon="6.35233">
        <ele>1340.9</ele>
        <time>2020-08-27T14:26:11Z</time>
      </trkpt>
      <trkpt lat="46.75329" lon="6.35233">
        <ele>1341</ele>
        <time>2020-08-27T14:26:12Z</time>
      </trkpt>
      <trkpt lat="46.75329" lon="6.35233">
        <ele>1341</ele>
        <time>2020-08-27T14:26:13Z</time>
      </trkpt>
      <trkpt lat="46.75328" lon="6.35233">
        <ele>1341</ele>
        <time>2020-08-27T14:26:14Z</time>
      </trkpt>
      <trkpt lat="46.75328" lon="6.35233">
        <ele>1341</ele>
        <time>2020-08-27T14:26:15Z</time>
      </trkpt>
      <trkpt lat="46.75328" lon="6.35233">
        <ele>1340.9</ele>
        <time>2020-08-27T14:26:16Z</time>
      </trkpt>
      <trkpt lat="46.75328" lon="6.35233">
        <ele>1340.9</ele>
        <time>2020-08-27T14:26:17Z</time>
      </trkpt>
      <trkpt lat="46.75328" lon="6.35233">
        <ele>1340.8</ele>
        <time>2020-08-27T14:26:18Z</time>
      </trkpt>
      <trkpt lat="46.75328" lon="6.35232">
        <ele>1340.8</ele>
        <time>2020-08-27T14:26:19Z</time>
      </trkpt>
      <trkpt lat="46.75328" lon="6.35232">
        <ele>1340.8</ele>
        <time>2020-08-27T14:26:20Z</time>
      </trkpt>
      <trkpt lat="46.75328" lon="6.35232">
        <ele>1340.8</ele>
        <time>2020-08-27T14:26:21Z</time>
      </trkpt>
      <trkpt lat="46.75328" lon="6.35232">
        <ele>1340.7</ele>
        <time>2020-08-27T14:26:22Z</time>
      </trkpt>
      <trkpt lat="46.75328" lon="6.35232">
        <ele>1340.7</ele>
        <time>2020-08-27T14:26:23Z</time>
      </trkpt>
      <trkpt lat="46.75328" lon="6.35232">
        <ele>1340.7</ele>
        <time>2020-08-27T14:26:24Z</time>
      </trkpt>
      <trkpt lat="46.75328" lon="6.35232">
        <ele>1340.7</ele>
        <time>2020-08-27T14:26:25Z</time>
      </trkpt>
      <trkpt lat="46.75329" lon="6.35232">
        <ele>1340.7</ele>
        <time>2020-08-27T14:26:26Z</time>
      </trkpt>
      <trkpt lat="46.75329" lon="6.35232">
        <ele>1340.8</ele>
        <time>2020-08-27T14:26:27Z</time>
      </trkpt>
      <trkpt lat="46.75329" lon="6.35231">
        <ele>1340.8</ele>
        <time>2020-08-27T14:26:28Z</time>
      </trkpt>
      <trkpt lat="46.75329" lon="6.35231">
        <ele>1340.8</ele>
        <time>2020-08-27T14:26:29Z</time>
      </trkpt>
      <trkpt lat="46.75329" lon="6.35231">
        <ele>1340.8</ele>
        <time>2020-08-27T14:26:30Z</time>
      </trkpt>
      <trkpt lat="46.7533" lon="6.35231">
        <ele>1340.8</ele>
        <time>2020-08-27T14:26:31Z</time>
      </trkpt>
      <trkpt lat="46.7533" lon="6.35231">
        <ele>1340.8</ele>
        <time>2020-08-27T14:26:32Z</time>
      </trkpt>
      <trkpt lat="46.7533" lon="6.35231">
        <ele>1340.7</ele>
        <time>2020-08-27T14:26:33Z</time>
      </trkpt>
      <trkpt lat="46.7533" lon="6.35231">
        <ele>1340.7</ele>
        <time>2020-08-27T14:26:34Z</time>
      </trkpt>
      <trkpt lat="46.7533" lon="6.35231">
        <ele>1340.7</ele>
        <time>2020-08-27T14:26:35Z</time>
      </trkpt>
      <trkpt lat="46.7533" lon="6.35231">
        <ele>1340.7</ele>
        <time>2020-08-27T14:26:36Z</time>
      </trkpt>
      <trkpt lat="46.7533" lon="6.35231">
        <ele>1340.7</ele>
        <time>2020-08-27T14:26:37Z</time>
      </trkpt>
      <trkpt lat="46.75329" lon="6.35231">
        <ele>1340.7</ele>
        <time>2020-08-27T14:26:38Z</time>
      </trkpt>
      <trkpt lat="46.7533" lon="6.35231">
        <ele>1340.7</ele>
        <time>2020-08-27T14:26:39Z</time>
      </trkpt>
      <trkpt lat="46.75329" lon="6.35231">
        <ele>1340.7</ele>
        <time>2020-08-27T14:26:40Z</time>
      </trkpt>
      <trkpt lat="46.75329" lon="6.35231">
        <ele>1340.7</ele>
        <time>2020-08-27T14:26:41Z</time>
      </trkpt>
      <trkpt lat="46.75329" lon="6.35231">
        <ele>1340.7</ele>
        <time>2020-08-27T14:26:42Z</time>
      </trkpt>
      <trkpt lat="46.75329" lon="6.35231">
        <ele>1340.7</ele>
        <time>2020-08-27T14:26:43Z</time>
      </trkpt>
      <trkpt lat="46.75329" lon="6.35231">
        <ele>1340.7</ele>
        <time>2020-08-27T14:26:44Z</time>
      </trkpt>
      <trkpt lat="46.75329" lon="6.35231">
        <ele>1340.7</ele>
        <time>2020-08-27T14:26:45Z</time>
      </trkpt>
      <trkpt lat="46.75328" lon="6.35231">
        <ele>1340.7</ele>
        <time>2020-08-27T14:26:46Z</time>
      </trkpt>
      <trkpt lat="46.75328" lon="6.35231">
        <ele>1340.7</ele>
        <time>2020-08-27T14:26:47Z</time>
      </trkpt>
      <trkpt lat="46.75328" lon="6.35231">
        <ele>1340.7</ele>
        <time>2020-08-27T14:26:48Z</time>
      </trkpt>
      <trkpt lat="46.75329" lon="6.35231">
        <ele>1340.8</ele>
        <time>2020-08-27T14:26:49Z</time>
      </trkpt>
      <trkpt lat="46.75329" lon="6.35231">
        <ele>1340.8</ele>
        <time>2020-08-27T14:26:50Z</time>
      </trkpt>
      <trkpt lat="46.7533" lon="6.35231">
        <ele>1340.8</ele>
        <time>2020-08-27T14:26:51Z</time>
      </trkpt>
      <trkpt lat="46.7533" lon="6.35231">
        <ele>1340.8</ele>
        <time>2020-08-27T14:26:52Z</time>
      </trkpt>
      <trkpt lat="46.7533" lon="6.35231">
        <ele>1340.9</ele>
        <time>2020-08-27T14:26:53Z</time>
      </trkpt>
      <trkpt lat="46.75331" lon="6.35231">
        <ele>1340.9</ele>
        <time>2020-08-27T14:26:54Z</time>
      </trkpt>
      <trkpt lat="46.75331" lon="6.35231">
        <ele>1340.9</ele>
        <time>2020-08-27T14:26:55Z</time>
      </trkpt>
      <trkpt lat="46.75332" lon="6.35231">
        <ele>1341</ele>
        <time>2020-08-27T14:26:56Z</time>
      </trkpt>
      <trkpt lat="46.75333" lon="6.35231">
        <ele>1341</ele>
        <time>2020-08-27T14:26:57Z</time>
      </trkpt>
      <trkpt lat="46.75333" lon="6.35231">
        <ele>1341</ele>
        <time>2020-08-27T14:26:58Z</time>
      </trkpt>
      <trkpt lat="46.75333" lon="6.3523">
        <ele>1341.1</ele>
        <time>2020-08-27T14:26:59Z</time>
      </trkpt>
      <trkpt lat="46.75334" lon="6.3523">
        <ele>1341.1</ele>
        <time>2020-08-27T14:27:00Z</time>
      </trkpt>
      <trkpt lat="46.75334" lon="6.3523">
        <ele>1341.1</ele>
        <time>2020-08-27T14:27:01Z</time>
      </trkpt>
      <trkpt lat="46.75335" lon="6.3523">
        <ele>1341.1</ele>
        <time>2020-08-27T14:27:02Z</time>
      </trkpt>
      <trkpt lat="46.75335" lon="6.35229">
        <ele>1341.2</ele>
        <time>2020-08-27T14:27:03Z</time>
      </trkpt>
      <trkpt lat="46.75335" lon="6.35229">
        <ele>1341.2</ele>
        <time>2020-08-27T14:27:04Z</time>
      </trkpt>
      <trkpt lat="46.75335" lon="6.35229">
        <ele>1341.2</ele>
        <time>2020-08-27T14:27:05Z</time>
      </trkpt>
      <trkpt lat="46.75336" lon="6.35229">
        <ele>1341.2</ele>
        <time>2020-08-27T14:27:06Z</time>
      </trkpt>
      <trkpt lat="46.75336" lon="6.35229">
        <ele>1341.2</ele>
        <time>2020-08-27T14:27:07Z</time>
      </trkpt>
      <trkpt lat="46.75336" lon="6.35229">
        <ele>1341.2</ele>
        <time>2020-08-27T14:27:08Z</time>
      </trkpt>
      <trkpt lat="46.75336" lon="6.35229">
        <ele>1341.2</ele>
        <time>2020-08-27T14:27:09Z</time>
      </trkpt>
      <trkpt lat="46.75337" lon="6.35229">
        <ele>1341.2</ele>
        <time>2020-08-27T14:27:10Z</time>
      </trkpt>
      <trkpt lat="46.75337" lon="6.35228">
        <ele>1341.2</ele>
        <time>2020-08-27T14:27:11Z</time>
      </trkpt>
      <trkpt lat="46.75337" lon="6.35228">
        <ele>1341.2</ele>
        <time>2020-08-27T14:27:12Z</time>
      </trkpt>
      <trkpt lat="46.75338" lon="6.35228">
        <ele>1341.2</ele>
        <time>2020-08-27T14:27:13Z</time>
      </trkpt>
      <trkpt lat="46.75338" lon="6.35228">
        <ele>1341.2</ele>
        <time>2020-08-27T14:27:14Z</time>
      </trkpt>
      <trkpt lat="46.75338" lon="6.35228">
        <ele>1341.3</ele>
        <time>2020-08-27T14:27:15Z</time>
      </trkpt>
      <trkpt lat="46.75338" lon="6.35228">
        <ele>1341.2</ele>
        <time>2020-08-27T14:27:16Z</time>
      </trkpt>
      <trkpt lat="46.75338" lon="6.35228">
        <ele>1341.2</ele>
        <time>2020-08-27T14:27:17Z</time>
      </trkpt>
      <trkpt lat="46.75338" lon="6.35228">
        <ele>1341.2</ele>
        <time>2020-08-27T14:27:18Z</time>
      </trkpt>
      <trkpt lat="46.75338" lon="6.35227">
        <ele>1341.1</ele>
        <time>2020-08-27T14:27:19Z</time>
      </trkpt>
      <trkpt lat="46.75338" lon="6.35227">
        <ele>1341.1</ele>
        <time>2020-08-27T14:27:20Z</time>
      </trkpt>
      <trkpt lat="46.75338" lon="6.35227">
        <ele>1341.1</ele>
        <time>2020-08-27T14:27:21Z</time>
      </trkpt>
      <trkpt lat="46.75338" lon="6.35227">
        <ele>1341.1</ele>
        <time>2020-08-27T14:27:22Z</time>
      </trkpt>
      <trkpt lat="46.75338" lon="6.35227">
        <ele>1341.1</ele>
        <time>2020-08-27T14:27:23Z</time>
      </trkpt>
      <trkpt lat="46.75338" lon="6.35226">
        <ele>1341.1</ele>
        <time>2020-08-27T14:27:24Z</time>
      </trkpt>
      <trkpt lat="46.75338" lon="6.35226">
        <ele>1341.1</ele>
        <time>2020-08-27T14:27:25Z</time>
      </trkpt>
      <trkpt lat="46.75337" lon="6.35226">
        <ele>1341.1</ele>
        <time>2020-08-27T14:27:26Z</time>
      </trkpt>
      <trkpt lat="46.75337" lon="6.35226">
        <ele>1341.1</ele>
        <time>2020-08-27T14:27:27Z</time>
      </trkpt>
      <trkpt lat="46.75337" lon="6.35226">
        <ele>1341</ele>
        <time>2020-08-27T14:27:28Z</time>
      </trkpt>
      <trkpt lat="46.75337" lon="6.35227">
        <ele>1341</ele>
        <time>2020-08-27T14:27:29Z</time>
      </trkpt>
      <trkpt lat="46.75337" lon="6.35227">
        <ele>1341</ele>
        <time>2020-08-27T14:27:30Z</time>
      </trkpt>
      <trkpt lat="46.75337" lon="6.35227">
        <ele>1341</ele>
        <time>2020-08-27T14:27:31Z</time>
      </trkpt>
      <trkpt lat="46.75337" lon="6.35227">
        <ele>1340.9</ele>
        <time>2020-08-27T14:27:32Z</time>
      </trkpt>
      <trkpt lat="46.75337" lon="6.35227">
        <ele>1341</ele>
        <time>2020-08-27T14:27:33Z</time>
      </trkpt>
      <trkpt lat="46.75337" lon="6.35227">
        <ele>1341</ele>
        <time>2020-08-27T14:27:34Z</time>
      </trkpt>
      <trkpt lat="46.75337" lon="6.35227">
        <ele>1341</ele>
        <time>2020-08-27T14:27:35Z</time>
      </trkpt>
      <trkpt lat="46.75337" lon="6.35227">
        <ele>1341</ele>
        <time>2020-08-27T14:27:36Z</time>
      </trkpt>
      <trkpt lat="46.75336" lon="6.35227">
        <ele>1341</ele>
        <time>2020-08-27T14:27:37Z</time>
      </trkpt>
      <trkpt lat="46.75336" lon="6.35227">
        <ele>1341.1</ele>
        <time>2020-08-27T14:27:38Z</time>
      </trkpt>
      <trkpt lat="46.75335" lon="6.35227">
        <ele>1341.1</ele>
        <time>2020-08-27T14:27:39Z</time>
      </trkpt>
      <trkpt lat="46.75335" lon="6.35228">
        <ele>1341.1</ele>
        <time>2020-08-27T14:27:40Z</time>
      </trkpt>
      <trkpt lat="46.75335" lon="6.35228">
        <ele>1341.1</ele>
        <time>2020-08-27T14:27:41Z</time>
      </trkpt>
      <trkpt lat="46.75334" lon="6.35228">
        <ele>1341.1</ele>
        <time>2020-08-27T14:27:42Z</time>
      </trkpt>
      <trkpt lat="46.75334" lon="6.35229">
        <ele>1341.1</ele>
        <time>2020-08-27T14:27:43Z</time>
      </trkpt>
      <trkpt lat="46.75333" lon="6.35229">
        <ele>1341.1</ele>
        <time>2020-08-27T14:27:44Z</time>
      </trkpt>
      <trkpt lat="46.75333" lon="6.35229">
        <ele>1341.1</ele>
        <time>2020-08-27T14:27:45Z</time>
      </trkpt>
      <trkpt lat="46.75332" lon="6.35229">
        <ele>1341.1</ele>
        <time>2020-08-27T14:27:46Z</time>
      </trkpt>
      <trkpt lat="46.75332" lon="6.35229">
        <ele>1341.1</ele>
        <time>2020-08-27T14:27:47Z</time>
      </trkpt>
      <trkpt lat="46.75332" lon="6.35229">
        <ele>1341.2</ele>
        <time>2020-08-27T14:27:48Z</time>
      </trkpt>
      <trkpt lat="46.75331" lon="6.35228">
        <ele>1341.2</ele>
        <time>2020-08-27T14:27:49Z</time>
      </trkpt>
      <trkpt lat="46.75331" lon="6.35228">
        <ele>1341.2</ele>
        <time>2020-08-27T14:27:50Z</time>
      </trkpt>
      <trkpt lat="46.75331" lon="6.35228">
        <ele>1341.2</ele>
        <time>2020-08-27T14:27:51Z</time>
      </trkpt>
      <trkpt lat="46.75331" lon="6.35228">
        <ele>1341.1</ele>
        <time>2020-08-27T14:27:52Z</time>
      </trkpt>
      <trkpt lat="46.75331" lon="6.35228">
        <ele>1341.1</ele>
        <time>2020-08-27T14:27:53Z</time>
      </trkpt>
      <trkpt lat="46.7533" lon="6.35228">
        <ele>1341.2</ele>
        <time>2020-08-27T14:27:54Z</time>
      </trkpt>
      <trkpt lat="46.7533" lon="6.35228">
        <ele>1341.2</ele>
        <time>2020-08-27T14:27:55Z</time>
      </trkpt>
      <trkpt lat="46.75329" lon="6.35228">
        <ele>1341.2</ele>
        <time>2020-08-27T14:27:56Z</time>
      </trkpt>
      <trkpt lat="46.75329" lon="6.35228">
        <ele>1341.2</ele>
        <time>2020-08-27T14:27:57Z</time>
      </trkpt>
      <trkpt lat="46.75329" lon="6.35227">
        <ele>1341.2</ele>
        <time>2020-08-27T14:27:58Z</time>
      </trkpt>
      <trkpt lat="46.75328" lon="6.35227">
        <ele>1341.2</ele>
        <time>2020-08-27T14:27:59Z</time>
      </trkpt>
      <trkpt lat="46.75328" lon="6.35227">
        <ele>1341.2</ele>
        <time>2020-08-27T14:28:00Z</time>
      </trkpt>
      <trkpt lat="46.75327" lon="6.35227">
        <ele>1341.2</ele>
        <time>2020-08-27T14:28:01Z</time>
      </trkpt>
      <trkpt lat="46.75327" lon="6.35227">
        <ele>1341.3</ele>
        <time>2020-08-27T14:28:02Z</time>
      </trkpt>
      <trkpt lat="46.75327" lon="6.35227">
        <ele>1341.3</ele>
        <time>2020-08-27T14:28:03Z</time>
      </trkpt>
      <trkpt lat="46.75326" lon="6.35228">
        <ele>1341.3</ele>
        <time>2020-08-27T14:28:04Z</time>
      </trkpt>
      <trkpt lat="46.75326" lon="6.35228">
        <ele>1341.3</ele>
        <time>2020-08-27T14:28:05Z</time>
      </trkpt>
      <trkpt lat="46.75326" lon="6.35228">
        <ele>1341.3</ele>
        <time>2020-08-27T14:28:06Z</time>
      </trkpt>
      <trkpt lat="46.75326" lon="6.35228">
        <ele>1341.3</ele>
        <time>2020-08-27T14:28:07Z</time>
      </trkpt>
      <trkpt lat="46.75325" lon="6.35228">
        <ele>1341.3</ele>
        <time>2020-08-27T14:28:08Z</time>
      </trkpt>
      <trkpt lat="46.75325" lon="6.35227">
        <ele>1341.3</ele>
        <time>2020-08-27T14:28:09Z</time>
      </trkpt>
      <trkpt lat="46.75326" lon="6.35227">
        <ele>1341.3</ele>
        <time>2020-08-27T14:28:10Z</time>
      </trkpt>
      <trkpt lat="46.75326" lon="6.35228">
        <ele>1341.3</ele>
        <time>2020-08-27T14:28:11Z</time>
      </trkpt>
      <trkpt lat="46.75325" lon="6.35228">
        <ele>1341.3</ele>
        <time>2020-08-27T14:28:12Z</time>
      </trkpt>
      <trkpt lat="46.75326" lon="6.35228">
        <ele>1341.3</ele>
        <time>2020-08-27T14:28:13Z</time>
      </trkpt>
      <trkpt lat="46.75326" lon="6.35228">
        <ele>1341.3</ele>
        <time>2020-08-27T14:28:14Z</time>
      </trkpt>
      <trkpt lat="46.75327" lon="6.35228">
        <ele>1341.3</ele>
        <time>2020-08-27T14:28:15Z</time>
      </trkpt>
      <trkpt lat="46.75327" lon="6.35226">
        <ele>1341.3</ele>
        <time>2020-08-27T14:28:16Z</time>
      </trkpt>
      <trkpt lat="46.75327" lon="6.35225">
        <ele>1341.4</ele>
        <time>2020-08-27T14:28:17Z</time>
      </trkpt>
      <trkpt lat="46.75328" lon="6.35221">
        <ele>1341.4</ele>
        <time>2020-08-27T14:28:18Z</time>
      </trkpt>
      <trkpt lat="46.75329" lon="6.35218">
        <ele>1341.4</ele>
        <time>2020-08-27T14:28:19Z</time>
      </trkpt>
      <trkpt lat="46.7533" lon="6.35214">
        <ele>1341.3</ele>
        <time>2020-08-27T14:28:20Z</time>
      </trkpt>
      <trkpt lat="46.75331" lon="6.35209">
        <ele>1341.2</ele>
        <time>2020-08-27T14:28:21Z</time>
      </trkpt>
      <trkpt lat="46.75329" lon="6.35203">
        <ele>1341.1</ele>
        <time>2020-08-27T14:28:22Z</time>
      </trkpt>
      <trkpt lat="46.75328" lon="6.35197">
        <ele>1341.1</ele>
        <time>2020-08-27T14:28:23Z</time>
      </trkpt>
      <trkpt lat="46.75326" lon="6.35191">
        <ele>1341</ele>
        <time>2020-08-27T14:28:24Z</time>
      </trkpt>
      <trkpt lat="46.75326" lon="6.35184">
        <ele>1340.9</ele>
        <time>2020-08-27T14:28:25Z</time>
      </trkpt>
      <trkpt lat="46.75326" lon="6.35178">
        <ele>1340.9</ele>
        <time>2020-08-27T14:28:26Z</time>
      </trkpt>
      <trkpt lat="46.75324" lon="6.35175">
        <ele>1340.8</ele>
        <time>2020-08-27T14:28:27Z</time>
      </trkpt>
      <trkpt lat="46.75321" lon="6.35172">
        <ele>1340.8</ele>
        <time>2020-08-27T14:28:28Z</time>
      </trkpt>
      <trkpt lat="46.75319" lon="6.35168">
        <ele>1340.7</ele>
        <time>2020-08-27T14:28:29Z</time>
      </trkpt>
      <trkpt lat="46.75318" lon="6.35163">
        <ele>1340.6</ele>
        <time>2020-08-27T14:28:30Z</time>
      </trkpt>
      <trkpt lat="46.75317" lon="6.35158">
        <ele>1340.6</ele>
        <time>2020-08-27T14:28:31Z</time>
      </trkpt>
      <trkpt lat="46.75317" lon="6.35151">
        <ele>1340.5</ele>
        <time>2020-08-27T14:28:32Z</time>
      </trkpt>
      <trkpt lat="46.75318" lon="6.35145">
        <ele>1340.4</ele>
        <time>2020-08-27T14:28:33Z</time>
      </trkpt>
      <trkpt lat="46.75318" lon="6.3514">
        <ele>1340.3</ele>
        <time>2020-08-27T14:28:34Z</time>
      </trkpt>
      <trkpt lat="46.75317" lon="6.35135">
        <ele>1340.1</ele>
        <time>2020-08-27T14:28:35Z</time>
      </trkpt>
      <trkpt lat="46.75315" lon="6.3513">
        <ele>1339.9</ele>
        <time>2020-08-27T14:28:36Z</time>
      </trkpt>
      <trkpt lat="46.75314" lon="6.35124">
        <ele>1339.6</ele>
        <time>2020-08-27T14:28:37Z</time>
      </trkpt>
      <trkpt lat="46.75313" lon="6.35119">
        <ele>1339.3</ele>
        <time>2020-08-27T14:28:38Z</time>
      </trkpt>
      <trkpt lat="46.75311" lon="6.35114">
        <ele>1339</ele>
        <time>2020-08-27T14:28:39Z</time>
      </trkpt>
      <trkpt lat="46.7531" lon="6.3511">
        <ele>1338.7</ele>
        <time>2020-08-27T14:28:40Z</time>
      </trkpt>
      <trkpt lat="46.75311" lon="6.35107">
        <ele>1338.4</ele>
        <time>2020-08-27T14:28:41Z</time>
      </trkpt>
      <trkpt lat="46.75312" lon="6.35107">
        <ele>1338.1</ele>
        <time>2020-08-27T14:28:42Z</time>
      </trkpt>
      <trkpt lat="46.75313" lon="6.35108">
        <ele>1337.9</ele>
        <time>2020-08-27T14:28:43Z</time>
      </trkpt>
      <trkpt lat="46.75315" lon="6.3511">
        <ele>1337.7</ele>
        <time>2020-08-27T14:28:44Z</time>
      </trkpt>
      <trkpt lat="46.75317" lon="6.35113">
        <ele>1337.5</ele>
        <time>2020-08-27T14:28:45Z</time>
      </trkpt>
      <trkpt lat="46.75319" lon="6.35118">
        <ele>1337.3</ele>
        <time>2020-08-27T14:28:46Z</time>
      </trkpt>
      <trkpt lat="46.75321" lon="6.35122">
        <ele>1337.1</ele>
        <time>2020-08-27T14:28:47Z</time>
      </trkpt>
      <trkpt lat="46.75323" lon="6.35126">
        <ele>1336.9</ele>
        <time>2020-08-27T14:28:48Z</time>
      </trkpt>
      <trkpt lat="46.75325" lon="6.35128">
        <ele>1336.5</ele>
        <time>2020-08-27T14:28:49Z</time>
      </trkpt>
      <trkpt lat="46.75326" lon="6.3513">
        <ele>1336.2</ele>
        <time>2020-08-27T14:28:50Z</time>
      </trkpt>
      <trkpt lat="46.75327" lon="6.35132">
        <ele>1335.9</ele>
        <time>2020-08-27T14:28:51Z</time>
      </trkpt>
      <trkpt lat="46.75328" lon="6.35133">
        <ele>1335.6</ele>
        <time>2020-08-27T14:28:52Z</time>
      </trkpt>
      <trkpt lat="46.75328" lon="6.35134">
        <ele>1335.4</ele>
        <time>2020-08-27T14:28:53Z</time>
      </trkpt>
      <trkpt lat="46.75329" lon="6.35135">
        <ele>1335.3</ele>
        <time>2020-08-27T14:28:54Z</time>
      </trkpt>
      <trkpt lat="46.7533" lon="6.35136">
        <ele>1335.1</ele>
        <time>2020-08-27T14:28:55Z</time>
      </trkpt>
      <trkpt lat="46.75331" lon="6.35136">
        <ele>1335</ele>
        <time>2020-08-27T14:28:56Z</time>
      </trkpt>
      <trkpt lat="46.75331" lon="6.35137">
        <ele>1334.8</ele>
        <time>2020-08-27T14:28:57Z</time>
      </trkpt>
      <trkpt lat="46.75331" lon="6.35137">
        <ele>1334.7</ele>
        <time>2020-08-27T14:28:58Z</time>
      </trkpt>
      <trkpt lat="46.75332" lon="6.35137">
        <ele>1334.6</ele>
        <time>2020-08-27T14:28:59Z</time>
      </trkpt>
      <trkpt lat="46.75333" lon="6.35136">
        <ele>1334.5</ele>
        <time>2020-08-27T14:29:00Z</time>
      </trkpt>
      <trkpt lat="46.75335" lon="6.35134">
        <ele>1334.4</ele>
        <time>2020-08-27T14:29:01Z</time>
      </trkpt>
      <trkpt lat="46.75336" lon="6.35131">
        <ele>1334.3</ele>
        <time>2020-08-27T14:29:02Z</time>
      </trkpt>
      <trkpt lat="46.75336" lon="6.35128">
        <ele>1334.1</ele>
        <time>2020-08-27T14:29:03Z</time>
      </trkpt>
      <trkpt lat="46.75336" lon="6.35125">
        <ele>1333.9</ele>
        <time>2020-08-27T14:29:04Z</time>
      </trkpt>
      <trkpt lat="46.75336" lon="6.35122">
        <ele>1333.7</ele>
        <time>2020-08-27T14:29:05Z</time>
      </trkpt>
      <trkpt lat="46.75334" lon="6.35118">
        <ele>1333.6</ele>
        <time>2020-08-27T14:29:06Z</time>
      </trkpt>
      <trkpt lat="46.75333" lon="6.35115">
        <ele>1333.4</ele>
        <time>2020-08-27T14:29:07Z</time>
      </trkpt>
      <trkpt lat="46.75332" lon="6.35113">
        <ele>1333.1</ele>
        <time>2020-08-27T14:29:08Z</time>
      </trkpt>
      <trkpt lat="46.75331" lon="6.35111">
        <ele>1332.8</ele>
        <time>2020-08-27T14:29:09Z</time>
      </trkpt>
      <trkpt lat="46.7533" lon="6.35109">
        <ele>1332.5</ele>
        <time>2020-08-27T14:29:10Z</time>
      </trkpt>
      <trkpt lat="46.75329" lon="6.35106">
        <ele>1332.2</ele>
        <time>2020-08-27T14:29:11Z</time>
      </trkpt>
      <trkpt lat="46.75328" lon="6.35103">
        <ele>1332</ele>
        <time>2020-08-27T14:29:12Z</time>
      </trkpt>
      <trkpt lat="46.75328" lon="6.35101">
        <ele>1331.8</ele>
        <time>2020-08-27T14:29:13Z</time>
      </trkpt>
      <trkpt lat="46.75327" lon="6.35099">
        <ele>1331.6</ele>
        <time>2020-08-27T14:29:14Z</time>
      </trkpt>
      <trkpt lat="46.75327" lon="6.35097">
        <ele>1331.4</ele>
        <time>2020-08-27T14:29:15Z</time>
      </trkpt>
      <trkpt lat="46.75327" lon="6.35095">
        <ele>1331.2</ele>
        <time>2020-08-27T14:29:16Z</time>
      </trkpt>
      <trkpt lat="46.75327" lon="6.35093">
        <ele>1331</ele>
        <time>2020-08-27T14:29:17Z</time>
      </trkpt>
      <trkpt lat="46.75328" lon="6.3509">
        <ele>1330.8</ele>
        <time>2020-08-27T14:29:18Z</time>
      </trkpt>
      <trkpt lat="46.75329" lon="6.35087">
        <ele>1330.6</ele>
        <time>2020-08-27T14:29:19Z</time>
      </trkpt>
      <trkpt lat="46.75329" lon="6.35083">
        <ele>1330.4</ele>
        <time>2020-08-27T14:29:20Z</time>
      </trkpt>
      <trkpt lat="46.75328" lon="6.35078">
        <ele>1330.2</ele>
        <time>2020-08-27T14:29:21Z</time>
      </trkpt>
      <trkpt lat="46.75327" lon="6.35074">
        <ele>1330.1</ele>
        <time>2020-08-27T14:29:22Z</time>
      </trkpt>
      <trkpt lat="46.75325" lon="6.35072">
        <ele>1329.9</ele>
        <time>2020-08-27T14:29:23Z</time>
      </trkpt>
      <trkpt lat="46.75323" lon="6.3507">
        <ele>1329.8</ele>
        <time>2020-08-27T14:29:24Z</time>
      </trkpt>
      <trkpt lat="46.75321" lon="6.35068">
        <ele>1329.7</ele>
        <time>2020-08-27T14:29:25Z</time>
      </trkpt>
      <trkpt lat="46.75318" lon="6.35066">
        <ele>1329.6</ele>
        <time>2020-08-27T14:29:26Z</time>
      </trkpt>
      <trkpt lat="46.75316" lon="6.35063">
        <ele>1329.4</ele>
        <time>2020-08-27T14:29:27Z</time>
      </trkpt>
      <trkpt lat="46.75315" lon="6.3506">
        <ele>1329.3</ele>
        <time>2020-08-27T14:29:28Z</time>
      </trkpt>
      <trkpt lat="46.75314" lon="6.35058">
        <ele>1329.1</ele>
        <time>2020-08-27T14:29:29Z</time>
      </trkpt>
      <trkpt lat="46.75313" lon="6.35056">
        <ele>1329</ele>
        <time>2020-08-27T14:29:30Z</time>
      </trkpt>
      <trkpt lat="46.75313" lon="6.35053">
        <ele>1328.9</ele>
        <time>2020-08-27T14:29:31Z</time>
      </trkpt>
      <trkpt lat="46.75314" lon="6.3505">
        <ele>1328.7</ele>
        <time>2020-08-27T14:29:32Z</time>
      </trkpt>
      <trkpt lat="46.75316" lon="6.35048">
        <ele>1328.6</ele>
        <time>2020-08-27T14:29:33Z</time>
      </trkpt>
      <trkpt lat="46.75318" lon="6.35048">
        <ele>1328.5</ele>
        <time>2020-08-27T14:29:34Z</time>
      </trkpt>
      <trkpt lat="46.7532" lon="6.35049">
        <ele>1328.4</ele>
        <time>2020-08-27T14:29:35Z</time>
      </trkpt>
      <trkpt lat="46.75322" lon="6.35049">
        <ele>1328.3</ele>
        <time>2020-08-27T14:29:36Z</time>
      </trkpt>
      <trkpt lat="46.75323" lon="6.35049">
        <ele>1328.2</ele>
        <time>2020-08-27T14:29:37Z</time>
      </trkpt>
      <trkpt lat="46.75325" lon="6.35048">
        <ele>1328.1</ele>
        <time>2020-08-27T14:29:38Z</time>
      </trkpt>
      <trkpt lat="46.75326" lon="6.35046">
        <ele>1328.1</ele>
        <time>2020-08-27T14:29:39Z</time>
      </trkpt>
      <trkpt lat="46.75327" lon="6.35045">
        <ele>1328</ele>
        <time>2020-08-27T14:29:40Z</time>
      </trkpt>
      <trkpt lat="46.75329" lon="6.35044">
        <ele>1327.8</ele>
        <time>2020-08-27T14:29:41Z</time>
      </trkpt>
      <trkpt lat="46.7533" lon="6.35044">
        <ele>1327.6</ele>
        <time>2020-08-27T14:29:42Z</time>
      </trkpt>
      <trkpt lat="46.75331" lon="6.35044">
        <ele>1327.5</ele>
        <time>2020-08-27T14:29:43Z</time>
      </trkpt>
      <trkpt lat="46.75333" lon="6.35042">
        <ele>1327.3</ele>
        <time>2020-08-27T14:29:44Z</time>
      </trkpt>
      <trkpt lat="46.75334" lon="6.35041">
        <ele>1327.2</ele>
        <time>2020-08-27T14:29:45Z</time>
      </trkpt>
      <trkpt lat="46.75335" lon="6.3504">
        <ele>1326.9</ele>
        <time>2020-08-27T14:29:46Z</time>
      </trkpt>
      <trkpt lat="46.75335" lon="6.3504">
        <ele>1326.5</ele>
        <time>2020-08-27T14:29:47Z</time>
      </trkpt>
      <trkpt lat="46.75335" lon="6.3504">
        <ele>1326.3</ele>
        <time>2020-08-27T14:29:48Z</time>
      </trkpt>
      <trkpt lat="46.75336" lon="6.35039">
        <ele>1326.1</ele>
        <time>2020-08-27T14:29:49Z</time>
      </trkpt>
      <trkpt lat="46.75336" lon="6.35039">
        <ele>1325.9</ele>
        <time>2020-08-27T14:29:50Z</time>
      </trkpt>
      <trkpt lat="46.75336" lon="6.35039">
        <ele>1325.7</ele>
        <time>2020-08-27T14:29:51Z</time>
      </trkpt>
      <trkpt lat="46.75337" lon="6.35039">
        <ele>1325.5</ele>
        <time>2020-08-27T14:29:52Z</time>
      </trkpt>
      <trkpt lat="46.75337" lon="6.35039">
        <ele>1325.4</ele>
        <time>2020-08-27T14:29:53Z</time>
      </trkpt>
      <trkpt lat="46.75338" lon="6.3504">
        <ele>1325.2</ele>
        <time>2020-08-27T14:29:54Z</time>
      </trkpt>
      <trkpt lat="46.75339" lon="6.35043">
        <ele>1325.1</ele>
        <time>2020-08-27T14:29:55Z</time>
      </trkpt>
      <trkpt lat="46.7534" lon="6.35046">
        <ele>1324.9</ele>
        <time>2020-08-27T14:29:56Z</time>
      </trkpt>
      <trkpt lat="46.7534" lon="6.3505">
        <ele>1324.8</ele>
        <time>2020-08-27T14:29:57Z</time>
      </trkpt>
      <trkpt lat="46.7534" lon="6.35054">
        <ele>1324.6</ele>
        <time>2020-08-27T14:29:58Z</time>
      </trkpt>
      <trkpt lat="46.75341" lon="6.35058">
        <ele>1324.4</ele>
        <time>2020-08-27T14:29:59Z</time>
      </trkpt>
      <trkpt lat="46.75342" lon="6.35062">
        <ele>1324.3</ele>
        <time>2020-08-27T14:30:00Z</time>
      </trkpt>
      <trkpt lat="46.75343" lon="6.35065">
        <ele>1324.1</ele>
        <time>2020-08-27T14:30:01Z</time>
      </trkpt>
      <trkpt lat="46.75344" lon="6.35069">
        <ele>1323.9</ele>
        <time>2020-08-27T14:30:02Z</time>
      </trkpt>
      <trkpt lat="46.75345" lon="6.35072">
        <ele>1323.6</ele>
        <time>2020-08-27T14:30:03Z</time>
      </trkpt>
      <trkpt lat="46.75347" lon="6.35074">
        <ele>1323.4</ele>
        <time>2020-08-27T14:30:04Z</time>
      </trkpt>
      <trkpt lat="46.75348" lon="6.35078">
        <ele>1323.2</ele>
        <time>2020-08-27T14:30:05Z</time>
      </trkpt>
      <trkpt lat="46.75349" lon="6.3508">
        <ele>1323</ele>
        <time>2020-08-27T14:30:06Z</time>
      </trkpt>
      <trkpt lat="46.7535" lon="6.35082">
        <ele>1322.9</ele>
        <time>2020-08-27T14:30:07Z</time>
      </trkpt>
      <trkpt lat="46.75351" lon="6.35083">
        <ele>1322.7</ele>
        <time>2020-08-27T14:30:08Z</time>
      </trkpt>
      <trkpt lat="46.75352" lon="6.35084">
        <ele>1322.6</ele>
        <time>2020-08-27T14:30:09Z</time>
      </trkpt>
      <trkpt lat="46.75353" lon="6.35086">
        <ele>1322.5</ele>
        <time>2020-08-27T14:30:10Z</time>
      </trkpt>
      <trkpt lat="46.75354" lon="6.35089">
        <ele>1322.4</ele>
        <time>2020-08-27T14:30:11Z</time>
      </trkpt>
      <trkpt lat="46.75355" lon="6.35092">
        <ele>1322.3</ele>
        <time>2020-08-27T14:30:12Z</time>
      </trkpt>
      <trkpt lat="46.75357" lon="6.35094">
        <ele>1322.2</ele>
        <time>2020-08-27T14:30:13Z</time>
      </trkpt>
      <trkpt lat="46.75358" lon="6.35097">
        <ele>1322.1</ele>
        <time>2020-08-27T14:30:14Z</time>
      </trkpt>
      <trkpt lat="46.75359" lon="6.35099">
        <ele>1322.1</ele>
        <time>2020-08-27T14:30:15Z</time>
      </trkpt>
      <trkpt lat="46.7536" lon="6.35102">
        <ele>1322</ele>
        <time>2020-08-27T14:30:16Z</time>
      </trkpt>
      <trkpt lat="46.75361" lon="6.35104">
        <ele>1322</ele>
        <time>2020-08-27T14:30:17Z</time>
      </trkpt>
      <trkpt lat="46.75362" lon="6.35106">
        <ele>1321.9</ele>
        <time>2020-08-27T14:30:18Z</time>
      </trkpt>
      <trkpt lat="46.75363" lon="6.35109">
        <ele>1321.9</ele>
        <time>2020-08-27T14:30:19Z</time>
      </trkpt>
      <trkpt lat="46.75364" lon="6.35113">
        <ele>1321.9</ele>
        <time>2020-08-27T14:30:20Z</time>
      </trkpt>
      <trkpt lat="46.75366" lon="6.35117">
        <ele>1321.9</ele>
        <time>2020-08-27T14:30:21Z</time>
      </trkpt>
      <trkpt lat="46.75368" lon="6.35122">
        <ele>1321.9</ele>
        <time>2020-08-27T14:30:22Z</time>
      </trkpt>
      <trkpt lat="46.7537" lon="6.35125">
        <ele>1321.9</ele>
        <time>2020-08-27T14:30:23Z</time>
      </trkpt>
      <trkpt lat="46.75372" lon="6.35129">
        <ele>1322</ele>
        <time>2020-08-27T14:30:24Z</time>
      </trkpt>
      <trkpt lat="46.75373" lon="6.35132">
        <ele>1322</ele>
        <time>2020-08-27T14:30:25Z</time>
      </trkpt>
      <trkpt lat="46.75374" lon="6.35136">
        <ele>1322</ele>
        <time>2020-08-27T14:30:26Z</time>
      </trkpt>
      <trkpt lat="46.75374" lon="6.35139">
        <ele>1322</ele>
        <time>2020-08-27T14:30:27Z</time>
      </trkpt>
      <trkpt lat="46.75375" lon="6.35141">
        <ele>1322</ele>
        <time>2020-08-27T14:30:28Z</time>
      </trkpt>
      <trkpt lat="46.75375" lon="6.35143">
        <ele>1322</ele>
        <time>2020-08-27T14:30:29Z</time>
      </trkpt>
      <trkpt lat="46.75376" lon="6.35146">
        <ele>1322</ele>
        <time>2020-08-27T14:30:30Z</time>
      </trkpt>
      <trkpt lat="46.75377" lon="6.3515">
        <ele>1322</ele>
        <time>2020-08-27T14:30:31Z</time>
      </trkpt>
      <trkpt lat="46.75378" lon="6.35155">
        <ele>1322</ele>
        <time>2020-08-27T14:30:32Z</time>
      </trkpt>
      <trkpt lat="46.7538" lon="6.35158">
        <ele>1321.9</ele>
        <time>2020-08-27T14:30:33Z</time>
      </trkpt>
      <trkpt lat="46.75381" lon="6.35159">
        <ele>1321.8</ele>
        <time>2020-08-27T14:30:34Z</time>
      </trkpt>
      <trkpt lat="46.75382" lon="6.35162">
        <ele>1321.7</ele>
        <time>2020-08-27T14:30:35Z</time>
      </trkpt>
      <trkpt lat="46.75383" lon="6.35167">
        <ele>1321.6</ele>
        <time>2020-08-27T14:30:36Z</time>
      </trkpt>
      <trkpt lat="46.75384" lon="6.35171">
        <ele>1321.5</ele>
        <time>2020-08-27T14:30:37Z</time>
      </trkpt>
      <trkpt lat="46.75385" lon="6.35176">
        <ele>1321.5</ele>
        <time>2020-08-27T14:30:38Z</time>
      </trkpt>
      <trkpt lat="46.75386" lon="6.3518">
        <ele>1321.4</ele>
        <time>2020-08-27T14:30:39Z</time>
      </trkpt>
      <trkpt lat="46.75387" lon="6.35184">
        <ele>1321.3</ele>
        <time>2020-08-27T14:30:40Z</time>
      </trkpt>
      <trkpt lat="46.75388" lon="6.35187">
        <ele>1321.3</ele>
        <time>2020-08-27T14:30:41Z</time>
      </trkpt>
      <trkpt lat="46.75388" lon="6.35191">
        <ele>1321.2</ele>
        <time>2020-08-27T14:30:42Z</time>
      </trkpt>
      <trkpt lat="46.75389" lon="6.35195">
        <ele>1321.1</ele>
        <time>2020-08-27T14:30:43Z</time>
      </trkpt>
      <trkpt lat="46.75389" lon="6.35199">
        <ele>1321.1</ele>
        <time>2020-08-27T14:30:44Z</time>
      </trkpt>
      <trkpt lat="46.75389" lon="6.35202">
        <ele>1321</ele>
        <time>2020-08-27T14:30:45Z</time>
      </trkpt>
      <trkpt lat="46.75388" lon="6.35205">
        <ele>1320.9</ele>
        <time>2020-08-27T14:30:46Z</time>
      </trkpt>
      <trkpt lat="46.75388" lon="6.35209">
        <ele>1320.8</ele>
        <time>2020-08-27T14:30:47Z</time>
      </trkpt>
      <trkpt lat="46.75388" lon="6.35211">
        <ele>1320.8</ele>
        <time>2020-08-27T14:30:48Z</time>
      </trkpt>
      <trkpt lat="46.75388" lon="6.35213">
        <ele>1320.8</ele>
        <time>2020-08-27T14:30:49Z</time>
      </trkpt>
      <trkpt lat="46.75389" lon="6.35215">
        <ele>1320.7</ele>
        <time>2020-08-27T14:30:50Z</time>
      </trkpt>
      <trkpt lat="46.75389" lon="6.35218">
        <ele>1320.7</ele>
        <time>2020-08-27T14:30:51Z</time>
      </trkpt>
      <trkpt lat="46.7539" lon="6.35221">
        <ele>1320.5</ele>
        <time>2020-08-27T14:30:52Z</time>
      </trkpt>
      <trkpt lat="46.7539" lon="6.35224">
        <ele>1320.2</ele>
        <time>2020-08-27T14:30:53Z</time>
      </trkpt>
      <trkpt lat="46.7539" lon="6.35228">
        <ele>1320</ele>
        <time>2020-08-27T14:30:54Z</time>
      </trkpt>
      <trkpt lat="46.7539" lon="6.35232">
        <ele>1319.9</ele>
        <time>2020-08-27T14:30:55Z</time>
      </trkpt>
      <trkpt lat="46.7539" lon="6.35238">
        <ele>1319.7</ele>
        <time>2020-08-27T14:30:56Z</time>
      </trkpt>
      <trkpt lat="46.7539" lon="6.35243">
        <ele>1319.5</ele>
        <time>2020-08-27T14:30:57Z</time>
      </trkpt>
      <trkpt lat="46.7539" lon="6.35247">
        <ele>1319.4</ele>
        <time>2020-08-27T14:30:58Z</time>
      </trkpt>
      <trkpt lat="46.7539" lon="6.35252">
        <ele>1319.2</ele>
        <time>2020-08-27T14:30:59Z</time>
      </trkpt>
      <trkpt lat="46.7539" lon="6.35255">
        <ele>1319.1</ele>
        <time>2020-08-27T14:31:00Z</time>
      </trkpt>
      <trkpt lat="46.7539" lon="6.35258">
        <ele>1318.9</ele>
        <time>2020-08-27T14:31:01Z</time>
      </trkpt>
      <trkpt lat="46.7539" lon="6.35261">
        <ele>1318.8</ele>
        <time>2020-08-27T14:31:02Z</time>
      </trkpt>
      <trkpt lat="46.7539" lon="6.35264">
        <ele>1318.7</ele>
        <time>2020-08-27T14:31:03Z</time>
      </trkpt>
      <trkpt lat="46.7539" lon="6.35266">
        <ele>1318.6</ele>
        <time>2020-08-27T14:31:04Z</time>
      </trkpt>
      <trkpt lat="46.7539" lon="6.35269">
        <ele>1318.5</ele>
        <time>2020-08-27T14:31:05Z</time>
      </trkpt>
      <trkpt lat="46.75391" lon="6.35272">
        <ele>1318.4</ele>
        <time>2020-08-27T14:31:06Z</time>
      </trkpt>
      <trkpt lat="46.75393" lon="6.35276">
        <ele>1318.2</ele>
        <time>2020-08-27T14:31:07Z</time>
      </trkpt>
      <trkpt lat="46.75395" lon="6.3528">
        <ele>1318.1</ele>
        <time>2020-08-27T14:31:08Z</time>
      </trkpt>
      <trkpt lat="46.75395" lon="6.35283">
        <ele>1318</ele>
        <time>2020-08-27T14:31:09Z</time>
      </trkpt>
      <trkpt lat="46.75395" lon="6.35286">
        <ele>1317.9</ele>
        <time>2020-08-27T14:31:10Z</time>
      </trkpt>
      <trkpt lat="46.75395" lon="6.35288">
        <ele>1317.8</ele>
        <time>2020-08-27T14:31:11Z</time>
      </trkpt>
      <trkpt lat="46.75395" lon="6.35291">
        <ele>1317.7</ele>
        <time>2020-08-27T14:31:12Z</time>
      </trkpt>
      <trkpt lat="46.75396" lon="6.35293">
        <ele>1317.6</ele>
        <time>2020-08-27T14:31:13Z</time>
      </trkpt>
      <trkpt lat="46.75398" lon="6.35295">
        <ele>1317.6</ele>
        <time>2020-08-27T14:31:14Z</time>
      </trkpt>
      <trkpt lat="46.754" lon="6.35295">
        <ele>1317.5</ele>
        <time>2020-08-27T14:31:15Z</time>
      </trkpt>
      <trkpt lat="46.75402" lon="6.35291">
        <ele>1317.4</ele>
        <time>2020-08-27T14:31:16Z</time>
      </trkpt>
      <trkpt lat="46.75402" lon="6.35287">
        <ele>1317.3</ele>
        <time>2020-08-27T14:31:17Z</time>
      </trkpt>
      <trkpt lat="46.75401" lon="6.35284">
        <ele>1317</ele>
        <time>2020-08-27T14:31:18Z</time>
      </trkpt>
      <trkpt lat="46.75401" lon="6.3528">
        <ele>1316.7</ele>
        <time>2020-08-27T14:31:19Z</time>
      </trkpt>
      <trkpt lat="46.75402" lon="6.35276">
        <ele>1316.5</ele>
        <time>2020-08-27T14:31:20Z</time>
      </trkpt>
      <trkpt lat="46.75404" lon="6.35271">
        <ele>1316.3</ele>
        <time>2020-08-27T14:31:21Z</time>
      </trkpt>
      <trkpt lat="46.75405" lon="6.35268">
        <ele>1316.1</ele>
        <time>2020-08-27T14:31:22Z</time>
      </trkpt>
      <trkpt lat="46.75407" lon="6.35265">
        <ele>1315.9</ele>
        <time>2020-08-27T14:31:23Z</time>
      </trkpt>
      <trkpt lat="46.75408" lon="6.35261">
        <ele>1315.7</ele>
        <time>2020-08-27T14:31:24Z</time>
      </trkpt>
      <trkpt lat="46.75407" lon="6.35258">
        <ele>1315.5</ele>
        <time>2020-08-27T14:31:25Z</time>
      </trkpt>
      <trkpt lat="46.75407" lon="6.35257">
        <ele>1315.4</ele>
        <time>2020-08-27T14:31:26Z</time>
      </trkpt>
      <trkpt lat="46.75407" lon="6.35257">
        <ele>1315.2</ele>
        <time>2020-08-27T14:31:27Z</time>
      </trkpt>
      <trkpt lat="46.75407" lon="6.35256">
        <ele>1315.1</ele>
        <time>2020-08-27T14:31:28Z</time>
      </trkpt>
      <trkpt lat="46.75407" lon="6.35255">
        <ele>1314.9</ele>
        <time>2020-08-27T14:31:29Z</time>
      </trkpt>
      <trkpt lat="46.75407" lon="6.35254">
        <ele>1314.8</ele>
        <time>2020-08-27T14:31:30Z</time>
      </trkpt>
      <trkpt lat="46.75408" lon="6.35253">
        <ele>1314.7</ele>
        <time>2020-08-27T14:31:31Z</time>
      </trkpt>
      <trkpt lat="46.75411" lon="6.35252">
        <ele>1314.6</ele>
        <time>2020-08-27T14:31:32Z</time>
      </trkpt>
      <trkpt lat="46.75413" lon="6.35253">
        <ele>1314.4</ele>
        <time>2020-08-27T14:31:33Z</time>
      </trkpt>
      <trkpt lat="46.75416" lon="6.35255">
        <ele>1314.3</ele>
        <time>2020-08-27T14:31:34Z</time>
      </trkpt>
      <trkpt lat="46.75419" lon="6.35258">
        <ele>1314.1</ele>
        <time>2020-08-27T14:31:35Z</time>
      </trkpt>
      <trkpt lat="46.7542" lon="6.3526">
        <ele>1314</ele>
        <time>2020-08-27T14:31:36Z</time>
      </trkpt>
      <trkpt lat="46.75422" lon="6.35262">
        <ele>1313.8</ele>
        <time>2020-08-27T14:31:37Z</time>
      </trkpt>
      <trkpt lat="46.75422" lon="6.35262">
        <ele>1313.6</ele>
        <time>2020-08-27T14:31:38Z</time>
      </trkpt>
      <trkpt lat="46.75423" lon="6.35262">
        <ele>1313.4</ele>
        <time>2020-08-27T14:31:39Z</time>
      </trkpt>
      <trkpt lat="46.75424" lon="6.35262">
        <ele>1313.2</ele>
        <time>2020-08-27T14:31:40Z</time>
      </trkpt>
      <trkpt lat="46.75424" lon="6.35262">
        <ele>1313</ele>
        <time>2020-08-27T14:31:41Z</time>
      </trkpt>
      <trkpt lat="46.75424" lon="6.35262">
        <ele>1312.9</ele>
        <time>2020-08-27T14:31:42Z</time>
      </trkpt>
      <trkpt lat="46.75424" lon="6.35261">
        <ele>1312.9</ele>
        <time>2020-08-27T14:31:43Z</time>
      </trkpt>
      <trkpt lat="46.75424" lon="6.35261">
        <ele>1312.8</ele>
        <time>2020-08-27T14:31:44Z</time>
      </trkpt>
      <trkpt lat="46.75423" lon="6.35261">
        <ele>1312.7</ele>
        <time>2020-08-27T14:31:45Z</time>
      </trkpt>
      <trkpt lat="46.75424" lon="6.35261">
        <ele>1312.6</ele>
        <time>2020-08-27T14:31:46Z</time>
      </trkpt>
      <trkpt lat="46.75424" lon="6.35261">
        <ele>1312.6</ele>
        <time>2020-08-27T14:31:47Z</time>
      </trkpt>
      <trkpt lat="46.75423" lon="6.35261">
        <ele>1312.5</ele>
        <time>2020-08-27T14:31:48Z</time>
      </trkpt>
      <trkpt lat="46.75424" lon="6.35261">
        <ele>1312.4</ele>
        <time>2020-08-27T14:31:49Z</time>
      </trkpt>
      <trkpt lat="46.75424" lon="6.35261">
        <ele>1312.4</ele>
        <time>2020-08-27T14:31:50Z</time>
      </trkpt>
      <trkpt lat="46.75424" lon="6.35261">
        <ele>1312.3</ele>
        <time>2020-08-27T14:31:51Z</time>
      </trkpt>
      <trkpt lat="46.75424" lon="6.35261">
        <ele>1312.3</ele>
        <time>2020-08-27T14:31:52Z</time>
      </trkpt>
      <trkpt lat="46.75425" lon="6.35261">
        <ele>1312.2</ele>
        <time>2020-08-27T14:31:53Z</time>
      </trkpt>
      <trkpt lat="46.75425" lon="6.35261">
        <ele>1312.2</ele>
        <time>2020-08-27T14:31:54Z</time>
      </trkpt>
      <trkpt lat="46.75425" lon="6.35261">
        <ele>1312.2</ele>
        <time>2020-08-27T14:31:55Z</time>
      </trkpt>
      <trkpt lat="46.75425" lon="6.35261">
        <ele>1312.1</ele>
        <time>2020-08-27T14:31:56Z</time>
      </trkpt>
      <trkpt lat="46.75425" lon="6.35261">
        <ele>1312.1</ele>
        <time>2020-08-27T14:31:57Z</time>
      </trkpt>
      <trkpt lat="46.75426" lon="6.35261">
        <ele>1312.1</ele>
        <time>2020-08-27T14:31:58Z</time>
      </trkpt>
      <trkpt lat="46.75426" lon="6.35261">
        <ele>1312</ele>
        <time>2020-08-27T14:31:59Z</time>
      </trkpt>
      <trkpt lat="46.75426" lon="6.35261">
        <ele>1312</ele>
        <time>2020-08-27T14:32:00Z</time>
      </trkpt>
      <trkpt lat="46.75426" lon="6.35261">
        <ele>1312</ele>
        <time>2020-08-27T14:32:01Z</time>
      </trkpt>
      <trkpt lat="46.75426" lon="6.35261">
        <ele>1311.9</ele>
        <time>2020-08-27T14:32:02Z</time>
      </trkpt>
      <trkpt lat="46.75427" lon="6.35262">
        <ele>1311.9</ele>
        <time>2020-08-27T14:32:03Z</time>
      </trkpt>
      <trkpt lat="46.75428" lon="6.35264">
        <ele>1311.9</ele>
        <time>2020-08-27T14:32:04Z</time>
      </trkpt>
      <trkpt lat="46.7543" lon="6.35267">
        <ele>1311.9</ele>
        <time>2020-08-27T14:32:05Z</time>
      </trkpt>
      <trkpt lat="46.75431" lon="6.3527">
        <ele>1311.9</ele>
        <time>2020-08-27T14:32:06Z</time>
      </trkpt>
      <trkpt lat="46.75433" lon="6.35274">
        <ele>1311.8</ele>
        <time>2020-08-27T14:32:07Z</time>
      </trkpt>
      <trkpt lat="46.75434" lon="6.35278">
        <ele>1311.8</ele>
        <time>2020-08-27T14:32:08Z</time>
      </trkpt>
      <trkpt lat="46.75435" lon="6.35282">
        <ele>1311.7</ele>
        <time>2020-08-27T14:32:09Z</time>
      </trkpt>
      <trkpt lat="46.75435" lon="6.35287">
        <ele>1311.7</ele>
        <time>2020-08-27T14:32:10Z</time>
      </trkpt>
      <trkpt lat="46.75435" lon="6.35291">
        <ele>1311.5</ele>
        <time>2020-08-27T14:32:11Z</time>
      </trkpt>
      <trkpt lat="46.75435" lon="6.35294">
        <ele>1311.3</ele>
        <time>2020-08-27T14:32:12Z</time>
      </trkpt>
      <trkpt lat="46.75436" lon="6.35297">
        <ele>1311.1</ele>
        <time>2020-08-27T14:32:13Z</time>
      </trkpt>
      <trkpt lat="46.75438" lon="6.35297">
        <ele>1310.9</ele>
        <time>2020-08-27T14:32:14Z</time>
      </trkpt>
      <trkpt lat="46.7544" lon="6.35298">
        <ele>1310.7</ele>
        <time>2020-08-27T14:32:15Z</time>
      </trkpt>
      <trkpt lat="46.75442" lon="6.353">
        <ele>1310.6</ele>
        <time>2020-08-27T14:32:16Z</time>
      </trkpt>
      <trkpt lat="46.75444" lon="6.35303">
        <ele>1310.5</ele>
        <time>2020-08-27T14:32:17Z</time>
      </trkpt>
      <trkpt lat="46.75445" lon="6.35307">
        <ele>1310.4</ele>
        <time>2020-08-27T14:32:18Z</time>
      </trkpt>
      <trkpt lat="46.75445" lon="6.35311">
        <ele>1310.2</ele>
        <time>2020-08-27T14:32:19Z</time>
      </trkpt>
      <trkpt lat="46.75447" lon="6.35314">
        <ele>1310.1</ele>
        <time>2020-08-27T14:32:20Z</time>
      </trkpt>
      <trkpt lat="46.75449" lon="6.35316">
        <ele>1310</ele>
        <time>2020-08-27T14:32:21Z</time>
      </trkpt>
      <trkpt lat="46.75452" lon="6.35316">
        <ele>1309.9</ele>
        <time>2020-08-27T14:32:22Z</time>
      </trkpt>
      <trkpt lat="46.75455" lon="6.35315">
        <ele>1309.7</ele>
        <time>2020-08-27T14:32:23Z</time>
      </trkpt>
      <trkpt lat="46.75458" lon="6.35314">
        <ele>1309.6</ele>
        <time>2020-08-27T14:32:24Z</time>
      </trkpt>
      <trkpt lat="46.75461" lon="6.35312">
        <ele>1309.4</ele>
        <time>2020-08-27T14:32:25Z</time>
      </trkpt>
      <trkpt lat="46.75464" lon="6.3531">
        <ele>1309.3</ele>
        <time>2020-08-27T14:32:26Z</time>
      </trkpt>
      <trkpt lat="46.75466" lon="6.35306">
        <ele>1309.1</ele>
        <time>2020-08-27T14:32:27Z</time>
      </trkpt>
      <trkpt lat="46.75467" lon="6.35302">
        <ele>1309</ele>
        <time>2020-08-27T14:32:28Z</time>
      </trkpt>
      <trkpt lat="46.75469" lon="6.35298">
        <ele>1308.9</ele>
        <time>2020-08-27T14:32:29Z</time>
      </trkpt>
      <trkpt lat="46.7547" lon="6.35296">
        <ele>1308.8</ele>
        <time>2020-08-27T14:32:30Z</time>
      </trkpt>
      <trkpt lat="46.75473" lon="6.35294">
        <ele>1308.7</ele>
        <time>2020-08-27T14:32:31Z</time>
      </trkpt>
      <trkpt lat="46.75475" lon="6.35295">
        <ele>1308.6</ele>
        <time>2020-08-27T14:32:32Z</time>
      </trkpt>
      <trkpt lat="46.75477" lon="6.35296">
        <ele>1308.5</ele>
        <time>2020-08-27T14:32:33Z</time>
      </trkpt>
      <trkpt lat="46.75478" lon="6.35298">
        <ele>1308.4</ele>
        <time>2020-08-27T14:32:34Z</time>
      </trkpt>
      <trkpt lat="46.7548" lon="6.353">
        <ele>1308.4</ele>
        <time>2020-08-27T14:32:35Z</time>
      </trkpt>
      <trkpt lat="46.75481" lon="6.35301">
        <ele>1308.3</ele>
        <time>2020-08-27T14:32:36Z</time>
      </trkpt>
      <trkpt lat="46.75483" lon="6.35302">
        <ele>1308.2</ele>
        <time>2020-08-27T14:32:37Z</time>
      </trkpt>
      <trkpt lat="46.75484" lon="6.35303">
        <ele>1308.1</ele>
        <time>2020-08-27T14:32:38Z</time>
      </trkpt>
      <trkpt lat="46.75486" lon="6.35305">
        <ele>1308</ele>
        <time>2020-08-27T14:32:39Z</time>
      </trkpt>
      <trkpt lat="46.75487" lon="6.35308">
        <ele>1307.9</ele>
        <time>2020-08-27T14:32:40Z</time>
      </trkpt>
      <trkpt lat="46.75487" lon="6.35312">
        <ele>1307.6</ele>
        <time>2020-08-27T14:32:41Z</time>
      </trkpt>
      <trkpt lat="46.75487" lon="6.35316">
        <ele>1307.4</ele>
        <time>2020-08-27T14:32:42Z</time>
      </trkpt>
      <trkpt lat="46.75487" lon="6.3532">
        <ele>1307.2</ele>
        <time>2020-08-27T14:32:43Z</time>
      </trkpt>
      <trkpt lat="46.75487" lon="6.35323">
        <ele>1307</ele>
        <time>2020-08-27T14:32:44Z</time>
      </trkpt>
      <trkpt lat="46.75488" lon="6.35326">
        <ele>1306.8</ele>
        <time>2020-08-27T14:32:45Z</time>
      </trkpt>
      <trkpt lat="46.75489" lon="6.35329">
        <ele>1306.6</ele>
        <time>2020-08-27T14:32:46Z</time>
      </trkpt>
      <trkpt lat="46.75491" lon="6.3533">
        <ele>1306.4</ele>
        <time>2020-08-27T14:32:47Z</time>
      </trkpt>
      <trkpt lat="46.75493" lon="6.3533">
        <ele>1306.3</ele>
        <time>2020-08-27T14:32:48Z</time>
      </trkpt>
      <trkpt lat="46.75495" lon="6.35328">
        <ele>1306.1</ele>
        <time>2020-08-27T14:32:49Z</time>
      </trkpt>
      <trkpt lat="46.75497" lon="6.35326">
        <ele>1306</ele>
        <time>2020-08-27T14:32:50Z</time>
      </trkpt>
      <trkpt lat="46.75498" lon="6.35322">
        <ele>1305.8</ele>
        <time>2020-08-27T14:32:51Z</time>
      </trkpt>
      <trkpt lat="46.75501" lon="6.35318">
        <ele>1305.6</ele>
        <time>2020-08-27T14:32:52Z</time>
      </trkpt>
      <trkpt lat="46.75502" lon="6.35315">
        <ele>1305.4</ele>
        <time>2020-08-27T14:32:53Z</time>
      </trkpt>
      <trkpt lat="46.75504" lon="6.35312">
        <ele>1305.2</ele>
        <time>2020-08-27T14:32:54Z</time>
      </trkpt>
      <trkpt lat="46.75506" lon="6.35311">
        <ele>1305</ele>
        <time>2020-08-27T14:32:55Z</time>
      </trkpt>
      <trkpt lat="46.75508" lon="6.35311">
        <ele>1304.9</ele>
        <time>2020-08-27T14:32:56Z</time>
      </trkpt>
      <trkpt lat="46.75511" lon="6.35313">
        <ele>1304.7</ele>
        <time>2020-08-27T14:32:57Z</time>
      </trkpt>
      <trkpt lat="46.75514" lon="6.35315">
        <ele>1304.6</ele>
        <time>2020-08-27T14:32:58Z</time>
      </trkpt>
      <trkpt lat="46.75518" lon="6.35317">
        <ele>1304.5</ele>
        <time>2020-08-27T14:32:59Z</time>
      </trkpt>
      <trkpt lat="46.75522" lon="6.35321">
        <ele>1304.3</ele>
        <time>2020-08-27T14:33:00Z</time>
      </trkpt>
      <trkpt lat="46.75526" lon="6.35323">
        <ele>1304.1</ele>
        <time>2020-08-27T14:33:01Z</time>
      </trkpt>
      <trkpt lat="46.7553" lon="6.35323">
        <ele>1303.9</ele>
        <time>2020-08-27T14:33:02Z</time>
      </trkpt>
      <trkpt lat="46.75533" lon="6.35323">
        <ele>1303.7</ele>
        <time>2020-08-27T14:33:03Z</time>
      </trkpt>
      <trkpt lat="46.75537" lon="6.35323">
        <ele>1303.5</ele>
        <time>2020-08-27T14:33:04Z</time>
      </trkpt>
      <trkpt lat="46.7554" lon="6.35323">
        <ele>1303.3</ele>
        <time>2020-08-27T14:33:05Z</time>
      </trkpt>
      <trkpt lat="46.75544" lon="6.35324">
        <ele>1303.1</ele>
        <time>2020-08-27T14:33:06Z</time>
      </trkpt>
      <trkpt lat="46.75547" lon="6.35324">
        <ele>1303</ele>
        <time>2020-08-27T14:33:07Z</time>
      </trkpt>
      <trkpt lat="46.7555" lon="6.35325">
        <ele>1302.8</ele>
        <time>2020-08-27T14:33:08Z</time>
      </trkpt>
      <trkpt lat="46.75552" lon="6.35324">
        <ele>1302.6</ele>
        <time>2020-08-27T14:33:09Z</time>
      </trkpt>
      <trkpt lat="46.75555" lon="6.35324">
        <ele>1302.5</ele>
        <time>2020-08-27T14:33:10Z</time>
      </trkpt>
      <trkpt lat="46.75557" lon="6.35324">
        <ele>1302.4</ele>
        <time>2020-08-27T14:33:11Z</time>
      </trkpt>
      <trkpt lat="46.75559" lon="6.35324">
        <ele>1302.2</ele>
        <time>2020-08-27T14:33:12Z</time>
      </trkpt>
      <trkpt lat="46.75561" lon="6.35325">
        <ele>1302.1</ele>
        <time>2020-08-27T14:33:13Z</time>
      </trkpt>
      <trkpt lat="46.75564" lon="6.35326">
        <ele>1302</ele>
        <time>2020-08-27T14:33:14Z</time>
      </trkpt>
      <trkpt lat="46.75567" lon="6.35328">
        <ele>1301.9</ele>
        <time>2020-08-27T14:33:15Z</time>
      </trkpt>
      <trkpt lat="46.7557" lon="6.35329">
        <ele>1301.8</ele>
        <time>2020-08-27T14:33:16Z</time>
      </trkpt>
      <trkpt lat="46.75573" lon="6.35331">
        <ele>1301.6</ele>
        <time>2020-08-27T14:33:17Z</time>
      </trkpt>
      <trkpt lat="46.75576" lon="6.35333">
        <ele>1301.4</ele>
        <time>2020-08-27T14:33:18Z</time>
      </trkpt>
      <trkpt lat="46.75579" lon="6.35335">
        <ele>1301.2</ele>
        <time>2020-08-27T14:33:19Z</time>
      </trkpt>
      <trkpt lat="46.75581" lon="6.35336">
        <ele>1301.1</ele>
        <time>2020-08-27T14:33:20Z</time>
      </trkpt>
      <trkpt lat="46.75584" lon="6.35337">
        <ele>1300.9</ele>
        <time>2020-08-27T14:33:21Z</time>
      </trkpt>
      <trkpt lat="46.75587" lon="6.35337">
        <ele>1300.8</ele>
        <time>2020-08-27T14:33:22Z</time>
      </trkpt>
      <trkpt lat="46.7559" lon="6.35336">
        <ele>1300.6</ele>
        <time>2020-08-27T14:33:23Z</time>
      </trkpt>
      <trkpt lat="46.75593" lon="6.35334">
        <ele>1300.5</ele>
        <time>2020-08-27T14:33:24Z</time>
      </trkpt>
      <trkpt lat="46.75597" lon="6.35333">
        <ele>1300.4</ele>
        <time>2020-08-27T14:33:25Z</time>
      </trkpt>
      <trkpt lat="46.75601" lon="6.35331">
        <ele>1300.1</ele>
        <time>2020-08-27T14:33:26Z</time>
      </trkpt>
      <trkpt lat="46.75604" lon="6.35328">
        <ele>1299.9</ele>
        <time>2020-08-27T14:33:27Z</time>
      </trkpt>
      <trkpt lat="46.75608" lon="6.35326">
        <ele>1299.7</ele>
        <time>2020-08-27T14:33:28Z</time>
      </trkpt>
      <trkpt lat="46.75612" lon="6.35325">
        <ele>1299.5</ele>
        <time>2020-08-27T14:33:29Z</time>
      </trkpt>
      <trkpt lat="46.75615" lon="6.35324">
        <ele>1299.3</ele>
        <time>2020-08-27T14:33:30Z</time>
      </trkpt>
      <trkpt lat="46.75618" lon="6.35322">
        <ele>1299.2</ele>
        <time>2020-08-27T14:33:31Z</time>
      </trkpt>
      <trkpt lat="46.7562" lon="6.35321">
        <ele>1299</ele>
        <time>2020-08-27T14:33:32Z</time>
      </trkpt>
      <trkpt lat="46.75623" lon="6.35319">
        <ele>1298.8</ele>
        <time>2020-08-27T14:33:33Z</time>
      </trkpt>
      <trkpt lat="46.75626" lon="6.35317">
        <ele>1298.8</ele>
        <time>2020-08-27T14:33:34Z</time>
      </trkpt>
      <trkpt lat="46.75628" lon="6.35317">
        <ele>1298.7</ele>
        <time>2020-08-27T14:33:35Z</time>
      </trkpt>
      <trkpt lat="46.7563" lon="6.35316">
        <ele>1298.5</ele>
        <time>2020-08-27T14:33:36Z</time>
      </trkpt>
      <trkpt lat="46.75632" lon="6.35316">
        <ele>1298.4</ele>
        <time>2020-08-27T14:33:37Z</time>
      </trkpt>
      <trkpt lat="46.75635" lon="6.35316">
        <ele>1298.2</ele>
        <time>2020-08-27T14:33:38Z</time>
      </trkpt>
      <trkpt lat="46.75637" lon="6.35316">
        <ele>1298</ele>
        <time>2020-08-27T14:33:39Z</time>
      </trkpt>
      <trkpt lat="46.7564" lon="6.35316">
        <ele>1297.8</ele>
        <time>2020-08-27T14:33:40Z</time>
      </trkpt>
      <trkpt lat="46.75643" lon="6.35316">
        <ele>1297.7</ele>
        <time>2020-08-27T14:33:41Z</time>
      </trkpt>
      <trkpt lat="46.75646" lon="6.35316">
        <ele>1297.7</ele>
        <time>2020-08-27T14:33:42Z</time>
      </trkpt>
      <trkpt lat="46.75648" lon="6.35316">
        <ele>1297.5</ele>
        <time>2020-08-27T14:33:43Z</time>
      </trkpt>
      <trkpt lat="46.7565" lon="6.35316">
        <ele>1297.4</ele>
        <time>2020-08-27T14:33:44Z</time>
      </trkpt>
      <trkpt lat="46.75652" lon="6.35315">
        <ele>1297.3</ele>
        <time>2020-08-27T14:33:45Z</time>
      </trkpt>
      <trkpt lat="46.75653" lon="6.35314">
        <ele>1297.2</ele>
        <time>2020-08-27T14:33:46Z</time>
      </trkpt>
      <trkpt lat="46.75655" lon="6.35313">
        <ele>1297.1</ele>
        <time>2020-08-27T14:33:47Z</time>
      </trkpt>
      <trkpt lat="46.75658" lon="6.35313">
        <ele>1297.1</ele>
        <time>2020-08-27T14:33:48Z</time>
      </trkpt>
      <trkpt lat="46.7566" lon="6.35313">
        <ele>1297</ele>
        <time>2020-08-27T14:33:49Z</time>
      </trkpt>
      <trkpt lat="46.75662" lon="6.35314">
        <ele>1296.8</ele>
        <time>2020-08-27T14:33:50Z</time>
      </trkpt>
      <trkpt lat="46.75664" lon="6.35316">
        <ele>1296.7</ele>
        <time>2020-08-27T14:33:51Z</time>
      </trkpt>
      <trkpt lat="46.75665" lon="6.35317">
        <ele>1296.5</ele>
        <time>2020-08-27T14:33:52Z</time>
      </trkpt>
      <trkpt lat="46.75666" lon="6.35318">
        <ele>1296.4</ele>
        <time>2020-08-27T14:33:53Z</time>
      </trkpt>
      <trkpt lat="46.75668" lon="6.35318">
        <ele>1296.2</ele>
        <time>2020-08-27T14:33:54Z</time>
      </trkpt>
      <trkpt lat="46.75669" lon="6.35318">
        <ele>1296.1</ele>
        <time>2020-08-27T14:33:55Z</time>
      </trkpt>
      <trkpt lat="46.75671" lon="6.35319">
        <ele>1296</ele>
        <time>2020-08-27T14:33:56Z</time>
      </trkpt>
      <trkpt lat="46.75673" lon="6.3532">
        <ele>1295.8</ele>
        <time>2020-08-27T14:33:57Z</time>
      </trkpt>
      <trkpt lat="46.75675" lon="6.35321">
        <ele>1295.6</ele>
        <time>2020-08-27T14:33:58Z</time>
      </trkpt>
      <trkpt lat="46.75676" lon="6.35322">
        <ele>1295.4</ele>
        <time>2020-08-27T14:33:59Z</time>
      </trkpt>
      <trkpt lat="46.75678" lon="6.35323">
        <ele>1295.3</ele>
        <time>2020-08-27T14:34:00Z</time>
      </trkpt>
      <trkpt lat="46.75681" lon="6.35326">
        <ele>1295.1</ele>
        <time>2020-08-27T14:34:01Z</time>
      </trkpt>
      <trkpt lat="46.75684" lon="6.35328">
        <ele>1295</ele>
        <time>2020-08-27T14:34:02Z</time>
      </trkpt>
      <trkpt lat="46.75686" lon="6.3533">
        <ele>1294.8</ele>
        <time>2020-08-27T14:34:03Z</time>
      </trkpt>
      <trkpt lat="46.75687" lon="6.35331">
        <ele>1294.6</ele>
        <time>2020-08-27T14:34:04Z</time>
      </trkpt>
      <trkpt lat="46.75688" lon="6.35332">
        <ele>1294.4</ele>
        <time>2020-08-27T14:34:05Z</time>
      </trkpt>
      <trkpt lat="46.75689" lon="6.35333">
        <ele>1294.2</ele>
        <time>2020-08-27T14:34:06Z</time>
      </trkpt>
      <trkpt lat="46.75691" lon="6.35334">
        <ele>1294.1</ele>
        <time>2020-08-27T14:34:07Z</time>
      </trkpt>
      <trkpt lat="46.75693" lon="6.35336">
        <ele>1293.9</ele>
        <time>2020-08-27T14:34:08Z</time>
      </trkpt>
      <trkpt lat="46.75696" lon="6.35339">
        <ele>1293.8</ele>
        <time>2020-08-27T14:34:09Z</time>
      </trkpt>
      <trkpt lat="46.75697" lon="6.3534">
        <ele>1293.7</ele>
        <time>2020-08-27T14:34:10Z</time>
      </trkpt>
      <trkpt lat="46.75699" lon="6.35341">
        <ele>1293.5</ele>
        <time>2020-08-27T14:34:11Z</time>
      </trkpt>
      <trkpt lat="46.757" lon="6.35343">
        <ele>1293.4</ele>
        <time>2020-08-27T14:34:12Z</time>
      </trkpt>
      <trkpt lat="46.75702" lon="6.35344">
        <ele>1293.3</ele>
        <time>2020-08-27T14:34:13Z</time>
      </trkpt>
      <trkpt lat="46.75703" lon="6.35346">
        <ele>1293.2</ele>
        <time>2020-08-27T14:34:14Z</time>
      </trkpt>
      <trkpt lat="46.75705" lon="6.35348">
        <ele>1293.1</ele>
        <time>2020-08-27T14:34:15Z</time>
      </trkpt>
      <trkpt lat="46.75707" lon="6.3535">
        <ele>1293.1</ele>
        <time>2020-08-27T14:34:16Z</time>
      </trkpt>
      <trkpt lat="46.75708" lon="6.35351">
        <ele>1293</ele>
        <time>2020-08-27T14:34:17Z</time>
      </trkpt>
      <trkpt lat="46.7571" lon="6.35353">
        <ele>1292.9</ele>
        <time>2020-08-27T14:34:18Z</time>
      </trkpt>
      <trkpt lat="46.75712" lon="6.35355">
        <ele>1292.8</ele>
        <time>2020-08-27T14:34:19Z</time>
      </trkpt>
      <trkpt lat="46.75715" lon="6.35357">
        <ele>1292.7</ele>
        <time>2020-08-27T14:34:20Z</time>
      </trkpt>
      <trkpt lat="46.75718" lon="6.3536">
        <ele>1292.6</ele>
        <time>2020-08-27T14:34:21Z</time>
      </trkpt>
      <trkpt lat="46.7572" lon="6.35362">
        <ele>1292.4</ele>
        <time>2020-08-27T14:34:22Z</time>
      </trkpt>
      <trkpt lat="46.75722" lon="6.35364">
        <ele>1292.3</ele>
        <time>2020-08-27T14:34:23Z</time>
      </trkpt>
      <trkpt lat="46.75725" lon="6.35365">
        <ele>1292.2</ele>
        <time>2020-08-27T14:34:24Z</time>
      </trkpt>
      <trkpt lat="46.75727" lon="6.35366">
        <ele>1292.1</ele>
        <time>2020-08-27T14:34:25Z</time>
      </trkpt>
      <trkpt lat="46.75729" lon="6.35367">
        <ele>1292</ele>
        <time>2020-08-27T14:34:26Z</time>
      </trkpt>
      <trkpt lat="46.75731" lon="6.35369">
        <ele>1291.9</ele>
        <time>2020-08-27T14:34:27Z</time>
      </trkpt>
      <trkpt lat="46.75734" lon="6.35369">
        <ele>1291.8</ele>
        <time>2020-08-27T14:34:28Z</time>
      </trkpt>
      <trkpt lat="46.75736" lon="6.35371">
        <ele>1291.7</ele>
        <time>2020-08-27T14:34:29Z</time>
      </trkpt>
      <trkpt lat="46.75739" lon="6.35373">
        <ele>1291.6</ele>
        <time>2020-08-27T14:34:30Z</time>
      </trkpt>
      <trkpt lat="46.7574" lon="6.35375">
        <ele>1291.3</ele>
        <time>2020-08-27T14:34:31Z</time>
      </trkpt>
      <trkpt lat="46.75742" lon="6.35376">
        <ele>1291</ele>
        <time>2020-08-27T14:34:32Z</time>
      </trkpt>
      <trkpt lat="46.75744" lon="6.35379">
        <ele>1290.7</ele>
        <time>2020-08-27T14:34:33Z</time>
      </trkpt>
      <trkpt lat="46.75745" lon="6.35381">
        <ele>1290.5</ele>
        <time>2020-08-27T14:34:34Z</time>
      </trkpt>
      <trkpt lat="46.75746" lon="6.35382">
        <ele>1290.3</ele>
        <time>2020-08-27T14:34:35Z</time>
      </trkpt>
      <trkpt lat="46.75747" lon="6.35384">
        <ele>1290.2</ele>
        <time>2020-08-27T14:34:36Z</time>
      </trkpt>
      <trkpt lat="46.75749" lon="6.35386">
        <ele>1290.1</ele>
        <time>2020-08-27T14:34:37Z</time>
      </trkpt>
      <trkpt lat="46.75751" lon="6.35387">
        <ele>1290</ele>
        <time>2020-08-27T14:34:38Z</time>
      </trkpt>
      <trkpt lat="46.75754" lon="6.3539">
        <ele>1289.9</ele>
        <time>2020-08-27T14:34:39Z</time>
      </trkpt>
      <trkpt lat="46.75756" lon="6.35394">
        <ele>1289.8</ele>
        <time>2020-08-27T14:34:40Z</time>
      </trkpt>
      <trkpt lat="46.75759" lon="6.35398">
        <ele>1289.7</ele>
        <time>2020-08-27T14:34:41Z</time>
      </trkpt>
      <trkpt lat="46.75761" lon="6.35401">
        <ele>1289.6</ele>
        <time>2020-08-27T14:34:42Z</time>
      </trkpt>
      <trkpt lat="46.75762" lon="6.35403">
        <ele>1289.5</ele>
        <time>2020-08-27T14:34:43Z</time>
      </trkpt>
      <trkpt lat="46.75764" lon="6.35405">
        <ele>1289.4</ele>
        <time>2020-08-27T14:34:44Z</time>
      </trkpt>
      <trkpt lat="46.75766" lon="6.35407">
        <ele>1289.4</ele>
        <time>2020-08-27T14:34:45Z</time>
      </trkpt>
      <trkpt lat="46.75768" lon="6.3541">
        <ele>1289.3</ele>
        <time>2020-08-27T14:34:46Z</time>
      </trkpt>
      <trkpt lat="46.7577" lon="6.35412">
        <ele>1289.2</ele>
        <time>2020-08-27T14:34:47Z</time>
      </trkpt>
      <trkpt lat="46.75772" lon="6.35413">
        <ele>1289.1</ele>
        <time>2020-08-27T14:34:48Z</time>
      </trkpt>
      <trkpt lat="46.75775" lon="6.35414">
        <ele>1289</ele>
        <time>2020-08-27T14:34:49Z</time>
      </trkpt>
      <trkpt lat="46.75778" lon="6.35416">
        <ele>1288.8</ele>
        <time>2020-08-27T14:34:50Z</time>
      </trkpt>
      <trkpt lat="46.75781" lon="6.35418">
        <ele>1288.6</ele>
        <time>2020-08-27T14:34:51Z</time>
      </trkpt>
      <trkpt lat="46.75784" lon="6.3542">
        <ele>1288.5</ele>
        <time>2020-08-27T14:34:52Z</time>
      </trkpt>
      <trkpt lat="46.75787" lon="6.35423">
        <ele>1288.3</ele>
        <time>2020-08-27T14:34:53Z</time>
      </trkpt>
      <trkpt lat="46.75788" lon="6.35425">
        <ele>1288.2</ele>
        <time>2020-08-27T14:34:54Z</time>
      </trkpt>
      <trkpt lat="46.7579" lon="6.35428">
        <ele>1288</ele>
        <time>2020-08-27T14:34:55Z</time>
      </trkpt>
      <trkpt lat="46.75792" lon="6.3543">
        <ele>1287.9</ele>
        <time>2020-08-27T14:34:56Z</time>
      </trkpt>
      <trkpt lat="46.75795" lon="6.35433">
        <ele>1287.7</ele>
        <time>2020-08-27T14:34:57Z</time>
      </trkpt>
      <trkpt lat="46.75798" lon="6.35435">
        <ele>1287.6</ele>
        <time>2020-08-27T14:34:58Z</time>
      </trkpt>
      <trkpt lat="46.758" lon="6.35439">
        <ele>1287.4</ele>
        <time>2020-08-27T14:34:59Z</time>
      </trkpt>
      <trkpt lat="46.75803" lon="6.35443">
        <ele>1287.3</ele>
        <time>2020-08-27T14:35:00Z</time>
      </trkpt>
      <trkpt lat="46.75806" lon="6.35447">
        <ele>1287.2</ele>
        <time>2020-08-27T14:35:01Z</time>
      </trkpt>
      <trkpt lat="46.75808" lon="6.35451">
        <ele>1287.1</ele>
        <time>2020-08-27T14:35:02Z</time>
      </trkpt>
      <trkpt lat="46.75811" lon="6.35455">
        <ele>1287</ele>
        <time>2020-08-27T14:35:03Z</time>
      </trkpt>
      <trkpt lat="46.75814" lon="6.3546">
        <ele>1286.7</ele>
        <time>2020-08-27T14:35:04Z</time>
      </trkpt>
      <trkpt lat="46.75816" lon="6.35465">
        <ele>1286.4</ele>
        <time>2020-08-27T14:35:05Z</time>
      </trkpt>
      <trkpt lat="46.75819" lon="6.35469">
        <ele>1286.2</ele>
        <time>2020-08-27T14:35:06Z</time>
      </trkpt>
      <trkpt lat="46.75822" lon="6.35473">
        <ele>1285.9</ele>
        <time>2020-08-27T14:35:07Z</time>
      </trkpt>
      <trkpt lat="46.75824" lon="6.35477">
        <ele>1285.6</ele>
        <time>2020-08-27T14:35:08Z</time>
      </trkpt>
      <trkpt lat="46.75826" lon="6.35481">
        <ele>1285.3</ele>
        <time>2020-08-27T14:35:09Z</time>
      </trkpt>
      <trkpt lat="46.75828" lon="6.35485">
        <ele>1285</ele>
        <time>2020-08-27T14:35:10Z</time>
      </trkpt>
      <trkpt lat="46.75829" lon="6.35489">
        <ele>1284.7</ele>
        <time>2020-08-27T14:35:11Z</time>
      </trkpt>
      <trkpt lat="46.7583" lon="6.35492">
        <ele>1284.5</ele>
        <time>2020-08-27T14:35:12Z</time>
      </trkpt>
      <trkpt lat="46.75831" lon="6.35495">
        <ele>1284.3</ele>
        <time>2020-08-27T14:35:13Z</time>
      </trkpt>
      <trkpt lat="46.75832" lon="6.35498">
        <ele>1284</ele>
        <time>2020-08-27T14:35:14Z</time>
      </trkpt>
      <trkpt lat="46.75833" lon="6.35501">
        <ele>1283.8</ele>
        <time>2020-08-27T14:35:15Z</time>
      </trkpt>
      <trkpt lat="46.75834" lon="6.35504">
        <ele>1283.5</ele>
        <time>2020-08-27T14:35:16Z</time>
      </trkpt>
      <trkpt lat="46.75835" lon="6.35508">
        <ele>1283.3</ele>
        <time>2020-08-27T14:35:17Z</time>
      </trkpt>
      <trkpt lat="46.75836" lon="6.35512">
        <ele>1283.1</ele>
        <time>2020-08-27T14:35:18Z</time>
      </trkpt>
      <trkpt lat="46.75837" lon="6.35515">
        <ele>1282.8</ele>
        <time>2020-08-27T14:35:19Z</time>
      </trkpt>
      <trkpt lat="46.75838" lon="6.35519">
        <ele>1282.6</ele>
        <time>2020-08-27T14:35:20Z</time>
      </trkpt>
      <trkpt lat="46.75839" lon="6.35523">
        <ele>1282.3</ele>
        <time>2020-08-27T14:35:21Z</time>
      </trkpt>
      <trkpt lat="46.7584" lon="6.35527">
        <ele>1282.1</ele>
        <time>2020-08-27T14:35:22Z</time>
      </trkpt>
      <trkpt lat="46.75841" lon="6.3553">
        <ele>1281.8</ele>
        <time>2020-08-27T14:35:23Z</time>
      </trkpt>
      <trkpt lat="46.75841" lon="6.35532">
        <ele>1281.6</ele>
        <time>2020-08-27T14:35:24Z</time>
      </trkpt>
      <trkpt lat="46.75842" lon="6.35535">
        <ele>1281.3</ele>
        <time>2020-08-27T14:35:25Z</time>
      </trkpt>
      <trkpt lat="46.75844" lon="6.35538">
        <ele>1281.1</ele>
        <time>2020-08-27T14:35:26Z</time>
      </trkpt>
      <trkpt lat="46.75846" lon="6.35539">
        <ele>1280.9</ele>
        <time>2020-08-27T14:35:27Z</time>
      </trkpt>
      <trkpt lat="46.75848" lon="6.3554">
        <ele>1280.7</ele>
        <time>2020-08-27T14:35:28Z</time>
      </trkpt>
      <trkpt lat="46.75851" lon="6.35537">
        <ele>1280.5</ele>
        <time>2020-08-27T14:35:29Z</time>
      </trkpt>
      <trkpt lat="46.75852" lon="6.35533">
        <ele>1280</ele>
        <time>2020-08-27T14:35:30Z</time>
      </trkpt>
      <trkpt lat="46.75853" lon="6.35529">
        <ele>1279.6</ele>
        <time>2020-08-27T14:35:31Z</time>
      </trkpt>
      <trkpt lat="46.75854" lon="6.35525">
        <ele>1279.3</ele>
        <time>2020-08-27T14:35:32Z</time>
      </trkpt>
      <trkpt lat="46.75856" lon="6.35522">
        <ele>1279</ele>
        <time>2020-08-27T14:35:33Z</time>
      </trkpt>
      <trkpt lat="46.75857" lon="6.3552">
        <ele>1278.6</ele>
        <time>2020-08-27T14:35:34Z</time>
      </trkpt>
      <trkpt lat="46.75858" lon="6.35518">
        <ele>1278.3</ele>
        <time>2020-08-27T14:35:35Z</time>
      </trkpt>
      <trkpt lat="46.75859" lon="6.35518">
        <ele>1278.1</ele>
        <time>2020-08-27T14:35:36Z</time>
      </trkpt>
      <trkpt lat="46.75859" lon="6.35518">
        <ele>1277.8</ele>
        <time>2020-08-27T14:35:37Z</time>
      </trkpt>
      <trkpt lat="46.75859" lon="6.35517">
        <ele>1277.6</ele>
        <time>2020-08-27T14:35:38Z</time>
      </trkpt>
      <trkpt lat="46.7586" lon="6.35517">
        <ele>1277.3</ele>
        <time>2020-08-27T14:35:39Z</time>
      </trkpt>
      <trkpt lat="46.7586" lon="6.35516">
        <ele>1277.1</ele>
        <time>2020-08-27T14:35:40Z</time>
      </trkpt>
      <trkpt lat="46.7586" lon="6.35516">
        <ele>1276.9</ele>
        <time>2020-08-27T14:35:41Z</time>
      </trkpt>
      <trkpt lat="46.75861" lon="6.35516">
        <ele>1276.7</ele>
        <time>2020-08-27T14:35:42Z</time>
      </trkpt>
      <trkpt lat="46.75861" lon="6.35516">
        <ele>1276.4</ele>
        <time>2020-08-27T14:35:43Z</time>
      </trkpt>
      <trkpt lat="46.75861" lon="6.35516">
        <ele>1276.2</ele>
        <time>2020-08-27T14:35:44Z</time>
      </trkpt>
      <trkpt lat="46.75862" lon="6.35516">
        <ele>1276</ele>
        <time>2020-08-27T14:35:45Z</time>
      </trkpt>
      <trkpt lat="46.75862" lon="6.35516">
        <ele>1275.8</ele>
        <time>2020-08-27T14:35:46Z</time>
      </trkpt>
      <trkpt lat="46.75862" lon="6.35516">
        <ele>1275.6</ele>
        <time>2020-08-27T14:35:47Z</time>
      </trkpt>
      <trkpt lat="46.75863" lon="6.35516">
        <ele>1275.5</ele>
        <time>2020-08-27T14:35:48Z</time>
      </trkpt>
      <trkpt lat="46.75863" lon="6.35516">
        <ele>1275.3</ele>
        <time>2020-08-27T14:35:49Z</time>
      </trkpt>
      <trkpt lat="46.75863" lon="6.35516">
        <ele>1275.2</ele>
        <time>2020-08-27T14:35:50Z</time>
      </trkpt>
      <trkpt lat="46.75863" lon="6.35516">
        <ele>1275.1</ele>
        <time>2020-08-27T14:35:51Z</time>
      </trkpt>
      <trkpt lat="46.75863" lon="6.35516">
        <ele>1274.9</ele>
        <time>2020-08-27T14:35:52Z</time>
      </trkpt>
      <trkpt lat="46.75863" lon="6.35516">
        <ele>1274.8</ele>
        <time>2020-08-27T14:35:53Z</time>
      </trkpt>
      <trkpt lat="46.75863" lon="6.35516">
        <ele>1274.7</ele>
        <time>2020-08-27T14:35:54Z</time>
      </trkpt>
      <trkpt lat="46.75863" lon="6.35516">
        <ele>1274.6</ele>
        <time>2020-08-27T14:35:55Z</time>
      </trkpt>
      <trkpt lat="46.75863" lon="6.35516">
        <ele>1274.5</ele>
        <time>2020-08-27T14:35:56Z</time>
      </trkpt>
      <trkpt lat="46.75863" lon="6.35516">
        <ele>1274.5</ele>
        <time>2020-08-27T14:35:57Z</time>
      </trkpt>
      <trkpt lat="46.75863" lon="6.35516">
        <ele>1274.5</ele>
        <time>2020-08-27T14:35:58Z</time>
      </trkpt>
      <trkpt lat="46.75863" lon="6.35516">
        <ele>1274.5</ele>
        <time>2020-08-27T14:35:59Z</time>
      </trkpt>
      <trkpt lat="46.75863" lon="6.35517">
        <ele>1274.6</ele>
        <time>2020-08-27T14:36:00Z</time>
      </trkpt>
      <trkpt lat="46.75862" lon="6.35517">
        <ele>1274.6</ele>
        <time>2020-08-27T14:36:01Z</time>
      </trkpt>
      <trkpt lat="46.75862" lon="6.35517">
        <ele>1274.6</ele>
        <time>2020-08-27T14:36:02Z</time>
      </trkpt>
      <trkpt lat="46.75862" lon="6.35517">
        <ele>1274.7</ele>
        <time>2020-08-27T14:36:03Z</time>
      </trkpt>
      <trkpt lat="46.75862" lon="6.35517">
        <ele>1274.7</ele>
        <time>2020-08-27T14:36:04Z</time>
      </trkpt>
      <trkpt lat="46.75862" lon="6.35517">
        <ele>1274.7</ele>
        <time>2020-08-27T14:36:05Z</time>
      </trkpt>
      <trkpt lat="46.75862" lon="6.35517">
        <ele>1274.7</ele>
        <time>2020-08-27T14:36:06Z</time>
      </trkpt>
      <trkpt lat="46.75862" lon="6.35517">
        <ele>1274.7</ele>
        <time>2020-08-27T14:36:07Z</time>
      </trkpt>
      <trkpt lat="46.75863" lon="6.35517">
        <ele>1274.7</ele>
        <time>2020-08-27T14:36:08Z</time>
      </trkpt>
      <trkpt lat="46.75863" lon="6.35517">
        <ele>1274.7</ele>
        <time>2020-08-27T14:36:09Z</time>
      </trkpt>
      <trkpt lat="46.75863" lon="6.35516">
        <ele>1274.7</ele>
        <time>2020-08-27T14:36:10Z</time>
      </trkpt>
      <trkpt lat="46.75863" lon="6.35516">
        <ele>1274.7</ele>
        <time>2020-08-27T14:36:11Z</time>
      </trkpt>
      <trkpt lat="46.75863" lon="6.35516">
        <ele>1274.7</ele>
        <time>2020-08-27T14:36:12Z</time>
      </trkpt>
      <trkpt lat="46.75863" lon="6.35516">
        <ele>1274.7</ele>
        <time>2020-08-27T14:36:13Z</time>
      </trkpt>
      <trkpt lat="46.75863" lon="6.35516">
        <ele>1274.7</ele>
        <time>2020-08-27T14:36:14Z</time>
      </trkpt>
      <trkpt lat="46.75863" lon="6.35516">
        <ele>1274.6</ele>
        <time>2020-08-27T14:36:15Z</time>
      </trkpt>
      <trkpt lat="46.75863" lon="6.35515">
        <ele>1274.5</ele>
        <time>2020-08-27T14:36:16Z</time>
      </trkpt>
      <trkpt lat="46.75863" lon="6.35515">
        <ele>1274.4</ele>
        <time>2020-08-27T14:36:17Z</time>
      </trkpt>
      <trkpt lat="46.75863" lon="6.35515">
        <ele>1274.3</ele>
        <time>2020-08-27T14:36:18Z</time>
      </trkpt>
      <trkpt lat="46.75863" lon="6.35516">
        <ele>1274.3</ele>
        <time>2020-08-27T14:36:19Z</time>
      </trkpt>
      <trkpt lat="46.75863" lon="6.35516">
        <ele>1274.2</ele>
        <time>2020-08-27T14:36:20Z</time>
      </trkpt>
      <trkpt lat="46.75863" lon="6.35516">
        <ele>1274.1</ele>
        <time>2020-08-27T14:36:21Z</time>
      </trkpt>
      <trkpt lat="46.75863" lon="6.35516">
        <ele>1274.1</ele>
        <time>2020-08-27T14:36:22Z</time>
      </trkpt>
      <trkpt lat="46.75863" lon="6.35515">
        <ele>1274</ele>
        <time>2020-08-27T14:36:23Z</time>
      </trkpt>
      <trkpt lat="46.75863" lon="6.35515">
        <ele>1274</ele>
        <time>2020-08-27T14:36:24Z</time>
      </trkpt>
      <trkpt lat="46.75863" lon="6.35515">
        <ele>1273.9</ele>
        <time>2020-08-27T14:36:25Z</time>
      </trkpt>
      <trkpt lat="46.75863" lon="6.35515">
        <ele>1273.9</ele>
        <time>2020-08-27T14:36:26Z</time>
      </trkpt>
      <trkpt lat="46.75863" lon="6.35515">
        <ele>1273.8</ele>
        <time>2020-08-27T14:36:27Z</time>
      </trkpt>
      <trkpt lat="46.75863" lon="6.35515">
        <ele>1273.8</ele>
        <time>2020-08-27T14:36:28Z</time>
      </trkpt>
      <trkpt lat="46.75863" lon="6.35515">
        <ele>1273.8</ele>
        <time>2020-08-27T14:36:29Z</time>
      </trkpt>
      <trkpt lat="46.75863" lon="6.35515">
        <ele>1273.7</ele>
        <time>2020-08-27T14:36:30Z</time>
      </trkpt>
      <trkpt lat="46.75863" lon="6.35515">
        <ele>1273.7</ele>
        <time>2020-08-27T14:36:31Z</time>
      </trkpt>
      <trkpt lat="46.75864" lon="6.35514">
        <ele>1273.7</ele>
        <time>2020-08-27T14:36:32Z</time>
      </trkpt>
      <trkpt lat="46.75864" lon="6.35514">
        <ele>1273.6</ele>
        <time>2020-08-27T14:36:33Z</time>
      </trkpt>
      <trkpt lat="46.75864" lon="6.35514">
        <ele>1273.6</ele>
        <time>2020-08-27T14:36:34Z</time>
      </trkpt>
      <trkpt lat="46.75864" lon="6.35515">
        <ele>1273.6</ele>
        <time>2020-08-27T14:36:35Z</time>
      </trkpt>
      <trkpt lat="46.75865" lon="6.35514">
        <ele>1273.6</ele>
        <time>2020-08-27T14:36:36Z</time>
      </trkpt>
      <trkpt lat="46.75865" lon="6.35514">
        <ele>1273.5</ele>
        <time>2020-08-27T14:36:37Z</time>
      </trkpt>
      <trkpt lat="46.75865" lon="6.35514">
        <ele>1273.5</ele>
        <time>2020-08-27T14:36:38Z</time>
      </trkpt>
      <trkpt lat="46.75864" lon="6.35514">
        <ele>1273.5</ele>
        <time>2020-08-27T14:36:39Z</time>
      </trkpt>
      <trkpt lat="46.75864" lon="6.35514">
        <ele>1273.6</ele>
        <time>2020-08-27T14:36:40Z</time>
      </trkpt>
      <trkpt lat="46.75864" lon="6.35514">
        <ele>1273.6</ele>
        <time>2020-08-27T14:36:41Z</time>
      </trkpt>
      <trkpt lat="46.75864" lon="6.35513">
        <ele>1273.6</ele>
        <time>2020-08-27T14:36:42Z</time>
      </trkpt>
      <trkpt lat="46.75864" lon="6.35514">
        <ele>1273.6</ele>
        <time>2020-08-27T14:36:43Z</time>
      </trkpt>
      <trkpt lat="46.75864" lon="6.35513">
        <ele>1273.7</ele>
        <time>2020-08-27T14:36:44Z</time>
      </trkpt>
      <trkpt lat="46.75864" lon="6.35513">
        <ele>1273.7</ele>
        <time>2020-08-27T14:36:45Z</time>
      </trkpt>
      <trkpt lat="46.75864" lon="6.35513">
        <ele>1273.7</ele>
        <time>2020-08-27T14:36:46Z</time>
      </trkpt>
      <trkpt lat="46.75864" lon="6.35513">
        <ele>1273.8</ele>
        <time>2020-08-27T14:36:47Z</time>
      </trkpt>
      <trkpt lat="46.75864" lon="6.35513">
        <ele>1273.7</ele>
        <time>2020-08-27T14:36:48Z</time>
      </trkpt>
      <trkpt lat="46.75864" lon="6.35513">
        <ele>1273.7</ele>
        <time>2020-08-27T14:36:49Z</time>
      </trkpt>
      <trkpt lat="46.75864" lon="6.35512">
        <ele>1273.6</ele>
        <time>2020-08-27T14:36:50Z</time>
      </trkpt>
      <trkpt lat="46.75865" lon="6.3551">
        <ele>1273.6</ele>
        <time>2020-08-27T14:36:51Z</time>
      </trkpt>
      <trkpt lat="46.75865" lon="6.35508">
        <ele>1273.6</ele>
        <time>2020-08-27T14:36:52Z</time>
      </trkpt>
      <trkpt lat="46.75866" lon="6.35505">
        <ele>1273.5</ele>
        <time>2020-08-27T14:36:53Z</time>
      </trkpt>
      <trkpt lat="46.75867" lon="6.35502">
        <ele>1273.5</ele>
        <time>2020-08-27T14:36:54Z</time>
      </trkpt>
      <trkpt lat="46.75868" lon="6.35499">
        <ele>1273.5</ele>
        <time>2020-08-27T14:36:55Z</time>
      </trkpt>
      <trkpt lat="46.75868" lon="6.35495">
        <ele>1273.5</ele>
        <time>2020-08-27T14:36:56Z</time>
      </trkpt>
      <trkpt lat="46.75869" lon="6.3549">
        <ele>1273.4</ele>
        <time>2020-08-27T14:36:57Z</time>
      </trkpt>
      <trkpt lat="46.75868" lon="6.35484">
        <ele>1273.5</ele>
        <time>2020-08-27T14:36:58Z</time>
      </trkpt>
      <trkpt lat="46.75868" lon="6.35478">
        <ele>1273.5</ele>
        <time>2020-08-27T14:36:59Z</time>
      </trkpt>
      <trkpt lat="46.75868" lon="6.35471">
        <ele>1273.4</ele>
        <time>2020-08-27T14:37:00Z</time>
      </trkpt>
      <trkpt lat="46.75868" lon="6.35466">
        <ele>1273.3</ele>
        <time>2020-08-27T14:37:01Z</time>
      </trkpt>
      <trkpt lat="46.75868" lon="6.3546">
        <ele>1273.2</ele>
        <time>2020-08-27T14:37:02Z</time>
      </trkpt>
      <trkpt lat="46.75866" lon="6.35455">
        <ele>1273</ele>
        <time>2020-08-27T14:37:03Z</time>
      </trkpt>
      <trkpt lat="46.75865" lon="6.3545">
        <ele>1272.9</ele>
        <time>2020-08-27T14:37:04Z</time>
      </trkpt>
      <trkpt lat="46.75863" lon="6.35446">
        <ele>1272.8</ele>
        <time>2020-08-27T14:37:05Z</time>
      </trkpt>
      <trkpt lat="46.75862" lon="6.35442">
        <ele>1272.7</ele>
        <time>2020-08-27T14:37:06Z</time>
      </trkpt>
      <trkpt lat="46.7586" lon="6.3544">
        <ele>1272.6</ele>
        <time>2020-08-27T14:37:07Z</time>
      </trkpt>
      <trkpt lat="46.75859" lon="6.35438">
        <ele>1272.5</ele>
        <time>2020-08-27T14:37:08Z</time>
      </trkpt>
      <trkpt lat="46.75858" lon="6.35434">
        <ele>1272.4</ele>
        <time>2020-08-27T14:37:09Z</time>
      </trkpt>
      <trkpt lat="46.75857" lon="6.35431">
        <ele>1272.3</ele>
        <time>2020-08-27T14:37:10Z</time>
      </trkpt>
      <trkpt lat="46.75857" lon="6.35427">
        <ele>1272.2</ele>
        <time>2020-08-27T14:37:11Z</time>
      </trkpt>
      <trkpt lat="46.75859" lon="6.35424">
        <ele>1271.9</ele>
        <time>2020-08-27T14:37:12Z</time>
      </trkpt>
      <trkpt lat="46.75861" lon="6.35425">
        <ele>1271.7</ele>
        <time>2020-08-27T14:37:13Z</time>
      </trkpt>
      <trkpt lat="46.75863" lon="6.35429">
        <ele>1271.4</ele>
        <time>2020-08-27T14:37:14Z</time>
      </trkpt>
      <trkpt lat="46.75864" lon="6.35432">
        <ele>1271.2</ele>
        <time>2020-08-27T14:37:15Z</time>
      </trkpt>
      <trkpt lat="46.75865" lon="6.35434">
        <ele>1271</ele>
        <time>2020-08-27T14:37:16Z</time>
      </trkpt>
      <trkpt lat="46.75866" lon="6.35434">
        <ele>1270.6</ele>
        <time>2020-08-27T14:37:17Z</time>
      </trkpt>
      <trkpt lat="46.75866" lon="6.35434">
        <ele>1270.3</ele>
        <time>2020-08-27T14:37:18Z</time>
      </trkpt>
      <trkpt lat="46.75867" lon="6.35433">
        <ele>1270</ele>
        <time>2020-08-27T14:37:19Z</time>
      </trkpt>
      <trkpt lat="46.75867" lon="6.35432">
        <ele>1269.8</ele>
        <time>2020-08-27T14:37:20Z</time>
      </trkpt>
      <trkpt lat="46.75867" lon="6.35432">
        <ele>1269.5</ele>
        <time>2020-08-27T14:37:21Z</time>
      </trkpt>
      <trkpt lat="46.75867" lon="6.35431">
        <ele>1269.3</ele>
        <time>2020-08-27T14:37:22Z</time>
      </trkpt>
      <trkpt lat="46.75868" lon="6.35431">
        <ele>1269.1</ele>
        <time>2020-08-27T14:37:23Z</time>
      </trkpt>
      <trkpt lat="46.75869" lon="6.35432">
        <ele>1268.9</ele>
        <time>2020-08-27T14:37:24Z</time>
      </trkpt>
      <trkpt lat="46.75872" lon="6.35434">
        <ele>1268.8</ele>
        <time>2020-08-27T14:37:25Z</time>
      </trkpt>
      <trkpt lat="46.75875" lon="6.35436">
        <ele>1268.6</ele>
        <time>2020-08-27T14:37:26Z</time>
      </trkpt>
      <trkpt lat="46.75879" lon="6.35438">
        <ele>1268.5</ele>
        <time>2020-08-27T14:37:27Z</time>
      </trkpt>
      <trkpt lat="46.75883" lon="6.35442">
        <ele>1268.2</ele>
        <time>2020-08-27T14:37:28Z</time>
      </trkpt>
      <trkpt lat="46.75886" lon="6.35447">
        <ele>1268</ele>
        <time>2020-08-27T14:37:29Z</time>
      </trkpt>
      <trkpt lat="46.75888" lon="6.35452">
        <ele>1267.7</ele>
        <time>2020-08-27T14:37:30Z</time>
      </trkpt>
      <trkpt lat="46.75889" lon="6.35457">
        <ele>1267.5</ele>
        <time>2020-08-27T14:37:31Z</time>
      </trkpt>
      <trkpt lat="46.7589" lon="6.35461">
        <ele>1267.3</ele>
        <time>2020-08-27T14:37:32Z</time>
      </trkpt>
      <trkpt lat="46.75893" lon="6.35463">
        <ele>1267</ele>
        <time>2020-08-27T14:37:33Z</time>
      </trkpt>
      <trkpt lat="46.75895" lon="6.35465">
        <ele>1266.7</ele>
        <time>2020-08-27T14:37:34Z</time>
      </trkpt>
      <trkpt lat="46.75896" lon="6.35469">
        <ele>1266.4</ele>
        <time>2020-08-27T14:37:35Z</time>
      </trkpt>
      <trkpt lat="46.75898" lon="6.35474">
        <ele>1266.2</ele>
        <time>2020-08-27T14:37:36Z</time>
      </trkpt>
      <trkpt lat="46.75901" lon="6.3548">
        <ele>1265.9</ele>
        <time>2020-08-27T14:37:37Z</time>
      </trkpt>
      <trkpt lat="46.75905" lon="6.35485">
        <ele>1265.6</ele>
        <time>2020-08-27T14:37:38Z</time>
      </trkpt>
      <trkpt lat="46.75909" lon="6.35491">
        <ele>1265.2</ele>
        <time>2020-08-27T14:37:39Z</time>
      </trkpt>
      <trkpt lat="46.75913" lon="6.35497">
        <ele>1264.9</ele>
        <time>2020-08-27T14:37:40Z</time>
      </trkpt>
      <trkpt lat="46.75918" lon="6.35504">
        <ele>1264.5</ele>
        <time>2020-08-27T14:37:41Z</time>
      </trkpt>
      <trkpt lat="46.75923" lon="6.35511">
        <ele>1264.2</ele>
        <time>2020-08-27T14:37:42Z</time>
      </trkpt>
      <trkpt lat="46.75928" lon="6.35517">
        <ele>1263.7</ele>
        <time>2020-08-27T14:37:43Z</time>
      </trkpt>
      <trkpt lat="46.75932" lon="6.35524">
        <ele>1263.3</ele>
        <time>2020-08-27T14:37:44Z</time>
      </trkpt>
      <trkpt lat="46.75935" lon="6.35529">
        <ele>1262.9</ele>
        <time>2020-08-27T14:37:45Z</time>
      </trkpt>
      <trkpt lat="46.75937" lon="6.35534">
        <ele>1262.5</ele>
        <time>2020-08-27T14:37:46Z</time>
      </trkpt>
      <trkpt lat="46.75938" lon="6.35537">
        <ele>1262</ele>
        <time>2020-08-27T14:37:47Z</time>
      </trkpt>
      <trkpt lat="46.75939" lon="6.35538">
        <ele>1261.6</ele>
        <time>2020-08-27T14:37:48Z</time>
      </trkpt>
      <trkpt lat="46.7594" lon="6.35539">
        <ele>1261.2</ele>
        <time>2020-08-27T14:37:49Z</time>
      </trkpt>
      <trkpt lat="46.7594" lon="6.35539">
        <ele>1260.9</ele>
        <time>2020-08-27T14:37:50Z</time>
      </trkpt>
      <trkpt lat="46.7594" lon="6.35539">
        <ele>1260.5</ele>
        <time>2020-08-27T14:37:51Z</time>
      </trkpt>
      <trkpt lat="46.75941" lon="6.3554">
        <ele>1260.2</ele>
        <time>2020-08-27T14:37:52Z</time>
      </trkpt>
      <trkpt lat="46.75941" lon="6.3554">
        <ele>1259.9</ele>
        <time>2020-08-27T14:37:53Z</time>
      </trkpt>
      <trkpt lat="46.75942" lon="6.3554">
        <ele>1259.6</ele>
        <time>2020-08-27T14:37:54Z</time>
      </trkpt>
      <trkpt lat="46.75942" lon="6.3554">
        <ele>1259.4</ele>
        <time>2020-08-27T14:37:55Z</time>
      </trkpt>
      <trkpt lat="46.75942" lon="6.35541">
        <ele>1259.1</ele>
        <time>2020-08-27T14:37:56Z</time>
      </trkpt>
      <trkpt lat="46.75942" lon="6.35541">
        <ele>1258.9</ele>
        <time>2020-08-27T14:37:57Z</time>
      </trkpt>
      <trkpt lat="46.75942" lon="6.35541">
        <ele>1258.7</ele>
        <time>2020-08-27T14:37:58Z</time>
      </trkpt>
      <trkpt lat="46.75942" lon="6.35541">
        <ele>1258.4</ele>
        <time>2020-08-27T14:37:59Z</time>
      </trkpt>
      <trkpt lat="46.75943" lon="6.35542">
        <ele>1258.3</ele>
        <time>2020-08-27T14:38:00Z</time>
      </trkpt>
      <trkpt lat="46.75943" lon="6.35542">
        <ele>1258.1</ele>
        <time>2020-08-27T14:38:01Z</time>
      </trkpt>
      <trkpt lat="46.75943" lon="6.35542">
        <ele>1257.9</ele>
        <time>2020-08-27T14:38:02Z</time>
      </trkpt>
      <trkpt lat="46.75943" lon="6.35542">
        <ele>1257.7</ele>
        <time>2020-08-27T14:38:03Z</time>
      </trkpt>
      <trkpt lat="46.75943" lon="6.35542">
        <ele>1257.6</ele>
        <time>2020-08-27T14:38:04Z</time>
      </trkpt>
      <trkpt lat="46.75943" lon="6.35543">
        <ele>1257.5</ele>
        <time>2020-08-27T14:38:05Z</time>
      </trkpt>
      <trkpt lat="46.75944" lon="6.35543">
        <ele>1257.3</ele>
        <time>2020-08-27T14:38:06Z</time>
      </trkpt>
      <trkpt lat="46.75944" lon="6.35543">
        <ele>1257.2</ele>
        <time>2020-08-27T14:38:07Z</time>
      </trkpt>
      <trkpt lat="46.75944" lon="6.35543">
        <ele>1257.1</ele>
        <time>2020-08-27T14:38:08Z</time>
      </trkpt>
      <trkpt lat="46.75944" lon="6.35543">
        <ele>1257</ele>
        <time>2020-08-27T14:38:09Z</time>
      </trkpt>
      <trkpt lat="46.75944" lon="6.35544">
        <ele>1256.9</ele>
        <time>2020-08-27T14:38:10Z</time>
      </trkpt>
      <trkpt lat="46.75945" lon="6.35546">
        <ele>1256.8</ele>
        <time>2020-08-27T14:38:11Z</time>
      </trkpt>
      <trkpt lat="46.75946" lon="6.35548">
        <ele>1256.7</ele>
        <time>2020-08-27T14:38:12Z</time>
      </trkpt>
      <trkpt lat="46.75947" lon="6.35551">
        <ele>1256.6</ele>
        <time>2020-08-27T14:38:13Z</time>
      </trkpt>
      <trkpt lat="46.75948" lon="6.35555">
        <ele>1256.6</ele>
        <time>2020-08-27T14:38:14Z</time>
      </trkpt>
      <trkpt lat="46.7595" lon="6.3556">
        <ele>1256.7</ele>
        <time>2020-08-27T14:38:15Z</time>
      </trkpt>
      <trkpt lat="46.75952" lon="6.35566">
        <ele>1256.5</ele>
        <time>2020-08-27T14:38:16Z</time>
      </trkpt>
      <trkpt lat="46.75954" lon="6.35572">
        <ele>1256.4</ele>
        <time>2020-08-27T14:38:17Z</time>
      </trkpt>
      <trkpt lat="46.75955" lon="6.35577">
        <ele>1256.3</ele>
        <time>2020-08-27T14:38:18Z</time>
      </trkpt>
      <trkpt lat="46.75955" lon="6.35582">
        <ele>1256.2</ele>
        <time>2020-08-27T14:38:19Z</time>
      </trkpt>
      <trkpt lat="46.75956" lon="6.35586">
        <ele>1256.1</ele>
        <time>2020-08-27T14:38:20Z</time>
      </trkpt>
      <trkpt lat="46.75956" lon="6.35591">
        <ele>1256</ele>
        <time>2020-08-27T14:38:21Z</time>
      </trkpt>
      <trkpt lat="46.75957" lon="6.35595">
        <ele>1256</ele>
        <time>2020-08-27T14:38:22Z</time>
      </trkpt>
      <trkpt lat="46.75959" lon="6.35599">
        <ele>1255.9</ele>
        <time>2020-08-27T14:38:23Z</time>
      </trkpt>
      <trkpt lat="46.7596" lon="6.35602">
        <ele>1255.8</ele>
        <time>2020-08-27T14:38:24Z</time>
      </trkpt>
      <trkpt lat="46.75962" lon="6.35606">
        <ele>1255.7</ele>
        <time>2020-08-27T14:38:25Z</time>
      </trkpt>
      <trkpt lat="46.75964" lon="6.3561">
        <ele>1255.5</ele>
        <time>2020-08-27T14:38:26Z</time>
      </trkpt>
      <trkpt lat="46.75967" lon="6.35613">
        <ele>1255.4</ele>
        <time>2020-08-27T14:38:27Z</time>
      </trkpt>
      <trkpt lat="46.75971" lon="6.35616">
        <ele>1255.2</ele>
        <time>2020-08-27T14:38:28Z</time>
      </trkpt>
      <trkpt lat="46.75975" lon="6.35619">
        <ele>1255</ele>
        <time>2020-08-27T14:38:29Z</time>
      </trkpt>
      <trkpt lat="46.75978" lon="6.35625">
        <ele>1254.9</ele>
        <time>2020-08-27T14:38:30Z</time>
      </trkpt>
      <trkpt lat="46.7598" lon="6.3563">
        <ele>1254.7</ele>
        <time>2020-08-27T14:38:31Z</time>
      </trkpt>
      <trkpt lat="46.75981" lon="6.35633">
        <ele>1254.5</ele>
        <time>2020-08-27T14:38:32Z</time>
      </trkpt>
      <trkpt lat="46.75982" lon="6.35636">
        <ele>1254.2</ele>
        <time>2020-08-27T14:38:33Z</time>
      </trkpt>
      <trkpt lat="46.75984" lon="6.35639">
        <ele>1253.9</ele>
        <time>2020-08-27T14:38:34Z</time>
      </trkpt>
      <trkpt lat="46.75985" lon="6.35641">
        <ele>1253.6</ele>
        <time>2020-08-27T14:38:35Z</time>
      </trkpt>
      <trkpt lat="46.75986" lon="6.35644">
        <ele>1253.3</ele>
        <time>2020-08-27T14:38:36Z</time>
      </trkpt>
      <trkpt lat="46.75988" lon="6.35646">
        <ele>1252.9</ele>
        <time>2020-08-27T14:38:37Z</time>
      </trkpt>
      <trkpt lat="46.75988" lon="6.35649">
        <ele>1252.6</ele>
        <time>2020-08-27T14:38:38Z</time>
      </trkpt>
      <trkpt lat="46.7599" lon="6.35652">
        <ele>1252.3</ele>
        <time>2020-08-27T14:38:39Z</time>
      </trkpt>
      <trkpt lat="46.75991" lon="6.35656">
        <ele>1252</ele>
        <time>2020-08-27T14:38:40Z</time>
      </trkpt>
      <trkpt lat="46.75992" lon="6.35657">
        <ele>1251.7</ele>
        <time>2020-08-27T14:38:41Z</time>
      </trkpt>
      <trkpt lat="46.75994" lon="6.35659">
        <ele>1251.5</ele>
        <time>2020-08-27T14:38:42Z</time>
      </trkpt>
      <trkpt lat="46.75996" lon="6.3566">
        <ele>1251.2</ele>
        <time>2020-08-27T14:38:43Z</time>
      </trkpt>
      <trkpt lat="46.75998" lon="6.35661">
        <ele>1250.8</ele>
        <time>2020-08-27T14:38:44Z</time>
      </trkpt>
      <trkpt lat="46.76001" lon="6.3566">
        <ele>1250.5</ele>
        <time>2020-08-27T14:38:45Z</time>
      </trkpt>
      <trkpt lat="46.76003" lon="6.35661">
        <ele>1250.1</ele>
        <time>2020-08-27T14:38:46Z</time>
      </trkpt>
      <trkpt lat="46.76006" lon="6.35663">
        <ele>1249.8</ele>
        <time>2020-08-27T14:38:47Z</time>
      </trkpt>
      <trkpt lat="46.76009" lon="6.35666">
        <ele>1249.5</ele>
        <time>2020-08-27T14:38:48Z</time>
      </trkpt>
      <trkpt lat="46.7601" lon="6.35669">
        <ele>1249.2</ele>
        <time>2020-08-27T14:38:49Z</time>
      </trkpt>
      <trkpt lat="46.76012" lon="6.35672">
        <ele>1248.9</ele>
        <time>2020-08-27T14:38:50Z</time>
      </trkpt>
      <trkpt lat="46.76014" lon="6.35675">
        <ele>1248.7</ele>
        <time>2020-08-27T14:38:51Z</time>
      </trkpt>
      <trkpt lat="46.76016" lon="6.35678">
        <ele>1248.4</ele>
        <time>2020-08-27T14:38:52Z</time>
      </trkpt>
      <trkpt lat="46.76017" lon="6.35683">
        <ele>1248.2</ele>
        <time>2020-08-27T14:38:53Z</time>
      </trkpt>
      <trkpt lat="46.76017" lon="6.35686">
        <ele>1247.9</ele>
        <time>2020-08-27T14:38:54Z</time>
      </trkpt>
      <trkpt lat="46.76017" lon="6.35688">
        <ele>1247.6</ele>
        <time>2020-08-27T14:38:55Z</time>
      </trkpt>
      <trkpt lat="46.76018" lon="6.35691">
        <ele>1247.4</ele>
        <time>2020-08-27T14:38:56Z</time>
      </trkpt>
      <trkpt lat="46.76018" lon="6.35695">
        <ele>1247.1</ele>
        <time>2020-08-27T14:38:57Z</time>
      </trkpt>
      <trkpt lat="46.76018" lon="6.35699">
        <ele>1246.9</ele>
        <time>2020-08-27T14:38:58Z</time>
      </trkpt>
      <trkpt lat="46.76018" lon="6.35702">
        <ele>1246.7</ele>
        <time>2020-08-27T14:38:59Z</time>
      </trkpt>
      <trkpt lat="46.76018" lon="6.35705">
        <ele>1246.5</ele>
        <time>2020-08-27T14:39:00Z</time>
      </trkpt>
      <trkpt lat="46.76018" lon="6.35709">
        <ele>1246.3</ele>
        <time>2020-08-27T14:39:01Z</time>
      </trkpt>
      <trkpt lat="46.76019" lon="6.35712">
        <ele>1246.1</ele>
        <time>2020-08-27T14:39:02Z</time>
      </trkpt>
      <trkpt lat="46.76019" lon="6.35715">
        <ele>1246</ele>
        <time>2020-08-27T14:39:03Z</time>
      </trkpt>
      <trkpt lat="46.7602" lon="6.35716">
        <ele>1245.8</ele>
        <time>2020-08-27T14:39:04Z</time>
      </trkpt>
      <trkpt lat="46.76021" lon="6.35717">
        <ele>1245.7</ele>
        <time>2020-08-27T14:39:05Z</time>
      </trkpt>
      <trkpt lat="46.76022" lon="6.35719">
        <ele>1245.5</ele>
        <time>2020-08-27T14:39:06Z</time>
      </trkpt>
      <trkpt lat="46.76024" lon="6.35722">
        <ele>1245.4</ele>
        <time>2020-08-27T14:39:07Z</time>
      </trkpt>
      <trkpt lat="46.76027" lon="6.35725">
        <ele>1245.3</ele>
        <time>2020-08-27T14:39:08Z</time>
      </trkpt>
      <trkpt lat="46.7603" lon="6.35729">
        <ele>1245.1</ele>
        <time>2020-08-27T14:39:09Z</time>
      </trkpt>
      <trkpt lat="46.76034" lon="6.35733">
        <ele>1245</ele>
        <time>2020-08-27T14:39:10Z</time>
      </trkpt>
      <trkpt lat="46.76036" lon="6.35737">
        <ele>1244.8</ele>
        <time>2020-08-27T14:39:11Z</time>
      </trkpt>
      <trkpt lat="46.76038" lon="6.35742">
        <ele>1244.6</ele>
        <time>2020-08-27T14:39:12Z</time>
      </trkpt>
      <trkpt lat="46.76039" lon="6.35745">
        <ele>1244.2</ele>
        <time>2020-08-27T14:39:13Z</time>
      </trkpt>
      <trkpt lat="46.7604" lon="6.35749">
        <ele>1243.9</ele>
        <time>2020-08-27T14:39:14Z</time>
      </trkpt>
      <trkpt lat="46.76042" lon="6.35753">
        <ele>1243.6</ele>
        <time>2020-08-27T14:39:15Z</time>
      </trkpt>
      <trkpt lat="46.76044" lon="6.35757">
        <ele>1243.3</ele>
        <time>2020-08-27T14:39:16Z</time>
      </trkpt>
      <trkpt lat="46.76046" lon="6.35761">
        <ele>1243.1</ele>
        <time>2020-08-27T14:39:17Z</time>
      </trkpt>
      <trkpt lat="46.76047" lon="6.35767">
        <ele>1242.7</ele>
        <time>2020-08-27T14:39:18Z</time>
      </trkpt>
      <trkpt lat="46.76048" lon="6.35771">
        <ele>1242.4</ele>
        <time>2020-08-27T14:39:19Z</time>
      </trkpt>
      <trkpt lat="46.76049" lon="6.35775">
        <ele>1242</ele>
        <time>2020-08-27T14:39:20Z</time>
      </trkpt>
      <trkpt lat="46.7605" lon="6.3578">
        <ele>1241.6</ele>
        <time>2020-08-27T14:39:21Z</time>
      </trkpt>
      <trkpt lat="46.76052" lon="6.35787">
        <ele>1241.2</ele>
        <time>2020-08-27T14:39:22Z</time>
      </trkpt>
      <trkpt lat="46.76054" lon="6.35792">
        <ele>1240.9</ele>
        <time>2020-08-27T14:39:23Z</time>
      </trkpt>
      <trkpt lat="46.76055" lon="6.35798">
        <ele>1240.5</ele>
        <time>2020-08-27T14:39:24Z</time>
      </trkpt>
      <trkpt lat="46.76056" lon="6.35803">
        <ele>1240.1</ele>
        <time>2020-08-27T14:39:25Z</time>
      </trkpt>
      <trkpt lat="46.76057" lon="6.35808">
        <ele>1239.7</ele>
        <time>2020-08-27T14:39:26Z</time>
      </trkpt>
      <trkpt lat="46.76057" lon="6.35813">
        <ele>1239.4</ele>
        <time>2020-08-27T14:39:27Z</time>
      </trkpt>
      <trkpt lat="46.76057" lon="6.35819">
        <ele>1239</ele>
        <time>2020-08-27T14:39:28Z</time>
      </trkpt>
      <trkpt lat="46.76056" lon="6.35825">
        <ele>1238.7</ele>
        <time>2020-08-27T14:39:29Z</time>
      </trkpt>
      <trkpt lat="46.76056" lon="6.3583">
        <ele>1238.4</ele>
        <time>2020-08-27T14:39:30Z</time>
      </trkpt>
      <trkpt lat="46.76055" lon="6.35836">
        <ele>1238.1</ele>
        <time>2020-08-27T14:39:31Z</time>
      </trkpt>
      <trkpt lat="46.76053" lon="6.3584">
        <ele>1237.8</ele>
        <time>2020-08-27T14:39:32Z</time>
      </trkpt>
      <trkpt lat="46.76052" lon="6.35845">
        <ele>1237.5</ele>
        <time>2020-08-27T14:39:33Z</time>
      </trkpt>
      <trkpt lat="46.76051" lon="6.3585">
        <ele>1237.1</ele>
        <time>2020-08-27T14:39:34Z</time>
      </trkpt>
      <trkpt lat="46.76051" lon="6.35855">
        <ele>1236.8</ele>
        <time>2020-08-27T14:39:35Z</time>
      </trkpt>
      <trkpt lat="46.76051" lon="6.35859">
        <ele>1236.6</ele>
        <time>2020-08-27T14:39:36Z</time>
      </trkpt>
      <trkpt lat="46.76052" lon="6.35864">
        <ele>1236.3</ele>
        <time>2020-08-27T14:39:37Z</time>
      </trkpt>
      <trkpt lat="46.76052" lon="6.35866">
        <ele>1236</ele>
        <time>2020-08-27T14:39:38Z</time>
      </trkpt>
      <trkpt lat="46.76053" lon="6.35868">
        <ele>1235.7</ele>
        <time>2020-08-27T14:39:39Z</time>
      </trkpt>
      <trkpt lat="46.76053" lon="6.35869">
        <ele>1235.4</ele>
        <time>2020-08-27T14:39:40Z</time>
      </trkpt>
      <trkpt lat="46.76054" lon="6.3587">
        <ele>1235</ele>
        <time>2020-08-27T14:39:41Z</time>
      </trkpt>
      <trkpt lat="46.76055" lon="6.35872">
        <ele>1234.7</ele>
        <time>2020-08-27T14:39:42Z</time>
      </trkpt>
      <trkpt lat="46.76057" lon="6.35877">
        <ele>1234.5</ele>
        <time>2020-08-27T14:39:43Z</time>
      </trkpt>
      <trkpt lat="46.76058" lon="6.35882">
        <ele>1234.2</ele>
        <time>2020-08-27T14:39:44Z</time>
      </trkpt>
      <trkpt lat="46.76059" lon="6.35888">
        <ele>1234</ele>
        <time>2020-08-27T14:39:45Z</time>
      </trkpt>
      <trkpt lat="46.76061" lon="6.35895">
        <ele>1233.7</ele>
        <time>2020-08-27T14:39:46Z</time>
      </trkpt>
      <trkpt lat="46.76062" lon="6.35902">
        <ele>1233.4</ele>
        <time>2020-08-27T14:39:47Z</time>
      </trkpt>
      <trkpt lat="46.76064" lon="6.35908">
        <ele>1233.1</ele>
        <time>2020-08-27T14:39:48Z</time>
      </trkpt>
      <trkpt lat="46.76064" lon="6.35915">
        <ele>1232.8</ele>
        <time>2020-08-27T14:39:49Z</time>
      </trkpt>
      <trkpt lat="46.76064" lon="6.35922">
        <ele>1232.5</ele>
        <time>2020-08-27T14:39:50Z</time>
      </trkpt>
      <trkpt lat="46.76065" lon="6.35928">
        <ele>1232.2</ele>
        <time>2020-08-27T14:39:51Z</time>
      </trkpt>
      <trkpt lat="46.76068" lon="6.35931">
        <ele>1232</ele>
        <time>2020-08-27T14:39:52Z</time>
      </trkpt>
      <trkpt lat="46.76071" lon="6.35933">
        <ele>1231.5</ele>
        <time>2020-08-27T14:39:53Z</time>
      </trkpt>
      <trkpt lat="46.76075" lon="6.35934">
        <ele>1231</ele>
        <time>2020-08-27T14:39:54Z</time>
      </trkpt>
      <trkpt lat="46.76079" lon="6.35935">
        <ele>1230.6</ele>
        <time>2020-08-27T14:39:55Z</time>
      </trkpt>
      <trkpt lat="46.76082" lon="6.35935">
        <ele>1230.2</ele>
        <time>2020-08-27T14:39:56Z</time>
      </trkpt>
      <trkpt lat="46.76084" lon="6.35934">
        <ele>1229.9</ele>
        <time>2020-08-27T14:39:57Z</time>
      </trkpt>
      <trkpt lat="46.76086" lon="6.35935">
        <ele>1229.4</ele>
        <time>2020-08-27T14:39:58Z</time>
      </trkpt>
      <trkpt lat="46.76089" lon="6.35937">
        <ele>1229</ele>
        <time>2020-08-27T14:39:59Z</time>
      </trkpt>
      <trkpt lat="46.7609" lon="6.3594">
        <ele>1228.5</ele>
        <time>2020-08-27T14:40:00Z</time>
      </trkpt>
      <trkpt lat="46.7609" lon="6.35944">
        <ele>1228</ele>
        <time>2020-08-27T14:40:01Z</time>
      </trkpt>
      <trkpt lat="46.76088" lon="6.35947">
        <ele>1227.6</ele>
        <time>2020-08-27T14:40:02Z</time>
      </trkpt>
      <trkpt lat="46.76086" lon="6.35951">
        <ele>1227.1</ele>
        <time>2020-08-27T14:40:03Z</time>
      </trkpt>
      <trkpt lat="46.76084" lon="6.35955">
        <ele>1226.8</ele>
        <time>2020-08-27T14:40:04Z</time>
      </trkpt>
      <trkpt lat="46.76082" lon="6.35958">
        <ele>1226.4</ele>
        <time>2020-08-27T14:40:05Z</time>
      </trkpt>
      <trkpt lat="46.7608" lon="6.35961">
        <ele>1226.1</ele>
        <time>2020-08-27T14:40:06Z</time>
      </trkpt>
      <trkpt lat="46.76078" lon="6.35964">
        <ele>1225.7</ele>
        <time>2020-08-27T14:40:07Z</time>
      </trkpt>
      <trkpt lat="46.76076" lon="6.35967">
        <ele>1225.4</ele>
        <time>2020-08-27T14:40:08Z</time>
      </trkpt>
      <trkpt lat="46.76075" lon="6.35968">
        <ele>1225.1</ele>
        <time>2020-08-27T14:40:09Z</time>
      </trkpt>
      <trkpt lat="46.76073" lon="6.35969">
        <ele>1224.7</ele>
        <time>2020-08-27T14:40:10Z</time>
      </trkpt>
      <trkpt lat="46.7607" lon="6.35968">
        <ele>1224.4</ele>
        <time>2020-08-27T14:40:11Z</time>
      </trkpt>
      <trkpt lat="46.76069" lon="6.35967">
        <ele>1224</ele>
        <time>2020-08-27T14:40:12Z</time>
      </trkpt>
      <trkpt lat="46.76068" lon="6.35966">
        <ele>1223.7</ele>
        <time>2020-08-27T14:40:13Z</time>
      </trkpt>
      <trkpt lat="46.76067" lon="6.35966">
        <ele>1223.4</ele>
        <time>2020-08-27T14:40:14Z</time>
      </trkpt>
      <trkpt lat="46.76067" lon="6.35966">
        <ele>1223.2</ele>
        <time>2020-08-27T14:40:15Z</time>
      </trkpt>
      <trkpt lat="46.76066" lon="6.35966">
        <ele>1222.9</ele>
        <time>2020-08-27T14:40:16Z</time>
      </trkpt>
      <trkpt lat="46.76066" lon="6.35966">
        <ele>1222.7</ele>
        <time>2020-08-27T14:40:17Z</time>
      </trkpt>
      <trkpt lat="46.76066" lon="6.35967">
        <ele>1222.4</ele>
        <time>2020-08-27T14:40:18Z</time>
      </trkpt>
      <trkpt lat="46.76065" lon="6.35968">
        <ele>1222.2</ele>
        <time>2020-08-27T14:40:19Z</time>
      </trkpt>
      <trkpt lat="46.76064" lon="6.35969">
        <ele>1221.9</ele>
        <time>2020-08-27T14:40:20Z</time>
      </trkpt>
      <trkpt lat="46.76064" lon="6.3597">
        <ele>1221.7</ele>
        <time>2020-08-27T14:40:21Z</time>
      </trkpt>
      <trkpt lat="46.76063" lon="6.35972">
        <ele>1221.4</ele>
        <time>2020-08-27T14:40:22Z</time>
      </trkpt>
      <trkpt lat="46.76064" lon="6.35973">
        <ele>1221.2</ele>
        <time>2020-08-27T14:40:23Z</time>
      </trkpt>
      <trkpt lat="46.76064" lon="6.35975">
        <ele>1221</ele>
        <time>2020-08-27T14:40:24Z</time>
      </trkpt>
      <trkpt lat="46.76065" lon="6.35977">
        <ele>1220.9</ele>
        <time>2020-08-27T14:40:25Z</time>
      </trkpt>
      <trkpt lat="46.76066" lon="6.35979">
        <ele>1220.6</ele>
        <time>2020-08-27T14:40:26Z</time>
      </trkpt>
      <trkpt lat="46.76068" lon="6.35982">
        <ele>1220.4</ele>
        <time>2020-08-27T14:40:27Z</time>
      </trkpt>
      <trkpt lat="46.7607" lon="6.35985">
        <ele>1220.2</ele>
        <time>2020-08-27T14:40:28Z</time>
      </trkpt>
      <trkpt lat="46.76072" lon="6.35989">
        <ele>1219.9</ele>
        <time>2020-08-27T14:40:29Z</time>
      </trkpt>
      <trkpt lat="46.76074" lon="6.35993">
        <ele>1219.7</ele>
        <time>2020-08-27T14:40:30Z</time>
      </trkpt>
      <trkpt lat="46.76078" lon="6.35995">
        <ele>1219.5</ele>
        <time>2020-08-27T14:40:31Z</time>
      </trkpt>
      <trkpt lat="46.76081" lon="6.35995">
        <ele>1219.3</ele>
        <time>2020-08-27T14:40:32Z</time>
      </trkpt>
      <trkpt lat="46.76083" lon="6.35996">
        <ele>1219.1</ele>
        <time>2020-08-27T14:40:33Z</time>
      </trkpt>
      <trkpt lat="46.76085" lon="6.35996">
        <ele>1218.8</ele>
        <time>2020-08-27T14:40:34Z</time>
      </trkpt>
      <trkpt lat="46.76086" lon="6.35997">
        <ele>1218.6</ele>
        <time>2020-08-27T14:40:35Z</time>
      </trkpt>
      <trkpt lat="46.76086" lon="6.35998">
        <ele>1218.3</ele>
        <time>2020-08-27T14:40:36Z</time>
      </trkpt>
      <trkpt lat="46.76086" lon="6.35998">
        <ele>1218.1</ele>
        <time>2020-08-27T14:40:37Z</time>
      </trkpt>
      <trkpt lat="46.76087" lon="6.35998">
        <ele>1217.8</ele>
        <time>2020-08-27T14:40:38Z</time>
      </trkpt>
      <trkpt lat="46.76087" lon="6.35998">
        <ele>1217.5</ele>
        <time>2020-08-27T14:40:39Z</time>
      </trkpt>
      <trkpt lat="46.76088" lon="6.35998">
        <ele>1217.3</ele>
        <time>2020-08-27T14:40:40Z</time>
      </trkpt>
      <trkpt lat="46.76088" lon="6.35998">
        <ele>1217</ele>
        <time>2020-08-27T14:40:41Z</time>
      </trkpt>
      <trkpt lat="46.76089" lon="6.35998">
        <ele>1216.8</ele>
        <time>2020-08-27T14:40:42Z</time>
      </trkpt>
      <trkpt lat="46.76089" lon="6.35998">
        <ele>1216.6</ele>
        <time>2020-08-27T14:40:43Z</time>
      </trkpt>
      <trkpt lat="46.76089" lon="6.35998">
        <ele>1216.4</ele>
        <time>2020-08-27T14:40:44Z</time>
      </trkpt>
      <trkpt lat="46.76089" lon="6.35998">
        <ele>1216.2</ele>
        <time>2020-08-27T14:40:45Z</time>
      </trkpt>
      <trkpt lat="46.7609" lon="6.35998">
        <ele>1216</ele>
        <time>2020-08-27T14:40:46Z</time>
      </trkpt>
      <trkpt lat="46.7609" lon="6.35998">
        <ele>1215.8</ele>
        <time>2020-08-27T14:40:47Z</time>
      </trkpt>
      <trkpt lat="46.76089" lon="6.35998">
        <ele>1215.7</ele>
        <time>2020-08-27T14:40:48Z</time>
      </trkpt>
      <trkpt lat="46.76089" lon="6.35998">
        <ele>1215.5</ele>
        <time>2020-08-27T14:40:49Z</time>
      </trkpt>
      <trkpt lat="46.76089" lon="6.35998">
        <ele>1215.4</ele>
        <time>2020-08-27T14:40:50Z</time>
      </trkpt>
      <trkpt lat="46.76089" lon="6.35998">
        <ele>1215.3</ele>
        <time>2020-08-27T14:40:51Z</time>
      </trkpt>
      <trkpt lat="46.76089" lon="6.35998">
        <ele>1215.2</ele>
        <time>2020-08-27T14:40:52Z</time>
      </trkpt>
      <trkpt lat="46.7609" lon="6.35997">
        <ele>1215.1</ele>
        <time>2020-08-27T14:40:53Z</time>
      </trkpt>
      <trkpt lat="46.7609" lon="6.35997">
        <ele>1215</ele>
        <time>2020-08-27T14:40:54Z</time>
      </trkpt>
      <trkpt lat="46.76092" lon="6.35996">
        <ele>1214.9</ele>
        <time>2020-08-27T14:40:55Z</time>
      </trkpt>
      <trkpt lat="46.76093" lon="6.35995">
        <ele>1214.9</ele>
        <time>2020-08-27T14:40:56Z</time>
      </trkpt>
      <trkpt lat="46.76096" lon="6.35994">
        <ele>1214.7</ele>
        <time>2020-08-27T14:40:57Z</time>
      </trkpt>
      <trkpt lat="46.76099" lon="6.35992">
        <ele>1214.5</ele>
        <time>2020-08-27T14:40:58Z</time>
      </trkpt>
      <trkpt lat="46.76102" lon="6.35993">
        <ele>1214.4</ele>
        <time>2020-08-27T14:40:59Z</time>
      </trkpt>
      <trkpt lat="46.76103" lon="6.35996">
        <ele>1214.2</ele>
        <time>2020-08-27T14:41:00Z</time>
      </trkpt>
      <trkpt lat="46.76102" lon="6.36001">
        <ele>1214.1</ele>
        <time>2020-08-27T14:41:01Z</time>
      </trkpt>
      <trkpt lat="46.76099" lon="6.36006">
        <ele>1213.9</ele>
        <time>2020-08-27T14:41:02Z</time>
      </trkpt>
      <trkpt lat="46.76096" lon="6.36011">
        <ele>1213.7</ele>
        <time>2020-08-27T14:41:03Z</time>
      </trkpt>
      <trkpt lat="46.76093" lon="6.36016">
        <ele>1213.5</ele>
        <time>2020-08-27T14:41:04Z</time>
      </trkpt>
      <trkpt lat="46.7609" lon="6.36021">
        <ele>1213.4</ele>
        <time>2020-08-27T14:41:05Z</time>
      </trkpt>
      <trkpt lat="46.76088" lon="6.36026">
        <ele>1213.2</ele>
        <time>2020-08-27T14:41:06Z</time>
      </trkpt>
      <trkpt lat="46.76087" lon="6.36032">
        <ele>1213</ele>
        <time>2020-08-27T14:41:07Z</time>
      </trkpt>
      <trkpt lat="46.76087" lon="6.36038">
        <ele>1212.8</ele>
        <time>2020-08-27T14:41:08Z</time>
      </trkpt>
      <trkpt lat="46.76089" lon="6.36046">
        <ele>1212.3</ele>
        <time>2020-08-27T14:41:09Z</time>
      </trkpt>
      <trkpt lat="46.7609" lon="6.36055">
        <ele>1211.9</ele>
        <time>2020-08-27T14:41:10Z</time>
      </trkpt>
      <trkpt lat="46.76092" lon="6.36063">
        <ele>1211.4</ele>
        <time>2020-08-27T14:41:11Z</time>
      </trkpt>
      <trkpt lat="46.76093" lon="6.36071">
        <ele>1210.9</ele>
        <time>2020-08-27T14:41:12Z</time>
      </trkpt>
      <trkpt lat="46.76095" lon="6.36078">
        <ele>1210.5</ele>
        <time>2020-08-27T14:41:13Z</time>
      </trkpt>
      <trkpt lat="46.76096" lon="6.36084">
        <ele>1209.9</ele>
        <time>2020-08-27T14:41:14Z</time>
      </trkpt>
      <trkpt lat="46.76097" lon="6.3609">
        <ele>1209.5</ele>
        <time>2020-08-27T14:41:15Z</time>
      </trkpt>
      <trkpt lat="46.76097" lon="6.36095">
        <ele>1208.9</ele>
        <time>2020-08-27T14:41:16Z</time>
      </trkpt>
      <trkpt lat="46.76097" lon="6.36099">
        <ele>1208.3</ele>
        <time>2020-08-27T14:41:17Z</time>
      </trkpt>
      <trkpt lat="46.76097" lon="6.36101">
        <ele>1207.8</ele>
        <time>2020-08-27T14:41:18Z</time>
      </trkpt>
      <trkpt lat="46.76097" lon="6.36102">
        <ele>1207.3</ele>
        <time>2020-08-27T14:41:19Z</time>
      </trkpt>
      <trkpt lat="46.76097" lon="6.36102">
        <ele>1206.9</ele>
        <time>2020-08-27T14:41:20Z</time>
      </trkpt>
      <trkpt lat="46.76097" lon="6.36102">
        <ele>1206.5</ele>
        <time>2020-08-27T14:41:21Z</time>
      </trkpt>
      <trkpt lat="46.76097" lon="6.36102">
        <ele>1206.1</ele>
        <time>2020-08-27T14:41:22Z</time>
      </trkpt>
      <trkpt lat="46.76098" lon="6.36103">
        <ele>1205.7</ele>
        <time>2020-08-27T14:41:23Z</time>
      </trkpt>
      <trkpt lat="46.76098" lon="6.36103">
        <ele>1205.2</ele>
        <time>2020-08-27T14:41:24Z</time>
      </trkpt>
      <trkpt lat="46.76098" lon="6.36103">
        <ele>1204.8</ele>
        <time>2020-08-27T14:41:25Z</time>
      </trkpt>
      <trkpt lat="46.76098" lon="6.36103">
        <ele>1204.4</ele>
        <time>2020-08-27T14:41:26Z</time>
      </trkpt>
      <trkpt lat="46.76099" lon="6.36103">
        <ele>1204</ele>
        <time>2020-08-27T14:41:27Z</time>
      </trkpt>
      <trkpt lat="46.76099" lon="6.36103">
        <ele>1203.6</ele>
        <time>2020-08-27T14:41:28Z</time>
      </trkpt>
      <trkpt lat="46.76099" lon="6.36104">
        <ele>1203.2</ele>
        <time>2020-08-27T14:41:29Z</time>
      </trkpt>
      <trkpt lat="46.761" lon="6.36104">
        <ele>1202.9</ele>
        <time>2020-08-27T14:41:30Z</time>
      </trkpt>
      <trkpt lat="46.761" lon="6.36104">
        <ele>1202.6</ele>
        <time>2020-08-27T14:41:31Z</time>
      </trkpt>
      <trkpt lat="46.761" lon="6.36104">
        <ele>1202.3</ele>
        <time>2020-08-27T14:41:32Z</time>
      </trkpt>
      <trkpt lat="46.76101" lon="6.36104">
        <ele>1202.2</ele>
        <time>2020-08-27T14:41:33Z</time>
      </trkpt>
      <trkpt lat="46.76101" lon="6.36104">
        <ele>1202</ele>
        <time>2020-08-27T14:41:34Z</time>
      </trkpt>
      <trkpt lat="46.76102" lon="6.36104">
        <ele>1201.9</ele>
        <time>2020-08-27T14:41:35Z</time>
      </trkpt>
      <trkpt lat="46.76102" lon="6.36104">
        <ele>1201.7</ele>
        <time>2020-08-27T14:41:36Z</time>
      </trkpt>
      <trkpt lat="46.76102" lon="6.36104">
        <ele>1201.6</ele>
        <time>2020-08-27T14:41:37Z</time>
      </trkpt>
      <trkpt lat="46.76103" lon="6.36104">
        <ele>1201.5</ele>
        <time>2020-08-27T14:41:38Z</time>
      </trkpt>
      <trkpt lat="46.76103" lon="6.36104">
        <ele>1201.4</ele>
        <time>2020-08-27T14:41:39Z</time>
      </trkpt>
      <trkpt lat="46.76103" lon="6.36104">
        <ele>1201.2</ele>
        <time>2020-08-27T14:41:40Z</time>
      </trkpt>
      <trkpt lat="46.76103" lon="6.36104">
        <ele>1201.1</ele>
        <time>2020-08-27T14:41:41Z</time>
      </trkpt>
      <trkpt lat="46.76103" lon="6.36104">
        <ele>1201</ele>
        <time>2020-08-27T14:41:42Z</time>
      </trkpt>
      <trkpt lat="46.76104" lon="6.36104">
        <ele>1200.9</ele>
        <time>2020-08-27T14:41:43Z</time>
      </trkpt>
      <trkpt lat="46.76104" lon="6.36104">
        <ele>1200.7</ele>
        <time>2020-08-27T14:41:44Z</time>
      </trkpt>
      <trkpt lat="46.76103" lon="6.36104">
        <ele>1200.6</ele>
        <time>2020-08-27T14:41:45Z</time>
      </trkpt>
      <trkpt lat="46.76103" lon="6.36104">
        <ele>1200.5</ele>
        <time>2020-08-27T14:41:46Z</time>
      </trkpt>
      <trkpt lat="46.76103" lon="6.36104">
        <ele>1200.3</ele>
        <time>2020-08-27T14:41:47Z</time>
      </trkpt>
      <trkpt lat="46.76104" lon="6.36104">
        <ele>1200.2</ele>
        <time>2020-08-27T14:41:48Z</time>
      </trkpt>
      <trkpt lat="46.76104" lon="6.36105">
        <ele>1200.1</ele>
        <time>2020-08-27T14:41:49Z</time>
      </trkpt>
      <trkpt lat="46.76104" lon="6.36107">
        <ele>1200</ele>
        <time>2020-08-27T14:41:50Z</time>
      </trkpt>
      <trkpt lat="46.76104" lon="6.3611">
        <ele>1199.9</ele>
        <time>2020-08-27T14:41:51Z</time>
      </trkpt>
      <trkpt lat="46.76105" lon="6.36113">
        <ele>1199.8</ele>
        <time>2020-08-27T14:41:52Z</time>
      </trkpt>
      <trkpt lat="46.76106" lon="6.36116">
        <ele>1199.7</ele>
        <time>2020-08-27T14:41:53Z</time>
      </trkpt>
      <trkpt lat="46.76107" lon="6.3612">
        <ele>1199.6</ele>
        <time>2020-08-27T14:41:54Z</time>
      </trkpt>
      <trkpt lat="46.76108" lon="6.36124">
        <ele>1199.5</ele>
        <time>2020-08-27T14:41:55Z</time>
      </trkpt>
      <trkpt lat="46.76108" lon="6.36128">
        <ele>1199.4</ele>
        <time>2020-08-27T14:41:56Z</time>
      </trkpt>
      <trkpt lat="46.76109" lon="6.36133">
        <ele>1199.3</ele>
        <time>2020-08-27T14:41:57Z</time>
      </trkpt>
      <trkpt lat="46.7611" lon="6.36137">
        <ele>1199.1</ele>
        <time>2020-08-27T14:41:58Z</time>
      </trkpt>
      <trkpt lat="46.7611" lon="6.36141">
        <ele>1199</ele>
        <time>2020-08-27T14:41:59Z</time>
      </trkpt>
      <trkpt lat="46.7611" lon="6.36146">
        <ele>1198.9</ele>
        <time>2020-08-27T14:42:00Z</time>
      </trkpt>
      <trkpt lat="46.7611" lon="6.36151">
        <ele>1198.6</ele>
        <time>2020-08-27T14:42:01Z</time>
      </trkpt>
      <trkpt lat="46.7611" lon="6.36157">
        <ele>1198.3</ele>
        <time>2020-08-27T14:42:02Z</time>
      </trkpt>
      <trkpt lat="46.7611" lon="6.36162">
        <ele>1198.1</ele>
        <time>2020-08-27T14:42:03Z</time>
      </trkpt>
      <trkpt lat="46.7611" lon="6.36166">
        <ele>1197.9</ele>
        <time>2020-08-27T14:42:04Z</time>
      </trkpt>
      <trkpt lat="46.76109" lon="6.3617">
        <ele>1197.7</ele>
        <time>2020-08-27T14:42:05Z</time>
      </trkpt>
      <trkpt lat="46.76108" lon="6.36172">
        <ele>1197.6</ele>
        <time>2020-08-27T14:42:06Z</time>
      </trkpt>
      <trkpt lat="46.76107" lon="6.36175">
        <ele>1197.4</ele>
        <time>2020-08-27T14:42:07Z</time>
      </trkpt>
      <trkpt lat="46.76106" lon="6.36178">
        <ele>1197.3</ele>
        <time>2020-08-27T14:42:08Z</time>
      </trkpt>
      <trkpt lat="46.76105" lon="6.36182">
        <ele>1197.1</ele>
        <time>2020-08-27T14:42:09Z</time>
      </trkpt>
      <trkpt lat="46.76104" lon="6.36186">
        <ele>1197</ele>
        <time>2020-08-27T14:42:10Z</time>
      </trkpt>
      <trkpt lat="46.76103" lon="6.36189">
        <ele>1196.9</ele>
        <time>2020-08-27T14:42:11Z</time>
      </trkpt>
      <trkpt lat="46.76102" lon="6.36193">
        <ele>1196.8</ele>
        <time>2020-08-27T14:42:12Z</time>
      </trkpt>
      <trkpt lat="46.76102" lon="6.36196">
        <ele>1196.7</ele>
        <time>2020-08-27T14:42:13Z</time>
      </trkpt>
      <trkpt lat="46.76101" lon="6.36199">
        <ele>1196.6</ele>
        <time>2020-08-27T14:42:14Z</time>
      </trkpt>
      <trkpt lat="46.76101" lon="6.36201">
        <ele>1196.5</ele>
        <time>2020-08-27T14:42:15Z</time>
      </trkpt>
      <trkpt lat="46.761" lon="6.36204">
        <ele>1196.3</ele>
        <time>2020-08-27T14:42:16Z</time>
      </trkpt>
      <trkpt lat="46.76099" lon="6.36207">
        <ele>1196.1</ele>
        <time>2020-08-27T14:42:17Z</time>
      </trkpt>
      <trkpt lat="46.76099" lon="6.3621">
        <ele>1195.9</ele>
        <time>2020-08-27T14:42:18Z</time>
      </trkpt>
      <trkpt lat="46.761" lon="6.36213">
        <ele>1195.8</ele>
        <time>2020-08-27T14:42:19Z</time>
      </trkpt>
      <trkpt lat="46.76099" lon="6.36215">
        <ele>1195.6</ele>
        <time>2020-08-27T14:42:20Z</time>
      </trkpt>
      <trkpt lat="46.76099" lon="6.36217">
        <ele>1195.5</ele>
        <time>2020-08-27T14:42:21Z</time>
      </trkpt>
      <trkpt lat="46.76098" lon="6.3622">
        <ele>1195.3</ele>
        <time>2020-08-27T14:42:22Z</time>
      </trkpt>
      <trkpt lat="46.76098" lon="6.36222">
        <ele>1195.2</ele>
        <time>2020-08-27T14:42:23Z</time>
      </trkpt>
      <trkpt lat="46.76099" lon="6.36224">
        <ele>1195.1</ele>
        <time>2020-08-27T14:42:24Z</time>
      </trkpt>
      <trkpt lat="46.76099" lon="6.36227">
        <ele>1195</ele>
        <time>2020-08-27T14:42:25Z</time>
      </trkpt>
      <trkpt lat="46.76098" lon="6.3623">
        <ele>1194.9</ele>
        <time>2020-08-27T14:42:26Z</time>
      </trkpt>
      <trkpt lat="46.76099" lon="6.36232">
        <ele>1194.8</ele>
        <time>2020-08-27T14:42:27Z</time>
      </trkpt>
      <trkpt lat="46.76099" lon="6.36236">
        <ele>1194.7</ele>
        <time>2020-08-27T14:42:28Z</time>
      </trkpt>
      <trkpt lat="46.76099" lon="6.36239">
        <ele>1194.6</ele>
        <time>2020-08-27T14:42:29Z</time>
      </trkpt>
      <trkpt lat="46.761" lon="6.36243">
        <ele>1194.5</ele>
        <time>2020-08-27T14:42:30Z</time>
      </trkpt>
      <trkpt lat="46.761" lon="6.36246">
        <ele>1194.4</ele>
        <time>2020-08-27T14:42:31Z</time>
      </trkpt>
      <trkpt lat="46.761" lon="6.3625">
        <ele>1194.3</ele>
        <time>2020-08-27T14:42:32Z</time>
      </trkpt>
      <trkpt lat="46.76099" lon="6.36253">
        <ele>1194.3</ele>
        <time>2020-08-27T14:42:33Z</time>
      </trkpt>
      <trkpt lat="46.76099" lon="6.36256">
        <ele>1194.2</ele>
        <time>2020-08-27T14:42:34Z</time>
      </trkpt>
      <trkpt lat="46.76099" lon="6.36259">
        <ele>1194.1</ele>
        <time>2020-08-27T14:42:35Z</time>
      </trkpt>
      <trkpt lat="46.76099" lon="6.36262">
        <ele>1194.1</ele>
        <time>2020-08-27T14:42:36Z</time>
      </trkpt>
      <trkpt lat="46.761" lon="6.36264">
        <ele>1194</ele>
        <time>2020-08-27T14:42:37Z</time>
      </trkpt>
      <trkpt lat="46.76099" lon="6.36265">
        <ele>1194</ele>
        <time>2020-08-27T14:42:38Z</time>
      </trkpt>
      <trkpt lat="46.76098" lon="6.36267">
        <ele>1193.9</ele>
        <time>2020-08-27T14:42:39Z</time>
      </trkpt>
      <trkpt lat="46.76097" lon="6.36268">
        <ele>1193.9</ele>
        <time>2020-08-27T14:42:40Z</time>
      </trkpt>
      <trkpt lat="46.76097" lon="6.36269">
        <ele>1193.8</ele>
        <time>2020-08-27T14:42:41Z</time>
      </trkpt>
      <trkpt lat="46.76097" lon="6.3627">
        <ele>1193.6</ele>
        <time>2020-08-27T14:42:42Z</time>
      </trkpt>
      <trkpt lat="46.76096" lon="6.36272">
        <ele>1193.5</ele>
        <time>2020-08-27T14:42:43Z</time>
      </trkpt>
      <trkpt lat="46.76096" lon="6.36273">
        <ele>1193.4</ele>
        <time>2020-08-27T14:42:44Z</time>
      </trkpt>
      <trkpt lat="46.76096" lon="6.36274">
        <ele>1193.2</ele>
        <time>2020-08-27T14:42:45Z</time>
      </trkpt>
      <trkpt lat="46.76096" lon="6.36277">
        <ele>1193.1</ele>
        <time>2020-08-27T14:42:46Z</time>
      </trkpt>
      <trkpt lat="46.76095" lon="6.36279">
        <ele>1193</ele>
        <time>2020-08-27T14:42:47Z</time>
      </trkpt>
      <trkpt lat="46.76094" lon="6.36281">
        <ele>1192.9</ele>
        <time>2020-08-27T14:42:48Z</time>
      </trkpt>
      <trkpt lat="46.76093" lon="6.36282">
        <ele>1192.7</ele>
        <time>2020-08-27T14:42:49Z</time>
      </trkpt>
      <trkpt lat="46.76092" lon="6.36281">
        <ele>1192.6</ele>
        <time>2020-08-27T14:42:50Z</time>
      </trkpt>
      <trkpt lat="46.76092" lon="6.36279">
        <ele>1192.5</ele>
        <time>2020-08-27T14:42:51Z</time>
      </trkpt>
      <trkpt lat="46.76091" lon="6.36277">
        <ele>1192.3</ele>
        <time>2020-08-27T14:42:52Z</time>
      </trkpt>
      <trkpt lat="46.76091" lon="6.36274">
        <ele>1192.2</ele>
        <time>2020-08-27T14:42:53Z</time>
      </trkpt>
      <trkpt lat="46.76091" lon="6.36271">
        <ele>1192.1</ele>
        <time>2020-08-27T14:42:54Z</time>
      </trkpt>
      <trkpt lat="46.76091" lon="6.36269">
        <ele>1191.9</ele>
        <time>2020-08-27T14:42:55Z</time>
      </trkpt>
      <trkpt lat="46.76091" lon="6.36268">
        <ele>1191.8</ele>
        <time>2020-08-27T14:42:56Z</time>
      </trkpt>
      <trkpt lat="46.76091" lon="6.36266">
        <ele>1191.6</ele>
        <time>2020-08-27T14:42:57Z</time>
      </trkpt>
      <trkpt lat="46.76092" lon="6.36264">
        <ele>1191.5</ele>
        <time>2020-08-27T14:42:58Z</time>
      </trkpt>
      <trkpt lat="46.76091" lon="6.36263">
        <ele>1191.4</ele>
        <time>2020-08-27T14:42:59Z</time>
      </trkpt>
      <trkpt lat="46.76091" lon="6.36261">
        <ele>1191.2</ele>
        <time>2020-08-27T14:43:00Z</time>
      </trkpt>
      <trkpt lat="46.7609" lon="6.36261">
        <ele>1191.1</ele>
        <time>2020-08-27T14:43:01Z</time>
      </trkpt>
      <trkpt lat="46.76089" lon="6.36262">
        <ele>1191</ele>
        <time>2020-08-27T14:43:02Z</time>
      </trkpt>
      <trkpt lat="46.76088" lon="6.36264">
        <ele>1190.8</ele>
        <time>2020-08-27T14:43:03Z</time>
      </trkpt>
      <trkpt lat="46.76088" lon="6.36266">
        <ele>1190.7</ele>
        <time>2020-08-27T14:43:04Z</time>
      </trkpt>
      <trkpt lat="46.76087" lon="6.36268">
        <ele>1190.5</ele>
        <time>2020-08-27T14:43:05Z</time>
      </trkpt>
      <trkpt lat="46.76087" lon="6.3627">
        <ele>1190.4</ele>
        <time>2020-08-27T14:43:06Z</time>
      </trkpt>
      <trkpt lat="46.76087" lon="6.36271">
        <ele>1190.2</ele>
        <time>2020-08-27T14:43:07Z</time>
      </trkpt>
      <trkpt lat="46.76087" lon="6.36271">
        <ele>1190</ele>
        <time>2020-08-27T14:43:08Z</time>
      </trkpt>
      <trkpt lat="46.76087" lon="6.36272">
        <ele>1189.7</ele>
        <time>2020-08-27T14:43:09Z</time>
      </trkpt>
      <trkpt lat="46.76087" lon="6.36272">
        <ele>1189.5</ele>
        <time>2020-08-27T14:43:10Z</time>
      </trkpt>
      <trkpt lat="46.76086" lon="6.36272">
        <ele>1189.4</ele>
        <time>2020-08-27T14:43:11Z</time>
      </trkpt>
      <trkpt lat="46.76086" lon="6.36273">
        <ele>1189.2</ele>
        <time>2020-08-27T14:43:12Z</time>
      </trkpt>
      <trkpt lat="46.76086" lon="6.36274">
        <ele>1189</ele>
        <time>2020-08-27T14:43:13Z</time>
      </trkpt>
      <trkpt lat="46.76086" lon="6.36276">
        <ele>1188.9</ele>
        <time>2020-08-27T14:43:14Z</time>
      </trkpt>
      <trkpt lat="46.76086" lon="6.36277">
        <ele>1188.7</ele>
        <time>2020-08-27T14:43:15Z</time>
      </trkpt>
      <trkpt lat="46.76086" lon="6.36277">
        <ele>1188.6</ele>
        <time>2020-08-27T14:43:16Z</time>
      </trkpt>
      <trkpt lat="46.76086" lon="6.36278">
        <ele>1188.5</ele>
        <time>2020-08-27T14:43:17Z</time>
      </trkpt>
      <trkpt lat="46.76086" lon="6.36278">
        <ele>1188.4</ele>
        <time>2020-08-27T14:43:18Z</time>
      </trkpt>
      <trkpt lat="46.76086" lon="6.36279">
        <ele>1188.3</ele>
        <time>2020-08-27T14:43:19Z</time>
      </trkpt>
      <trkpt lat="46.76086" lon="6.36279">
        <ele>1188.3</ele>
        <time>2020-08-27T14:43:20Z</time>
      </trkpt>
      <trkpt lat="46.76085" lon="6.36279">
        <ele>1188.2</ele>
        <time>2020-08-27T14:43:21Z</time>
      </trkpt>
      <trkpt lat="46.76085" lon="6.36279">
        <ele>1188.1</ele>
        <time>2020-08-27T14:43:22Z</time>
      </trkpt>
      <trkpt lat="46.76084" lon="6.36279">
        <ele>1188.1</ele>
        <time>2020-08-27T14:43:23Z</time>
      </trkpt>
      <trkpt lat="46.76084" lon="6.36279">
        <ele>1188</ele>
        <time>2020-08-27T14:43:24Z</time>
      </trkpt>
      <trkpt lat="46.76083" lon="6.36279">
        <ele>1187.9</ele>
        <time>2020-08-27T14:43:25Z</time>
      </trkpt>
      <trkpt lat="46.76083" lon="6.36279">
        <ele>1187.8</ele>
        <time>2020-08-27T14:43:26Z</time>
      </trkpt>
      <trkpt lat="46.76083" lon="6.36279">
        <ele>1187.8</ele>
        <time>2020-08-27T14:43:27Z</time>
      </trkpt>
      <trkpt lat="46.76082" lon="6.36279">
        <ele>1187.8</ele>
        <time>2020-08-27T14:43:28Z</time>
      </trkpt>
      <trkpt lat="46.76082" lon="6.3628">
        <ele>1187.7</ele>
        <time>2020-08-27T14:43:29Z</time>
      </trkpt>
      <trkpt lat="46.76082" lon="6.3628">
        <ele>1187.7</ele>
        <time>2020-08-27T14:43:30Z</time>
      </trkpt>
      <trkpt lat="46.76082" lon="6.3628">
        <ele>1187.7</ele>
        <time>2020-08-27T14:43:31Z</time>
      </trkpt>
      <trkpt lat="46.76082" lon="6.36281">
        <ele>1187.6</ele>
        <time>2020-08-27T14:43:32Z</time>
      </trkpt>
      <trkpt lat="46.76082" lon="6.36281">
        <ele>1187.6</ele>
        <time>2020-08-27T14:43:33Z</time>
      </trkpt>
      <trkpt lat="46.76082" lon="6.36281">
        <ele>1187.6</ele>
        <time>2020-08-27T14:43:34Z</time>
      </trkpt>
      <trkpt lat="46.76082" lon="6.36281">
        <ele>1187.5</ele>
        <time>2020-08-27T14:43:35Z</time>
      </trkpt>
      <trkpt lat="46.76082" lon="6.36281">
        <ele>1187.5</ele>
        <time>2020-08-27T14:43:36Z</time>
      </trkpt>
      <trkpt lat="46.76082" lon="6.36281">
        <ele>1187.5</ele>
        <time>2020-08-27T14:43:37Z</time>
      </trkpt>
      <trkpt lat="46.76082" lon="6.36281">
        <ele>1187.5</ele>
        <time>2020-08-27T14:43:38Z</time>
      </trkpt>
      <trkpt lat="46.76082" lon="6.36281">
        <ele>1187.4</ele>
        <time>2020-08-27T14:43:39Z</time>
      </trkpt>
      <trkpt lat="46.76082" lon="6.36281">
        <ele>1187.4</ele>
        <time>2020-08-27T14:43:40Z</time>
      </trkpt>
      <trkpt lat="46.76082" lon="6.36281">
        <ele>1187.4</ele>
        <time>2020-08-27T14:43:41Z</time>
      </trkpt>
      <trkpt lat="46.76082" lon="6.36281">
        <ele>1187.4</ele>
        <time>2020-08-27T14:43:42Z</time>
      </trkpt>
      <trkpt lat="46.76081" lon="6.36281">
        <ele>1187.4</ele>
        <time>2020-08-27T14:43:43Z</time>
      </trkpt>
      <trkpt lat="46.76081" lon="6.36281">
        <ele>1187.3</ele>
        <time>2020-08-27T14:43:44Z</time>
      </trkpt>
      <trkpt lat="46.76081" lon="6.36281">
        <ele>1187.3</ele>
        <time>2020-08-27T14:43:45Z</time>
      </trkpt>
      <trkpt lat="46.76081" lon="6.36281">
        <ele>1187.3</ele>
        <time>2020-08-27T14:43:46Z</time>
      </trkpt>
      <trkpt lat="46.76081" lon="6.36281">
        <ele>1187.3</ele>
        <time>2020-08-27T14:43:47Z</time>
      </trkpt>
      <trkpt lat="46.76081" lon="6.36281">
        <ele>1187.2</ele>
        <time>2020-08-27T14:43:48Z</time>
      </trkpt>
      <trkpt lat="46.76081" lon="6.36281">
        <ele>1187.2</ele>
        <time>2020-08-27T14:43:49Z</time>
      </trkpt>
      <trkpt lat="46.76081" lon="6.36281">
        <ele>1187.2</ele>
        <time>2020-08-27T14:43:50Z</time>
      </trkpt>
      <trkpt lat="46.7608" lon="6.36281">
        <ele>1187.2</ele>
        <time>2020-08-27T14:43:51Z</time>
      </trkpt>
      <trkpt lat="46.76081" lon="6.36281">
        <ele>1187.2</ele>
        <time>2020-08-27T14:43:52Z</time>
      </trkpt>
      <trkpt lat="46.7608" lon="6.36281">
        <ele>1187.2</ele>
        <time>2020-08-27T14:43:53Z</time>
      </trkpt>
      <trkpt lat="46.7608" lon="6.36282">
        <ele>1187.2</ele>
        <time>2020-08-27T14:43:54Z</time>
      </trkpt>
      <trkpt lat="46.76079" lon="6.36282">
        <ele>1187.2</ele>
        <time>2020-08-27T14:43:55Z</time>
      </trkpt>
      <trkpt lat="46.76079" lon="6.36282">
        <ele>1187.2</ele>
        <time>2020-08-27T14:43:56Z</time>
      </trkpt>
      <trkpt lat="46.76079" lon="6.36281">
        <ele>1187.2</ele>
        <time>2020-08-27T14:43:57Z</time>
      </trkpt>
      <trkpt lat="46.76079" lon="6.3628">
        <ele>1187.2</ele>
        <time>2020-08-27T14:43:58Z</time>
      </trkpt>
      <trkpt lat="46.76079" lon="6.3628">
        <ele>1187.2</ele>
        <time>2020-08-27T14:43:59Z</time>
      </trkpt>
      <trkpt lat="46.76079" lon="6.3628">
        <ele>1187.2</ele>
        <time>2020-08-27T14:44:00Z</time>
      </trkpt>
      <trkpt lat="46.7608" lon="6.3628">
        <ele>1187.2</ele>
        <time>2020-08-27T14:44:01Z</time>
      </trkpt>
      <trkpt lat="46.76079" lon="6.36281">
        <ele>1187.2</ele>
        <time>2020-08-27T14:44:02Z</time>
      </trkpt>
      <trkpt lat="46.76079" lon="6.36281">
        <ele>1187.2</ele>
        <time>2020-08-27T14:44:03Z</time>
      </trkpt>
      <trkpt lat="46.76079" lon="6.36282">
        <ele>1187.3</ele>
        <time>2020-08-27T14:44:04Z</time>
      </trkpt>
      <trkpt lat="46.76079" lon="6.36282">
        <ele>1187.3</ele>
        <time>2020-08-27T14:44:05Z</time>
      </trkpt>
      <trkpt lat="46.76079" lon="6.36283">
        <ele>1187.3</ele>
        <time>2020-08-27T14:44:06Z</time>
      </trkpt>
      <trkpt lat="46.76078" lon="6.36285">
        <ele>1187.3</ele>
        <time>2020-08-27T14:44:07Z</time>
      </trkpt>
      <trkpt lat="46.76078" lon="6.36287">
        <ele>1187.4</ele>
        <time>2020-08-27T14:44:08Z</time>
      </trkpt>
      <trkpt lat="46.76078" lon="6.36291">
        <ele>1187.4</ele>
        <time>2020-08-27T14:44:09Z</time>
      </trkpt>
      <trkpt lat="46.76078" lon="6.36294">
        <ele>1187.4</ele>
        <time>2020-08-27T14:44:10Z</time>
      </trkpt>
      <trkpt lat="46.76078" lon="6.36297">
        <ele>1187.4</ele>
        <time>2020-08-27T14:44:11Z</time>
      </trkpt>
      <trkpt lat="46.76078" lon="6.36302">
        <ele>1187.2</ele>
        <time>2020-08-27T14:44:12Z</time>
      </trkpt>
      <trkpt lat="46.76078" lon="6.36307">
        <ele>1187.1</ele>
        <time>2020-08-27T14:44:13Z</time>
      </trkpt>
      <trkpt lat="46.76077" lon="6.36312">
        <ele>1186.9</ele>
        <time>2020-08-27T14:44:14Z</time>
      </trkpt>
      <trkpt lat="46.76077" lon="6.36317">
        <ele>1186.8</ele>
        <time>2020-08-27T14:44:15Z</time>
      </trkpt>
      <trkpt lat="46.76076" lon="6.36322">
        <ele>1186.7</ele>
        <time>2020-08-27T14:44:16Z</time>
      </trkpt>
      <trkpt lat="46.76077" lon="6.36327">
        <ele>1186.5</ele>
        <time>2020-08-27T14:44:17Z</time>
      </trkpt>
      <trkpt lat="46.76078" lon="6.36332">
        <ele>1186.4</ele>
        <time>2020-08-27T14:44:18Z</time>
      </trkpt>
      <trkpt lat="46.76078" lon="6.36337">
        <ele>1186.3</ele>
        <time>2020-08-27T14:44:19Z</time>
      </trkpt>
      <trkpt lat="46.76078" lon="6.36342">
        <ele>1186.2</ele>
        <time>2020-08-27T14:44:20Z</time>
      </trkpt>
      <trkpt lat="46.76078" lon="6.36347">
        <ele>1186</ele>
        <time>2020-08-27T14:44:21Z</time>
      </trkpt>
      <trkpt lat="46.76077" lon="6.36353">
        <ele>1185.9</ele>
        <time>2020-08-27T14:44:22Z</time>
      </trkpt>
      <trkpt lat="46.76077" lon="6.36358">
        <ele>1185.8</ele>
        <time>2020-08-27T14:44:23Z</time>
      </trkpt>
      <trkpt lat="46.76077" lon="6.36363">
        <ele>1185.5</ele>
        <time>2020-08-27T14:44:24Z</time>
      </trkpt>
      <trkpt lat="46.76077" lon="6.36367">
        <ele>1185.2</ele>
        <time>2020-08-27T14:44:25Z</time>
      </trkpt>
      <trkpt lat="46.76078" lon="6.3637">
        <ele>1185</ele>
        <time>2020-08-27T14:44:26Z</time>
      </trkpt>
      <trkpt lat="46.76079" lon="6.36374">
        <ele>1184.7</ele>
        <time>2020-08-27T14:44:27Z</time>
      </trkpt>
      <trkpt lat="46.76078" lon="6.36379">
        <ele>1184.5</ele>
        <time>2020-08-27T14:44:28Z</time>
      </trkpt>
      <trkpt lat="46.76078" lon="6.36383">
        <ele>1184.3</ele>
        <time>2020-08-27T14:44:29Z</time>
      </trkpt>
      <trkpt lat="46.76078" lon="6.36388">
        <ele>1184.1</ele>
        <time>2020-08-27T14:44:30Z</time>
      </trkpt>
      <trkpt lat="46.76078" lon="6.36392">
        <ele>1183.9</ele>
        <time>2020-08-27T14:44:31Z</time>
      </trkpt>
      <trkpt lat="46.76078" lon="6.36395">
        <ele>1183.7</ele>
        <time>2020-08-27T14:44:32Z</time>
      </trkpt>
      <trkpt lat="46.76078" lon="6.36397">
        <ele>1183.6</ele>
        <time>2020-08-27T14:44:33Z</time>
      </trkpt>
      <trkpt lat="46.76078" lon="6.36399">
        <ele>1183.5</ele>
        <time>2020-08-27T14:44:34Z</time>
      </trkpt>
      <trkpt lat="46.76078" lon="6.364">
        <ele>1183.5</ele>
        <time>2020-08-27T14:44:35Z</time>
      </trkpt>
      <trkpt lat="46.76078" lon="6.36402">
        <ele>1183.4</ele>
        <time>2020-08-27T14:44:36Z</time>
      </trkpt>
      <trkpt lat="46.76077" lon="6.36404">
        <ele>1183.3</ele>
        <time>2020-08-27T14:44:37Z</time>
      </trkpt>
      <trkpt lat="46.76077" lon="6.36404">
        <ele>1183.2</ele>
        <time>2020-08-27T14:44:38Z</time>
      </trkpt>
      <trkpt lat="46.76075" lon="6.36403">
        <ele>1183.2</ele>
        <time>2020-08-27T14:44:39Z</time>
      </trkpt>
      <trkpt lat="46.76074" lon="6.36402">
        <ele>1183.1</ele>
        <time>2020-08-27T14:44:40Z</time>
      </trkpt>
      <trkpt lat="46.76073" lon="6.36399">
        <ele>1183.1</ele>
        <time>2020-08-27T14:44:41Z</time>
      </trkpt>
      <trkpt lat="46.76071" lon="6.36395">
        <ele>1183</ele>
        <time>2020-08-27T14:44:42Z</time>
      </trkpt>
      <trkpt lat="46.7607" lon="6.36391">
        <ele>1182.9</ele>
        <time>2020-08-27T14:44:43Z</time>
      </trkpt>
      <trkpt lat="46.76069" lon="6.36389">
        <ele>1182.7</ele>
        <time>2020-08-27T14:44:44Z</time>
      </trkpt>
      <trkpt lat="46.76068" lon="6.36386">
        <ele>1182.5</ele>
        <time>2020-08-27T14:44:45Z</time>
      </trkpt>
      <trkpt lat="46.76067" lon="6.36384">
        <ele>1182.4</ele>
        <time>2020-08-27T14:44:46Z</time>
      </trkpt>
      <trkpt lat="46.76066" lon="6.36381">
        <ele>1182.2</ele>
        <time>2020-08-27T14:44:47Z</time>
      </trkpt>
      <trkpt lat="46.76065" lon="6.36379">
        <ele>1182</ele>
        <time>2020-08-27T14:44:48Z</time>
      </trkpt>
      <trkpt lat="46.76065" lon="6.36376">
        <ele>1181.9</ele>
        <time>2020-08-27T14:44:49Z</time>
      </trkpt>
      <trkpt lat="46.76064" lon="6.36375">
        <ele>1181.6</ele>
        <time>2020-08-27T14:44:50Z</time>
      </trkpt>
      <trkpt lat="46.76064" lon="6.36374">
        <ele>1181.4</ele>
        <time>2020-08-27T14:44:51Z</time>
      </trkpt>
      <trkpt lat="46.76063" lon="6.36373">
        <ele>1181.2</ele>
        <time>2020-08-27T14:44:52Z</time>
      </trkpt>
      <trkpt lat="46.76062" lon="6.36373">
        <ele>1181</ele>
        <time>2020-08-27T14:44:53Z</time>
      </trkpt>
      <trkpt lat="46.76061" lon="6.36372">
        <ele>1180.8</ele>
        <time>2020-08-27T14:44:54Z</time>
      </trkpt>
      <trkpt lat="46.7606" lon="6.36373">
        <ele>1180.5</ele>
        <time>2020-08-27T14:44:55Z</time>
      </trkpt>
      <trkpt lat="46.7606" lon="6.36374">
        <ele>1180.1</ele>
        <time>2020-08-27T14:44:56Z</time>
      </trkpt>
      <trkpt lat="46.76059" lon="6.36377">
        <ele>1179.9</ele>
        <time>2020-08-27T14:44:57Z</time>
      </trkpt>
      <trkpt lat="46.76059" lon="6.36381">
        <ele>1179.6</ele>
        <time>2020-08-27T14:44:58Z</time>
      </trkpt>
      <trkpt lat="46.76058" lon="6.36386">
        <ele>1179.3</ele>
        <time>2020-08-27T14:44:59Z</time>
      </trkpt>
      <trkpt lat="46.76057" lon="6.36392">
        <ele>1179.1</ele>
        <time>2020-08-27T14:45:00Z</time>
      </trkpt>
      <trkpt lat="46.76055" lon="6.36398">
        <ele>1178.9</ele>
        <time>2020-08-27T14:45:01Z</time>
      </trkpt>
      <trkpt lat="46.76054" lon="6.36403">
        <ele>1178.6</ele>
        <time>2020-08-27T14:45:02Z</time>
      </trkpt>
      <trkpt lat="46.76054" lon="6.36408">
        <ele>1178.4</ele>
        <time>2020-08-27T14:45:03Z</time>
      </trkpt>
      <trkpt lat="46.76054" lon="6.36413">
        <ele>1178.1</ele>
        <time>2020-08-27T14:45:04Z</time>
      </trkpt>
      <trkpt lat="46.76056" lon="6.36417">
        <ele>1177.8</ele>
        <time>2020-08-27T14:45:05Z</time>
      </trkpt>
      <trkpt lat="46.76056" lon="6.36421">
        <ele>1177.6</ele>
        <time>2020-08-27T14:45:06Z</time>
      </trkpt>
      <trkpt lat="46.76057" lon="6.36425">
        <ele>1177.2</ele>
        <time>2020-08-27T14:45:07Z</time>
      </trkpt>
      <trkpt lat="46.76057" lon="6.36429">
        <ele>1176.9</ele>
        <time>2020-08-27T14:45:08Z</time>
      </trkpt>
      <trkpt lat="46.76059" lon="6.36435">
        <ele>1176.6</ele>
        <time>2020-08-27T14:45:09Z</time>
      </trkpt>
      <trkpt lat="46.76061" lon="6.36441">
        <ele>1176.3</ele>
        <time>2020-08-27T14:45:10Z</time>
      </trkpt>
      <trkpt lat="46.76064" lon="6.36447">
        <ele>1176</ele>
        <time>2020-08-27T14:45:11Z</time>
      </trkpt>
      <trkpt lat="46.76066" lon="6.36453">
        <ele>1175.8</ele>
        <time>2020-08-27T14:45:12Z</time>
      </trkpt>
      <trkpt lat="46.76069" lon="6.36459">
        <ele>1175.5</ele>
        <time>2020-08-27T14:45:13Z</time>
      </trkpt>
      <trkpt lat="46.76072" lon="6.36464">
        <ele>1175.3</ele>
        <time>2020-08-27T14:45:14Z</time>
      </trkpt>
      <trkpt lat="46.76075" lon="6.3647">
        <ele>1175.1</ele>
        <time>2020-08-27T14:45:15Z</time>
      </trkpt>
      <trkpt lat="46.76078" lon="6.36477">
        <ele>1174.8</ele>
        <time>2020-08-27T14:45:16Z</time>
      </trkpt>
      <trkpt lat="46.76081" lon="6.36484">
        <ele>1174.5</ele>
        <time>2020-08-27T14:45:17Z</time>
      </trkpt>
      <trkpt lat="46.76085" lon="6.3649">
        <ele>1174.2</ele>
        <time>2020-08-27T14:45:18Z</time>
      </trkpt>
      <trkpt lat="46.76088" lon="6.36495">
        <ele>1173.9</ele>
        <time>2020-08-27T14:45:19Z</time>
      </trkpt>
      <trkpt lat="46.76089" lon="6.36498">
        <ele>1173.7</ele>
        <time>2020-08-27T14:45:20Z</time>
      </trkpt>
      <trkpt lat="46.76088" lon="6.36501">
        <ele>1173.4</ele>
        <time>2020-08-27T14:45:21Z</time>
      </trkpt>
      <trkpt lat="46.76087" lon="6.36501">
        <ele>1173.2</ele>
        <time>2020-08-27T14:45:22Z</time>
      </trkpt>
      <trkpt lat="46.76085" lon="6.365">
        <ele>1172.9</ele>
        <time>2020-08-27T14:45:23Z</time>
      </trkpt>
      <trkpt lat="46.76084" lon="6.36498">
        <ele>1172.7</ele>
        <time>2020-08-27T14:45:24Z</time>
      </trkpt>
      <trkpt lat="46.76083" lon="6.36498">
        <ele>1172.5</ele>
        <time>2020-08-27T14:45:25Z</time>
      </trkpt>
      <trkpt lat="46.76082" lon="6.36499">
        <ele>1172.2</ele>
        <time>2020-08-27T14:45:26Z</time>
      </trkpt>
      <trkpt lat="46.76082" lon="6.365">
        <ele>1172</ele>
        <time>2020-08-27T14:45:27Z</time>
      </trkpt>
      <trkpt lat="46.76082" lon="6.36501">
        <ele>1171.8</ele>
        <time>2020-08-27T14:45:28Z</time>
      </trkpt>
      <trkpt lat="46.76081" lon="6.36502">
        <ele>1171.6</ele>
        <time>2020-08-27T14:45:29Z</time>
      </trkpt>
      <trkpt lat="46.76081" lon="6.36502">
        <ele>1171.4</ele>
        <time>2020-08-27T14:45:30Z</time>
      </trkpt>
      <trkpt lat="46.7608" lon="6.36503">
        <ele>1171.2</ele>
        <time>2020-08-27T14:45:31Z</time>
      </trkpt>
      <trkpt lat="46.7608" lon="6.36503">
        <ele>1171</ele>
        <time>2020-08-27T14:45:32Z</time>
      </trkpt>
      <trkpt lat="46.7608" lon="6.36504">
        <ele>1170.9</ele>
        <time>2020-08-27T14:45:33Z</time>
      </trkpt>
      <trkpt lat="46.7608" lon="6.36504">
        <ele>1170.7</ele>
        <time>2020-08-27T14:45:34Z</time>
      </trkpt>
      <trkpt lat="46.7608" lon="6.36505">
        <ele>1170.5</ele>
        <time>2020-08-27T14:45:35Z</time>
      </trkpt>
      <trkpt lat="46.7608" lon="6.36505">
        <ele>1170.3</ele>
        <time>2020-08-27T14:45:36Z</time>
      </trkpt>
      <trkpt lat="46.76079" lon="6.36506">
        <ele>1170.2</ele>
        <time>2020-08-27T14:45:37Z</time>
      </trkpt>
      <trkpt lat="46.76079" lon="6.36506">
        <ele>1170</ele>
        <time>2020-08-27T14:45:38Z</time>
      </trkpt>
      <trkpt lat="46.76078" lon="6.36506">
        <ele>1169.9</ele>
        <time>2020-08-27T14:45:39Z</time>
      </trkpt>
      <trkpt lat="46.76077" lon="6.36506">
        <ele>1169.7</ele>
        <time>2020-08-27T14:45:40Z</time>
      </trkpt>
      <trkpt lat="46.76077" lon="6.36507">
        <ele>1169.6</ele>
        <time>2020-08-27T14:45:41Z</time>
      </trkpt>
      <trkpt lat="46.76077" lon="6.36507">
        <ele>1169.5</ele>
        <time>2020-08-27T14:45:42Z</time>
      </trkpt>
      <trkpt lat="46.76077" lon="6.36508">
        <ele>1169.3</ele>
        <time>2020-08-27T14:45:43Z</time>
      </trkpt>
      <trkpt lat="46.76077" lon="6.36508">
        <ele>1169.2</ele>
        <time>2020-08-27T14:45:44Z</time>
      </trkpt>
      <trkpt lat="46.76077" lon="6.36508">
        <ele>1169.1</ele>
        <time>2020-08-27T14:45:45Z</time>
      </trkpt>
      <trkpt lat="46.76077" lon="6.36508">
        <ele>1169</ele>
        <time>2020-08-27T14:45:46Z</time>
      </trkpt>
      <trkpt lat="46.76077" lon="6.36508">
        <ele>1168.9</ele>
        <time>2020-08-27T14:45:47Z</time>
      </trkpt>
      <trkpt lat="46.76077" lon="6.36509">
        <ele>1168.8</ele>
        <time>2020-08-27T14:45:48Z</time>
      </trkpt>
      <trkpt lat="46.76077" lon="6.36509">
        <ele>1168.7</ele>
        <time>2020-08-27T14:45:49Z</time>
      </trkpt>
      <trkpt lat="46.76077" lon="6.36509">
        <ele>1168.6</ele>
        <time>2020-08-27T14:45:50Z</time>
      </trkpt>
      <trkpt lat="46.76077" lon="6.36509">
        <ele>1168.6</ele>
        <time>2020-08-27T14:45:51Z</time>
      </trkpt>
      <trkpt lat="46.76077" lon="6.36509">
        <ele>1168.5</ele>
        <time>2020-08-27T14:45:52Z</time>
      </trkpt>
      <trkpt lat="46.76076" lon="6.36509">
        <ele>1168.4</ele>
        <time>2020-08-27T14:45:53Z</time>
      </trkpt>
      <trkpt lat="46.76076" lon="6.3651">
        <ele>1168.4</ele>
        <time>2020-08-27T14:45:54Z</time>
      </trkpt>
      <trkpt lat="46.76076" lon="6.3651">
        <ele>1168.3</ele>
        <time>2020-08-27T14:45:55Z</time>
      </trkpt>
      <trkpt lat="46.76076" lon="6.3651">
        <ele>1168.2</ele>
        <time>2020-08-27T14:45:56Z</time>
      </trkpt>
      <trkpt lat="46.76076" lon="6.36511">
        <ele>1168.2</ele>
        <time>2020-08-27T14:45:57Z</time>
      </trkpt>
      <trkpt lat="46.76076" lon="6.36511">
        <ele>1168.1</ele>
        <time>2020-08-27T14:45:58Z</time>
      </trkpt>
      <trkpt lat="46.76076" lon="6.36511">
        <ele>1168.1</ele>
        <time>2020-08-27T14:45:59Z</time>
      </trkpt>
      <trkpt lat="46.76076" lon="6.36511">
        <ele>1168.1</ele>
        <time>2020-08-27T14:46:00Z</time>
      </trkpt>
      <trkpt lat="46.76076" lon="6.36511">
        <ele>1168</ele>
        <time>2020-08-27T14:46:01Z</time>
      </trkpt>
      <trkpt lat="46.76076" lon="6.36511">
        <ele>1168</ele>
        <time>2020-08-27T14:46:02Z</time>
      </trkpt>
      <trkpt lat="46.76076" lon="6.36511">
        <ele>1167.9</ele>
        <time>2020-08-27T14:46:03Z</time>
      </trkpt>
      <trkpt lat="46.76076" lon="6.36511">
        <ele>1167.9</ele>
        <time>2020-08-27T14:46:04Z</time>
      </trkpt>
      <trkpt lat="46.76076" lon="6.36511">
        <ele>1167.9</ele>
        <time>2020-08-27T14:46:05Z</time>
      </trkpt>
      <trkpt lat="46.76077" lon="6.36511">
        <ele>1167.8</ele>
        <time>2020-08-27T14:46:06Z</time>
      </trkpt>
      <trkpt lat="46.76077" lon="6.36511">
        <ele>1167.7</ele>
        <time>2020-08-27T14:46:07Z</time>
      </trkpt>
      <trkpt lat="46.76077" lon="6.36511">
        <ele>1167.6</ele>
        <time>2020-08-27T14:46:08Z</time>
      </trkpt>
      <trkpt lat="46.76077" lon="6.36511">
        <ele>1167.5</ele>
        <time>2020-08-27T14:46:09Z</time>
      </trkpt>
      <trkpt lat="46.76077" lon="6.36511">
        <ele>1167.5</ele>
        <time>2020-08-27T14:46:10Z</time>
      </trkpt>
      <trkpt lat="46.76077" lon="6.36511">
        <ele>1167.4</ele>
        <time>2020-08-27T14:46:11Z</time>
      </trkpt>
      <trkpt lat="46.76076" lon="6.36512">
        <ele>1167.3</ele>
        <time>2020-08-27T14:46:12Z</time>
      </trkpt>
      <trkpt lat="46.76076" lon="6.36512">
        <ele>1167.3</ele>
        <time>2020-08-27T14:46:13Z</time>
      </trkpt>
      <trkpt lat="46.76076" lon="6.36512">
        <ele>1167.2</ele>
        <time>2020-08-27T14:46:14Z</time>
      </trkpt>
      <trkpt lat="46.76076" lon="6.36512">
        <ele>1167.2</ele>
        <time>2020-08-27T14:46:15Z</time>
      </trkpt>
      <trkpt lat="46.76076" lon="6.36512">
        <ele>1167.1</ele>
        <time>2020-08-27T14:46:16Z</time>
      </trkpt>
      <trkpt lat="46.76076" lon="6.36512">
        <ele>1167.1</ele>
        <time>2020-08-27T14:46:17Z</time>
      </trkpt>
      <trkpt lat="46.76076" lon="6.36512">
        <ele>1167</ele>
        <time>2020-08-27T14:46:18Z</time>
      </trkpt>
      <trkpt lat="46.76076" lon="6.36513">
        <ele>1167</ele>
        <time>2020-08-27T14:46:19Z</time>
      </trkpt>
      <trkpt lat="46.76076" lon="6.36513">
        <ele>1167</ele>
        <time>2020-08-27T14:46:20Z</time>
      </trkpt>
      <trkpt lat="46.76076" lon="6.36514">
        <ele>1166.9</ele>
        <time>2020-08-27T14:46:21Z</time>
      </trkpt>
      <trkpt lat="46.76077" lon="6.36514">
        <ele>1166.9</ele>
        <time>2020-08-27T14:46:22Z</time>
      </trkpt>
      <trkpt lat="46.76076" lon="6.36513">
        <ele>1166.9</ele>
        <time>2020-08-27T14:46:23Z</time>
      </trkpt>
      <trkpt lat="46.76074" lon="6.36513">
        <ele>1166.9</ele>
        <time>2020-08-27T14:46:24Z</time>
      </trkpt>
      <trkpt lat="46.76072" lon="6.3651">
        <ele>1166.9</ele>
        <time>2020-08-27T14:46:25Z</time>
      </trkpt>
      <trkpt lat="46.76069" lon="6.36506">
        <ele>1166.9</ele>
        <time>2020-08-27T14:46:26Z</time>
      </trkpt>
      <trkpt lat="46.76067" lon="6.36502">
        <ele>1166.8</ele>
        <time>2020-08-27T14:46:27Z</time>
      </trkpt>
      <trkpt lat="46.76065" lon="6.36498">
        <ele>1166.8</ele>
        <time>2020-08-27T14:46:28Z</time>
      </trkpt>
      <trkpt lat="46.76064" lon="6.36497">
        <ele>1166.8</ele>
        <time>2020-08-27T14:46:29Z</time>
      </trkpt>
      <trkpt lat="46.76064" lon="6.36496">
        <ele>1166.8</ele>
        <time>2020-08-27T14:46:30Z</time>
      </trkpt>
      <trkpt lat="46.76063" lon="6.36494">
        <ele>1166.8</ele>
        <time>2020-08-27T14:46:31Z</time>
      </trkpt>
      <trkpt lat="46.76062" lon="6.36493">
        <ele>1166.8</ele>
        <time>2020-08-27T14:46:32Z</time>
      </trkpt>
      <trkpt lat="46.7606" lon="6.36491">
        <ele>1166.8</ele>
        <time>2020-08-27T14:46:33Z</time>
      </trkpt>
      <trkpt lat="46.76058" lon="6.36488">
        <ele>1166.9</ele>
        <time>2020-08-27T14:46:34Z</time>
      </trkpt>
      <trkpt lat="46.76056" lon="6.36484">
        <ele>1166.9</ele>
        <time>2020-08-27T14:46:35Z</time>
      </trkpt>
      <trkpt lat="46.76053" lon="6.36481">
        <ele>1166.9</ele>
        <time>2020-08-27T14:46:36Z</time>
      </trkpt>
      <trkpt lat="46.76051" lon="6.36478">
        <ele>1166.8</ele>
        <time>2020-08-27T14:46:37Z</time>
      </trkpt>
      <trkpt lat="46.76048" lon="6.36475">
        <ele>1166.8</ele>
        <time>2020-08-27T14:46:38Z</time>
      </trkpt>
      <trkpt lat="46.76045" lon="6.36472">
        <ele>1166.8</ele>
        <time>2020-08-27T14:46:39Z</time>
      </trkpt>
      <trkpt lat="46.76043" lon="6.36469">
        <ele>1166.7</ele>
        <time>2020-08-27T14:46:40Z</time>
      </trkpt>
      <trkpt lat="46.76041" lon="6.36467">
        <ele>1166.5</ele>
        <time>2020-08-27T14:46:41Z</time>
      </trkpt>
      <trkpt lat="46.76039" lon="6.36464">
        <ele>1166.4</ele>
        <time>2020-08-27T14:46:42Z</time>
      </trkpt>
      <trkpt lat="46.76038" lon="6.36462">
        <ele>1166.3</ele>
        <time>2020-08-27T14:46:43Z</time>
      </trkpt>
      <trkpt lat="46.76037" lon="6.3646">
        <ele>1166.1</ele>
        <time>2020-08-27T14:46:44Z</time>
      </trkpt>
      <trkpt lat="46.76036" lon="6.36458">
        <ele>1166</ele>
        <time>2020-08-27T14:46:45Z</time>
      </trkpt>
      <trkpt lat="46.76035" lon="6.36456">
        <ele>1165.9</ele>
        <time>2020-08-27T14:46:46Z</time>
      </trkpt>
      <trkpt lat="46.76035" lon="6.36456">
        <ele>1165.9</ele>
        <time>2020-08-27T14:46:47Z</time>
      </trkpt>
      <trkpt lat="46.76034" lon="6.36455">
        <ele>1165.8</ele>
        <time>2020-08-27T14:46:48Z</time>
      </trkpt>
      <trkpt lat="46.76034" lon="6.36456">
        <ele>1165.7</ele>
        <time>2020-08-27T14:46:49Z</time>
      </trkpt>
      <trkpt lat="46.76034" lon="6.36455">
        <ele>1165.7</ele>
        <time>2020-08-27T14:46:50Z</time>
      </trkpt>
      <trkpt lat="46.76033" lon="6.36454">
        <ele>1165.6</ele>
        <time>2020-08-27T14:46:51Z</time>
      </trkpt>
      <trkpt lat="46.76033" lon="6.36454">
        <ele>1165.6</ele>
        <time>2020-08-27T14:46:52Z</time>
      </trkpt>
      <trkpt lat="46.76033" lon="6.36454">
        <ele>1165.5</ele>
        <time>2020-08-27T14:46:53Z</time>
      </trkpt>
      <trkpt lat="46.76032" lon="6.36453">
        <ele>1165.3</ele>
        <time>2020-08-27T14:46:54Z</time>
      </trkpt>
      <trkpt lat="46.76032" lon="6.36453">
        <ele>1165.2</ele>
        <time>2020-08-27T14:46:55Z</time>
      </trkpt>
      <trkpt lat="46.76032" lon="6.36453">
        <ele>1165.1</ele>
        <time>2020-08-27T14:46:56Z</time>
      </trkpt>
      <trkpt lat="46.76032" lon="6.36453">
        <ele>1165</ele>
        <time>2020-08-27T14:46:57Z</time>
      </trkpt>
      <trkpt lat="46.76032" lon="6.36453">
        <ele>1164.9</ele>
        <time>2020-08-27T14:46:58Z</time>
      </trkpt>
      <trkpt lat="46.76032" lon="6.36453">
        <ele>1164.8</ele>
        <time>2020-08-27T14:46:59Z</time>
      </trkpt>
      <trkpt lat="46.76033" lon="6.36453">
        <ele>1164.7</ele>
        <time>2020-08-27T14:47:00Z</time>
      </trkpt>
      <trkpt lat="46.76033" lon="6.36453">
        <ele>1164.6</ele>
        <time>2020-08-27T14:47:01Z</time>
      </trkpt>
      <trkpt lat="46.76033" lon="6.36453">
        <ele>1164.5</ele>
        <time>2020-08-27T14:47:02Z</time>
      </trkpt>
      <trkpt lat="46.76034" lon="6.36453">
        <ele>1164.4</ele>
        <time>2020-08-27T14:47:03Z</time>
      </trkpt>
      <trkpt lat="46.76033" lon="6.36453">
        <ele>1164.4</ele>
        <time>2020-08-27T14:47:04Z</time>
      </trkpt>
      <trkpt lat="46.76033" lon="6.36452">
        <ele>1164.3</ele>
        <time>2020-08-27T14:47:05Z</time>
      </trkpt>
      <trkpt lat="46.76032" lon="6.36452">
        <ele>1164.2</ele>
        <time>2020-08-27T14:47:06Z</time>
      </trkpt>
      <trkpt lat="46.76032" lon="6.36452">
        <ele>1164.2</ele>
        <time>2020-08-27T14:47:07Z</time>
      </trkpt>
      <trkpt lat="46.76032" lon="6.36452">
        <ele>1164.1</ele>
        <time>2020-08-27T14:47:08Z</time>
      </trkpt>
      <trkpt lat="46.76032" lon="6.36452">
        <ele>1164.1</ele>
        <time>2020-08-27T14:47:09Z</time>
      </trkpt>
      <trkpt lat="46.76031" lon="6.36451">
        <ele>1164</ele>
        <time>2020-08-27T14:47:10Z</time>
      </trkpt>
      <trkpt lat="46.7603" lon="6.36451">
        <ele>1164</ele>
        <time>2020-08-27T14:47:11Z</time>
      </trkpt>
      <trkpt lat="46.76029" lon="6.36453">
        <ele>1163.8</ele>
        <time>2020-08-27T14:47:12Z</time>
      </trkpt>
      <trkpt lat="46.76029" lon="6.36456">
        <ele>1163.6</ele>
        <time>2020-08-27T14:47:13Z</time>
      </trkpt>
      <trkpt lat="46.7603" lon="6.36459">
        <ele>1163.4</ele>
        <time>2020-08-27T14:47:14Z</time>
      </trkpt>
      <trkpt lat="46.76031" lon="6.36461">
        <ele>1163.2</ele>
        <time>2020-08-27T14:47:15Z</time>
      </trkpt>
      <trkpt lat="46.76032" lon="6.36464">
        <ele>1163.1</ele>
        <time>2020-08-27T14:47:16Z</time>
      </trkpt>
      <trkpt lat="46.76032" lon="6.36465">
        <ele>1162.9</ele>
        <time>2020-08-27T14:47:17Z</time>
      </trkpt>
      <trkpt lat="46.76031" lon="6.36466">
        <ele>1162.8</ele>
        <time>2020-08-27T14:47:18Z</time>
      </trkpt>
      <trkpt lat="46.76031" lon="6.36466">
        <ele>1162.7</ele>
        <time>2020-08-27T14:47:19Z</time>
      </trkpt>
      <trkpt lat="46.76031" lon="6.36466">
        <ele>1162.5</ele>
        <time>2020-08-27T14:47:20Z</time>
      </trkpt>
      <trkpt lat="46.76031" lon="6.36467">
        <ele>1162.4</ele>
        <time>2020-08-27T14:47:21Z</time>
      </trkpt>
      <trkpt lat="46.76032" lon="6.36467">
        <ele>1162.4</ele>
        <time>2020-08-27T14:47:22Z</time>
      </trkpt>
      <trkpt lat="46.76032" lon="6.36467">
        <ele>1162.3</ele>
        <time>2020-08-27T14:47:23Z</time>
      </trkpt>
      <trkpt lat="46.76033" lon="6.36467">
        <ele>1162.2</ele>
        <time>2020-08-27T14:47:24Z</time>
      </trkpt>
      <trkpt lat="46.76033" lon="6.36467">
        <ele>1162.1</ele>
        <time>2020-08-27T14:47:25Z</time>
      </trkpt>
      <trkpt lat="46.76033" lon="6.36467">
        <ele>1162</ele>
        <time>2020-08-27T14:47:26Z</time>
      </trkpt>
      <trkpt lat="46.76034" lon="6.36468">
        <ele>1162</ele>
        <time>2020-08-27T14:47:27Z</time>
      </trkpt>
      <trkpt lat="46.76033" lon="6.36468">
        <ele>1161.9</ele>
        <time>2020-08-27T14:47:28Z</time>
      </trkpt>
      <trkpt lat="46.76033" lon="6.3647">
        <ele>1161.8</ele>
        <time>2020-08-27T14:47:29Z</time>
      </trkpt>
      <trkpt lat="46.76033" lon="6.36472">
        <ele>1161.8</ele>
        <time>2020-08-27T14:47:30Z</time>
      </trkpt>
      <trkpt lat="46.76034" lon="6.36475">
        <ele>1161.7</ele>
        <time>2020-08-27T14:47:31Z</time>
      </trkpt>
      <trkpt lat="46.76035" lon="6.36478">
        <ele>1161.7</ele>
        <time>2020-08-27T14:47:32Z</time>
      </trkpt>
      <trkpt lat="46.76035" lon="6.36481">
        <ele>1161.6</ele>
        <time>2020-08-27T14:47:33Z</time>
      </trkpt>
      <trkpt lat="46.76036" lon="6.36484">
        <ele>1161.5</ele>
        <time>2020-08-27T14:47:34Z</time>
      </trkpt>
      <trkpt lat="46.76036" lon="6.36488">
        <ele>1161.5</ele>
        <time>2020-08-27T14:47:35Z</time>
      </trkpt>
      <trkpt lat="46.76037" lon="6.36492">
        <ele>1161.4</ele>
        <time>2020-08-27T14:47:36Z</time>
      </trkpt>
      <trkpt lat="46.7604" lon="6.36495">
        <ele>1161.4</ele>
        <time>2020-08-27T14:47:37Z</time>
      </trkpt>
      <trkpt lat="46.76042" lon="6.36498">
        <ele>1161.3</ele>
        <time>2020-08-27T14:47:38Z</time>
      </trkpt>
      <trkpt lat="46.76044" lon="6.36499">
        <ele>1161.2</ele>
        <time>2020-08-27T14:47:39Z</time>
      </trkpt>
      <trkpt lat="46.76046" lon="6.36499">
        <ele>1161.1</ele>
        <time>2020-08-27T14:47:40Z</time>
      </trkpt>
      <trkpt lat="46.76047" lon="6.365">
        <ele>1161</ele>
        <time>2020-08-27T14:47:41Z</time>
      </trkpt>
      <trkpt lat="46.76047" lon="6.365">
        <ele>1160.9</ele>
        <time>2020-08-27T14:47:42Z</time>
      </trkpt>
      <trkpt lat="46.76045" lon="6.36499">
        <ele>1160.7</ele>
        <time>2020-08-27T14:47:43Z</time>
      </trkpt>
      <trkpt lat="46.76043" lon="6.36497">
        <ele>1160.6</ele>
        <time>2020-08-27T14:47:44Z</time>
      </trkpt>
      <trkpt lat="46.76041" lon="6.36496">
        <ele>1160.4</ele>
        <time>2020-08-27T14:47:45Z</time>
      </trkpt>
      <trkpt lat="46.76039" lon="6.36495">
        <ele>1160.3</ele>
        <time>2020-08-27T14:47:46Z</time>
      </trkpt>
      <trkpt lat="46.76036" lon="6.36494">
        <ele>1160.1</ele>
        <time>2020-08-27T14:47:47Z</time>
      </trkpt>
      <trkpt lat="46.76034" lon="6.36492">
        <ele>1160</ele>
        <time>2020-08-27T14:47:48Z</time>
      </trkpt>
      <trkpt lat="46.76031" lon="6.3649">
        <ele>1159.9</ele>
        <time>2020-08-27T14:47:49Z</time>
      </trkpt>
      <trkpt lat="46.7603" lon="6.36488">
        <ele>1159.7</ele>
        <time>2020-08-27T14:47:50Z</time>
      </trkpt>
      <trkpt lat="46.76029" lon="6.36486">
        <ele>1159.6</ele>
        <time>2020-08-27T14:47:51Z</time>
      </trkpt>
      <trkpt lat="46.76028" lon="6.36483">
        <ele>1159.4</ele>
        <time>2020-08-27T14:47:52Z</time>
      </trkpt>
      <trkpt lat="46.76027" lon="6.3648">
        <ele>1159.3</ele>
        <time>2020-08-27T14:47:53Z</time>
      </trkpt>
      <trkpt lat="46.76027" lon="6.36478">
        <ele>1159.2</ele>
        <time>2020-08-27T14:47:54Z</time>
      </trkpt>
      <trkpt lat="46.76026" lon="6.36476">
        <ele>1159.1</ele>
        <time>2020-08-27T14:47:55Z</time>
      </trkpt>
      <trkpt lat="46.76025" lon="6.36475">
        <ele>1159</ele>
        <time>2020-08-27T14:47:56Z</time>
      </trkpt>
      <trkpt lat="46.76023" lon="6.36473">
        <ele>1158.9</ele>
        <time>2020-08-27T14:47:57Z</time>
      </trkpt>
      <trkpt lat="46.76022" lon="6.36472">
        <ele>1158.8</ele>
        <time>2020-08-27T14:47:58Z</time>
      </trkpt>
      <trkpt lat="46.7602" lon="6.36472">
        <ele>1158.7</ele>
        <time>2020-08-27T14:47:59Z</time>
      </trkpt>
      <trkpt lat="46.76019" lon="6.36475">
        <ele>1158.6</ele>
        <time>2020-08-27T14:48:00Z</time>
      </trkpt>
      <trkpt lat="46.76018" lon="6.36478">
        <ele>1158.4</ele>
        <time>2020-08-27T14:48:01Z</time>
      </trkpt>
      <trkpt lat="46.76017" lon="6.36481">
        <ele>1158.3</ele>
        <time>2020-08-27T14:48:02Z</time>
      </trkpt>
      <trkpt lat="46.76016" lon="6.36483">
        <ele>1158.1</ele>
        <time>2020-08-27T14:48:03Z</time>
      </trkpt>
      <trkpt lat="46.76015" lon="6.36486">
        <ele>1158</ele>
        <time>2020-08-27T14:48:04Z</time>
      </trkpt>
      <trkpt lat="46.76013" lon="6.36491">
        <ele>1157.9</ele>
        <time>2020-08-27T14:48:05Z</time>
      </trkpt>
      <trkpt lat="46.76011" lon="6.36493">
        <ele>1157.8</ele>
        <time>2020-08-27T14:48:06Z</time>
      </trkpt>
      <trkpt lat="46.76009" lon="6.36492">
        <ele>1157.6</ele>
        <time>2020-08-27T14:48:07Z</time>
      </trkpt>
      <trkpt lat="46.76007" lon="6.36491">
        <ele>1157.5</ele>
        <time>2020-08-27T14:48:08Z</time>
      </trkpt>
      <trkpt lat="46.76006" lon="6.36488">
        <ele>1157.3</ele>
        <time>2020-08-27T14:48:09Z</time>
      </trkpt>
      <trkpt lat="46.76006" lon="6.36485">
        <ele>1157.2</ele>
        <time>2020-08-27T14:48:10Z</time>
      </trkpt>
      <trkpt lat="46.76006" lon="6.36482">
        <ele>1157</ele>
        <time>2020-08-27T14:48:11Z</time>
      </trkpt>
      <trkpt lat="46.76006" lon="6.3648">
        <ele>1156.9</ele>
        <time>2020-08-27T14:48:12Z</time>
      </trkpt>
      <trkpt lat="46.76006" lon="6.36477">
        <ele>1156.7</ele>
        <time>2020-08-27T14:48:13Z</time>
      </trkpt>
      <trkpt lat="46.76006" lon="6.36474">
        <ele>1156.6</ele>
        <time>2020-08-27T14:48:14Z</time>
      </trkpt>
      <trkpt lat="46.76005" lon="6.36472">
        <ele>1156.4</ele>
        <time>2020-08-27T14:48:15Z</time>
      </trkpt>
      <trkpt lat="46.76003" lon="6.3647">
        <ele>1156.3</ele>
        <time>2020-08-27T14:48:16Z</time>
      </trkpt>
      <trkpt lat="46.76" lon="6.36472">
        <ele>1156.2</ele>
        <time>2020-08-27T14:48:17Z</time>
      </trkpt>
      <trkpt lat="46.75997" lon="6.36476">
        <ele>1156</ele>
        <time>2020-08-27T14:48:18Z</time>
      </trkpt>
      <trkpt lat="46.75994" lon="6.3648">
        <ele>1155.9</ele>
        <time>2020-08-27T14:48:19Z</time>
      </trkpt>
      <trkpt lat="46.75991" lon="6.36484">
        <ele>1155.7</ele>
        <time>2020-08-27T14:48:20Z</time>
      </trkpt>
      <trkpt lat="46.75988" lon="6.36489">
        <ele>1155.5</ele>
        <time>2020-08-27T14:48:21Z</time>
      </trkpt>
      <trkpt lat="46.75985" lon="6.36494">
        <ele>1155.3</ele>
        <time>2020-08-27T14:48:22Z</time>
      </trkpt>
      <trkpt lat="46.75984" lon="6.365">
        <ele>1155.1</ele>
        <time>2020-08-27T14:48:23Z</time>
      </trkpt>
      <trkpt lat="46.75983" lon="6.36506">
        <ele>1155</ele>
        <time>2020-08-27T14:48:24Z</time>
      </trkpt>
      <trkpt lat="46.75983" lon="6.36512">
        <ele>1154.8</ele>
        <time>2020-08-27T14:48:25Z</time>
      </trkpt>
      <trkpt lat="46.75984" lon="6.36519">
        <ele>1154.5</ele>
        <time>2020-08-27T14:48:26Z</time>
      </trkpt>
      <trkpt lat="46.75984" lon="6.36522">
        <ele>1154.2</ele>
        <time>2020-08-27T14:48:27Z</time>
      </trkpt>
      <trkpt lat="46.75984" lon="6.36523">
        <ele>1153.9</ele>
        <time>2020-08-27T14:48:28Z</time>
      </trkpt>
      <trkpt lat="46.75984" lon="6.36524">
        <ele>1153.6</ele>
        <time>2020-08-27T14:48:29Z</time>
      </trkpt>
      <trkpt lat="46.75983" lon="6.36524">
        <ele>1153.3</ele>
        <time>2020-08-27T14:48:30Z</time>
      </trkpt>
      <trkpt lat="46.75983" lon="6.36524">
        <ele>1153.1</ele>
        <time>2020-08-27T14:48:31Z</time>
      </trkpt>
      <trkpt lat="46.75983" lon="6.36525">
        <ele>1152.8</ele>
        <time>2020-08-27T14:48:32Z</time>
      </trkpt>
      <trkpt lat="46.75983" lon="6.36525">
        <ele>1152.6</ele>
        <time>2020-08-27T14:48:33Z</time>
      </trkpt>
      <trkpt lat="46.75983" lon="6.36526">
        <ele>1152.4</ele>
        <time>2020-08-27T14:48:34Z</time>
      </trkpt>
      <trkpt lat="46.75983" lon="6.36526">
        <ele>1152.3</ele>
        <time>2020-08-27T14:48:35Z</time>
      </trkpt>
      <trkpt lat="46.75983" lon="6.36526">
        <ele>1152.1</ele>
        <time>2020-08-27T14:48:36Z</time>
      </trkpt>
      <trkpt lat="46.75982" lon="6.36526">
        <ele>1152</ele>
        <time>2020-08-27T14:48:37Z</time>
      </trkpt>
      <trkpt lat="46.75982" lon="6.36526">
        <ele>1151.8</ele>
        <time>2020-08-27T14:48:38Z</time>
      </trkpt>
      <trkpt lat="46.75981" lon="6.36526">
        <ele>1151.7</ele>
        <time>2020-08-27T14:48:39Z</time>
      </trkpt>
      <trkpt lat="46.75981" lon="6.36527">
        <ele>1151.6</ele>
        <time>2020-08-27T14:48:40Z</time>
      </trkpt>
      <trkpt lat="46.7598" lon="6.36526">
        <ele>1151.5</ele>
        <time>2020-08-27T14:48:41Z</time>
      </trkpt>
      <trkpt lat="46.75981" lon="6.36526">
        <ele>1151.4</ele>
        <time>2020-08-27T14:48:42Z</time>
      </trkpt>
      <trkpt lat="46.75981" lon="6.36526">
        <ele>1151.3</ele>
        <time>2020-08-27T14:48:43Z</time>
      </trkpt>
      <trkpt lat="46.7598" lon="6.36527">
        <ele>1151.2</ele>
        <time>2020-08-27T14:48:44Z</time>
      </trkpt>
      <trkpt lat="46.7598" lon="6.36527">
        <ele>1151.1</ele>
        <time>2020-08-27T14:48:45Z</time>
      </trkpt>
      <trkpt lat="46.7598" lon="6.36527">
        <ele>1151</ele>
        <time>2020-08-27T14:48:46Z</time>
      </trkpt>
      <trkpt lat="46.7598" lon="6.36527">
        <ele>1151</ele>
        <time>2020-08-27T14:48:47Z</time>
      </trkpt>
      <trkpt lat="46.75981" lon="6.36528">
        <ele>1150.9</ele>
        <time>2020-08-27T14:48:48Z</time>
      </trkpt>
      <trkpt lat="46.75981" lon="6.36528">
        <ele>1150.9</ele>
        <time>2020-08-27T14:48:49Z</time>
      </trkpt>
      <trkpt lat="46.75981" lon="6.36528">
        <ele>1150.8</ele>
        <time>2020-08-27T14:48:50Z</time>
      </trkpt>
      <trkpt lat="46.75982" lon="6.36529">
        <ele>1150.8</ele>
        <time>2020-08-27T14:48:51Z</time>
      </trkpt>
      <trkpt lat="46.75983" lon="6.3653">
        <ele>1150.8</ele>
        <time>2020-08-27T14:48:52Z</time>
      </trkpt>
      <trkpt lat="46.75984" lon="6.36532">
        <ele>1150.7</ele>
        <time>2020-08-27T14:48:53Z</time>
      </trkpt>
      <trkpt lat="46.75985" lon="6.36534">
        <ele>1150.7</ele>
        <time>2020-08-27T14:48:54Z</time>
      </trkpt>
      <trkpt lat="46.75983" lon="6.36537">
        <ele>1150.7</ele>
        <time>2020-08-27T14:48:55Z</time>
      </trkpt>
      <trkpt lat="46.7598" lon="6.36538">
        <ele>1150.7</ele>
        <time>2020-08-27T14:48:56Z</time>
      </trkpt>
      <trkpt lat="46.75977" lon="6.36539">
        <ele>1150.6</ele>
        <time>2020-08-27T14:48:57Z</time>
      </trkpt>
      <trkpt lat="46.75973" lon="6.36541">
        <ele>1150.6</ele>
        <time>2020-08-27T14:48:58Z</time>
      </trkpt>
      <trkpt lat="46.7597" lon="6.36543">
        <ele>1150.5</ele>
        <time>2020-08-27T14:48:59Z</time>
      </trkpt>
      <trkpt lat="46.75969" lon="6.36548">
        <ele>1150.3</ele>
        <time>2020-08-27T14:49:00Z</time>
      </trkpt>
      <trkpt lat="46.75969" lon="6.36551">
        <ele>1150.2</ele>
        <time>2020-08-27T14:49:01Z</time>
      </trkpt>
      <trkpt lat="46.7597" lon="6.36554">
        <ele>1150</ele>
        <time>2020-08-27T14:49:02Z</time>
      </trkpt>
      <trkpt lat="46.75973" lon="6.36557">
        <ele>1149.8</ele>
        <time>2020-08-27T14:49:03Z</time>
      </trkpt>
      <trkpt lat="46.75975" lon="6.36561">
        <ele>1149.6</ele>
        <time>2020-08-27T14:49:04Z</time>
      </trkpt>
      <trkpt lat="46.75978" lon="6.36563">
        <ele>1149.4</ele>
        <time>2020-08-27T14:49:05Z</time>
      </trkpt>
      <trkpt lat="46.75981" lon="6.36566">
        <ele>1149.2</ele>
        <time>2020-08-27T14:49:06Z</time>
      </trkpt>
      <trkpt lat="46.75985" lon="6.36569">
        <ele>1149</ele>
        <time>2020-08-27T14:49:07Z</time>
      </trkpt>
      <trkpt lat="46.75989" lon="6.36572">
        <ele>1148.9</ele>
        <time>2020-08-27T14:49:08Z</time>
      </trkpt>
      <trkpt lat="46.75992" lon="6.36576">
        <ele>1148.6</ele>
        <time>2020-08-27T14:49:09Z</time>
      </trkpt>
      <trkpt lat="46.75995" lon="6.3658">
        <ele>1148.5</ele>
        <time>2020-08-27T14:49:10Z</time>
      </trkpt>
      <trkpt lat="46.75999" lon="6.36584">
        <ele>1148.3</ele>
        <time>2020-08-27T14:49:11Z</time>
      </trkpt>
      <trkpt lat="46.76003" lon="6.36587">
        <ele>1148.1</ele>
        <time>2020-08-27T14:49:12Z</time>
      </trkpt>
      <trkpt lat="46.76006" lon="6.36589">
        <ele>1147.8</ele>
        <time>2020-08-27T14:49:13Z</time>
      </trkpt>
      <trkpt lat="46.76009" lon="6.3659">
        <ele>1147.6</ele>
        <time>2020-08-27T14:49:14Z</time>
      </trkpt>
      <trkpt lat="46.76012" lon="6.36592">
        <ele>1147.4</ele>
        <time>2020-08-27T14:49:15Z</time>
      </trkpt>
      <trkpt lat="46.76013" lon="6.36593">
        <ele>1147.1</ele>
        <time>2020-08-27T14:49:16Z</time>
      </trkpt>
      <trkpt lat="46.76014" lon="6.36595">
        <ele>1146.8</ele>
        <time>2020-08-27T14:49:17Z</time>
      </trkpt>
      <trkpt lat="46.76013" lon="6.36597">
        <ele>1146.6</ele>
        <time>2020-08-27T14:49:18Z</time>
      </trkpt>
      <trkpt lat="46.76013" lon="6.36598">
        <ele>1146.3</ele>
        <time>2020-08-27T14:49:19Z</time>
      </trkpt>
      <trkpt lat="46.76012" lon="6.36598">
        <ele>1146.1</ele>
        <time>2020-08-27T14:49:20Z</time>
      </trkpt>
      <trkpt lat="46.76011" lon="6.36598">
        <ele>1145.8</ele>
        <time>2020-08-27T14:49:21Z</time>
      </trkpt>
      <trkpt lat="46.7601" lon="6.36598">
        <ele>1145.5</ele>
        <time>2020-08-27T14:49:22Z</time>
      </trkpt>
      <trkpt lat="46.76009" lon="6.36599">
        <ele>1145.3</ele>
        <time>2020-08-27T14:49:23Z</time>
      </trkpt>
      <trkpt lat="46.76008" lon="6.366">
        <ele>1145</ele>
        <time>2020-08-27T14:49:24Z</time>
      </trkpt>
      <trkpt lat="46.76007" lon="6.36599">
        <ele>1144.8</ele>
        <time>2020-08-27T14:49:25Z</time>
      </trkpt>
      <trkpt lat="46.76004" lon="6.36599">
        <ele>1144.6</ele>
        <time>2020-08-27T14:49:26Z</time>
      </trkpt>
      <trkpt lat="46.76001" lon="6.36598">
        <ele>1144.4</ele>
        <time>2020-08-27T14:49:27Z</time>
      </trkpt>
      <trkpt lat="46.75999" lon="6.36599">
        <ele>1144.2</ele>
        <time>2020-08-27T14:49:28Z</time>
      </trkpt>
      <trkpt lat="46.75997" lon="6.36601">
        <ele>1144</ele>
        <time>2020-08-27T14:49:29Z</time>
      </trkpt>
      <trkpt lat="46.75997" lon="6.36605">
        <ele>1143.9</ele>
        <time>2020-08-27T14:49:30Z</time>
      </trkpt>
      <trkpt lat="46.75999" lon="6.36608">
        <ele>1143.7</ele>
        <time>2020-08-27T14:49:31Z</time>
      </trkpt>
      <trkpt lat="46.76002" lon="6.36609">
        <ele>1143.6</ele>
        <time>2020-08-27T14:49:32Z</time>
      </trkpt>
      <trkpt lat="46.76004" lon="6.36611">
        <ele>1143.4</ele>
        <time>2020-08-27T14:49:33Z</time>
      </trkpt>
      <trkpt lat="46.76007" lon="6.36614">
        <ele>1143.3</ele>
        <time>2020-08-27T14:49:34Z</time>
      </trkpt>
      <trkpt lat="46.7601" lon="6.36616">
        <ele>1143.2</ele>
        <time>2020-08-27T14:49:35Z</time>
      </trkpt>
      <trkpt lat="46.76013" lon="6.36619">
        <ele>1143.1</ele>
        <time>2020-08-27T14:49:36Z</time>
      </trkpt>
      <trkpt lat="46.76015" lon="6.36622">
        <ele>1142.9</ele>
        <time>2020-08-27T14:49:37Z</time>
      </trkpt>
      <trkpt lat="46.76018" lon="6.36626">
        <ele>1142.7</ele>
        <time>2020-08-27T14:49:38Z</time>
      </trkpt>
      <trkpt lat="46.7602" lon="6.36628">
        <ele>1142.5</ele>
        <time>2020-08-27T14:49:39Z</time>
      </trkpt>
      <trkpt lat="46.76023" lon="6.36631">
        <ele>1142.3</ele>
        <time>2020-08-27T14:49:40Z</time>
      </trkpt>
      <trkpt lat="46.76027" lon="6.36634">
        <ele>1142.1</ele>
        <time>2020-08-27T14:49:41Z</time>
      </trkpt>
      <trkpt lat="46.7603" lon="6.36638">
        <ele>1141.8</ele>
        <time>2020-08-27T14:49:42Z</time>
      </trkpt>
      <trkpt lat="46.76034" lon="6.36641">
        <ele>1141.5</ele>
        <time>2020-08-27T14:49:43Z</time>
      </trkpt>
      <trkpt lat="46.76038" lon="6.36643">
        <ele>1141.2</ele>
        <time>2020-08-27T14:49:44Z</time>
      </trkpt>
      <trkpt lat="46.76043" lon="6.36646">
        <ele>1140.9</ele>
        <time>2020-08-27T14:49:45Z</time>
      </trkpt>
      <trkpt lat="46.76047" lon="6.36648">
        <ele>1140.6</ele>
        <time>2020-08-27T14:49:46Z</time>
      </trkpt>
      <trkpt lat="46.7605" lon="6.3665">
        <ele>1140.4</ele>
        <time>2020-08-27T14:49:47Z</time>
      </trkpt>
      <trkpt lat="46.76053" lon="6.36652">
        <ele>1140.1</ele>
        <time>2020-08-27T14:49:48Z</time>
      </trkpt>
      <trkpt lat="46.76056" lon="6.36654">
        <ele>1139.8</ele>
        <time>2020-08-27T14:49:49Z</time>
      </trkpt>
      <trkpt lat="46.7606" lon="6.36656">
        <ele>1139.6</ele>
        <time>2020-08-27T14:49:50Z</time>
      </trkpt>
      <trkpt lat="46.76063" lon="6.36658">
        <ele>1139.2</ele>
        <time>2020-08-27T14:49:51Z</time>
      </trkpt>
      <trkpt lat="46.76067" lon="6.36659">
        <ele>1138.9</ele>
        <time>2020-08-27T14:49:52Z</time>
      </trkpt>
      <trkpt lat="46.76072" lon="6.3666">
        <ele>1138.6</ele>
        <time>2020-08-27T14:49:53Z</time>
      </trkpt>
      <trkpt lat="46.76075" lon="6.36661">
        <ele>1138.4</ele>
        <time>2020-08-27T14:49:54Z</time>
      </trkpt>
      <trkpt lat="46.76078" lon="6.36662">
        <ele>1138.1</ele>
        <time>2020-08-27T14:49:55Z</time>
      </trkpt>
      <trkpt lat="46.7608" lon="6.36663">
        <ele>1137.9</ele>
        <time>2020-08-27T14:49:56Z</time>
      </trkpt>
      <trkpt lat="46.76082" lon="6.36665">
        <ele>1137.6</ele>
        <time>2020-08-27T14:49:57Z</time>
      </trkpt>
      <trkpt lat="46.76085" lon="6.36666">
        <ele>1137.4</ele>
        <time>2020-08-27T14:49:58Z</time>
      </trkpt>
      <trkpt lat="46.76087" lon="6.36668">
        <ele>1137.2</ele>
        <time>2020-08-27T14:49:59Z</time>
      </trkpt>
      <trkpt lat="46.76089" lon="6.36669">
        <ele>1136.9</ele>
        <time>2020-08-27T14:50:00Z</time>
      </trkpt>
      <trkpt lat="46.76092" lon="6.36669">
        <ele>1136.6</ele>
        <time>2020-08-27T14:50:01Z</time>
      </trkpt>
      <trkpt lat="46.76094" lon="6.36669">
        <ele>1136.3</ele>
        <time>2020-08-27T14:50:02Z</time>
      </trkpt>
      <trkpt lat="46.76096" lon="6.36671">
        <ele>1136</ele>
        <time>2020-08-27T14:50:03Z</time>
      </trkpt>
      <trkpt lat="46.76098" lon="6.36674">
        <ele>1135.7</ele>
        <time>2020-08-27T14:50:04Z</time>
      </trkpt>
      <trkpt lat="46.761" lon="6.36676">
        <ele>1135.4</ele>
        <time>2020-08-27T14:50:05Z</time>
      </trkpt>
      <trkpt lat="46.76103" lon="6.36678">
        <ele>1135.1</ele>
        <time>2020-08-27T14:50:06Z</time>
      </trkpt>
      <trkpt lat="46.76106" lon="6.36677">
        <ele>1134.9</ele>
        <time>2020-08-27T14:50:07Z</time>
      </trkpt>
      <trkpt lat="46.76109" lon="6.36677">
        <ele>1134.5</ele>
        <time>2020-08-27T14:50:08Z</time>
      </trkpt>
      <trkpt lat="46.76112" lon="6.36677">
        <ele>1134.2</ele>
        <time>2020-08-27T14:50:09Z</time>
      </trkpt>
      <trkpt lat="46.76116" lon="6.36679">
        <ele>1133.9</ele>
        <time>2020-08-27T14:50:10Z</time>
      </trkpt>
      <trkpt lat="46.7612" lon="6.36682">
        <ele>1133.6</ele>
        <time>2020-08-27T14:50:11Z</time>
      </trkpt>
      <trkpt lat="46.76123" lon="6.36682">
        <ele>1133.3</ele>
        <time>2020-08-27T14:50:12Z</time>
      </trkpt>
      <trkpt lat="46.76127" lon="6.36682">
        <ele>1132.8</ele>
        <time>2020-08-27T14:50:13Z</time>
      </trkpt>
      <trkpt lat="46.76131" lon="6.36682">
        <ele>1132.4</ele>
        <time>2020-08-27T14:50:14Z</time>
      </trkpt>
      <trkpt lat="46.76136" lon="6.36683">
        <ele>1131.9</ele>
        <time>2020-08-27T14:50:15Z</time>
      </trkpt>
      <trkpt lat="46.76142" lon="6.36684">
        <ele>1131.4</ele>
        <time>2020-08-27T14:50:16Z</time>
      </trkpt>
      <trkpt lat="46.76147" lon="6.36684">
        <ele>1131</ele>
        <time>2020-08-27T14:50:17Z</time>
      </trkpt>
      <trkpt lat="46.76153" lon="6.36683">
        <ele>1130.5</ele>
        <time>2020-08-27T14:50:18Z</time>
      </trkpt>
      <trkpt lat="46.76158" lon="6.3668">
        <ele>1130</ele>
        <time>2020-08-27T14:50:19Z</time>
      </trkpt>
      <trkpt lat="46.76163" lon="6.36678">
        <ele>1129.6</ele>
        <time>2020-08-27T14:50:20Z</time>
      </trkpt>
      <trkpt lat="46.76168" lon="6.36674">
        <ele>1129.2</ele>
        <time>2020-08-27T14:50:21Z</time>
      </trkpt>
      <trkpt lat="46.76173" lon="6.36669">
        <ele>1128.7</ele>
        <time>2020-08-27T14:50:22Z</time>
      </trkpt>
      <trkpt lat="46.76178" lon="6.36664">
        <ele>1128.2</ele>
        <time>2020-08-27T14:50:23Z</time>
      </trkpt>
      <trkpt lat="46.76184" lon="6.36659">
        <ele>1127.7</ele>
        <time>2020-08-27T14:50:24Z</time>
      </trkpt>
      <trkpt lat="46.76189" lon="6.36653">
        <ele>1127.1</ele>
        <time>2020-08-27T14:50:25Z</time>
      </trkpt>
      <trkpt lat="46.76193" lon="6.36649">
        <ele>1126.5</ele>
        <time>2020-08-27T14:50:26Z</time>
      </trkpt>
      <trkpt lat="46.76198" lon="6.36646">
        <ele>1125.9</ele>
        <time>2020-08-27T14:50:27Z</time>
      </trkpt>
      <trkpt lat="46.76202" lon="6.36645">
        <ele>1125.4</ele>
        <time>2020-08-27T14:50:28Z</time>
      </trkpt>
      <trkpt lat="46.76207" lon="6.36645">
        <ele>1124.8</ele>
        <time>2020-08-27T14:50:29Z</time>
      </trkpt>
      <trkpt lat="46.76213" lon="6.36646">
        <ele>1124.3</ele>
        <time>2020-08-27T14:50:30Z</time>
      </trkpt>
      <trkpt lat="46.7622" lon="6.36647">
        <ele>1123.8</ele>
        <time>2020-08-27T14:50:31Z</time>
      </trkpt>
      <trkpt lat="46.76226" lon="6.36648">
        <ele>1123.2</ele>
        <time>2020-08-27T14:50:32Z</time>
      </trkpt>
      <trkpt lat="46.76233" lon="6.36647">
        <ele>1122.7</ele>
        <time>2020-08-27T14:50:33Z</time>
      </trkpt>
      <trkpt lat="46.76238" lon="6.36644">
        <ele>1122.2</ele>
        <time>2020-08-27T14:50:34Z</time>
      </trkpt>
      <trkpt lat="46.76244" lon="6.36639">
        <ele>1121.7</ele>
        <time>2020-08-27T14:50:35Z</time>
      </trkpt>
      <trkpt lat="46.76251" lon="6.36634">
        <ele>1121.1</ele>
        <time>2020-08-27T14:50:36Z</time>
      </trkpt>
      <trkpt lat="46.76257" lon="6.36628">
        <ele>1120.5</ele>
        <time>2020-08-27T14:50:37Z</time>
      </trkpt>
      <trkpt lat="46.76262" lon="6.3662">
        <ele>1120</ele>
        <time>2020-08-27T14:50:38Z</time>
      </trkpt>
      <trkpt lat="46.76266" lon="6.36611">
        <ele>1119.4</ele>
        <time>2020-08-27T14:50:39Z</time>
      </trkpt>
      <trkpt lat="46.76268" lon="6.36603">
        <ele>1118.9</ele>
        <time>2020-08-27T14:50:40Z</time>
      </trkpt>
      <trkpt lat="46.76271" lon="6.36596">
        <ele>1118.3</ele>
        <time>2020-08-27T14:50:41Z</time>
      </trkpt>
      <trkpt lat="46.76275" lon="6.36591">
        <ele>1117.7</ele>
        <time>2020-08-27T14:50:42Z</time>
      </trkpt>
      <trkpt lat="46.76279" lon="6.36585">
        <ele>1117.2</ele>
        <time>2020-08-27T14:50:43Z</time>
      </trkpt>
      <trkpt lat="46.76283" lon="6.36578">
        <ele>1116.7</ele>
        <time>2020-08-27T14:50:44Z</time>
      </trkpt>
      <trkpt lat="46.76288" lon="6.3657">
        <ele>1116.1</ele>
        <time>2020-08-27T14:50:45Z</time>
      </trkpt>
      <trkpt lat="46.76293" lon="6.36563">
        <ele>1115.5</ele>
        <time>2020-08-27T14:50:46Z</time>
      </trkpt>
      <trkpt lat="46.76297" lon="6.36557">
        <ele>1114.9</ele>
        <time>2020-08-27T14:50:47Z</time>
      </trkpt>
      <trkpt lat="46.76301" lon="6.36551">
        <ele>1114.3</ele>
        <time>2020-08-27T14:50:48Z</time>
      </trkpt>
      <trkpt lat="46.76305" lon="6.36545">
        <ele>1113.8</ele>
        <time>2020-08-27T14:50:49Z</time>
      </trkpt>
      <trkpt lat="46.76308" lon="6.36538">
        <ele>1113.3</ele>
        <time>2020-08-27T14:50:50Z</time>
      </trkpt>
      <trkpt lat="46.76312" lon="6.3653">
        <ele>1112.7</ele>
        <time>2020-08-27T14:50:51Z</time>
      </trkpt>
      <trkpt lat="46.76315" lon="6.36522">
        <ele>1112.2</ele>
        <time>2020-08-27T14:50:52Z</time>
      </trkpt>
      <trkpt lat="46.76318" lon="6.36514">
        <ele>1111.6</ele>
        <time>2020-08-27T14:50:53Z</time>
      </trkpt>
      <trkpt lat="46.76322" lon="6.36506">
        <ele>1111.1</ele>
        <time>2020-08-27T14:50:54Z</time>
      </trkpt>
      <trkpt lat="46.76328" lon="6.36498">
        <ele>1110.4</ele>
        <time>2020-08-27T14:50:55Z</time>
      </trkpt>
      <trkpt lat="46.76333" lon="6.36491">
        <ele>1109.7</ele>
        <time>2020-08-27T14:50:56Z</time>
      </trkpt>
      <trkpt lat="46.76338" lon="6.36483">
        <ele>1109.1</ele>
        <time>2020-08-27T14:50:57Z</time>
      </trkpt>
      <trkpt lat="46.76343" lon="6.36475">
        <ele>1108.5</ele>
        <time>2020-08-27T14:50:58Z</time>
      </trkpt>
      <trkpt lat="46.76347" lon="6.36467">
        <ele>1108</ele>
        <time>2020-08-27T14:50:59Z</time>
      </trkpt>
      <trkpt lat="46.76352" lon="6.36461">
        <ele>1107.4</ele>
        <time>2020-08-27T14:51:00Z</time>
      </trkpt>
      <trkpt lat="46.76357" lon="6.36458">
        <ele>1106.8</ele>
        <time>2020-08-27T14:51:01Z</time>
      </trkpt>
      <trkpt lat="46.76362" lon="6.36454">
        <ele>1106.3</ele>
        <time>2020-08-27T14:51:02Z</time>
      </trkpt>
      <trkpt lat="46.76367" lon="6.3645">
        <ele>1105.7</ele>
        <time>2020-08-27T14:51:03Z</time>
      </trkpt>
      <trkpt lat="46.76371" lon="6.36446">
        <ele>1105.1</ele>
        <time>2020-08-27T14:51:04Z</time>
      </trkpt>
      <trkpt lat="46.76375" lon="6.36443">
        <ele>1104.6</ele>
        <time>2020-08-27T14:51:05Z</time>
      </trkpt>
      <trkpt lat="46.76378" lon="6.36439">
        <ele>1104.1</ele>
        <time>2020-08-27T14:51:06Z</time>
      </trkpt>
      <trkpt lat="46.7638" lon="6.36437">
        <ele>1103.7</ele>
        <time>2020-08-27T14:51:07Z</time>
      </trkpt>
      <trkpt lat="46.76381" lon="6.36436">
        <ele>1103.2</ele>
        <time>2020-08-27T14:51:08Z</time>
      </trkpt>
      <trkpt lat="46.76381" lon="6.36435">
        <ele>1102.8</ele>
        <time>2020-08-27T14:51:09Z</time>
      </trkpt>
      <trkpt lat="46.76381" lon="6.36434">
        <ele>1102.3</ele>
        <time>2020-08-27T14:51:10Z</time>
      </trkpt>
      <trkpt lat="46.76382" lon="6.36433">
        <ele>1101.8</ele>
        <time>2020-08-27T14:51:11Z</time>
      </trkpt>
      <trkpt lat="46.76382" lon="6.36433">
        <ele>1101.4</ele>
        <time>2020-08-27T14:51:12Z</time>
      </trkpt>
      <trkpt lat="46.76382" lon="6.36432">
        <ele>1100.9</ele>
        <time>2020-08-27T14:51:13Z</time>
      </trkpt>
      <trkpt lat="46.76382" lon="6.36432">
        <ele>1100.5</ele>
        <time>2020-08-27T14:51:14Z</time>
      </trkpt>
      <trkpt lat="46.76382" lon="6.36432">
        <ele>1100.2</ele>
        <time>2020-08-27T14:51:15Z</time>
      </trkpt>
      <trkpt lat="46.76382" lon="6.36432">
        <ele>1099.8</ele>
        <time>2020-08-27T14:51:16Z</time>
      </trkpt>
      <trkpt lat="46.76382" lon="6.36432">
        <ele>1099.5</ele>
        <time>2020-08-27T14:51:17Z</time>
      </trkpt>
      <trkpt lat="46.76382" lon="6.36432">
        <ele>1099.2</ele>
        <time>2020-08-27T14:51:18Z</time>
      </trkpt>
      <trkpt lat="46.76382" lon="6.36432">
        <ele>1098.9</ele>
        <time>2020-08-27T14:51:19Z</time>
      </trkpt>
      <trkpt lat="46.76382" lon="6.36432">
        <ele>1098.6</ele>
        <time>2020-08-27T14:51:20Z</time>
      </trkpt>
      <trkpt lat="46.76381" lon="6.36431">
        <ele>1098.4</ele>
        <time>2020-08-27T14:51:21Z</time>
      </trkpt>
      <trkpt lat="46.76381" lon="6.36431">
        <ele>1098.2</ele>
        <time>2020-08-27T14:51:22Z</time>
      </trkpt>
      <trkpt lat="46.7638" lon="6.3643">
        <ele>1097.9</ele>
        <time>2020-08-27T14:51:23Z</time>
      </trkpt>
      <trkpt lat="46.7638" lon="6.3643">
        <ele>1097.7</ele>
        <time>2020-08-27T14:51:24Z</time>
      </trkpt>
      <trkpt lat="46.7638" lon="6.3643">
        <ele>1097.5</ele>
        <time>2020-08-27T14:51:25Z</time>
      </trkpt>
      <trkpt lat="46.7638" lon="6.3643">
        <ele>1097.4</ele>
        <time>2020-08-27T14:51:26Z</time>
      </trkpt>
      <trkpt lat="46.7638" lon="6.3643">
        <ele>1097.2</ele>
        <time>2020-08-27T14:51:27Z</time>
      </trkpt>
      <trkpt lat="46.7638" lon="6.3643">
        <ele>1097</ele>
        <time>2020-08-27T14:51:28Z</time>
      </trkpt>
      <trkpt lat="46.7638" lon="6.3643">
        <ele>1096.9</ele>
        <time>2020-08-27T14:51:29Z</time>
      </trkpt>
      <trkpt lat="46.7638" lon="6.36431">
        <ele>1096.7</ele>
        <time>2020-08-27T14:51:30Z</time>
      </trkpt>
      <trkpt lat="46.7638" lon="6.3643">
        <ele>1096.6</ele>
        <time>2020-08-27T14:51:31Z</time>
      </trkpt>
      <trkpt lat="46.7638" lon="6.3643">
        <ele>1096.5</ele>
        <time>2020-08-27T14:51:32Z</time>
      </trkpt>
      <trkpt lat="46.7638" lon="6.3643">
        <ele>1096.4</ele>
        <time>2020-08-27T14:51:33Z</time>
      </trkpt>
      <trkpt lat="46.7638" lon="6.3643">
        <ele>1096.3</ele>
        <time>2020-08-27T14:51:34Z</time>
      </trkpt>
      <trkpt lat="46.7638" lon="6.3643">
        <ele>1096.2</ele>
        <time>2020-08-27T14:51:35Z</time>
      </trkpt>
      <trkpt lat="46.7638" lon="6.3643">
        <ele>1096.1</ele>
        <time>2020-08-27T14:51:36Z</time>
      </trkpt>
      <trkpt lat="46.7638" lon="6.3643">
        <ele>1096</ele>
        <time>2020-08-27T14:51:37Z</time>
      </trkpt>
      <trkpt lat="46.7638" lon="6.3643">
        <ele>1095.9</ele>
        <time>2020-08-27T14:51:38Z</time>
      </trkpt>
      <trkpt lat="46.7638" lon="6.36431">
        <ele>1095.8</ele>
        <time>2020-08-27T14:51:39Z</time>
      </trkpt>
      <trkpt lat="46.7638" lon="6.36431">
        <ele>1095.7</ele>
        <time>2020-08-27T14:51:40Z</time>
      </trkpt>
      <trkpt lat="46.7638" lon="6.36431">
        <ele>1095.7</ele>
        <time>2020-08-27T14:51:41Z</time>
      </trkpt>
      <trkpt lat="46.7638" lon="6.36431">
        <ele>1095.7</ele>
        <time>2020-08-27T14:51:42Z</time>
      </trkpt>
      <trkpt lat="46.7638" lon="6.36431">
        <ele>1095.6</ele>
        <time>2020-08-27T14:51:43Z</time>
      </trkpt>
      <trkpt lat="46.7638" lon="6.36431">
        <ele>1095.6</ele>
        <time>2020-08-27T14:51:44Z</time>
      </trkpt>
      <trkpt lat="46.7638" lon="6.36431">
        <ele>1095.6</ele>
        <time>2020-08-27T14:51:45Z</time>
      </trkpt>
      <trkpt lat="46.7638" lon="6.36431">
        <ele>1095.6</ele>
        <time>2020-08-27T14:51:46Z</time>
      </trkpt>
      <trkpt lat="46.76381" lon="6.36431">
        <ele>1095.5</ele>
        <time>2020-08-27T14:51:47Z</time>
      </trkpt>
      <trkpt lat="46.76381" lon="6.36431">
        <ele>1095.5</ele>
        <time>2020-08-27T14:51:48Z</time>
      </trkpt>
      <trkpt lat="46.76381" lon="6.36431">
        <ele>1095.4</ele>
        <time>2020-08-27T14:51:49Z</time>
      </trkpt>
      <trkpt lat="46.76381" lon="6.36431">
        <ele>1095.4</ele>
        <time>2020-08-27T14:51:50Z</time>
      </trkpt>
      <trkpt lat="46.76381" lon="6.36431">
        <ele>1095.3</ele>
        <time>2020-08-27T14:51:51Z</time>
      </trkpt>
      <trkpt lat="46.76381" lon="6.36431">
        <ele>1095.3</ele>
        <time>2020-08-27T14:51:52Z</time>
      </trkpt>
      <trkpt lat="46.76381" lon="6.36431">
        <ele>1095.2</ele>
        <time>2020-08-27T14:51:53Z</time>
      </trkpt>
      <trkpt lat="46.76381" lon="6.36431">
        <ele>1095.2</ele>
        <time>2020-08-27T14:51:54Z</time>
      </trkpt>
      <trkpt lat="46.7638" lon="6.36432">
        <ele>1095.2</ele>
        <time>2020-08-27T14:51:55Z</time>
      </trkpt>
      <trkpt lat="46.76379" lon="6.36433">
        <ele>1095.1</ele>
        <time>2020-08-27T14:51:56Z</time>
      </trkpt>
      <trkpt lat="46.76379" lon="6.36434">
        <ele>1095.1</ele>
        <time>2020-08-27T14:51:57Z</time>
      </trkpt>
      <trkpt lat="46.76378" lon="6.36434">
        <ele>1095.1</ele>
        <time>2020-08-27T14:51:58Z</time>
      </trkpt>
      <trkpt lat="46.76377" lon="6.36435">
        <ele>1095</ele>
        <time>2020-08-27T14:51:59Z</time>
      </trkpt>
      <trkpt lat="46.76376" lon="6.36435">
        <ele>1095</ele>
        <time>2020-08-27T14:52:00Z</time>
      </trkpt>
      <trkpt lat="46.76375" lon="6.36436">
        <ele>1095</ele>
        <time>2020-08-27T14:52:01Z</time>
      </trkpt>
      <trkpt lat="46.76374" lon="6.36437">
        <ele>1095</ele>
        <time>2020-08-27T14:52:02Z</time>
      </trkpt>
      <trkpt lat="46.76373" lon="6.36437">
        <ele>1095</ele>
        <time>2020-08-27T14:52:03Z</time>
      </trkpt>
      <trkpt lat="46.76372" lon="6.36438">
        <ele>1094.9</ele>
        <time>2020-08-27T14:52:04Z</time>
      </trkpt>
      <trkpt lat="46.76371" lon="6.36438">
        <ele>1094.9</ele>
        <time>2020-08-27T14:52:05Z</time>
      </trkpt>
      <trkpt lat="46.7637" lon="6.36438">
        <ele>1094.9</ele>
        <time>2020-08-27T14:52:06Z</time>
      </trkpt>
      <trkpt lat="46.7637" lon="6.36438">
        <ele>1095</ele>
        <time>2020-08-27T14:52:07Z</time>
      </trkpt>
      <trkpt lat="46.76369" lon="6.36438">
        <ele>1095.1</ele>
        <time>2020-08-27T14:52:08Z</time>
      </trkpt>
      <trkpt lat="46.76369" lon="6.36439">
        <ele>1095.1</ele>
        <time>2020-08-27T14:52:09Z</time>
      </trkpt>
      <trkpt lat="46.76369" lon="6.36439">
        <ele>1095.1</ele>
        <time>2020-08-27T14:52:10Z</time>
      </trkpt>
      <trkpt lat="46.76369" lon="6.36439">
        <ele>1095.2</ele>
        <time>2020-08-27T14:52:11Z</time>
      </trkpt>
      <trkpt lat="46.76369" lon="6.36439">
        <ele>1095.2</ele>
        <time>2020-08-27T14:52:12Z</time>
      </trkpt>
      <trkpt lat="46.76369" lon="6.36439">
        <ele>1095.3</ele>
        <time>2020-08-27T14:52:13Z</time>
      </trkpt>
      <trkpt lat="46.76369" lon="6.3644">
        <ele>1095.4</ele>
        <time>2020-08-27T14:52:14Z</time>
      </trkpt>
      <trkpt lat="46.76369" lon="6.3644">
        <ele>1095.4</ele>
        <time>2020-08-27T14:52:15Z</time>
      </trkpt>
      <trkpt lat="46.76369" lon="6.3644">
        <ele>1095.4</ele>
        <time>2020-08-27T14:52:16Z</time>
      </trkpt>
      <trkpt lat="46.76369" lon="6.3644">
        <ele>1095.4</ele>
        <time>2020-08-27T14:52:17Z</time>
      </trkpt>
      <trkpt lat="46.76369" lon="6.3644">
        <ele>1095.5</ele>
        <time>2020-08-27T14:52:18Z</time>
      </trkpt>
      <trkpt lat="46.76369" lon="6.3644">
        <ele>1095.5</ele>
        <time>2020-08-27T14:52:19Z</time>
      </trkpt>
      <trkpt lat="46.76369" lon="6.3644">
        <ele>1095.5</ele>
        <time>2020-08-27T14:52:20Z</time>
      </trkpt>
      <trkpt lat="46.76369" lon="6.36441">
        <ele>1095.5</ele>
        <time>2020-08-27T14:52:21Z</time>
      </trkpt>
      <trkpt lat="46.76369" lon="6.36441">
        <ele>1095.6</ele>
        <time>2020-08-27T14:52:22Z</time>
      </trkpt>
      <trkpt lat="46.76369" lon="6.36441">
        <ele>1095.6</ele>
        <time>2020-08-27T14:52:23Z</time>
      </trkpt>
      <trkpt lat="46.76369" lon="6.36441">
        <ele>1095.6</ele>
        <time>2020-08-27T14:52:24Z</time>
      </trkpt>
      <trkpt lat="46.76369" lon="6.36441">
        <ele>1095.6</ele>
        <time>2020-08-27T14:52:25Z</time>
      </trkpt>
      <trkpt lat="46.76369" lon="6.36441">
        <ele>1095.6</ele>
        <time>2020-08-27T14:52:26Z</time>
      </trkpt>
      <trkpt lat="46.76369" lon="6.36441">
        <ele>1095.6</ele>
        <time>2020-08-27T14:52:27Z</time>
      </trkpt>
      <trkpt lat="46.76369" lon="6.36441">
        <ele>1095.6</ele>
        <time>2020-08-27T14:52:28Z</time>
      </trkpt>
      <trkpt lat="46.76369" lon="6.36441">
        <ele>1095.7</ele>
        <time>2020-08-27T14:52:29Z</time>
      </trkpt>
      <trkpt lat="46.76369" lon="6.36441">
        <ele>1095.7</ele>
        <time>2020-08-27T14:52:30Z</time>
      </trkpt>
      <trkpt lat="46.76369" lon="6.36442">
        <ele>1095.7</ele>
        <time>2020-08-27T14:52:31Z</time>
      </trkpt>
      <trkpt lat="46.76368" lon="6.36442">
        <ele>1095.7</ele>
        <time>2020-08-27T14:52:32Z</time>
      </trkpt>
      <trkpt lat="46.76368" lon="6.36442">
        <ele>1095.7</ele>
        <time>2020-08-27T14:52:33Z</time>
      </trkpt>
      <trkpt lat="46.76368" lon="6.36442">
        <ele>1095.7</ele>
        <time>2020-08-27T14:52:34Z</time>
      </trkpt>
      <trkpt lat="46.76368" lon="6.36442">
        <ele>1095.7</ele>
        <time>2020-08-27T14:52:35Z</time>
      </trkpt>
      <trkpt lat="46.76368" lon="6.36442">
        <ele>1095.7</ele>
        <time>2020-08-27T14:52:36Z</time>
      </trkpt>
      <trkpt lat="46.76368" lon="6.36442">
        <ele>1095.7</ele>
        <time>2020-08-27T14:52:37Z</time>
      </trkpt>
      <trkpt lat="46.76367" lon="6.36443">
        <ele>1095.7</ele>
        <time>2020-08-27T14:52:38Z</time>
      </trkpt>
      <trkpt lat="46.76367" lon="6.36443">
        <ele>1095.7</ele>
        <time>2020-08-27T14:52:39Z</time>
      </trkpt>
      <trkpt lat="46.76367" lon="6.36443">
        <ele>1095.7</ele>
        <time>2020-08-27T14:52:40Z</time>
      </trkpt>
      <trkpt lat="46.76368" lon="6.36443">
        <ele>1095.7</ele>
        <time>2020-08-27T14:52:41Z</time>
      </trkpt>
      <trkpt lat="46.76368" lon="6.36443">
        <ele>1095.6</ele>
        <time>2020-08-27T14:52:42Z</time>
      </trkpt>
      <trkpt lat="46.76368" lon="6.36443">
        <ele>1095.6</ele>
        <time>2020-08-27T14:52:43Z</time>
      </trkpt>
      <trkpt lat="46.76368" lon="6.36443">
        <ele>1095.6</ele>
        <time>2020-08-27T14:52:44Z</time>
      </trkpt>
      <trkpt lat="46.76368" lon="6.36443">
        <ele>1095.6</ele>
        <time>2020-08-27T14:52:45Z</time>
      </trkpt>
      <trkpt lat="46.76368" lon="6.36442">
        <ele>1095.6</ele>
        <time>2020-08-27T14:52:46Z</time>
      </trkpt>
      <trkpt lat="46.76368" lon="6.36442">
        <ele>1095.6</ele>
        <time>2020-08-27T14:52:47Z</time>
      </trkpt>
      <trkpt lat="46.76369" lon="6.36442">
        <ele>1095.6</ele>
        <time>2020-08-27T14:52:48Z</time>
      </trkpt>
      <trkpt lat="46.7637" lon="6.36441">
        <ele>1095.6</ele>
        <time>2020-08-27T14:52:49Z</time>
      </trkpt>
      <trkpt lat="46.76371" lon="6.3644">
        <ele>1095.6</ele>
        <time>2020-08-27T14:52:50Z</time>
      </trkpt>
      <trkpt lat="46.76372" lon="6.3644">
        <ele>1095.6</ele>
        <time>2020-08-27T14:52:51Z</time>
      </trkpt>
      <trkpt lat="46.76372" lon="6.36439">
        <ele>1095.6</ele>
        <time>2020-08-27T14:52:52Z</time>
      </trkpt>
      <trkpt lat="46.76373" lon="6.36439">
        <ele>1095.6</ele>
        <time>2020-08-27T14:52:53Z</time>
      </trkpt>
      <trkpt lat="46.76375" lon="6.36438">
        <ele>1095.5</ele>
        <time>2020-08-27T14:52:54Z</time>
      </trkpt>
      <trkpt lat="46.76376" lon="6.36437">
        <ele>1095.4</ele>
        <time>2020-08-27T14:52:55Z</time>
      </trkpt>
      <trkpt lat="46.76377" lon="6.36436">
        <ele>1095.4</ele>
        <time>2020-08-27T14:52:56Z</time>
      </trkpt>
      <trkpt lat="46.76377" lon="6.36436">
        <ele>1095.3</ele>
        <time>2020-08-27T14:52:57Z</time>
      </trkpt>
      <trkpt lat="46.76378" lon="6.36435">
        <ele>1095.3</ele>
        <time>2020-08-27T14:52:58Z</time>
      </trkpt>
      <trkpt lat="46.76378" lon="6.36435">
        <ele>1095.2</ele>
        <time>2020-08-27T14:52:59Z</time>
      </trkpt>
      <trkpt lat="46.76378" lon="6.36434">
        <ele>1095.2</ele>
        <time>2020-08-27T14:53:00Z</time>
      </trkpt>
      <trkpt lat="46.76378" lon="6.36434">
        <ele>1095.2</ele>
        <time>2020-08-27T14:53:01Z</time>
      </trkpt>
      <trkpt lat="46.76378" lon="6.36434">
        <ele>1095.1</ele>
        <time>2020-08-27T14:53:02Z</time>
      </trkpt>
      <trkpt lat="46.76378" lon="6.36433">
        <ele>1095.1</ele>
        <time>2020-08-27T14:53:03Z</time>
      </trkpt>
      <trkpt lat="46.76378" lon="6.36433">
        <ele>1095.1</ele>
        <time>2020-08-27T14:53:04Z</time>
      </trkpt>
      <trkpt lat="46.76378" lon="6.36433">
        <ele>1095.1</ele>
        <time>2020-08-27T14:53:05Z</time>
      </trkpt>
      <trkpt lat="46.76379" lon="6.36433">
        <ele>1095</ele>
        <time>2020-08-27T14:53:06Z</time>
      </trkpt>
      <trkpt lat="46.76379" lon="6.36433">
        <ele>1095</ele>
        <time>2020-08-27T14:53:07Z</time>
      </trkpt>
      <trkpt lat="46.76379" lon="6.36432">
        <ele>1095</ele>
        <time>2020-08-27T14:53:08Z</time>
      </trkpt>
      <trkpt lat="46.76379" lon="6.36432">
        <ele>1095</ele>
        <time>2020-08-27T14:53:09Z</time>
      </trkpt>
      <trkpt lat="46.76379" lon="6.36432">
        <ele>1095</ele>
        <time>2020-08-27T14:53:10Z</time>
      </trkpt>
      <trkpt lat="46.76379" lon="6.36432">
        <ele>1094.9</ele>
        <time>2020-08-27T14:53:11Z</time>
      </trkpt>
      <trkpt lat="46.76379" lon="6.36432">
        <ele>1094.9</ele>
        <time>2020-08-27T14:53:12Z</time>
      </trkpt>
      <trkpt lat="46.76379" lon="6.36432">
        <ele>1094.9</ele>
        <time>2020-08-27T14:53:13Z</time>
      </trkpt>
      <trkpt lat="46.76379" lon="6.36432">
        <ele>1094.9</ele>
        <time>2020-08-27T14:53:14Z</time>
      </trkpt>
      <trkpt lat="46.76379" lon="6.36432">
        <ele>1094.9</ele>
        <time>2020-08-27T14:53:15Z</time>
      </trkpt>
      <trkpt lat="46.76378" lon="6.36432">
        <ele>1094.9</ele>
        <time>2020-08-27T14:53:16Z</time>
      </trkpt>
      <trkpt lat="46.76378" lon="6.36432">
        <ele>1094.9</ele>
        <time>2020-08-27T14:53:17Z</time>
      </trkpt>
      <trkpt lat="46.76378" lon="6.36432">
        <ele>1094.9</ele>
        <time>2020-08-27T14:53:18Z</time>
      </trkpt>
      <trkpt lat="46.76378" lon="6.36432">
        <ele>1094.9</ele>
        <time>2020-08-27T14:53:19Z</time>
      </trkpt>
      <trkpt lat="46.76379" lon="6.36432">
        <ele>1094.9</ele>
        <time>2020-08-27T14:53:20Z</time>
      </trkpt>
      <trkpt lat="46.76379" lon="6.36432">
        <ele>1094.9</ele>
        <time>2020-08-27T14:53:21Z</time>
      </trkpt>
      <trkpt lat="46.76379" lon="6.36432">
        <ele>1095</ele>
        <time>2020-08-27T14:53:22Z</time>
      </trkpt>
      <trkpt lat="46.76379" lon="6.36432">
        <ele>1095</ele>
        <time>2020-08-27T14:53:23Z</time>
      </trkpt>
      <trkpt lat="46.76379" lon="6.36432">
        <ele>1095</ele>
        <time>2020-08-27T14:53:24Z</time>
      </trkpt>
      <trkpt lat="46.76379" lon="6.36432">
        <ele>1095</ele>
        <time>2020-08-27T14:53:25Z</time>
      </trkpt>
      <trkpt lat="46.76379" lon="6.36432">
        <ele>1095</ele>
        <time>2020-08-27T14:53:26Z</time>
      </trkpt>
      <trkpt lat="46.76379" lon="6.36432">
        <ele>1095</ele>
        <time>2020-08-27T14:53:27Z</time>
      </trkpt>
      <trkpt lat="46.76379" lon="6.36432">
        <ele>1095</ele>
        <time>2020-08-27T14:53:28Z</time>
      </trkpt>
      <trkpt lat="46.76379" lon="6.36432">
        <ele>1095</ele>
        <time>2020-08-27T14:53:29Z</time>
      </trkpt>
      <trkpt lat="46.76379" lon="6.36432">
        <ele>1095</ele>
        <time>2020-08-27T14:53:30Z</time>
      </trkpt>
      <trkpt lat="46.76379" lon="6.36432">
        <ele>1095.1</ele>
        <time>2020-08-27T14:53:31Z</time>
      </trkpt>
      <trkpt lat="46.76379" lon="6.36432">
        <ele>1095.1</ele>
        <time>2020-08-27T14:53:32Z</time>
      </trkpt>
      <trkpt lat="46.76379" lon="6.36432">
        <ele>1095.1</ele>
        <time>2020-08-27T14:53:33Z</time>
      </trkpt>
      <trkpt lat="46.76379" lon="6.36432">
        <ele>1095.1</ele>
        <time>2020-08-27T14:53:34Z</time>
      </trkpt>
      <trkpt lat="46.76379" lon="6.36432">
        <ele>1095.1</ele>
        <time>2020-08-27T14:53:35Z</time>
      </trkpt>
      <trkpt lat="46.76379" lon="6.36432">
        <ele>1095.1</ele>
        <time>2020-08-27T14:53:36Z</time>
      </trkpt>
      <trkpt lat="46.76379" lon="6.36432">
        <ele>1095.1</ele>
        <time>2020-08-27T14:53:37Z</time>
      </trkpt>
      <trkpt lat="46.76379" lon="6.36432">
        <ele>1095.1</ele>
        <time>2020-08-27T14:53:38Z</time>
      </trkpt>
      <trkpt lat="46.7638" lon="6.36432">
        <ele>1095.1</ele>
        <time>2020-08-27T14:53:39Z</time>
      </trkpt>
      <trkpt lat="46.76381" lon="6.36431">
        <ele>1095.1</ele>
        <time>2020-08-27T14:53:40Z</time>
      </trkpt>
      <trkpt lat="46.76383" lon="6.3643">
        <ele>1095.1</ele>
        <time>2020-08-27T14:53:41Z</time>
      </trkpt>
      <trkpt lat="46.76385" lon="6.36427">
        <ele>1095.1</ele>
        <time>2020-08-27T14:53:42Z</time>
      </trkpt>
      <trkpt lat="46.76387" lon="6.36424">
        <ele>1095.1</ele>
        <time>2020-08-27T14:53:43Z</time>
      </trkpt>
      <trkpt lat="46.76389" lon="6.36422">
        <ele>1095.1</ele>
        <time>2020-08-27T14:53:44Z</time>
      </trkpt>
      <trkpt lat="46.7639" lon="6.36419">
        <ele>1095.2</ele>
        <time>2020-08-27T14:53:45Z</time>
      </trkpt>
      <trkpt lat="46.76392" lon="6.36415">
        <ele>1095.2</ele>
        <time>2020-08-27T14:53:46Z</time>
      </trkpt>
      <trkpt lat="46.76393" lon="6.36412">
        <ele>1095.2</ele>
        <time>2020-08-27T14:53:47Z</time>
      </trkpt>
      <trkpt lat="46.76395" lon="6.36408">
        <ele>1095.2</ele>
        <time>2020-08-27T14:53:48Z</time>
      </trkpt>
      <trkpt lat="46.76396" lon="6.36404">
        <ele>1095.1</ele>
        <time>2020-08-27T14:53:49Z</time>
      </trkpt>
      <trkpt lat="46.76398" lon="6.36401">
        <ele>1095</ele>
        <time>2020-08-27T14:53:50Z</time>
      </trkpt>
      <trkpt lat="46.76401" lon="6.36401">
        <ele>1094.9</ele>
        <time>2020-08-27T14:53:51Z</time>
      </trkpt>
      <trkpt lat="46.76403" lon="6.36401">
        <ele>1094.8</ele>
        <time>2020-08-27T14:53:52Z</time>
      </trkpt>
      <trkpt lat="46.76406" lon="6.36399">
        <ele>1094.7</ele>
        <time>2020-08-27T14:53:53Z</time>
      </trkpt>
      <trkpt lat="46.76408" lon="6.36396">
        <ele>1094.6</ele>
        <time>2020-08-27T14:53:54Z</time>
      </trkpt>
      <trkpt lat="46.76409" lon="6.36392">
        <ele>1094.6</ele>
        <time>2020-08-27T14:53:55Z</time>
      </trkpt>
      <trkpt lat="46.7641" lon="6.36389">
        <ele>1094.4</ele>
        <time>2020-08-27T14:53:56Z</time>
      </trkpt>
      <trkpt lat="46.76412" lon="6.36385">
        <ele>1094.3</ele>
        <time>2020-08-27T14:53:57Z</time>
      </trkpt>
      <trkpt lat="46.76413" lon="6.3638">
        <ele>1094.1</ele>
        <time>2020-08-27T14:53:58Z</time>
      </trkpt>
      <trkpt lat="46.76413" lon="6.36377">
        <ele>1094</ele>
        <time>2020-08-27T14:53:59Z</time>
      </trkpt>
      <trkpt lat="46.76414" lon="6.36375">
        <ele>1093.9</ele>
        <time>2020-08-27T14:54:00Z</time>
      </trkpt>
      <trkpt lat="46.76415" lon="6.36373">
        <ele>1093.5</ele>
        <time>2020-08-27T14:54:01Z</time>
      </trkpt>
      <trkpt lat="46.76415" lon="6.3637">
        <ele>1093.2</ele>
        <time>2020-08-27T14:54:02Z</time>
      </trkpt>
      <trkpt lat="46.76416" lon="6.36368">
        <ele>1093</ele>
        <time>2020-08-27T14:54:03Z</time>
      </trkpt>
      <trkpt lat="46.76418" lon="6.36367">
        <ele>1092.7</ele>
        <time>2020-08-27T14:54:04Z</time>
      </trkpt>
      <trkpt lat="46.76418" lon="6.36367">
        <ele>1092.4</ele>
        <time>2020-08-27T14:54:05Z</time>
      </trkpt>
      <trkpt lat="46.76419" lon="6.36369">
        <ele>1092.1</ele>
        <time>2020-08-27T14:54:06Z</time>
      </trkpt>
      <trkpt lat="46.7642" lon="6.36372">
        <ele>1091.9</ele>
        <time>2020-08-27T14:54:07Z</time>
      </trkpt>
      <trkpt lat="46.76421" lon="6.36373">
        <ele>1091.7</ele>
        <time>2020-08-27T14:54:08Z</time>
      </trkpt>
      <trkpt lat="46.76423" lon="6.36373">
        <ele>1091.4</ele>
        <time>2020-08-27T14:54:09Z</time>
      </trkpt>
      <trkpt lat="46.76425" lon="6.3637">
        <ele>1091.2</ele>
        <time>2020-08-27T14:54:10Z</time>
      </trkpt>
      <trkpt lat="46.76427" lon="6.36366">
        <ele>1091</ele>
        <time>2020-08-27T14:54:11Z</time>
      </trkpt>
      <trkpt lat="46.76429" lon="6.36361">
        <ele>1090.8</ele>
        <time>2020-08-27T14:54:12Z</time>
      </trkpt>
      <trkpt lat="46.76429" lon="6.36356">
        <ele>1090.7</ele>
        <time>2020-08-27T14:54:13Z</time>
      </trkpt>
      <trkpt lat="46.7643" lon="6.36352">
        <ele>1090.5</ele>
        <time>2020-08-27T14:54:14Z</time>
      </trkpt>
      <trkpt lat="46.76431" lon="6.36349">
        <ele>1090.2</ele>
        <time>2020-08-27T14:54:15Z</time>
      </trkpt>
      <trkpt lat="46.76431" lon="6.36348">
        <ele>1090</ele>
        <time>2020-08-27T14:54:16Z</time>
      </trkpt>
      <trkpt lat="46.76432" lon="6.36347">
        <ele>1089.7</ele>
        <time>2020-08-27T14:54:17Z</time>
      </trkpt>
      <trkpt lat="46.76432" lon="6.36346">
        <ele>1089.5</ele>
        <time>2020-08-27T14:54:18Z</time>
      </trkpt>
      <trkpt lat="46.76432" lon="6.36346">
        <ele>1089.3</ele>
        <time>2020-08-27T14:54:19Z</time>
      </trkpt>
      <trkpt lat="46.76433" lon="6.36345">
        <ele>1089.1</ele>
        <time>2020-08-27T14:54:20Z</time>
      </trkpt>
      <trkpt lat="46.76433" lon="6.36344">
        <ele>1088.8</ele>
        <time>2020-08-27T14:54:21Z</time>
      </trkpt>
      <trkpt lat="46.76433" lon="6.36343">
        <ele>1088.6</ele>
        <time>2020-08-27T14:54:22Z</time>
      </trkpt>
      <trkpt lat="46.76433" lon="6.36342">
        <ele>1088.4</ele>
        <time>2020-08-27T14:54:23Z</time>
      </trkpt>
      <trkpt lat="46.76434" lon="6.36342">
        <ele>1088.2</ele>
        <time>2020-08-27T14:54:24Z</time>
      </trkpt>
      <trkpt lat="46.76434" lon="6.3634">
        <ele>1088</ele>
        <time>2020-08-27T14:54:25Z</time>
      </trkpt>
      <trkpt lat="46.76435" lon="6.36337">
        <ele>1087.8</ele>
        <time>2020-08-27T14:54:26Z</time>
      </trkpt>
      <trkpt lat="46.76436" lon="6.36332">
        <ele>1087.7</ele>
        <time>2020-08-27T14:54:27Z</time>
      </trkpt>
      <trkpt lat="46.76436" lon="6.36327">
        <ele>1087.5</ele>
        <time>2020-08-27T14:54:28Z</time>
      </trkpt>
      <trkpt lat="46.76436" lon="6.36322">
        <ele>1087.4</ele>
        <time>2020-08-27T14:54:29Z</time>
      </trkpt>
      <trkpt lat="46.76437" lon="6.36317">
        <ele>1087.2</ele>
        <time>2020-08-27T14:54:30Z</time>
      </trkpt>
      <trkpt lat="46.76437" lon="6.36311">
        <ele>1087.1</ele>
        <time>2020-08-27T14:54:31Z</time>
      </trkpt>
      <trkpt lat="46.76438" lon="6.36307">
        <ele>1087</ele>
        <time>2020-08-27T14:54:32Z</time>
      </trkpt>
      <trkpt lat="46.7644" lon="6.36303">
        <ele>1086.9</ele>
        <time>2020-08-27T14:54:33Z</time>
      </trkpt>
      <trkpt lat="46.76444" lon="6.36301">
        <ele>1086.7</ele>
        <time>2020-08-27T14:54:34Z</time>
      </trkpt>
      <trkpt lat="46.76448" lon="6.36302">
        <ele>1086.5</ele>
        <time>2020-08-27T14:54:35Z</time>
      </trkpt>
      <trkpt lat="46.76453" lon="6.36304">
        <ele>1086.3</ele>
        <time>2020-08-27T14:54:36Z</time>
      </trkpt>
      <trkpt lat="46.76456" lon="6.36307">
        <ele>1086.1</ele>
        <time>2020-08-27T14:54:37Z</time>
      </trkpt>
      <trkpt lat="46.76456" lon="6.3631">
        <ele>1085.8</ele>
        <time>2020-08-27T14:54:38Z</time>
      </trkpt>
      <trkpt lat="46.76457" lon="6.36312">
        <ele>1085.6</ele>
        <time>2020-08-27T14:54:39Z</time>
      </trkpt>
      <trkpt lat="46.76457" lon="6.36312">
        <ele>1085.5</ele>
        <time>2020-08-27T14:54:40Z</time>
      </trkpt>
      <trkpt lat="46.76458" lon="6.36311">
        <ele>1085.3</ele>
        <time>2020-08-27T14:54:41Z</time>
      </trkpt>
      <trkpt lat="46.7646" lon="6.36308">
        <ele>1085.1</ele>
        <time>2020-08-27T14:54:42Z</time>
      </trkpt>
      <trkpt lat="46.76462" lon="6.36305">
        <ele>1084.9</ele>
        <time>2020-08-27T14:54:43Z</time>
      </trkpt>
      <trkpt lat="46.76463" lon="6.36302">
        <ele>1084.7</ele>
        <time>2020-08-27T14:54:44Z</time>
      </trkpt>
      <trkpt lat="46.76465" lon="6.36299">
        <ele>1084.5</ele>
        <time>2020-08-27T14:54:45Z</time>
      </trkpt>
      <trkpt lat="46.76466" lon="6.36297">
        <ele>1084.2</ele>
        <time>2020-08-27T14:54:46Z</time>
      </trkpt>
      <trkpt lat="46.76468" lon="6.36295">
        <ele>1084</ele>
        <time>2020-08-27T14:54:47Z</time>
      </trkpt>
      <trkpt lat="46.7647" lon="6.36294">
        <ele>1083.7</ele>
        <time>2020-08-27T14:54:48Z</time>
      </trkpt>
      <trkpt lat="46.76471" lon="6.36293">
        <ele>1083.5</ele>
        <time>2020-08-27T14:54:49Z</time>
      </trkpt>
      <trkpt lat="46.76473" lon="6.36293">
        <ele>1083.1</ele>
        <time>2020-08-27T14:54:50Z</time>
      </trkpt>
      <trkpt lat="46.76476" lon="6.36292">
        <ele>1082.8</ele>
        <time>2020-08-27T14:54:51Z</time>
      </trkpt>
      <trkpt lat="46.76479" lon="6.36291">
        <ele>1082.5</ele>
        <time>2020-08-27T14:54:52Z</time>
      </trkpt>
      <trkpt lat="46.76481" lon="6.36289">
        <ele>1082.3</ele>
        <time>2020-08-27T14:54:53Z</time>
      </trkpt>
      <trkpt lat="46.76483" lon="6.36286">
        <ele>1082</ele>
        <time>2020-08-27T14:54:54Z</time>
      </trkpt>
      <trkpt lat="46.76483" lon="6.36283">
        <ele>1081.7</ele>
        <time>2020-08-27T14:54:55Z</time>
      </trkpt>
      <trkpt lat="46.76484" lon="6.3628">
        <ele>1081.4</ele>
        <time>2020-08-27T14:54:56Z</time>
      </trkpt>
      <trkpt lat="46.76486" lon="6.36278">
        <ele>1081.1</ele>
        <time>2020-08-27T14:54:57Z</time>
      </trkpt>
      <trkpt lat="46.76489" lon="6.36276">
        <ele>1080.7</ele>
        <time>2020-08-27T14:54:58Z</time>
      </trkpt>
      <trkpt lat="46.76491" lon="6.36276">
        <ele>1080.4</ele>
        <time>2020-08-27T14:54:59Z</time>
      </trkpt>
      <trkpt lat="46.76493" lon="6.36275">
        <ele>1080</ele>
        <time>2020-08-27T14:55:00Z</time>
      </trkpt>
      <trkpt lat="46.76494" lon="6.36272">
        <ele>1079.7</ele>
        <time>2020-08-27T14:55:01Z</time>
      </trkpt>
      <trkpt lat="46.76497" lon="6.36268">
        <ele>1079.3</ele>
        <time>2020-08-27T14:55:02Z</time>
      </trkpt>
      <trkpt lat="46.76497" lon="6.36263">
        <ele>1079</ele>
        <time>2020-08-27T14:55:03Z</time>
      </trkpt>
      <trkpt lat="46.76497" lon="6.36259">
        <ele>1078.7</ele>
        <time>2020-08-27T14:55:04Z</time>
      </trkpt>
      <trkpt lat="46.76496" lon="6.36255">
        <ele>1078.3</ele>
        <time>2020-08-27T14:55:05Z</time>
      </trkpt>
      <trkpt lat="46.76495" lon="6.36252">
        <ele>1078</ele>
        <time>2020-08-27T14:55:06Z</time>
      </trkpt>
      <trkpt lat="46.76496" lon="6.36249">
        <ele>1077.6</ele>
        <time>2020-08-27T14:55:07Z</time>
      </trkpt>
      <trkpt lat="46.76498" lon="6.36248">
        <ele>1077.3</ele>
        <time>2020-08-27T14:55:08Z</time>
      </trkpt>
      <trkpt lat="46.765" lon="6.36248">
        <ele>1077</ele>
        <time>2020-08-27T14:55:09Z</time>
      </trkpt>
      <trkpt lat="46.76501" lon="6.36248">
        <ele>1076.7</ele>
        <time>2020-08-27T14:55:10Z</time>
      </trkpt>
      <trkpt lat="46.76503" lon="6.36247">
        <ele>1076.4</ele>
        <time>2020-08-27T14:55:11Z</time>
      </trkpt>
      <trkpt lat="46.76504" lon="6.36245">
        <ele>1076.2</ele>
        <time>2020-08-27T14:55:12Z</time>
      </trkpt>
      <trkpt lat="46.76505" lon="6.36242">
        <ele>1075.9</ele>
        <time>2020-08-27T14:55:13Z</time>
      </trkpt>
      <trkpt lat="46.76504" lon="6.3624">
        <ele>1075.5</ele>
        <time>2020-08-27T14:55:14Z</time>
      </trkpt>
      <trkpt lat="46.76504" lon="6.36237">
        <ele>1075.2</ele>
        <time>2020-08-27T14:55:15Z</time>
      </trkpt>
      <trkpt lat="46.76503" lon="6.36233">
        <ele>1074.9</ele>
        <time>2020-08-27T14:55:16Z</time>
      </trkpt>
      <trkpt lat="46.76502" lon="6.3623">
        <ele>1074.6</ele>
        <time>2020-08-27T14:55:17Z</time>
      </trkpt>
      <trkpt lat="46.76503" lon="6.36228">
        <ele>1074.3</ele>
        <time>2020-08-27T14:55:18Z</time>
      </trkpt>
      <trkpt lat="46.76505" lon="6.36228">
        <ele>1074.1</ele>
        <time>2020-08-27T14:55:19Z</time>
      </trkpt>
      <trkpt lat="46.76507" lon="6.3623">
        <ele>1073.8</ele>
        <time>2020-08-27T14:55:20Z</time>
      </trkpt>
      <trkpt lat="46.76508" lon="6.36233">
        <ele>1073.5</ele>
        <time>2020-08-27T14:55:21Z</time>
      </trkpt>
      <trkpt lat="46.76509" lon="6.36236">
        <ele>1073.2</ele>
        <time>2020-08-27T14:55:22Z</time>
      </trkpt>
      <trkpt lat="46.7651" lon="6.36238">
        <ele>1072.9</ele>
        <time>2020-08-27T14:55:23Z</time>
      </trkpt>
      <trkpt lat="46.76512" lon="6.36239">
        <ele>1072.5</ele>
        <time>2020-08-27T14:55:24Z</time>
      </trkpt>
      <trkpt lat="46.76514" lon="6.36238">
        <ele>1072.2</ele>
        <time>2020-08-27T14:55:25Z</time>
      </trkpt>
      <trkpt lat="46.76515" lon="6.36235">
        <ele>1071.9</ele>
        <time>2020-08-27T14:55:26Z</time>
      </trkpt>
      <trkpt lat="46.76516" lon="6.36231">
        <ele>1071.6</ele>
        <time>2020-08-27T14:55:27Z</time>
      </trkpt>
      <trkpt lat="46.76518" lon="6.36228">
        <ele>1071.4</ele>
        <time>2020-08-27T14:55:28Z</time>
      </trkpt>
      <trkpt lat="46.76519" lon="6.36226">
        <ele>1071.1</ele>
        <time>2020-08-27T14:55:29Z</time>
      </trkpt>
      <trkpt lat="46.76522" lon="6.36226">
        <ele>1070.9</ele>
        <time>2020-08-27T14:55:30Z</time>
      </trkpt>
      <trkpt lat="46.76525" lon="6.36227">
        <ele>1070.6</ele>
        <time>2020-08-27T14:55:31Z</time>
      </trkpt>
      <trkpt lat="46.76527" lon="6.36229">
        <ele>1070.3</ele>
        <time>2020-08-27T14:55:32Z</time>
      </trkpt>
      <trkpt lat="46.76529" lon="6.3623">
        <ele>1070</ele>
        <time>2020-08-27T14:55:33Z</time>
      </trkpt>
      <trkpt lat="46.76532" lon="6.36228">
        <ele>1069.7</ele>
        <time>2020-08-27T14:55:34Z</time>
      </trkpt>
      <trkpt lat="46.76534" lon="6.36226">
        <ele>1069.4</ele>
        <time>2020-08-27T14:55:35Z</time>
      </trkpt>
      <trkpt lat="46.76535" lon="6.36224">
        <ele>1069.2</ele>
        <time>2020-08-27T14:55:36Z</time>
      </trkpt>
      <trkpt lat="46.76536" lon="6.36223">
        <ele>1068.9</ele>
        <time>2020-08-27T14:55:37Z</time>
      </trkpt>
      <trkpt lat="46.76537" lon="6.36221">
        <ele>1068.6</ele>
        <time>2020-08-27T14:55:38Z</time>
      </trkpt>
      <trkpt lat="46.76539" lon="6.36218">
        <ele>1068.2</ele>
        <time>2020-08-27T14:55:39Z</time>
      </trkpt>
      <trkpt lat="46.7654" lon="6.36214">
        <ele>1067.9</ele>
        <time>2020-08-27T14:55:40Z</time>
      </trkpt>
      <trkpt lat="46.76541" lon="6.36209">
        <ele>1067.7</ele>
        <time>2020-08-27T14:55:41Z</time>
      </trkpt>
      <trkpt lat="46.76543" lon="6.36202">
        <ele>1067.4</ele>
        <time>2020-08-27T14:55:42Z</time>
      </trkpt>
      <trkpt lat="46.76544" lon="6.36193">
        <ele>1067.1</ele>
        <time>2020-08-27T14:55:43Z</time>
      </trkpt>
      <trkpt lat="46.76545" lon="6.36187">
        <ele>1066.8</ele>
        <time>2020-08-27T14:55:44Z</time>
      </trkpt>
      <trkpt lat="46.76546" lon="6.36185">
        <ele>1066.5</ele>
        <time>2020-08-27T14:55:45Z</time>
      </trkpt>
      <trkpt lat="46.76547" lon="6.36184">
        <ele>1066.2</ele>
        <time>2020-08-27T14:55:46Z</time>
      </trkpt>
      <trkpt lat="46.76547" lon="6.36184">
        <ele>1066</ele>
        <time>2020-08-27T14:55:47Z</time>
      </trkpt>
      <trkpt lat="46.76548" lon="6.36183">
        <ele>1065.7</ele>
        <time>2020-08-27T14:55:48Z</time>
      </trkpt>
      <trkpt lat="46.76548" lon="6.36183">
        <ele>1065.5</ele>
        <time>2020-08-27T14:55:49Z</time>
      </trkpt>
      <trkpt lat="46.76548" lon="6.36183">
        <ele>1065.2</ele>
        <time>2020-08-27T14:55:50Z</time>
      </trkpt>
      <trkpt lat="46.76548" lon="6.36182">
        <ele>1065</ele>
        <time>2020-08-27T14:55:51Z</time>
      </trkpt>
      <trkpt lat="46.76548" lon="6.36182">
        <ele>1064.7</ele>
        <time>2020-08-27T14:55:52Z</time>
      </trkpt>
      <trkpt lat="46.76549" lon="6.36182">
        <ele>1064.5</ele>
        <time>2020-08-27T14:55:53Z</time>
      </trkpt>
      <trkpt lat="46.76549" lon="6.36181">
        <ele>1064.3</ele>
        <time>2020-08-27T14:55:54Z</time>
      </trkpt>
      <trkpt lat="46.76549" lon="6.36181">
        <ele>1064.1</ele>
        <time>2020-08-27T14:55:55Z</time>
      </trkpt>
      <trkpt lat="46.7655" lon="6.3618">
        <ele>1064</ele>
        <time>2020-08-27T14:55:56Z</time>
      </trkpt>
      <trkpt lat="46.7655" lon="6.3618">
        <ele>1063.8</ele>
        <time>2020-08-27T14:55:57Z</time>
      </trkpt>
      <trkpt lat="46.7655" lon="6.3618">
        <ele>1063.6</ele>
        <time>2020-08-27T14:55:58Z</time>
      </trkpt>
      <trkpt lat="46.7655" lon="6.3618">
        <ele>1063.5</ele>
        <time>2020-08-27T14:55:59Z</time>
      </trkpt>
      <trkpt lat="46.76551" lon="6.3618">
        <ele>1063.4</ele>
        <time>2020-08-27T14:56:00Z</time>
      </trkpt>
      <trkpt lat="46.76551" lon="6.36179">
        <ele>1063.2</ele>
        <time>2020-08-27T14:56:01Z</time>
      </trkpt>
      <trkpt lat="46.76551" lon="6.36179">
        <ele>1063.1</ele>
        <time>2020-08-27T14:56:02Z</time>
      </trkpt>
      <trkpt lat="46.76551" lon="6.36179">
        <ele>1063</ele>
        <time>2020-08-27T14:56:03Z</time>
      </trkpt>
      <trkpt lat="46.76551" lon="6.3618">
        <ele>1062.8</ele>
        <time>2020-08-27T14:56:04Z</time>
      </trkpt>
      <trkpt lat="46.76551" lon="6.3618">
        <ele>1062.7</ele>
        <time>2020-08-27T14:56:05Z</time>
      </trkpt>
      <trkpt lat="46.76551" lon="6.36179">
        <ele>1062.6</ele>
        <time>2020-08-27T14:56:06Z</time>
      </trkpt>
      <trkpt lat="46.76551" lon="6.36179">
        <ele>1062.5</ele>
        <time>2020-08-27T14:56:07Z</time>
      </trkpt>
      <trkpt lat="46.76551" lon="6.36179">
        <ele>1062.4</ele>
        <time>2020-08-27T14:56:08Z</time>
      </trkpt>
      <trkpt lat="46.76551" lon="6.36179">
        <ele>1062.3</ele>
        <time>2020-08-27T14:56:09Z</time>
      </trkpt>
      <trkpt lat="46.76551" lon="6.36179">
        <ele>1062.2</ele>
        <time>2020-08-27T14:56:10Z</time>
      </trkpt>
      <trkpt lat="46.76551" lon="6.36179">
        <ele>1062.1</ele>
        <time>2020-08-27T14:56:11Z</time>
      </trkpt>
      <trkpt lat="46.76551" lon="6.36178">
        <ele>1062</ele>
        <time>2020-08-27T14:56:12Z</time>
      </trkpt>
      <trkpt lat="46.76551" lon="6.36178">
        <ele>1062</ele>
        <time>2020-08-27T14:56:13Z</time>
      </trkpt>
      <trkpt lat="46.76551" lon="6.36179">
        <ele>1061.9</ele>
        <time>2020-08-27T14:56:14Z</time>
      </trkpt>
      <trkpt lat="46.76551" lon="6.36179">
        <ele>1061.8</ele>
        <time>2020-08-27T14:56:15Z</time>
      </trkpt>
      <trkpt lat="46.76551" lon="6.36179">
        <ele>1061.8</ele>
        <time>2020-08-27T14:56:16Z</time>
      </trkpt>
      <trkpt lat="46.76551" lon="6.36179">
        <ele>1061.7</ele>
        <time>2020-08-27T14:56:17Z</time>
      </trkpt>
      <trkpt lat="46.7655" lon="6.36178">
        <ele>1061.6</ele>
        <time>2020-08-27T14:56:18Z</time>
      </trkpt>
      <trkpt lat="46.7655" lon="6.36179">
        <ele>1061.6</ele>
        <time>2020-08-27T14:56:19Z</time>
      </trkpt>
      <trkpt lat="46.7655" lon="6.36179">
        <ele>1061.6</ele>
        <time>2020-08-27T14:56:20Z</time>
      </trkpt>
      <trkpt lat="46.7655" lon="6.36179">
        <ele>1061.5</ele>
        <time>2020-08-27T14:56:21Z</time>
      </trkpt>
      <trkpt lat="46.7655" lon="6.36178">
        <ele>1061.5</ele>
        <time>2020-08-27T14:56:22Z</time>
      </trkpt>
      <trkpt lat="46.7655" lon="6.36178">
        <ele>1061.4</ele>
        <time>2020-08-27T14:56:23Z</time>
      </trkpt>
      <trkpt lat="46.7655" lon="6.36178">
        <ele>1061.4</ele>
        <time>2020-08-27T14:56:24Z</time>
      </trkpt>
      <trkpt lat="46.7655" lon="6.36178">
        <ele>1061.3</ele>
        <time>2020-08-27T14:56:25Z</time>
      </trkpt>
      <trkpt lat="46.7655" lon="6.36178">
        <ele>1061.3</ele>
        <time>2020-08-27T14:56:26Z</time>
      </trkpt>
      <trkpt lat="46.7655" lon="6.36178">
        <ele>1061.3</ele>
        <time>2020-08-27T14:56:27Z</time>
      </trkpt>
      <trkpt lat="46.7655" lon="6.36177">
        <ele>1061.2</ele>
        <time>2020-08-27T14:56:28Z</time>
      </trkpt>
      <trkpt lat="46.7655" lon="6.36177">
        <ele>1061.2</ele>
        <time>2020-08-27T14:56:29Z</time>
      </trkpt>
      <trkpt lat="46.7655" lon="6.36177">
        <ele>1061.2</ele>
        <time>2020-08-27T14:56:30Z</time>
      </trkpt>
      <trkpt lat="46.7655" lon="6.36177">
        <ele>1061.2</ele>
        <time>2020-08-27T14:56:31Z</time>
      </trkpt>
      <trkpt lat="46.7655" lon="6.36177">
        <ele>1061.1</ele>
        <time>2020-08-27T14:56:32Z</time>
      </trkpt>
      <trkpt lat="46.7655" lon="6.36177">
        <ele>1061</ele>
        <time>2020-08-27T14:56:33Z</time>
      </trkpt>
      <trkpt lat="46.7655" lon="6.36177">
        <ele>1060.9</ele>
        <time>2020-08-27T14:56:34Z</time>
      </trkpt>
      <trkpt lat="46.7655" lon="6.36177">
        <ele>1060.9</ele>
        <time>2020-08-27T14:56:35Z</time>
      </trkpt>
      <trkpt lat="46.76551" lon="6.36177">
        <ele>1060.9</ele>
        <time>2020-08-27T14:56:36Z</time>
      </trkpt>
      <trkpt lat="46.76551" lon="6.36177">
        <ele>1060.8</ele>
        <time>2020-08-27T14:56:37Z</time>
      </trkpt>
      <trkpt lat="46.76551" lon="6.36177">
        <ele>1060.8</ele>
        <time>2020-08-27T14:56:38Z</time>
      </trkpt>
      <trkpt lat="46.76551" lon="6.36177">
        <ele>1060.8</ele>
        <time>2020-08-27T14:56:39Z</time>
      </trkpt>
      <trkpt lat="46.76551" lon="6.36177">
        <ele>1060.8</ele>
        <time>2020-08-27T14:56:40Z</time>
      </trkpt>
      <trkpt lat="46.76551" lon="6.36177">
        <ele>1060.8</ele>
        <time>2020-08-27T14:56:41Z</time>
      </trkpt>
      <trkpt lat="46.76551" lon="6.36177">
        <ele>1060.8</ele>
        <time>2020-08-27T14:56:42Z</time>
      </trkpt>
      <trkpt lat="46.76552" lon="6.36176">
        <ele>1060.8</ele>
        <time>2020-08-27T14:56:43Z</time>
      </trkpt>
      <trkpt lat="46.76553" lon="6.36173">
        <ele>1060.8</ele>
        <time>2020-08-27T14:56:44Z</time>
      </trkpt>
      <trkpt lat="46.76554" lon="6.3617">
        <ele>1060.8</ele>
        <time>2020-08-27T14:56:45Z</time>
      </trkpt>
      <trkpt lat="46.76556" lon="6.36166">
        <ele>1060.8</ele>
        <time>2020-08-27T14:56:46Z</time>
      </trkpt>
      <trkpt lat="46.76557" lon="6.36162">
        <ele>1060.7</ele>
        <time>2020-08-27T14:56:47Z</time>
      </trkpt>
      <trkpt lat="46.76558" lon="6.36158">
        <ele>1060.7</ele>
        <time>2020-08-27T14:56:48Z</time>
      </trkpt>
      <trkpt lat="46.76557" lon="6.36155">
        <ele>1060.6</ele>
        <time>2020-08-27T14:56:49Z</time>
      </trkpt>
      <trkpt lat="46.76558" lon="6.3615">
        <ele>1060.5</ele>
        <time>2020-08-27T14:56:50Z</time>
      </trkpt>
      <trkpt lat="46.76557" lon="6.36146">
        <ele>1060.4</ele>
        <time>2020-08-27T14:56:51Z</time>
      </trkpt>
      <trkpt lat="46.76557" lon="6.36143">
        <ele>1060.3</ele>
        <time>2020-08-27T14:56:52Z</time>
      </trkpt>
      <trkpt lat="46.76557" lon="6.36141">
        <ele>1060.2</ele>
        <time>2020-08-27T14:56:53Z</time>
      </trkpt>
      <trkpt lat="46.76557" lon="6.36139">
        <ele>1060.2</ele>
        <time>2020-08-27T14:56:54Z</time>
      </trkpt>
      <trkpt lat="46.76557" lon="6.36137">
        <ele>1060.1</ele>
        <time>2020-08-27T14:56:55Z</time>
      </trkpt>
      <trkpt lat="46.76557" lon="6.36135">
        <ele>1060</ele>
        <time>2020-08-27T14:56:56Z</time>
      </trkpt>
      <trkpt lat="46.76558" lon="6.36132">
        <ele>1060</ele>
        <time>2020-08-27T14:56:57Z</time>
      </trkpt>
      <trkpt lat="46.7656" lon="6.3613">
        <ele>1059.9</ele>
        <time>2020-08-27T14:56:58Z</time>
      </trkpt>
      <trkpt lat="46.76562" lon="6.36129">
        <ele>1059.8</ele>
        <time>2020-08-27T14:56:59Z</time>
      </trkpt>
      <trkpt lat="46.76565" lon="6.3613">
        <ele>1059.6</ele>
        <time>2020-08-27T14:57:00Z</time>
      </trkpt>
      <trkpt lat="46.76567" lon="6.36133">
        <ele>1059.5</ele>
        <time>2020-08-27T14:57:01Z</time>
      </trkpt>
      <trkpt lat="46.76567" lon="6.36136">
        <ele>1059.4</ele>
        <time>2020-08-27T14:57:02Z</time>
      </trkpt>
      <trkpt lat="46.76567" lon="6.36139">
        <ele>1059.2</ele>
        <time>2020-08-27T14:57:03Z</time>
      </trkpt>
      <trkpt lat="46.76567" lon="6.36142">
        <ele>1059.1</ele>
        <time>2020-08-27T14:57:04Z</time>
      </trkpt>
      <trkpt lat="46.76566" lon="6.36144">
        <ele>1059</ele>
        <time>2020-08-27T14:57:05Z</time>
      </trkpt>
      <trkpt lat="46.76565" lon="6.36146">
        <ele>1058.9</ele>
        <time>2020-08-27T14:57:06Z</time>
      </trkpt>
      <trkpt lat="46.76565" lon="6.36148">
        <ele>1058.7</ele>
        <time>2020-08-27T14:57:07Z</time>
      </trkpt>
      <trkpt lat="46.76565" lon="6.3615">
        <ele>1058.6</ele>
        <time>2020-08-27T14:57:08Z</time>
      </trkpt>
      <trkpt lat="46.76567" lon="6.3615">
        <ele>1058.5</ele>
        <time>2020-08-27T14:57:09Z</time>
      </trkpt>
      <trkpt lat="46.76569" lon="6.36148">
        <ele>1058.3</ele>
        <time>2020-08-27T14:57:10Z</time>
      </trkpt>
      <trkpt lat="46.76571" lon="6.36145">
        <ele>1058.2</ele>
        <time>2020-08-27T14:57:11Z</time>
      </trkpt>
      <trkpt lat="46.76572" lon="6.36141">
        <ele>1058.1</ele>
        <time>2020-08-27T14:57:12Z</time>
      </trkpt>
      <trkpt lat="46.76573" lon="6.36136">
        <ele>1058</ele>
        <time>2020-08-27T14:57:13Z</time>
      </trkpt>
      <trkpt lat="46.76574" lon="6.36132">
        <ele>1057.8</ele>
        <time>2020-08-27T14:57:14Z</time>
      </trkpt>
      <trkpt lat="46.76575" lon="6.36129">
        <ele>1057.5</ele>
        <time>2020-08-27T14:57:15Z</time>
      </trkpt>
      <trkpt lat="46.76576" lon="6.36126">
        <ele>1057.3</ele>
        <time>2020-08-27T14:57:16Z</time>
      </trkpt>
      <trkpt lat="46.76576" lon="6.36122">
        <ele>1057</ele>
        <time>2020-08-27T14:57:17Z</time>
      </trkpt>
      <trkpt lat="46.76576" lon="6.36118">
        <ele>1056.7</ele>
        <time>2020-08-27T14:57:18Z</time>
      </trkpt>
      <trkpt lat="46.76575" lon="6.36114">
        <ele>1056.4</ele>
        <time>2020-08-27T14:57:19Z</time>
      </trkpt>
      <trkpt lat="46.76575" lon="6.36111">
        <ele>1056.2</ele>
        <time>2020-08-27T14:57:20Z</time>
      </trkpt>
      <trkpt lat="46.76574" lon="6.36106">
        <ele>1055.9</ele>
        <time>2020-08-27T14:57:21Z</time>
      </trkpt>
      <trkpt lat="46.76573" lon="6.361">
        <ele>1055.7</ele>
        <time>2020-08-27T14:57:22Z</time>
      </trkpt>
      <trkpt lat="46.76572" lon="6.36095">
        <ele>1055.4</ele>
        <time>2020-08-27T14:57:23Z</time>
      </trkpt>
      <trkpt lat="46.76572" lon="6.3609">
        <ele>1055.2</ele>
        <time>2020-08-27T14:57:24Z</time>
      </trkpt>
      <trkpt lat="46.76572" lon="6.36086">
        <ele>1054.9</ele>
        <time>2020-08-27T14:57:25Z</time>
      </trkpt>
      <trkpt lat="46.76572" lon="6.36082">
        <ele>1054.6</ele>
        <time>2020-08-27T14:57:26Z</time>
      </trkpt>
      <trkpt lat="46.76573" lon="6.36079">
        <ele>1054.4</ele>
        <time>2020-08-27T14:57:27Z</time>
      </trkpt>
      <trkpt lat="46.76574" lon="6.36077">
        <ele>1054.1</ele>
        <time>2020-08-27T14:57:28Z</time>
      </trkpt>
      <trkpt lat="46.76576" lon="6.36074">
        <ele>1053.9</ele>
        <time>2020-08-27T14:57:29Z</time>
      </trkpt>
      <trkpt lat="46.76579" lon="6.3607">
        <ele>1053.6</ele>
        <time>2020-08-27T14:57:30Z</time>
      </trkpt>
      <trkpt lat="46.76581" lon="6.36066">
        <ele>1053.4</ele>
        <time>2020-08-27T14:57:31Z</time>
      </trkpt>
      <trkpt lat="46.76584" lon="6.3606">
        <ele>1053</ele>
        <time>2020-08-27T14:57:32Z</time>
      </trkpt>
      <trkpt lat="46.76586" lon="6.36055">
        <ele>1052.7</ele>
        <time>2020-08-27T14:57:33Z</time>
      </trkpt>
      <trkpt lat="46.76588" lon="6.3605">
        <ele>1052.4</ele>
        <time>2020-08-27T14:57:34Z</time>
      </trkpt>
      <trkpt lat="46.76589" lon="6.36044">
        <ele>1052.1</ele>
        <time>2020-08-27T14:57:35Z</time>
      </trkpt>
      <trkpt lat="46.7659" lon="6.36038">
        <ele>1051.8</ele>
        <time>2020-08-27T14:57:36Z</time>
      </trkpt>
      <trkpt lat="46.7659" lon="6.36033">
        <ele>1051.4</ele>
        <time>2020-08-27T14:57:37Z</time>
      </trkpt>
      <trkpt lat="46.7659" lon="6.36029">
        <ele>1051.1</ele>
        <time>2020-08-27T14:57:38Z</time>
      </trkpt>
      <trkpt lat="46.76591" lon="6.36025">
        <ele>1050.8</ele>
        <time>2020-08-27T14:57:39Z</time>
      </trkpt>
      <trkpt lat="46.76593" lon="6.36019">
        <ele>1050.5</ele>
        <time>2020-08-27T14:57:40Z</time>
      </trkpt>
      <trkpt lat="46.76595" lon="6.36013">
        <ele>1050</ele>
        <time>2020-08-27T14:57:41Z</time>
      </trkpt>
      <trkpt lat="46.76596" lon="6.36008">
        <ele>1049.6</ele>
        <time>2020-08-27T14:57:42Z</time>
      </trkpt>
      <trkpt lat="46.76597" lon="6.36002">
        <ele>1049.3</ele>
        <time>2020-08-27T14:57:43Z</time>
      </trkpt>
      <trkpt lat="46.76598" lon="6.35996">
        <ele>1048.9</ele>
        <time>2020-08-27T14:57:44Z</time>
      </trkpt>
      <trkpt lat="46.76599" lon="6.35991">
        <ele>1048.6</ele>
        <time>2020-08-27T14:57:45Z</time>
      </trkpt>
      <trkpt lat="46.76599" lon="6.35985">
        <ele>1048.3</ele>
        <time>2020-08-27T14:57:46Z</time>
      </trkpt>
      <trkpt lat="46.76599" lon="6.35982">
        <ele>1048</ele>
        <time>2020-08-27T14:57:47Z</time>
      </trkpt>
      <trkpt lat="46.76598" lon="6.35979">
        <ele>1047.7</ele>
        <time>2020-08-27T14:57:48Z</time>
      </trkpt>
      <trkpt lat="46.76597" lon="6.35976">
        <ele>1047.4</ele>
        <time>2020-08-27T14:57:49Z</time>
      </trkpt>
      <trkpt lat="46.76596" lon="6.35973">
        <ele>1047.2</ele>
        <time>2020-08-27T14:57:50Z</time>
      </trkpt>
      <trkpt lat="46.76594" lon="6.3597">
        <ele>1047</ele>
        <time>2020-08-27T14:57:51Z</time>
      </trkpt>
      <trkpt lat="46.76592" lon="6.35968">
        <ele>1046.8</ele>
        <time>2020-08-27T14:57:52Z</time>
      </trkpt>
      <trkpt lat="46.7659" lon="6.35965">
        <ele>1046.6</ele>
        <time>2020-08-27T14:57:53Z</time>
      </trkpt>
      <trkpt lat="46.76588" lon="6.35962">
        <ele>1046.4</ele>
        <time>2020-08-27T14:57:54Z</time>
      </trkpt>
      <trkpt lat="46.76585" lon="6.35959">
        <ele>1046.2</ele>
        <time>2020-08-27T14:57:55Z</time>
      </trkpt>
      <trkpt lat="46.76583" lon="6.35957">
        <ele>1046</ele>
        <time>2020-08-27T14:57:56Z</time>
      </trkpt>
      <trkpt lat="46.76581" lon="6.35955">
        <ele>1045.8</ele>
        <time>2020-08-27T14:57:57Z</time>
      </trkpt>
      <trkpt lat="46.76579" lon="6.35952">
        <ele>1045.5</ele>
        <time>2020-08-27T14:57:58Z</time>
      </trkpt>
      <trkpt lat="46.76578" lon="6.35949">
        <ele>1045.3</ele>
        <time>2020-08-27T14:57:59Z</time>
      </trkpt>
      <trkpt lat="46.76576" lon="6.35945">
        <ele>1045</ele>
        <time>2020-08-27T14:58:00Z</time>
      </trkpt>
      <trkpt lat="46.76575" lon="6.35941">
        <ele>1044.8</ele>
        <time>2020-08-27T14:58:01Z</time>
      </trkpt>
      <trkpt lat="46.76575" lon="6.35937">
        <ele>1044.5</ele>
        <time>2020-08-27T14:58:02Z</time>
      </trkpt>
      <trkpt lat="46.76574" lon="6.35932">
        <ele>1044.3</ele>
        <time>2020-08-27T14:58:03Z</time>
      </trkpt>
      <trkpt lat="46.76572" lon="6.35928">
        <ele>1044</ele>
        <time>2020-08-27T14:58:04Z</time>
      </trkpt>
      <trkpt lat="46.76571" lon="6.35926">
        <ele>1043.8</ele>
        <time>2020-08-27T14:58:05Z</time>
      </trkpt>
      <trkpt lat="46.76571" lon="6.35924">
        <ele>1043.5</ele>
        <time>2020-08-27T14:58:06Z</time>
      </trkpt>
      <trkpt lat="46.76571" lon="6.35922">
        <ele>1043.3</ele>
        <time>2020-08-27T14:58:07Z</time>
      </trkpt>
      <trkpt lat="46.76572" lon="6.35919">
        <ele>1043.1</ele>
        <time>2020-08-27T14:58:08Z</time>
      </trkpt>
      <trkpt lat="46.76574" lon="6.35916">
        <ele>1042.9</ele>
        <time>2020-08-27T14:58:09Z</time>
      </trkpt>
      <trkpt lat="46.76575" lon="6.35911">
        <ele>1042.7</ele>
        <time>2020-08-27T14:58:10Z</time>
      </trkpt>
      <trkpt lat="46.76576" lon="6.35907">
        <ele>1042.5</ele>
        <time>2020-08-27T14:58:11Z</time>
      </trkpt>
      <trkpt lat="46.76576" lon="6.35903">
        <ele>1042.3</ele>
        <time>2020-08-27T14:58:12Z</time>
      </trkpt>
      <trkpt lat="46.76576" lon="6.35899">
        <ele>1042.1</ele>
        <time>2020-08-27T14:58:13Z</time>
      </trkpt>
      <trkpt lat="46.76577" lon="6.35896">
        <ele>1041.9</ele>
        <time>2020-08-27T14:58:14Z</time>
      </trkpt>
      <trkpt lat="46.76577" lon="6.35893">
        <ele>1041.6</ele>
        <time>2020-08-27T14:58:15Z</time>
      </trkpt>
      <trkpt lat="46.76578" lon="6.35891">
        <ele>1041.4</ele>
        <time>2020-08-27T14:58:16Z</time>
      </trkpt>
      <trkpt lat="46.76579" lon="6.35889">
        <ele>1041</ele>
        <time>2020-08-27T14:58:17Z</time>
      </trkpt>
      <trkpt lat="46.76581" lon="6.35885">
        <ele>1040.7</ele>
        <time>2020-08-27T14:58:18Z</time>
      </trkpt>
      <trkpt lat="46.76582" lon="6.35882">
        <ele>1040.3</ele>
        <time>2020-08-27T14:58:19Z</time>
      </trkpt>
      <trkpt lat="46.76583" lon="6.35877">
        <ele>1040</ele>
        <time>2020-08-27T14:58:20Z</time>
      </trkpt>
      <trkpt lat="46.76583" lon="6.35873">
        <ele>1039.7</ele>
        <time>2020-08-27T14:58:21Z</time>
      </trkpt>
      <trkpt lat="46.76582" lon="6.35869">
        <ele>1039.5</ele>
        <time>2020-08-27T14:58:22Z</time>
      </trkpt>
      <trkpt lat="46.76582" lon="6.35865">
        <ele>1039.2</ele>
        <time>2020-08-27T14:58:23Z</time>
      </trkpt>
      <trkpt lat="46.76582" lon="6.35863">
        <ele>1039</ele>
        <time>2020-08-27T14:58:24Z</time>
      </trkpt>
      <trkpt lat="46.76582" lon="6.35861">
        <ele>1038.7</ele>
        <time>2020-08-27T14:58:25Z</time>
      </trkpt>
      <trkpt lat="46.76583" lon="6.35859">
        <ele>1038.5</ele>
        <time>2020-08-27T14:58:26Z</time>
      </trkpt>
      <trkpt lat="46.76584" lon="6.35856">
        <ele>1038.3</ele>
        <time>2020-08-27T14:58:27Z</time>
      </trkpt>
      <trkpt lat="46.76587" lon="6.35852">
        <ele>1038.1</ele>
        <time>2020-08-27T14:58:28Z</time>
      </trkpt>
      <trkpt lat="46.76589" lon="6.35849">
        <ele>1037.8</ele>
        <time>2020-08-27T14:58:29Z</time>
      </trkpt>
      <trkpt lat="46.76592" lon="6.35846">
        <ele>1037.5</ele>
        <time>2020-08-27T14:58:30Z</time>
      </trkpt>
      <trkpt lat="46.76595" lon="6.35842">
        <ele>1037.2</ele>
        <time>2020-08-27T14:58:31Z</time>
      </trkpt>
      <trkpt lat="46.76598" lon="6.35839">
        <ele>1037</ele>
        <time>2020-08-27T14:58:32Z</time>
      </trkpt>
      <trkpt lat="46.766" lon="6.35835">
        <ele>1036.6</ele>
        <time>2020-08-27T14:58:33Z</time>
      </trkpt>
      <trkpt lat="46.76603" lon="6.35831">
        <ele>1036.2</ele>
        <time>2020-08-27T14:58:34Z</time>
      </trkpt>
      <trkpt lat="46.76605" lon="6.35827">
        <ele>1035.9</ele>
        <time>2020-08-27T14:58:35Z</time>
      </trkpt>
      <trkpt lat="46.76606" lon="6.35824">
        <ele>1035.6</ele>
        <time>2020-08-27T14:58:36Z</time>
      </trkpt>
      <trkpt lat="46.76608" lon="6.35821">
        <ele>1035.3</ele>
        <time>2020-08-27T14:58:37Z</time>
      </trkpt>
      <trkpt lat="46.7661" lon="6.35819">
        <ele>1035.1</ele>
        <time>2020-08-27T14:58:38Z</time>
      </trkpt>
      <trkpt lat="46.76612" lon="6.35817">
        <ele>1034.8</ele>
        <time>2020-08-27T14:58:39Z</time>
      </trkpt>
      <trkpt lat="46.76613" lon="6.35816">
        <ele>1034.6</ele>
        <time>2020-08-27T14:58:40Z</time>
      </trkpt>
      <trkpt lat="46.76615" lon="6.35817">
        <ele>1034.4</ele>
        <time>2020-08-27T14:58:41Z</time>
      </trkpt>
      <trkpt lat="46.76617" lon="6.35818">
        <ele>1034.2</ele>
        <time>2020-08-27T14:58:42Z</time>
      </trkpt>
      <trkpt lat="46.76617" lon="6.3582">
        <ele>1034</ele>
        <time>2020-08-27T14:58:43Z</time>
      </trkpt>
      <trkpt lat="46.76617" lon="6.35822">
        <ele>1033.8</ele>
        <time>2020-08-27T14:58:44Z</time>
      </trkpt>
      <trkpt lat="46.76616" lon="6.35823">
        <ele>1033.6</ele>
        <time>2020-08-27T14:58:45Z</time>
      </trkpt>
      <trkpt lat="46.76617" lon="6.35825">
        <ele>1033.5</ele>
        <time>2020-08-27T14:58:46Z</time>
      </trkpt>
      <trkpt lat="46.76617" lon="6.35827">
        <ele>1033.4</ele>
        <time>2020-08-27T14:58:47Z</time>
      </trkpt>
      <trkpt lat="46.76618" lon="6.35829">
        <ele>1033.2</ele>
        <time>2020-08-27T14:58:48Z</time>
      </trkpt>
      <trkpt lat="46.7662" lon="6.35831">
        <ele>1033</ele>
        <time>2020-08-27T14:58:49Z</time>
      </trkpt>
      <trkpt lat="46.76622" lon="6.35831">
        <ele>1032.8</ele>
        <time>2020-08-27T14:58:50Z</time>
      </trkpt>
      <trkpt lat="46.76625" lon="6.35831">
        <ele>1032.6</ele>
        <time>2020-08-27T14:58:51Z</time>
      </trkpt>
      <trkpt lat="46.76629" lon="6.35831">
        <ele>1032.4</ele>
        <time>2020-08-27T14:58:52Z</time>
      </trkpt>
      <trkpt lat="46.76633" lon="6.3583">
        <ele>1032.1</ele>
        <time>2020-08-27T14:58:53Z</time>
      </trkpt>
      <trkpt lat="46.76637" lon="6.3583">
        <ele>1031.9</ele>
        <time>2020-08-27T14:58:54Z</time>
      </trkpt>
      <trkpt lat="46.76641" lon="6.35829">
        <ele>1031.6</ele>
        <time>2020-08-27T14:58:55Z</time>
      </trkpt>
      <trkpt lat="46.76645" lon="6.35828">
        <ele>1031.4</ele>
        <time>2020-08-27T14:58:56Z</time>
      </trkpt>
      <trkpt lat="46.76648" lon="6.35828">
        <ele>1031.1</ele>
        <time>2020-08-27T14:58:57Z</time>
      </trkpt>
      <trkpt lat="46.7665" lon="6.35828">
        <ele>1030.9</ele>
        <time>2020-08-27T14:58:58Z</time>
      </trkpt>
      <trkpt lat="46.76653" lon="6.35828">
        <ele>1030.6</ele>
        <time>2020-08-27T14:58:59Z</time>
      </trkpt>
      <trkpt lat="46.76656" lon="6.35828">
        <ele>1030.4</ele>
        <time>2020-08-27T14:59:00Z</time>
      </trkpt>
      <trkpt lat="46.76659" lon="6.35827">
        <ele>1030.2</ele>
        <time>2020-08-27T14:59:01Z</time>
      </trkpt>
      <trkpt lat="46.76661" lon="6.35826">
        <ele>1030</ele>
        <time>2020-08-27T14:59:02Z</time>
      </trkpt>
      <trkpt lat="46.76664" lon="6.35824">
        <ele>1029.9</ele>
        <time>2020-08-27T14:59:03Z</time>
      </trkpt>
      <trkpt lat="46.76667" lon="6.35822">
        <ele>1029.7</ele>
        <time>2020-08-27T14:59:04Z</time>
      </trkpt>
      <trkpt lat="46.7667" lon="6.35819">
        <ele>1029.6</ele>
        <time>2020-08-27T14:59:05Z</time>
      </trkpt>
      <trkpt lat="46.76672" lon="6.35816">
        <ele>1029.4</ele>
        <time>2020-08-27T14:59:06Z</time>
      </trkpt>
      <trkpt lat="46.76674" lon="6.35813">
        <ele>1029.3</ele>
        <time>2020-08-27T14:59:07Z</time>
      </trkpt>
      <trkpt lat="46.76675" lon="6.3581">
        <ele>1029.2</ele>
        <time>2020-08-27T14:59:08Z</time>
      </trkpt>
      <trkpt lat="46.76677" lon="6.35808">
        <ele>1029.1</ele>
        <time>2020-08-27T14:59:09Z</time>
      </trkpt>
      <trkpt lat="46.76678" lon="6.35806">
        <ele>1028.9</ele>
        <time>2020-08-27T14:59:10Z</time>
      </trkpt>
      <trkpt lat="46.76679" lon="6.35803">
        <ele>1028.8</ele>
        <time>2020-08-27T14:59:11Z</time>
      </trkpt>
      <trkpt lat="46.7668" lon="6.358">
        <ele>1028.7</ele>
        <time>2020-08-27T14:59:12Z</time>
      </trkpt>
      <trkpt lat="46.7668" lon="6.35797">
        <ele>1028.7</ele>
        <time>2020-08-27T14:59:13Z</time>
      </trkpt>
      <trkpt lat="46.7668" lon="6.35794">
        <ele>1028.6</ele>
        <time>2020-08-27T14:59:14Z</time>
      </trkpt>
      <trkpt lat="46.7668" lon="6.35792">
        <ele>1028.5</ele>
        <time>2020-08-27T14:59:15Z</time>
      </trkpt>
      <trkpt lat="46.76681" lon="6.3579">
        <ele>1028.4</ele>
        <time>2020-08-27T14:59:16Z</time>
      </trkpt>
      <trkpt lat="46.76681" lon="6.35788">
        <ele>1028.2</ele>
        <time>2020-08-27T14:59:17Z</time>
      </trkpt>
      <trkpt lat="46.76681" lon="6.35787">
        <ele>1028.1</ele>
        <time>2020-08-27T14:59:18Z</time>
      </trkpt>
      <trkpt lat="46.76682" lon="6.35785">
        <ele>1028</ele>
        <time>2020-08-27T14:59:19Z</time>
      </trkpt>
      <trkpt lat="46.76683" lon="6.35784">
        <ele>1027.8</ele>
        <time>2020-08-27T14:59:20Z</time>
      </trkpt>
      <trkpt lat="46.76685" lon="6.35783">
        <ele>1027.7</ele>
        <time>2020-08-27T14:59:21Z</time>
      </trkpt>
      <trkpt lat="46.76687" lon="6.35781">
        <ele>1027.6</ele>
        <time>2020-08-27T14:59:22Z</time>
      </trkpt>
      <trkpt lat="46.76689" lon="6.3578">
        <ele>1027.5</ele>
        <time>2020-08-27T14:59:23Z</time>
      </trkpt>
      <trkpt lat="46.7669" lon="6.35779">
        <ele>1027.3</ele>
        <time>2020-08-27T14:59:24Z</time>
      </trkpt>
      <trkpt lat="46.76691" lon="6.35778">
        <ele>1027.2</ele>
        <time>2020-08-27T14:59:25Z</time>
      </trkpt>
      <trkpt lat="46.76694" lon="6.35776">
        <ele>1027.1</ele>
        <time>2020-08-27T14:59:26Z</time>
      </trkpt>
      <trkpt lat="46.76697" lon="6.35773">
        <ele>1027</ele>
        <time>2020-08-27T14:59:27Z</time>
      </trkpt>
      <trkpt lat="46.767" lon="6.35769">
        <ele>1026.7</ele>
        <time>2020-08-27T14:59:28Z</time>
      </trkpt>
      <trkpt lat="46.76703" lon="6.35766">
        <ele>1026.4</ele>
        <time>2020-08-27T14:59:29Z</time>
      </trkpt>
      <trkpt lat="46.76706" lon="6.35762">
        <ele>1026</ele>
        <time>2020-08-27T14:59:30Z</time>
      </trkpt>
      <trkpt lat="46.76709" lon="6.35759">
        <ele>1025.6</ele>
        <time>2020-08-27T14:59:31Z</time>
      </trkpt>
      <trkpt lat="46.76712" lon="6.35757">
        <ele>1025.3</ele>
        <time>2020-08-27T14:59:32Z</time>
      </trkpt>
      <trkpt lat="46.76715" lon="6.35756">
        <ele>1025</ele>
        <time>2020-08-27T14:59:33Z</time>
      </trkpt>
      <trkpt lat="46.76719" lon="6.35756">
        <ele>1024.7</ele>
        <time>2020-08-27T14:59:34Z</time>
      </trkpt>
      <trkpt lat="46.76723" lon="6.35757">
        <ele>1024.4</ele>
        <time>2020-08-27T14:59:35Z</time>
      </trkpt>
      <trkpt lat="46.76728" lon="6.35758">
        <ele>1024.1</ele>
        <time>2020-08-27T14:59:36Z</time>
      </trkpt>
      <trkpt lat="46.76733" lon="6.35759">
        <ele>1023.9</ele>
        <time>2020-08-27T14:59:37Z</time>
      </trkpt>
      <trkpt lat="46.76738" lon="6.35759">
        <ele>1023.6</ele>
        <time>2020-08-27T14:59:38Z</time>
      </trkpt>
      <trkpt lat="46.76745" lon="6.35757">
        <ele>1023.3</ele>
        <time>2020-08-27T14:59:39Z</time>
      </trkpt>
      <trkpt lat="46.76751" lon="6.35754">
        <ele>1023</ele>
        <time>2020-08-27T14:59:40Z</time>
      </trkpt>
      <trkpt lat="46.76758" lon="6.35751">
        <ele>1022.7</ele>
        <time>2020-08-27T14:59:41Z</time>
      </trkpt>
      <trkpt lat="46.76765" lon="6.35747">
        <ele>1022.2</ele>
        <time>2020-08-27T14:59:42Z</time>
      </trkpt>
      <trkpt lat="46.76772" lon="6.35743">
        <ele>1021.7</ele>
        <time>2020-08-27T14:59:43Z</time>
      </trkpt>
      <trkpt lat="46.76776" lon="6.3574">
        <ele>1021.3</ele>
        <time>2020-08-27T14:59:44Z</time>
      </trkpt>
      <trkpt lat="46.76778" lon="6.35738">
        <ele>1020.8</ele>
        <time>2020-08-27T14:59:45Z</time>
      </trkpt>
      <trkpt lat="46.76778" lon="6.35738">
        <ele>1020.5</ele>
        <time>2020-08-27T14:59:46Z</time>
      </trkpt>
      <trkpt lat="46.76778" lon="6.35738">
        <ele>1020.1</ele>
        <time>2020-08-27T14:59:47Z</time>
      </trkpt>
      <trkpt lat="46.76778" lon="6.35738">
        <ele>1019.8</ele>
        <time>2020-08-27T14:59:48Z</time>
      </trkpt>
      <trkpt lat="46.76778" lon="6.35738">
        <ele>1019.4</ele>
        <time>2020-08-27T14:59:49Z</time>
      </trkpt>
      <trkpt lat="46.76778" lon="6.35738">
        <ele>1019.1</ele>
        <time>2020-08-27T14:59:50Z</time>
      </trkpt>
      <trkpt lat="46.76778" lon="6.35738">
        <ele>1018.8</ele>
        <time>2020-08-27T14:59:51Z</time>
      </trkpt>
      <trkpt lat="46.76779" lon="6.35738">
        <ele>1018.6</ele>
        <time>2020-08-27T14:59:52Z</time>
      </trkpt>
      <trkpt lat="46.76779" lon="6.35738">
        <ele>1018.3</ele>
        <time>2020-08-27T14:59:53Z</time>
      </trkpt>
      <trkpt lat="46.76779" lon="6.35738">
        <ele>1018.1</ele>
        <time>2020-08-27T14:59:54Z</time>
      </trkpt>
      <trkpt lat="46.76779" lon="6.35738">
        <ele>1017.9</ele>
        <time>2020-08-27T14:59:55Z</time>
      </trkpt>
      <trkpt lat="46.76779" lon="6.35738">
        <ele>1017.7</ele>
        <time>2020-08-27T14:59:56Z</time>
      </trkpt>
      <trkpt lat="46.76779" lon="6.35738">
        <ele>1017.5</ele>
        <time>2020-08-27T14:59:57Z</time>
      </trkpt>
      <trkpt lat="46.76779" lon="6.35738">
        <ele>1017.3</ele>
        <time>2020-08-27T14:59:58Z</time>
      </trkpt>
      <trkpt lat="46.76779" lon="6.35738">
        <ele>1017.1</ele>
        <time>2020-08-27T14:59:59Z</time>
      </trkpt>
      <trkpt lat="46.76779" lon="6.35737">
        <ele>1017</ele>
        <time>2020-08-27T15:00:00Z</time>
      </trkpt>
      <trkpt lat="46.76779" lon="6.35737">
        <ele>1016.8</ele>
        <time>2020-08-27T15:00:01Z</time>
      </trkpt>
      <trkpt lat="46.76779" lon="6.35737">
        <ele>1016.7</ele>
        <time>2020-08-27T15:00:02Z</time>
      </trkpt>
      <trkpt lat="46.76779" lon="6.35737">
        <ele>1016.5</ele>
        <time>2020-08-27T15:00:03Z</time>
      </trkpt>
      <trkpt lat="46.76779" lon="6.35737">
        <ele>1016.4</ele>
        <time>2020-08-27T15:00:04Z</time>
      </trkpt>
      <trkpt lat="46.76779" lon="6.35737">
        <ele>1016.3</ele>
        <time>2020-08-27T15:00:05Z</time>
      </trkpt>
      <trkpt lat="46.76779" lon="6.35737">
        <ele>1016.2</ele>
        <time>2020-08-27T15:00:06Z</time>
      </trkpt>
      <trkpt lat="46.76779" lon="6.35737">
        <ele>1016.1</ele>
        <time>2020-08-27T15:00:07Z</time>
      </trkpt>
      <trkpt lat="46.76779" lon="6.35737">
        <ele>1016</ele>
        <time>2020-08-27T15:00:08Z</time>
      </trkpt>
      <trkpt lat="46.76779" lon="6.35737">
        <ele>1016</ele>
        <time>2020-08-27T15:00:09Z</time>
      </trkpt>
      <trkpt lat="46.76779" lon="6.35737">
        <ele>1015.9</ele>
        <time>2020-08-27T15:00:10Z</time>
      </trkpt>
      <trkpt lat="46.76779" lon="6.35737">
        <ele>1015.8</ele>
        <time>2020-08-27T15:00:11Z</time>
      </trkpt>
      <trkpt lat="46.76779" lon="6.35737">
        <ele>1015.8</ele>
        <time>2020-08-27T15:00:12Z</time>
      </trkpt>
      <trkpt lat="46.76779" lon="6.35737">
        <ele>1015.7</ele>
        <time>2020-08-27T15:00:13Z</time>
      </trkpt>
      <trkpt lat="46.76779" lon="6.35737">
        <ele>1015.7</ele>
        <time>2020-08-27T15:00:14Z</time>
      </trkpt>
      <trkpt lat="46.76779" lon="6.35737">
        <ele>1015.6</ele>
        <time>2020-08-27T15:00:15Z</time>
      </trkpt>
      <trkpt lat="46.76779" lon="6.35737">
        <ele>1015.6</ele>
        <time>2020-08-27T15:00:16Z</time>
      </trkpt>
      <trkpt lat="46.76779" lon="6.35737">
        <ele>1015.5</ele>
        <time>2020-08-27T15:00:17Z</time>
      </trkpt>
      <trkpt lat="46.76779" lon="6.35737">
        <ele>1015.5</ele>
        <time>2020-08-27T15:00:18Z</time>
      </trkpt>
      <trkpt lat="46.76779" lon="6.35737">
        <ele>1015.4</ele>
        <time>2020-08-27T15:00:19Z</time>
      </trkpt>
      <trkpt lat="46.76779" lon="6.35737">
        <ele>1015.4</ele>
        <time>2020-08-27T15:00:20Z</time>
      </trkpt>
      <trkpt lat="46.76779" lon="6.35737">
        <ele>1015.3</ele>
        <time>2020-08-27T15:00:21Z</time>
      </trkpt>
      <trkpt lat="46.76779" lon="6.35737">
        <ele>1015.3</ele>
        <time>2020-08-27T15:00:22Z</time>
      </trkpt>
      <trkpt lat="46.76779" lon="6.35737">
        <ele>1015.3</ele>
        <time>2020-08-27T15:00:23Z</time>
      </trkpt>
      <trkpt lat="46.76779" lon="6.35737">
        <ele>1015.2</ele>
        <time>2020-08-27T15:00:24Z</time>
      </trkpt>
      <trkpt lat="46.76779" lon="6.35737">
        <ele>1015.2</ele>
        <time>2020-08-27T15:00:25Z</time>
      </trkpt>
      <trkpt lat="46.76779" lon="6.35737">
        <ele>1015.2</ele>
        <time>2020-08-27T15:00:26Z</time>
      </trkpt>
      <trkpt lat="46.76779" lon="6.35737">
        <ele>1015.1</ele>
        <time>2020-08-27T15:00:27Z</time>
      </trkpt>
      <trkpt lat="46.76779" lon="6.35737">
        <ele>1015.1</ele>
        <time>2020-08-27T15:00:28Z</time>
      </trkpt>
      <trkpt lat="46.76779" lon="6.35737">
        <ele>1015.1</ele>
        <time>2020-08-27T15:00:29Z</time>
      </trkpt>
      <trkpt lat="46.76779" lon="6.35737">
        <ele>1015.1</ele>
        <time>2020-08-27T15:00:30Z</time>
      </trkpt>
      <trkpt lat="46.76779" lon="6.35737">
        <ele>1015.1</ele>
        <time>2020-08-27T15:00:31Z</time>
      </trkpt>
      <trkpt lat="46.76779" lon="6.35737">
        <ele>1015</ele>
        <time>2020-08-27T15:00:32Z</time>
      </trkpt>
      <trkpt lat="46.76779" lon="6.35737">
        <ele>1015</ele>
        <time>2020-08-27T15:00:33Z</time>
      </trkpt>
      <trkpt lat="46.76779" lon="6.35737">
        <ele>1015</ele>
        <time>2020-08-27T15:00:34Z</time>
      </trkpt>
      <trkpt lat="46.76779" lon="6.35737">
        <ele>1015</ele>
        <time>2020-08-27T15:00:35Z</time>
      </trkpt>
      <trkpt lat="46.76779" lon="6.35738">
        <ele>1015</ele>
        <time>2020-08-27T15:00:36Z</time>
      </trkpt>
      <trkpt lat="46.76779" lon="6.35738">
        <ele>1015</ele>
        <time>2020-08-27T15:00:37Z</time>
      </trkpt>
      <trkpt lat="46.7678" lon="6.35738">
        <ele>1014.9</ele>
        <time>2020-08-27T15:00:38Z</time>
      </trkpt>
      <trkpt lat="46.7678" lon="6.35738">
        <ele>1014.9</ele>
        <time>2020-08-27T15:00:39Z</time>
      </trkpt>
      <trkpt lat="46.7678" lon="6.35738">
        <ele>1014.9</ele>
        <time>2020-08-27T15:00:40Z</time>
      </trkpt>
      <trkpt lat="46.7678" lon="6.35738">
        <ele>1014.9</ele>
        <time>2020-08-27T15:00:41Z</time>
      </trkpt>
      <trkpt lat="46.7678" lon="6.35738">
        <ele>1014.9</ele>
        <time>2020-08-27T15:00:42Z</time>
      </trkpt>
      <trkpt lat="46.7678" lon="6.35738">
        <ele>1014.9</ele>
        <time>2020-08-27T15:00:43Z</time>
      </trkpt>
      <trkpt lat="46.7678" lon="6.35737">
        <ele>1014.9</ele>
        <time>2020-08-27T15:00:44Z</time>
      </trkpt>
      <trkpt lat="46.76781" lon="6.35738">
        <ele>1014.9</ele>
        <time>2020-08-27T15:00:45Z</time>
      </trkpt>
      <trkpt lat="46.76781" lon="6.35738">
        <ele>1014.9</ele>
        <time>2020-08-27T15:00:46Z</time>
      </trkpt>
      <trkpt lat="46.76782" lon="6.35738">
        <ele>1014.9</ele>
        <time>2020-08-27T15:00:47Z</time>
      </trkpt>
      <trkpt lat="46.76782" lon="6.35738">
        <ele>1014.8</ele>
        <time>2020-08-27T15:00:48Z</time>
      </trkpt>
      <trkpt lat="46.76782" lon="6.35738">
        <ele>1014.8</ele>
        <time>2020-08-27T15:00:49Z</time>
      </trkpt>
      <trkpt lat="46.76782" lon="6.35738">
        <ele>1014.8</ele>
        <time>2020-08-27T15:00:50Z</time>
      </trkpt>
      <trkpt lat="46.76782" lon="6.35738">
        <ele>1014.8</ele>
        <time>2020-08-27T15:00:51Z</time>
      </trkpt>
      <trkpt lat="46.76782" lon="6.35738">
        <ele>1014.8</ele>
        <time>2020-08-27T15:00:52Z</time>
      </trkpt>
      <trkpt lat="46.76782" lon="6.35738">
        <ele>1014.8</ele>
        <time>2020-08-27T15:00:53Z</time>
      </trkpt>
      <trkpt lat="46.76783" lon="6.35738">
        <ele>1014.8</ele>
        <time>2020-08-27T15:00:54Z</time>
      </trkpt>
      <trkpt lat="46.76783" lon="6.35738">
        <ele>1014.8</ele>
        <time>2020-08-27T15:00:55Z</time>
      </trkpt>
      <trkpt lat="46.76784" lon="6.35739">
        <ele>1014.8</ele>
        <time>2020-08-27T15:00:56Z</time>
      </trkpt>
      <trkpt lat="46.76785" lon="6.35738">
        <ele>1014.8</ele>
        <time>2020-08-27T15:00:57Z</time>
      </trkpt>
      <trkpt lat="46.76785" lon="6.35738">
        <ele>1014.8</ele>
        <time>2020-08-27T15:00:58Z</time>
      </trkpt>
      <trkpt lat="46.76786" lon="6.35738">
        <ele>1014.8</ele>
        <time>2020-08-27T15:00:59Z</time>
      </trkpt>
      <trkpt lat="46.76787" lon="6.35738">
        <ele>1014.8</ele>
        <time>2020-08-27T15:01:00Z</time>
      </trkpt>
      <trkpt lat="46.76788" lon="6.35738">
        <ele>1014.8</ele>
        <time>2020-08-27T15:01:01Z</time>
      </trkpt>
      <trkpt lat="46.76788" lon="6.35738">
        <ele>1014.8</ele>
        <time>2020-08-27T15:01:02Z</time>
      </trkpt>
      <trkpt lat="46.76789" lon="6.35738">
        <ele>1014.8</ele>
        <time>2020-08-27T15:01:03Z</time>
      </trkpt>
      <trkpt lat="46.7679" lon="6.35737">
        <ele>1014.8</ele>
        <time>2020-08-27T15:01:04Z</time>
      </trkpt>
      <trkpt lat="46.76791" lon="6.35737">
        <ele>1014.8</ele>
        <time>2020-08-27T15:01:05Z</time>
      </trkpt>
      <trkpt lat="46.76792" lon="6.35737">
        <ele>1014.9</ele>
        <time>2020-08-27T15:01:06Z</time>
      </trkpt>
      <trkpt lat="46.76793" lon="6.35736">
        <ele>1014.9</ele>
        <time>2020-08-27T15:01:07Z</time>
      </trkpt>
      <trkpt lat="46.76794" lon="6.35736">
        <ele>1014.9</ele>
        <time>2020-08-27T15:01:08Z</time>
      </trkpt>
      <trkpt lat="46.76794" lon="6.35735">
        <ele>1014.9</ele>
        <time>2020-08-27T15:01:09Z</time>
      </trkpt>
      <trkpt lat="46.76795" lon="6.35734">
        <ele>1014.9</ele>
        <time>2020-08-27T15:01:10Z</time>
      </trkpt>
      <trkpt lat="46.76796" lon="6.35734">
        <ele>1014.9</ele>
        <time>2020-08-27T15:01:11Z</time>
      </trkpt>
      <trkpt lat="46.76796" lon="6.35733">
        <ele>1014.9</ele>
        <time>2020-08-27T15:01:12Z</time>
      </trkpt>
      <trkpt lat="46.76797" lon="6.35732">
        <ele>1014.9</ele>
        <time>2020-08-27T15:01:13Z</time>
      </trkpt>
      <trkpt lat="46.76798" lon="6.35731">
        <ele>1014.9</ele>
        <time>2020-08-27T15:01:14Z</time>
      </trkpt>
      <trkpt lat="46.76799" lon="6.35731">
        <ele>1015</ele>
        <time>2020-08-27T15:01:15Z</time>
      </trkpt>
      <trkpt lat="46.768" lon="6.3573">
        <ele>1015</ele>
        <time>2020-08-27T15:01:16Z</time>
      </trkpt>
      <trkpt lat="46.768" lon="6.35729">
        <ele>1015</ele>
        <time>2020-08-27T15:01:17Z</time>
      </trkpt>
      <trkpt lat="46.76801" lon="6.35729">
        <ele>1015</ele>
        <time>2020-08-27T15:01:18Z</time>
      </trkpt>
      <trkpt lat="46.76802" lon="6.35728">
        <ele>1015.1</ele>
        <time>2020-08-27T15:01:19Z</time>
      </trkpt>
      <trkpt lat="46.76803" lon="6.35728">
        <ele>1015</ele>
        <time>2020-08-27T15:01:20Z</time>
      </trkpt>
      <trkpt lat="46.76804" lon="6.35728">
        <ele>1014.9</ele>
        <time>2020-08-27T15:01:21Z</time>
      </trkpt>
      <trkpt lat="46.76805" lon="6.35727">
        <ele>1014.9</ele>
        <time>2020-08-27T15:01:22Z</time>
      </trkpt>
      <trkpt lat="46.76805" lon="6.35727">
        <ele>1014.8</ele>
        <time>2020-08-27T15:01:23Z</time>
      </trkpt>
      <trkpt lat="46.76806" lon="6.35727">
        <ele>1014.8</ele>
        <time>2020-08-27T15:01:24Z</time>
      </trkpt>
      <trkpt lat="46.76806" lon="6.35727">
        <ele>1014.8</ele>
        <time>2020-08-27T15:01:25Z</time>
      </trkpt>
      <trkpt lat="46.76807" lon="6.35727">
        <ele>1014.7</ele>
        <time>2020-08-27T15:01:26Z</time>
      </trkpt>
      <trkpt lat="46.76807" lon="6.35727">
        <ele>1014.7</ele>
        <time>2020-08-27T15:01:27Z</time>
      </trkpt>
      <trkpt lat="46.76807" lon="6.35727">
        <ele>1014.7</ele>
        <time>2020-08-27T15:01:28Z</time>
      </trkpt>
      <trkpt lat="46.76808" lon="6.35727">
        <ele>1014.7</ele>
        <time>2020-08-27T15:01:29Z</time>
      </trkpt>
      <trkpt lat="46.76809" lon="6.35727">
        <ele>1014.6</ele>
        <time>2020-08-27T15:01:30Z</time>
      </trkpt>
      <trkpt lat="46.76809" lon="6.35727">
        <ele>1014.6</ele>
        <time>2020-08-27T15:01:31Z</time>
      </trkpt>
      <trkpt lat="46.7681" lon="6.35727">
        <ele>1014.6</ele>
        <time>2020-08-27T15:01:32Z</time>
      </trkpt>
      <trkpt lat="46.76811" lon="6.35727">
        <ele>1014.6</ele>
        <time>2020-08-27T15:01:33Z</time>
      </trkpt>
      <trkpt lat="46.76812" lon="6.35726">
        <ele>1014.6</ele>
        <time>2020-08-27T15:01:34Z</time>
      </trkpt>
      <trkpt lat="46.76813" lon="6.35726">
        <ele>1014.6</ele>
        <time>2020-08-27T15:01:35Z</time>
      </trkpt>
      <trkpt lat="46.76814" lon="6.35726">
        <ele>1014.6</ele>
        <time>2020-08-27T15:01:36Z</time>
      </trkpt>
      <trkpt lat="46.76815" lon="6.35725">
        <ele>1014.7</ele>
        <time>2020-08-27T15:01:37Z</time>
      </trkpt>
      <trkpt lat="46.76816" lon="6.35725">
        <ele>1014.7</ele>
        <time>2020-08-27T15:01:38Z</time>
      </trkpt>
      <trkpt lat="46.76817" lon="6.35725">
        <ele>1014.7</ele>
        <time>2020-08-27T15:01:39Z</time>
      </trkpt>
      <trkpt lat="46.76818" lon="6.35724">
        <ele>1014.7</ele>
        <time>2020-08-27T15:01:40Z</time>
      </trkpt>
      <trkpt lat="46.76819" lon="6.35724">
        <ele>1014.7</ele>
        <time>2020-08-27T15:01:41Z</time>
      </trkpt>
      <trkpt lat="46.7682" lon="6.35723">
        <ele>1014.7</ele>
        <time>2020-08-27T15:01:42Z</time>
      </trkpt>
      <trkpt lat="46.7682" lon="6.35723">
        <ele>1014.7</ele>
        <time>2020-08-27T15:01:43Z</time>
      </trkpt>
      <trkpt lat="46.76821" lon="6.35722">
        <ele>1014.7</ele>
        <time>2020-08-27T15:01:44Z</time>
      </trkpt>
      <trkpt lat="46.76822" lon="6.35722">
        <ele>1014.7</ele>
        <time>2020-08-27T15:01:45Z</time>
      </trkpt>
      <trkpt lat="46.76823" lon="6.35722">
        <ele>1014.7</ele>
        <time>2020-08-27T15:01:46Z</time>
      </trkpt>
      <trkpt lat="46.76824" lon="6.35721">
        <ele>1014.7</ele>
        <time>2020-08-27T15:01:47Z</time>
      </trkpt>
      <trkpt lat="46.76824" lon="6.35721">
        <ele>1014.7</ele>
        <time>2020-08-27T15:01:48Z</time>
      </trkpt>
      <trkpt lat="46.76825" lon="6.3572">
        <ele>1014.7</ele>
        <time>2020-08-27T15:01:49Z</time>
      </trkpt>
      <trkpt lat="46.76826" lon="6.3572">
        <ele>1014.7</ele>
        <time>2020-08-27T15:01:50Z</time>
      </trkpt>
      <trkpt lat="46.76827" lon="6.35719">
        <ele>1014.7</ele>
        <time>2020-08-27T15:01:51Z</time>
      </trkpt>
      <trkpt lat="46.76828" lon="6.35719">
        <ele>1014.7</ele>
        <time>2020-08-27T15:01:52Z</time>
      </trkpt>
      <trkpt lat="46.76829" lon="6.35718">
        <ele>1014.7</ele>
        <time>2020-08-27T15:01:53Z</time>
      </trkpt>
      <trkpt lat="46.7683" lon="6.35718">
        <ele>1014.7</ele>
        <time>2020-08-27T15:01:54Z</time>
      </trkpt>
      <trkpt lat="46.76831" lon="6.35717">
        <ele>1014.7</ele>
        <time>2020-08-27T15:01:55Z</time>
      </trkpt>
      <trkpt lat="46.76832" lon="6.35717">
        <ele>1014.7</ele>
        <time>2020-08-27T15:01:56Z</time>
      </trkpt>
      <trkpt lat="46.76833" lon="6.35716">
        <ele>1014.7</ele>
        <time>2020-08-27T15:01:57Z</time>
      </trkpt>
      <trkpt lat="46.76833" lon="6.35716">
        <ele>1014.6</ele>
        <time>2020-08-27T15:01:58Z</time>
      </trkpt>
      <trkpt lat="46.76834" lon="6.35715">
        <ele>1014.6</ele>
        <time>2020-08-27T15:01:59Z</time>
      </trkpt>
      <trkpt lat="46.76835" lon="6.35714">
        <ele>1014.6</ele>
        <time>2020-08-27T15:02:00Z</time>
      </trkpt>
      <trkpt lat="46.76836" lon="6.35714">
        <ele>1014.5</ele>
        <time>2020-08-27T15:02:01Z</time>
      </trkpt>
      <trkpt lat="46.76837" lon="6.35713">
        <ele>1014.5</ele>
        <time>2020-08-27T15:02:02Z</time>
      </trkpt>
      <trkpt lat="46.76837" lon="6.35713">
        <ele>1014.5</ele>
        <time>2020-08-27T15:02:03Z</time>
      </trkpt>
      <trkpt lat="46.76838" lon="6.35712">
        <ele>1014.5</ele>
        <time>2020-08-27T15:02:04Z</time>
      </trkpt>
      <trkpt lat="46.76839" lon="6.35712">
        <ele>1014.4</ele>
        <time>2020-08-27T15:02:05Z</time>
      </trkpt>
      <trkpt lat="46.7684" lon="6.35711">
        <ele>1014.4</ele>
        <time>2020-08-27T15:02:06Z</time>
      </trkpt>
      <trkpt lat="46.7684" lon="6.3571">
        <ele>1014.4</ele>
        <time>2020-08-27T15:02:07Z</time>
      </trkpt>
      <trkpt lat="46.76841" lon="6.35709">
        <ele>1014.3</ele>
        <time>2020-08-27T15:02:08Z</time>
      </trkpt>
      <trkpt lat="46.76842" lon="6.35709">
        <ele>1014.2</ele>
        <time>2020-08-27T15:02:09Z</time>
      </trkpt>
      <trkpt lat="46.76842" lon="6.35708">
        <ele>1014.2</ele>
        <time>2020-08-27T15:02:10Z</time>
      </trkpt>
      <trkpt lat="46.76843" lon="6.35708">
        <ele>1014.1</ele>
        <time>2020-08-27T15:02:11Z</time>
      </trkpt>
      <trkpt lat="46.76843" lon="6.35707">
        <ele>1014</ele>
        <time>2020-08-27T15:02:12Z</time>
      </trkpt>
      <trkpt lat="46.76844" lon="6.35706">
        <ele>1014</ele>
        <time>2020-08-27T15:02:13Z</time>
      </trkpt>
      <trkpt lat="46.76845" lon="6.35706">
        <ele>1013.9</ele>
        <time>2020-08-27T15:02:14Z</time>
      </trkpt>
      <trkpt lat="46.76845" lon="6.35705">
        <ele>1013.8</ele>
        <time>2020-08-27T15:02:15Z</time>
      </trkpt>
      <trkpt lat="46.76846" lon="6.35704">
        <ele>1013.8</ele>
        <time>2020-08-27T15:02:16Z</time>
      </trkpt>
      <trkpt lat="46.76847" lon="6.35703">
        <ele>1013.7</ele>
        <time>2020-08-27T15:02:17Z</time>
      </trkpt>
      <trkpt lat="46.76847" lon="6.35702">
        <ele>1013.7</ele>
        <time>2020-08-27T15:02:18Z</time>
      </trkpt>
      <trkpt lat="46.76847" lon="6.35701">
        <ele>1013.6</ele>
        <time>2020-08-27T15:02:19Z</time>
      </trkpt>
      <trkpt lat="46.76847" lon="6.357">
        <ele>1013.4</ele>
        <time>2020-08-27T15:02:20Z</time>
      </trkpt>
      <trkpt lat="46.76847" lon="6.357">
        <ele>1013.3</ele>
        <time>2020-08-27T15:02:21Z</time>
      </trkpt>
      <trkpt lat="46.76847" lon="6.35699">
        <ele>1013.2</ele>
        <time>2020-08-27T15:02:22Z</time>
      </trkpt>
      <trkpt lat="46.76848" lon="6.35698">
        <ele>1013.1</ele>
        <time>2020-08-27T15:02:23Z</time>
      </trkpt>
      <trkpt lat="46.76848" lon="6.35697">
        <ele>1013</ele>
        <time>2020-08-27T15:02:24Z</time>
      </trkpt>
      <trkpt lat="46.76848" lon="6.35696">
        <ele>1012.9</ele>
        <time>2020-08-27T15:02:25Z</time>
      </trkpt>
      <trkpt lat="46.76848" lon="6.35695">
        <ele>1012.8</ele>
        <time>2020-08-27T15:02:26Z</time>
      </trkpt>
      <trkpt lat="46.76849" lon="6.35694">
        <ele>1012.8</ele>
        <time>2020-08-27T15:02:27Z</time>
      </trkpt>
      <trkpt lat="46.76849" lon="6.35693">
        <ele>1012.7</ele>
        <time>2020-08-27T15:02:28Z</time>
      </trkpt>
      <trkpt lat="46.76849" lon="6.35693">
        <ele>1012.6</ele>
        <time>2020-08-27T15:02:29Z</time>
      </trkpt>
      <trkpt lat="46.76849" lon="6.35692">
        <ele>1012.5</ele>
        <time>2020-08-27T15:02:30Z</time>
      </trkpt>
      <trkpt lat="46.7685" lon="6.35692">
        <ele>1012.5</ele>
        <time>2020-08-27T15:02:31Z</time>
      </trkpt>
      <trkpt lat="46.76851" lon="6.35691">
        <ele>1012.4</ele>
        <time>2020-08-27T15:02:32Z</time>
      </trkpt>
      <trkpt lat="46.76851" lon="6.3569">
        <ele>1012.4</ele>
        <time>2020-08-27T15:02:33Z</time>
      </trkpt>
      <trkpt lat="46.76852" lon="6.3569">
        <ele>1012.3</ele>
        <time>2020-08-27T15:02:34Z</time>
      </trkpt>
      <trkpt lat="46.76853" lon="6.35689">
        <ele>1012.3</ele>
        <time>2020-08-27T15:02:35Z</time>
      </trkpt>
      <trkpt lat="46.76854" lon="6.35688">
        <ele>1012.3</ele>
        <time>2020-08-27T15:02:36Z</time>
      </trkpt>
      <trkpt lat="46.76855" lon="6.35687">
        <ele>1012.3</ele>
        <time>2020-08-27T15:02:37Z</time>
      </trkpt>
      <trkpt lat="46.76856" lon="6.35687">
        <ele>1012.2</ele>
        <time>2020-08-27T15:02:38Z</time>
      </trkpt>
      <trkpt lat="46.76856" lon="6.35686">
        <ele>1012.2</ele>
        <time>2020-08-27T15:02:39Z</time>
      </trkpt>
      <trkpt lat="46.76857" lon="6.35686">
        <ele>1012.2</ele>
        <time>2020-08-27T15:02:40Z</time>
      </trkpt>
      <trkpt lat="46.76858" lon="6.35685">
        <ele>1012.1</ele>
        <time>2020-08-27T15:02:41Z</time>
      </trkpt>
      <trkpt lat="46.76859" lon="6.35684">
        <ele>1012.1</ele>
        <time>2020-08-27T15:02:42Z</time>
      </trkpt>
      <trkpt lat="46.7686" lon="6.35683">
        <ele>1012</ele>
        <time>2020-08-27T15:02:43Z</time>
      </trkpt>
      <trkpt lat="46.7686" lon="6.35682">
        <ele>1012</ele>
        <time>2020-08-27T15:02:44Z</time>
      </trkpt>
      <trkpt lat="46.76861" lon="6.35681">
        <ele>1012</ele>
        <time>2020-08-27T15:02:45Z</time>
      </trkpt>
      <trkpt lat="46.76862" lon="6.3568">
        <ele>1011.9</ele>
        <time>2020-08-27T15:02:46Z</time>
      </trkpt>
      <trkpt lat="46.76863" lon="6.3568">
        <ele>1011.8</ele>
        <time>2020-08-27T15:02:47Z</time>
      </trkpt>
      <trkpt lat="46.76863" lon="6.35679">
        <ele>1011.7</ele>
        <time>2020-08-27T15:02:48Z</time>
      </trkpt>
      <trkpt lat="46.76864" lon="6.35678">
        <ele>1011.6</ele>
        <time>2020-08-27T15:02:49Z</time>
      </trkpt>
      <trkpt lat="46.76864" lon="6.35677">
        <ele>1011.5</ele>
        <time>2020-08-27T15:02:50Z</time>
      </trkpt>
      <trkpt lat="46.76865" lon="6.35677">
        <ele>1011.4</ele>
        <time>2020-08-27T15:02:51Z</time>
      </trkpt>
      <trkpt lat="46.76865" lon="6.35676">
        <ele>1011.4</ele>
        <time>2020-08-27T15:02:52Z</time>
      </trkpt>
      <trkpt lat="46.76866" lon="6.35676">
        <ele>1011.3</ele>
        <time>2020-08-27T15:02:53Z</time>
      </trkpt>
      <trkpt lat="46.76866" lon="6.35676">
        <ele>1011.3</ele>
        <time>2020-08-27T15:02:54Z</time>
      </trkpt>
      <trkpt lat="46.76867" lon="6.35676">
        <ele>1011.3</ele>
        <time>2020-08-27T15:02:55Z</time>
      </trkpt>
      <trkpt lat="46.76867" lon="6.35676">
        <ele>1011.3</ele>
        <time>2020-08-27T15:02:56Z</time>
      </trkpt>
      <trkpt lat="46.76867" lon="6.35676">
        <ele>1011.3</ele>
        <time>2020-08-27T15:02:57Z</time>
      </trkpt>
      <trkpt lat="46.76868" lon="6.35676">
        <ele>1011.2</ele>
        <time>2020-08-27T15:02:58Z</time>
      </trkpt>
      <trkpt lat="46.76868" lon="6.35677">
        <ele>1011.2</ele>
        <time>2020-08-27T15:02:59Z</time>
      </trkpt>
      <trkpt lat="46.76868" lon="6.35677">
        <ele>1011.2</ele>
        <time>2020-08-27T15:03:00Z</time>
      </trkpt>
      <trkpt lat="46.76868" lon="6.35677">
        <ele>1011.2</ele>
        <time>2020-08-27T15:03:01Z</time>
      </trkpt>
      <trkpt lat="46.76868" lon="6.35677">
        <ele>1011.2</ele>
        <time>2020-08-27T15:03:02Z</time>
      </trkpt>
      <trkpt lat="46.76868" lon="6.35677">
        <ele>1011.2</ele>
        <time>2020-08-27T15:03:03Z</time>
      </trkpt>
      <trkpt lat="46.76868" lon="6.35677">
        <ele>1011.2</ele>
        <time>2020-08-27T15:03:04Z</time>
      </trkpt>
      <trkpt lat="46.76868" lon="6.35677">
        <ele>1011.2</ele>
        <time>2020-08-27T15:03:05Z</time>
      </trkpt>
      <trkpt lat="46.76868" lon="6.35677">
        <ele>1011.2</ele>
        <time>2020-08-27T15:03:06Z</time>
      </trkpt>
      <trkpt lat="46.76868" lon="6.35677">
        <ele>1011.2</ele>
        <time>2020-08-27T15:03:07Z</time>
      </trkpt>
      <trkpt lat="46.76868" lon="6.35677">
        <ele>1011.2</ele>
        <time>2020-08-27T15:03:08Z</time>
      </trkpt>
      <trkpt lat="46.76868" lon="6.35677">
        <ele>1011.1</ele>
        <time>2020-08-27T15:03:09Z</time>
      </trkpt>
      <trkpt lat="46.76868" lon="6.35677">
        <ele>1011.1</ele>
        <time>2020-08-27T15:03:10Z</time>
      </trkpt>
      <trkpt lat="46.76868" lon="6.35677">
        <ele>1011</ele>
        <time>2020-08-27T15:03:11Z</time>
      </trkpt>
      <trkpt lat="46.76868" lon="6.35677">
        <ele>1011</ele>
        <time>2020-08-27T15:03:12Z</time>
      </trkpt>
      <trkpt lat="46.76868" lon="6.35677">
        <ele>1010.9</ele>
        <time>2020-08-27T15:03:13Z</time>
      </trkpt>
      <trkpt lat="46.76868" lon="6.35677">
        <ele>1010.9</ele>
        <time>2020-08-27T15:03:14Z</time>
      </trkpt>
      <trkpt lat="46.76868" lon="6.35677">
        <ele>1010.9</ele>
        <time>2020-08-27T15:03:15Z</time>
      </trkpt>
      <trkpt lat="46.76868" lon="6.35677">
        <ele>1010.8</ele>
        <time>2020-08-27T15:03:16Z</time>
      </trkpt>
      <trkpt lat="46.76869" lon="6.35678">
        <ele>1010.8</ele>
        <time>2020-08-27T15:03:17Z</time>
      </trkpt>
      <trkpt lat="46.7687" lon="6.35677">
        <ele>1010.8</ele>
        <time>2020-08-27T15:03:18Z</time>
      </trkpt>
      <trkpt lat="46.7687" lon="6.35677">
        <ele>1010.7</ele>
        <time>2020-08-27T15:03:19Z</time>
      </trkpt>
      <trkpt lat="46.76871" lon="6.35677">
        <ele>1010.7</ele>
        <time>2020-08-27T15:03:20Z</time>
      </trkpt>
      <trkpt lat="46.76872" lon="6.35678">
        <ele>1010.7</ele>
        <time>2020-08-27T15:03:21Z</time>
      </trkpt>
      <trkpt lat="46.76873" lon="6.35678">
        <ele>1010.7</ele>
        <time>2020-08-27T15:03:22Z</time>
      </trkpt>
      <trkpt lat="46.76874" lon="6.35679">
        <ele>1010.7</ele>
        <time>2020-08-27T15:03:23Z</time>
      </trkpt>
      <trkpt lat="46.76875" lon="6.35679">
        <ele>1010.7</ele>
        <time>2020-08-27T15:03:24Z</time>
      </trkpt>
      <trkpt lat="46.76876" lon="6.3568">
        <ele>1010.7</ele>
        <time>2020-08-27T15:03:25Z</time>
      </trkpt>
      <trkpt lat="46.76877" lon="6.3568">
        <ele>1010.6</ele>
        <time>2020-08-27T15:03:26Z</time>
      </trkpt>
      <trkpt lat="46.76878" lon="6.35681">
        <ele>1010.6</ele>
        <time>2020-08-27T15:03:27Z</time>
      </trkpt>
      <trkpt lat="46.76879" lon="6.35681">
        <ele>1010.6</ele>
        <time>2020-08-27T15:03:28Z</time>
      </trkpt>
      <trkpt lat="46.7688" lon="6.35681">
        <ele>1010.6</ele>
        <time>2020-08-27T15:03:29Z</time>
      </trkpt>
      <trkpt lat="46.76881" lon="6.35682">
        <ele>1010.6</ele>
        <time>2020-08-27T15:03:30Z</time>
      </trkpt>
      <trkpt lat="46.76882" lon="6.35682">
        <ele>1010.6</ele>
        <time>2020-08-27T15:03:31Z</time>
      </trkpt>
      <trkpt lat="46.76883" lon="6.35682">
        <ele>1010.6</ele>
        <time>2020-08-27T15:03:32Z</time>
      </trkpt>
      <trkpt lat="46.76885" lon="6.35682">
        <ele>1010.5</ele>
        <time>2020-08-27T15:03:33Z</time>
      </trkpt>
      <trkpt lat="46.76885" lon="6.35683">
        <ele>1010.5</ele>
        <time>2020-08-27T15:03:34Z</time>
      </trkpt>
      <trkpt lat="46.76886" lon="6.35683">
        <ele>1010.5</ele>
        <time>2020-08-27T15:03:35Z</time>
      </trkpt>
      <trkpt lat="46.76887" lon="6.35683">
        <ele>1010.5</ele>
        <time>2020-08-27T15:03:36Z</time>
      </trkpt>
      <trkpt lat="46.76889" lon="6.35684">
        <ele>1010.4</ele>
        <time>2020-08-27T15:03:37Z</time>
      </trkpt>
      <trkpt lat="46.7689" lon="6.35684">
        <ele>1010.4</ele>
        <time>2020-08-27T15:03:38Z</time>
      </trkpt>
      <trkpt lat="46.76891" lon="6.35684">
        <ele>1010.4</ele>
        <time>2020-08-27T15:03:39Z</time>
      </trkpt>
      <trkpt lat="46.76892" lon="6.35684">
        <ele>1010.3</ele>
        <time>2020-08-27T15:03:40Z</time>
      </trkpt>
      <trkpt lat="46.76893" lon="6.35684">
        <ele>1010.3</ele>
        <time>2020-08-27T15:03:41Z</time>
      </trkpt>
      <trkpt lat="46.76895" lon="6.35684">
        <ele>1010.3</ele>
        <time>2020-08-27T15:03:42Z</time>
      </trkpt>
      <trkpt lat="46.76896" lon="6.35684">
        <ele>1010.2</ele>
        <time>2020-08-27T15:03:43Z</time>
      </trkpt>
      <trkpt lat="46.76897" lon="6.35684">
        <ele>1010.2</ele>
        <time>2020-08-27T15:03:44Z</time>
      </trkpt>
      <trkpt lat="46.76898" lon="6.35684">
        <ele>1010.2</ele>
        <time>2020-08-27T15:03:45Z</time>
      </trkpt>
      <trkpt lat="46.76899" lon="6.35683">
        <ele>1010.2</ele>
        <time>2020-08-27T15:03:46Z</time>
      </trkpt>
      <trkpt lat="46.769" lon="6.35682">
        <ele>1010.2</ele>
        <time>2020-08-27T15:03:47Z</time>
      </trkpt>
      <trkpt lat="46.76901" lon="6.3568">
        <ele>1010.1</ele>
        <time>2020-08-27T15:03:48Z</time>
      </trkpt>
      <trkpt lat="46.76902" lon="6.35679">
        <ele>1010.1</ele>
        <time>2020-08-27T15:03:49Z</time>
      </trkpt>
      <trkpt lat="46.76903" lon="6.35678">
        <ele>1010.1</ele>
        <time>2020-08-27T15:03:50Z</time>
      </trkpt>
      <trkpt lat="46.76904" lon="6.35676">
        <ele>1010.1</ele>
        <time>2020-08-27T15:03:51Z</time>
      </trkpt>
      <trkpt lat="46.76904" lon="6.35675">
        <ele>1010.1</ele>
        <time>2020-08-27T15:03:52Z</time>
      </trkpt>
      <trkpt lat="46.76905" lon="6.35674">
        <ele>1010.1</ele>
        <time>2020-08-27T15:03:53Z</time>
      </trkpt>
      <trkpt lat="46.76905" lon="6.35672">
        <ele>1009.9</ele>
        <time>2020-08-27T15:03:54Z</time>
      </trkpt>
      <trkpt lat="46.76906" lon="6.35671">
        <ele>1009.8</ele>
        <time>2020-08-27T15:03:55Z</time>
      </trkpt>
      <trkpt lat="46.76907" lon="6.3567">
        <ele>1009.7</ele>
        <time>2020-08-27T15:03:56Z</time>
      </trkpt>
      <trkpt lat="46.76907" lon="6.35668">
        <ele>1009.7</ele>
        <time>2020-08-27T15:03:57Z</time>
      </trkpt>
      <trkpt lat="46.76908" lon="6.35667">
        <ele>1009.6</ele>
        <time>2020-08-27T15:03:58Z</time>
      </trkpt>
      <trkpt lat="46.76909" lon="6.35666">
        <ele>1009.6</ele>
        <time>2020-08-27T15:03:59Z</time>
      </trkpt>
      <trkpt lat="46.7691" lon="6.35665">
        <ele>1009.5</ele>
        <time>2020-08-27T15:04:00Z</time>
      </trkpt>
      <trkpt lat="46.76911" lon="6.35664">
        <ele>1009.5</ele>
        <time>2020-08-27T15:04:01Z</time>
      </trkpt>
      <trkpt lat="46.76912" lon="6.35662">
        <ele>1009.5</ele>
        <time>2020-08-27T15:04:02Z</time>
      </trkpt>
      <trkpt lat="46.76913" lon="6.35661">
        <ele>1009.4</ele>
        <time>2020-08-27T15:04:03Z</time>
      </trkpt>
      <trkpt lat="46.76914" lon="6.3566">
        <ele>1009.4</ele>
        <time>2020-08-27T15:04:04Z</time>
      </trkpt>
      <trkpt lat="46.76915" lon="6.35659">
        <ele>1009.4</ele>
        <time>2020-08-27T15:04:05Z</time>
      </trkpt>
      <trkpt lat="46.76916" lon="6.35657">
        <ele>1009.3</ele>
        <time>2020-08-27T15:04:06Z</time>
      </trkpt>
      <trkpt lat="46.76916" lon="6.35656">
        <ele>1009.3</ele>
        <time>2020-08-27T15:04:07Z</time>
      </trkpt>
      <trkpt lat="46.76917" lon="6.35655">
        <ele>1009.3</ele>
        <time>2020-08-27T15:04:08Z</time>
      </trkpt>
      <trkpt lat="46.76918" lon="6.35654">
        <ele>1009.3</ele>
        <time>2020-08-27T15:04:09Z</time>
      </trkpt>
      <trkpt lat="46.76919" lon="6.35653">
        <ele>1009.2</ele>
        <time>2020-08-27T15:04:10Z</time>
      </trkpt>
      <trkpt lat="46.7692" lon="6.35652">
        <ele>1009.2</ele>
        <time>2020-08-27T15:04:11Z</time>
      </trkpt>
      <trkpt lat="46.76921" lon="6.3565">
        <ele>1009.2</ele>
        <time>2020-08-27T15:04:12Z</time>
      </trkpt>
      <trkpt lat="46.76922" lon="6.35649">
        <ele>1009.2</ele>
        <time>2020-08-27T15:04:13Z</time>
      </trkpt>
      <trkpt lat="46.76923" lon="6.35648">
        <ele>1009.2</ele>
        <time>2020-08-27T15:04:14Z</time>
      </trkpt>
      <trkpt lat="46.76923" lon="6.35646">
        <ele>1009.1</ele>
        <time>2020-08-27T15:04:15Z</time>
      </trkpt>
      <trkpt lat="46.76924" lon="6.35645">
        <ele>1009.1</ele>
        <time>2020-08-27T15:04:16Z</time>
      </trkpt>
      <trkpt lat="46.76925" lon="6.35643">
        <ele>1009</ele>
        <time>2020-08-27T15:04:17Z</time>
      </trkpt>
      <trkpt lat="46.76925" lon="6.35642">
        <ele>1009</ele>
        <time>2020-08-27T15:04:18Z</time>
      </trkpt>
      <trkpt lat="46.76926" lon="6.35641">
        <ele>1008.9</ele>
        <time>2020-08-27T15:04:19Z</time>
      </trkpt>
      <trkpt lat="46.76927" lon="6.3564">
        <ele>1008.9</ele>
        <time>2020-08-27T15:04:20Z</time>
      </trkpt>
      <trkpt lat="46.76928" lon="6.3564">
        <ele>1008.8</ele>
        <time>2020-08-27T15:04:21Z</time>
      </trkpt>
      <trkpt lat="46.76929" lon="6.35639">
        <ele>1008.8</ele>
        <time>2020-08-27T15:04:22Z</time>
      </trkpt>
      <trkpt lat="46.7693" lon="6.35638">
        <ele>1008.8</ele>
        <time>2020-08-27T15:04:23Z</time>
      </trkpt>
      <trkpt lat="46.76931" lon="6.35637">
        <ele>1008.7</ele>
        <time>2020-08-27T15:04:24Z</time>
      </trkpt>
      <trkpt lat="46.76932" lon="6.35637">
        <ele>1008.7</ele>
        <time>2020-08-27T15:04:25Z</time>
      </trkpt>
      <trkpt lat="46.76933" lon="6.35636">
        <ele>1008.7</ele>
        <time>2020-08-27T15:04:26Z</time>
      </trkpt>
      <trkpt lat="46.76934" lon="6.35635">
        <ele>1008.7</ele>
        <time>2020-08-27T15:04:27Z</time>
      </trkpt>
      <trkpt lat="46.76935" lon="6.35634">
        <ele>1008.6</ele>
        <time>2020-08-27T15:04:28Z</time>
      </trkpt>
      <trkpt lat="46.76936" lon="6.35633">
        <ele>1008.6</ele>
        <time>2020-08-27T15:04:29Z</time>
      </trkpt>
      <trkpt lat="46.76937" lon="6.35632">
        <ele>1008.6</ele>
        <time>2020-08-27T15:04:30Z</time>
      </trkpt>
      <trkpt lat="46.76938" lon="6.35631">
        <ele>1008.5</ele>
        <time>2020-08-27T15:04:31Z</time>
      </trkpt>
      <trkpt lat="46.76939" lon="6.35631">
        <ele>1008.5</ele>
        <time>2020-08-27T15:04:32Z</time>
      </trkpt>
      <trkpt lat="46.76939" lon="6.35629">
        <ele>1008.5</ele>
        <time>2020-08-27T15:04:33Z</time>
      </trkpt>
      <trkpt lat="46.7694" lon="6.35628">
        <ele>1008.5</ele>
        <time>2020-08-27T15:04:34Z</time>
      </trkpt>
      <trkpt lat="46.76941" lon="6.35627">
        <ele>1008.4</ele>
        <time>2020-08-27T15:04:35Z</time>
      </trkpt>
      <trkpt lat="46.76942" lon="6.35626">
        <ele>1008.4</ele>
        <time>2020-08-27T15:04:36Z</time>
      </trkpt>
      <trkpt lat="46.76943" lon="6.35625">
        <ele>1008.4</ele>
        <time>2020-08-27T15:04:37Z</time>
      </trkpt>
      <trkpt lat="46.76943" lon="6.35624">
        <ele>1008.4</ele>
        <time>2020-08-27T15:04:38Z</time>
      </trkpt>
      <trkpt lat="46.76944" lon="6.35623">
        <ele>1008.4</ele>
        <time>2020-08-27T15:04:39Z</time>
      </trkpt>
      <trkpt lat="46.76945" lon="6.35622">
        <ele>1008.3</ele>
        <time>2020-08-27T15:04:40Z</time>
      </trkpt>
      <trkpt lat="46.76946" lon="6.35621">
        <ele>1008.3</ele>
        <time>2020-08-27T15:04:41Z</time>
      </trkpt>
      <trkpt lat="46.76946" lon="6.3562">
        <ele>1008.3</ele>
        <time>2020-08-27T15:04:42Z</time>
      </trkpt>
      <trkpt lat="46.76947" lon="6.35619">
        <ele>1008.3</ele>
        <time>2020-08-27T15:04:43Z</time>
      </trkpt>
      <trkpt lat="46.76948" lon="6.35618">
        <ele>1008.3</ele>
        <time>2020-08-27T15:04:44Z</time>
      </trkpt>
      <trkpt lat="46.76948" lon="6.35616">
        <ele>1008.3</ele>
        <time>2020-08-27T15:04:45Z</time>
      </trkpt>
      <trkpt lat="46.76949" lon="6.35615">
        <ele>1008.3</ele>
        <time>2020-08-27T15:04:46Z</time>
      </trkpt>
      <trkpt lat="46.76949" lon="6.35613">
        <ele>1008.2</ele>
        <time>2020-08-27T15:04:47Z</time>
      </trkpt>
      <trkpt lat="46.76949" lon="6.35613">
        <ele>1008.2</ele>
        <time>2020-08-27T15:04:48Z</time>
      </trkpt>
      <trkpt lat="46.76949" lon="6.35612">
        <ele>1008.2</ele>
        <time>2020-08-27T15:04:49Z</time>
      </trkpt>
      <trkpt lat="46.76949" lon="6.35612">
        <ele>1008.1</ele>
        <time>2020-08-27T15:04:50Z</time>
      </trkpt>
      <trkpt lat="46.76949" lon="6.35612">
        <ele>1008.1</ele>
        <time>2020-08-27T15:04:51Z</time>
      </trkpt>
      <trkpt lat="46.76949" lon="6.35612">
        <ele>1008.1</ele>
        <time>2020-08-27T15:04:52Z</time>
      </trkpt>
      <trkpt lat="46.76949" lon="6.35612">
        <ele>1008</ele>
        <time>2020-08-27T15:04:53Z</time>
      </trkpt>
      <trkpt lat="46.76949" lon="6.35612">
        <ele>1008</ele>
        <time>2020-08-27T15:04:54Z</time>
      </trkpt>
      <trkpt lat="46.76949" lon="6.35612">
        <ele>1008</ele>
        <time>2020-08-27T15:04:55Z</time>
      </trkpt>
      <trkpt lat="46.76949" lon="6.35612">
        <ele>1008</ele>
        <time>2020-08-27T15:04:55Z</time>
      </trkpt>
      <trkpt lat="46.76949" lon="6.35613">
        <ele>1008</ele>
        <time>2020-08-27T15:04:56Z</time>
      </trkpt>
      <trkpt lat="46.76949" lon="6.35613">
        <ele>1008</ele>
        <time>2020-08-27T15:04:56Z</time>
      </trkpt>
    </trkseg>
  </trk>
</gpx>